<?xml version="1.0" encoding="UTF-8" standalone="yes"?>
<gpx
 xmlns="http://www.topografix.com/GPX/1/1"
 creator="OziExplorer Version 3956f - http://www.oziexplorer.com"
 version="1.1"
 xmlns:xsi="http://www.w3.org/2001/XMLSchema-instance"
 xsi:schemaLocation="http://www.topografix.com/GPX/1/1 http://www.topografix.com/GPX/1/1/gpx.xsd">
<metadata>
 <time>2017-11-22T06:00:13Z</time>
 <bounds minlat="30.961215" minlon="34.875537" maxlat="31.000209" maxlon="34.974945"/>
</metadata>
<wpt lat="30.9794591" lon="34.8896206">
 <ele>488.000031</ele>
 <time>2017-11-22T07:01:12.237Z</time>
 <name>3-Helminiot</name>
 <sym>Flag, Blue</sym>
</wpt>
<wpt lat="30.9745980" lon="34.8873383">
 <ele>516.000000</ele>
 <time>2017-11-22T07:01:12.259Z</time>
 <name>2-Helminiot</name>
 <sym>Flag, Blue</sym>
</wpt>
<wpt lat="30.9715043" lon="34.8767531">
 <ele>623.000000</ele>
 <time>2017-11-22T07:01:12.260Z</time>
 <name>1-Tatspit</name>
 <sym>Scenic Area</sym>
</wpt>
<wpt lat="30.9888198" lon="34.9114886">
 <ele>465.000000</ele>
 <time>2017-11-22T07:01:12.260Z</time>
 <name>0-Start/Finish</name>
 <sym>Bike Trail</sym>
</wpt>
<trk>
 <name>Yruham+helmoniot</name>
 <desc>Yruham+helmoniot</desc>
<trkseg>
<trkpt lat="30.9890535" lon="34.9124453">
<ele>463.399994</ele>
<time>2015-10-30T06:29:24.000Z</time>
</trkpt>
<trkpt lat="30.9891320" lon="34.9124651">
<ele>463.399994</ele>
<time>2015-10-30T06:32:00.000Z</time>
</trkpt>
<trkpt lat="30.9892345" lon="34.9124404">
<ele>463.399994</ele>
<time>2015-10-30T06:32:06.000Z</time>
</trkpt>
<trkpt lat="30.9892869" lon="34.9123519">
<ele>463.200012</ele>
<time>2015-10-30T06:32:10.000Z</time>
</trkpt>
<trkpt lat="30.9893909" lon="34.9123164">
<ele>462.799988</ele>
<time>2015-10-30T06:32:15.000Z</time>
</trkpt>
<trkpt lat="30.9895055" lon="34.9123080">
<ele>462.399994</ele>
<time>2015-10-30T06:32:18.000Z</time>
</trkpt>
<trkpt lat="30.9896120" lon="34.9122973">
<ele>462.200043</ele>
<time>2015-10-30T06:32:21.000Z</time>
</trkpt>
<trkpt lat="30.9897138" lon="34.9123215">
<ele>462.000000</ele>
<time>2015-10-30T06:32:25.000Z</time>
</trkpt>
<trkpt lat="30.9897946" lon="34.9122531">
<ele>461.600006</ele>
<time>2015-10-30T06:32:30.000Z</time>
</trkpt>
<trkpt lat="30.9898035" lon="34.9121391">
<ele>461.200012</ele>
<time>2015-10-30T06:32:34.000Z</time>
</trkpt>
<trkpt lat="30.9897766" lon="34.9120102">
<ele>461.000000</ele>
<time>2015-10-30T06:32:38.000Z</time>
</trkpt>
<trkpt lat="30.9897331" lon="34.9118904">
<ele>461.000000</ele>
<time>2015-10-30T06:32:42.000Z</time>
</trkpt>
<trkpt lat="30.9896877" lon="34.9117869">
<ele>461.200012</ele>
<time>2015-10-30T06:32:46.000Z</time>
</trkpt>
<trkpt lat="30.9896380" lon="34.9116887">
<ele>461.200012</ele>
<time>2015-10-30T06:32:50.000Z</time>
</trkpt>
<trkpt lat="30.9896634" lon="34.9115791">
<ele>461.200012</ele>
<time>2015-10-30T06:32:54.000Z</time>
</trkpt>
<trkpt lat="30.9896697" lon="34.9114773">
<ele>461.200012</ele>
<time>2015-10-30T06:32:58.000Z</time>
</trkpt>
<trkpt lat="30.9897211" lon="34.9113750">
<ele>461.000000</ele>
<time>2015-10-30T06:33:02.000Z</time>
</trkpt>
<trkpt lat="30.9897917" lon="34.9112998">
<ele>461.000000</ele>
<time>2015-10-30T06:33:05.000Z</time>
</trkpt>
<trkpt lat="30.9898828" lon="34.9112438">
<ele>461.200012</ele>
<time>2015-10-30T06:33:08.000Z</time>
</trkpt>
<trkpt lat="30.9899813" lon="34.9111575">
<ele>461.399994</ele>
<time>2015-10-30T06:33:11.000Z</time>
</trkpt>
<trkpt lat="30.9900364" lon="34.9110704">
<ele>461.600006</ele>
<time>2015-10-30T06:33:13.000Z</time>
</trkpt>
<trkpt lat="30.9900799" lon="34.9109673">
<ele>461.799988</ele>
<time>2015-10-30T06:33:15.000Z</time>
</trkpt>
<trkpt lat="30.9901180" lon="34.9108596">
<ele>461.799988</ele>
<time>2015-10-30T06:33:17.000Z</time>
</trkpt>
<trkpt lat="30.9901524" lon="34.9107607">
<ele>462.000000</ele>
<time>2015-10-30T06:33:19.000Z</time>
</trkpt>
<trkpt lat="30.9901871" lon="34.9106593">
<ele>461.799988</ele>
<time>2015-10-30T06:33:21.000Z</time>
</trkpt>
<trkpt lat="30.9902306" lon="34.9105382">
<ele>461.600006</ele>
<time>2015-10-30T06:33:23.000Z</time>
</trkpt>
<trkpt lat="30.9902629" lon="34.9104158">
<ele>461.399994</ele>
<time>2015-10-30T06:33:26.000Z</time>
</trkpt>
<trkpt lat="30.9902845" lon="34.9102679">
<ele>460.800018</ele>
<time>2015-10-30T06:33:29.000Z</time>
</trkpt>
<trkpt lat="30.9902855" lon="34.9101613">
<ele>460.399994</ele>
<time>2015-10-30T06:33:31.000Z</time>
</trkpt>
<trkpt lat="30.9902788" lon="34.9100477">
<ele>460.200012</ele>
<time>2015-10-30T06:33:33.000Z</time>
</trkpt>
<trkpt lat="30.9902772" lon="34.9099328">
<ele>459.799988</ele>
<time>2015-10-30T06:33:35.000Z</time>
</trkpt>
<trkpt lat="30.9902573" lon="34.9098058">
<ele>459.600006</ele>
<time>2015-10-30T06:33:38.000Z</time>
</trkpt>
<trkpt lat="30.9901928" lon="34.9097184">
<ele>459.399963</ele>
<time>2015-10-30T06:33:43.000Z</time>
</trkpt>
<trkpt lat="30.9901073" lon="34.9096494">
<ele>459.200012</ele>
<time>2015-10-30T06:33:49.000Z</time>
</trkpt>
<trkpt lat="30.9900197" lon="34.9095926">
<ele>459.000000</ele>
<time>2015-10-30T06:33:53.000Z</time>
</trkpt>
<trkpt lat="30.9899148" lon="34.9095183">
<ele>459.000000</ele>
<time>2015-10-30T06:33:57.000Z</time>
</trkpt>
<trkpt lat="30.9898114" lon="34.9094506">
<ele>459.000000</ele>
<time>2015-10-30T06:34:01.000Z</time>
</trkpt>
<trkpt lat="30.9897065" lon="34.9093848">
<ele>459.200012</ele>
<time>2015-10-30T06:34:05.000Z</time>
</trkpt>
<trkpt lat="30.9896249" lon="34.9093332">
<ele>459.600006</ele>
<time>2015-10-30T06:34:08.000Z</time>
</trkpt>
<trkpt lat="30.9895450" lon="34.9092774">
<ele>460.000000</ele>
<time>2015-10-30T06:34:11.000Z</time>
</trkpt>
<trkpt lat="30.9894639" lon="34.9092251">
<ele>460.399994</ele>
<time>2015-10-30T06:34:14.000Z</time>
</trkpt>
<trkpt lat="30.9893566" lon="34.9091531">
<ele>460.800018</ele>
<time>2015-10-30T06:34:18.000Z</time>
</trkpt>
<trkpt lat="30.9892709" lon="34.9091024">
<ele>461.200012</ele>
<time>2015-10-30T06:34:21.000Z</time>
</trkpt>
<trkpt lat="30.9891822" lon="34.9090497">
<ele>461.600006</ele>
<time>2015-10-30T06:34:24.000Z</time>
</trkpt>
<trkpt lat="30.9890968" lon="34.9089968">
<ele>461.799988</ele>
<time>2015-10-30T06:34:27.000Z</time>
</trkpt>
<trkpt lat="30.9890124" lon="34.9089312">
<ele>462.200043</ele>
<time>2015-10-30T06:34:30.000Z</time>
</trkpt>
<trkpt lat="30.9889246" lon="34.9088699">
<ele>462.600006</ele>
<time>2015-10-30T06:34:33.000Z</time>
</trkpt>
<trkpt lat="30.9888345" lon="34.9088168">
<ele>462.799988</ele>
<time>2015-10-30T06:34:36.000Z</time>
</trkpt>
<trkpt lat="30.9887470" lon="34.9087743">
<ele>463.000031</ele>
<time>2015-10-30T06:34:39.000Z</time>
</trkpt>
<trkpt lat="30.9886426" lon="34.9086970">
<ele>463.399994</ele>
<time>2015-10-30T06:34:43.000Z</time>
</trkpt>
<trkpt lat="30.9885488" lon="34.9086350">
<ele>463.399994</ele>
<time>2015-10-30T06:34:46.000Z</time>
</trkpt>
<trkpt lat="30.9884497" lon="34.9085655">
<ele>463.600006</ele>
<time>2015-10-30T06:34:49.000Z</time>
</trkpt>
<trkpt lat="30.9883459" lon="34.9084957">
<ele>463.600006</ele>
<time>2015-10-30T06:34:52.000Z</time>
</trkpt>
<trkpt lat="30.9882439" lon="34.9084237">
<ele>463.799957</ele>
<time>2015-10-30T06:34:55.000Z</time>
</trkpt>
<trkpt lat="30.9881541" lon="34.9083516">
<ele>464.000000</ele>
<time>2015-10-30T06:34:58.000Z</time>
</trkpt>
<trkpt lat="30.9880627" lon="34.9082681">
<ele>464.000000</ele>
<time>2015-10-30T06:35:01.000Z</time>
</trkpt>
<trkpt lat="30.9879706" lon="34.9081962">
<ele>463.600006</ele>
<time>2015-10-30T06:35:04.000Z</time>
</trkpt>
<trkpt lat="30.9878807" lon="34.9081262">
<ele>463.200012</ele>
<time>2015-10-30T06:35:07.000Z</time>
</trkpt>
<trkpt lat="30.9877901" lon="34.9080626">
<ele>463.000031</ele>
<time>2015-10-30T06:35:10.000Z</time>
</trkpt>
<trkpt lat="30.9876713" lon="34.9079733">
<ele>462.600006</ele>
<time>2015-10-30T06:35:13.000Z</time>
</trkpt>
<trkpt lat="30.9875684" lon="34.9078909">
<ele>462.200043</ele>
<time>2015-10-30T06:35:15.000Z</time>
</trkpt>
<trkpt lat="30.9874759" lon="34.9078239">
<ele>461.600006</ele>
<time>2015-10-30T06:35:17.000Z</time>
</trkpt>
<trkpt lat="30.9873732" lon="34.9077474">
<ele>460.800018</ele>
<time>2015-10-30T06:35:20.000Z</time>
</trkpt>
<trkpt lat="30.9872862" lon="34.9076708">
<ele>460.399994</ele>
<time>2015-10-30T06:35:23.000Z</time>
</trkpt>
<trkpt lat="30.9871958" lon="34.9075891">
<ele>460.200012</ele>
<time>2015-10-30T06:35:26.000Z</time>
</trkpt>
<trkpt lat="30.9871017" lon="34.9074893">
<ele>460.399994</ele>
<time>2015-10-30T06:35:29.000Z</time>
</trkpt>
<trkpt lat="30.9870174" lon="34.9073886">
<ele>460.600006</ele>
<time>2015-10-30T06:35:32.000Z</time>
</trkpt>
<trkpt lat="30.9869540" lon="34.9072925">
<ele>460.600006</ele>
<time>2015-10-30T06:35:35.000Z</time>
</trkpt>
<trkpt lat="30.9868872" lon="34.9071872">
<ele>460.600006</ele>
<time>2015-10-30T06:35:39.000Z</time>
</trkpt>
<trkpt lat="30.9868276" lon="34.9070657">
<ele>460.600006</ele>
<time>2015-10-30T06:35:43.000Z</time>
</trkpt>
<trkpt lat="30.9867813" lon="34.9069541">
<ele>460.600006</ele>
<time>2015-10-30T06:35:47.000Z</time>
</trkpt>
<trkpt lat="30.9867374" lon="34.9068463">
<ele>460.600006</ele>
<time>2015-10-30T06:35:51.000Z</time>
</trkpt>
<trkpt lat="30.9866915" lon="34.9067472">
<ele>460.600006</ele>
<time>2015-10-30T06:35:55.000Z</time>
</trkpt>
<trkpt lat="30.9866080" lon="34.9066718">
<ele>460.800018</ele>
<time>2015-10-30T06:36:01.000Z</time>
</trkpt>
<trkpt lat="30.9865215" lon="34.9066384">
<ele>461.399994</ele>
<time>2015-10-30T06:36:06.000Z</time>
</trkpt>
<trkpt lat="30.9864514" lon="34.9065781">
<ele>461.600006</ele>
<time>2015-10-30T06:36:10.000Z</time>
</trkpt>
<trkpt lat="30.9863525" lon="34.9064971">
<ele>461.600006</ele>
<time>2015-10-30T06:36:14.000Z</time>
</trkpt>
<trkpt lat="30.9862780" lon="34.9064244">
<ele>461.200012</ele>
<time>2015-10-30T06:36:17.000Z</time>
</trkpt>
<trkpt lat="30.9861995" lon="34.9063495">
<ele>461.000000</ele>
<time>2015-10-30T06:36:20.000Z</time>
</trkpt>
<trkpt lat="30.9861184" lon="34.9062840">
<ele>460.800018</ele>
<time>2015-10-30T06:36:23.000Z</time>
</trkpt>
<trkpt lat="30.9860363" lon="34.9062262">
<ele>460.600006</ele>
<time>2015-10-30T06:36:26.000Z</time>
</trkpt>
<trkpt lat="30.9859437" lon="34.9061864">
<ele>460.600006</ele>
<time>2015-10-30T06:36:29.000Z</time>
</trkpt>
<trkpt lat="30.9858492" lon="34.9061620">
<ele>460.399994</ele>
<time>2015-10-30T06:36:32.000Z</time>
</trkpt>
<trkpt lat="30.9857505" lon="34.9061540">
<ele>460.399994</ele>
<time>2015-10-30T06:36:35.000Z</time>
</trkpt>
<trkpt lat="30.9856608" lon="34.9061400">
<ele>460.399994</ele>
<time>2015-10-30T06:36:38.000Z</time>
</trkpt>
<trkpt lat="30.9855638" lon="34.9061332">
<ele>460.399994</ele>
<time>2015-10-30T06:36:41.000Z</time>
</trkpt>
<trkpt lat="30.9854668" lon="34.9061554">
<ele>460.600006</ele>
<time>2015-10-30T06:36:44.000Z</time>
</trkpt>
<trkpt lat="30.9853723" lon="34.9061967">
<ele>460.800018</ele>
<time>2015-10-30T06:36:48.000Z</time>
</trkpt>
<trkpt lat="30.9852888" lon="34.9062407">
<ele>461.000000</ele>
<time>2015-10-30T06:36:52.000Z</time>
</trkpt>
<trkpt lat="30.9851752" lon="34.9062554">
<ele>461.600006</ele>
<time>2015-10-30T06:36:57.000Z</time>
</trkpt>
<trkpt lat="30.9850708" lon="34.9062513">
<ele>461.799988</ele>
<time>2015-10-30T06:37:02.000Z</time>
</trkpt>
<trkpt lat="30.9849909" lon="34.9061645">
<ele>462.399994</ele>
<time>2015-10-30T06:37:07.000Z</time>
</trkpt>
<trkpt lat="30.9849586" lon="34.9060469">
<ele>463.000031</ele>
<time>2015-10-30T06:37:11.000Z</time>
</trkpt>
<trkpt lat="30.9849483" lon="34.9059214">
<ele>463.399994</ele>
<time>2015-10-30T06:37:16.000Z</time>
</trkpt>
<trkpt lat="30.9849427" lon="34.9058230">
<ele>463.799957</ele>
<time>2015-10-30T06:37:20.000Z</time>
</trkpt>
<trkpt lat="30.9849532" lon="34.9057178">
<ele>464.200012</ele>
<time>2015-10-30T06:37:24.000Z</time>
</trkpt>
<trkpt lat="30.9849488" lon="34.9056111">
<ele>464.600006</ele>
<time>2015-10-30T06:37:28.000Z</time>
</trkpt>
<trkpt lat="30.9849228" lon="34.9054890">
<ele>465.000000</ele>
<time>2015-10-30T06:37:33.000Z</time>
</trkpt>
<trkpt lat="30.9848775" lon="34.9053787">
<ele>465.399994</ele>
<time>2015-10-30T06:37:39.000Z</time>
</trkpt>
<trkpt lat="30.9848109" lon="34.9052838">
<ele>465.600006</ele>
<time>2015-10-30T06:37:45.000Z</time>
</trkpt>
<trkpt lat="30.9847426" lon="34.9051930">
<ele>465.999969</ele>
<time>2015-10-30T06:37:50.000Z</time>
</trkpt>
<trkpt lat="30.9846687" lon="34.9051169">
<ele>465.799988</ele>
<time>2015-10-30T06:37:53.000Z</time>
</trkpt>
<trkpt lat="30.9846179" lon="34.9050367">
<ele>465.600006</ele>
<time>2015-10-30T06:37:57.000Z</time>
</trkpt>
<trkpt lat="30.9846239" lon="34.9051083">
<ele>465.799988</ele>
<time>2015-10-30T06:38:17.000Z</time>
</trkpt>
<trkpt lat="30.9846868" lon="34.9052092">
<ele>465.799988</ele>
<time>2015-10-30T06:38:20.000Z</time>
</trkpt>
<trkpt lat="30.9847087" lon="34.9053438">
<ele>465.999969</ele>
<time>2015-10-30T06:38:24.000Z</time>
</trkpt>
<trkpt lat="30.9846770" lon="34.9054786">
<ele>465.399994</ele>
<time>2015-10-30T06:38:28.000Z</time>
</trkpt>
<trkpt lat="30.9846397" lon="34.9055761">
<ele>465.000000</ele>
<time>2015-10-30T06:38:31.000Z</time>
</trkpt>
<trkpt lat="30.9845748" lon="34.9056610">
<ele>464.399994</ele>
<time>2015-10-30T06:38:35.000Z</time>
</trkpt>
<trkpt lat="30.9845005" lon="34.9057510">
<ele>463.799957</ele>
<time>2015-10-30T06:38:39.000Z</time>
</trkpt>
<trkpt lat="30.9844247" lon="34.9058389">
<ele>463.200012</ele>
<time>2015-10-30T06:38:43.000Z</time>
</trkpt>
<trkpt lat="30.9843564" lon="34.9059314">
<ele>463.200012</ele>
<time>2015-10-30T06:38:47.000Z</time>
</trkpt>
<trkpt lat="30.9843304" lon="34.9060681">
<ele>463.600006</ele>
<time>2015-10-30T06:38:50.000Z</time>
</trkpt>
<trkpt lat="30.9843285" lon="34.9062074">
<ele>464.000000</ele>
<time>2015-10-30T06:38:53.000Z</time>
</trkpt>
<trkpt lat="30.9843516" lon="34.9063222">
<ele>464.000000</ele>
<time>2015-10-30T06:38:56.000Z</time>
</trkpt>
<trkpt lat="30.9844180" lon="34.9064384">
<ele>463.799957</ele>
<time>2015-10-30T06:38:59.000Z</time>
</trkpt>
<trkpt lat="30.9845045" lon="34.9065446">
<ele>463.600006</ele>
<time>2015-10-30T06:39:02.000Z</time>
</trkpt>
<trkpt lat="30.9845726" lon="34.9066363">
<ele>463.399994</ele>
<time>2015-10-30T06:39:05.000Z</time>
</trkpt>
<trkpt lat="30.9846094" lon="34.9067789">
<ele>463.399994</ele>
<time>2015-10-30T06:39:08.000Z</time>
</trkpt>
<trkpt lat="30.9846404" lon="34.9068929">
<ele>463.200012</ele>
<time>2015-10-30T06:39:10.000Z</time>
</trkpt>
<trkpt lat="30.9846648" lon="34.9070080">
<ele>463.200012</ele>
<time>2015-10-30T06:39:12.000Z</time>
</trkpt>
<trkpt lat="30.9846674" lon="34.9071224">
<ele>463.200012</ele>
<time>2015-10-30T06:39:14.000Z</time>
</trkpt>
<trkpt lat="30.9846461" lon="34.9072304">
<ele>463.200012</ele>
<time>2015-10-30T06:39:16.000Z</time>
</trkpt>
<trkpt lat="30.9846532" lon="34.9073848">
<ele>463.200012</ele>
<time>2015-10-30T06:39:19.000Z</time>
</trkpt>
<trkpt lat="30.9846770" lon="34.9075131">
<ele>463.200012</ele>
<time>2015-10-30T06:39:22.000Z</time>
</trkpt>
<trkpt lat="30.9847175" lon="34.9076264">
<ele>463.000031</ele>
<time>2015-10-30T06:39:25.000Z</time>
</trkpt>
<trkpt lat="30.9847674" lon="34.9077380">
<ele>463.000031</ele>
<time>2015-10-30T06:39:28.000Z</time>
</trkpt>
<trkpt lat="30.9848192" lon="34.9078571">
<ele>462.799988</ele>
<time>2015-10-30T06:39:31.000Z</time>
</trkpt>
<trkpt lat="30.9848493" lon="34.9079873">
<ele>462.600006</ele>
<time>2015-10-30T06:39:34.000Z</time>
</trkpt>
<trkpt lat="30.9848727" lon="34.9080959">
<ele>462.200043</ele>
<time>2015-10-30T06:39:37.000Z</time>
</trkpt>
<trkpt lat="30.9849060" lon="34.9082091">
<ele>461.799988</ele>
<time>2015-10-30T06:39:40.000Z</time>
</trkpt>
<trkpt lat="30.9849545" lon="34.9083145">
<ele>461.600006</ele>
<time>2015-10-30T06:39:43.000Z</time>
</trkpt>
<trkpt lat="30.9850188" lon="34.9084146">
<ele>461.200012</ele>
<time>2015-10-30T06:39:46.000Z</time>
</trkpt>
<trkpt lat="30.9850982" lon="34.9085154">
<ele>460.800018</ele>
<time>2015-10-30T06:39:50.000Z</time>
</trkpt>
<trkpt lat="30.9850963" lon="34.9086274">
<ele>460.399994</ele>
<time>2015-10-30T06:39:56.000Z</time>
</trkpt>
<trkpt lat="30.9850046" lon="34.9087195">
<ele>460.000000</ele>
<time>2015-10-30T06:40:01.000Z</time>
</trkpt>
<trkpt lat="30.9849109" lon="34.9087684">
<ele>460.000000</ele>
<time>2015-10-30T06:40:04.000Z</time>
</trkpt>
<trkpt lat="30.9848206" lon="34.9088181">
<ele>460.000000</ele>
<time>2015-10-30T06:40:07.000Z</time>
</trkpt>
<trkpt lat="30.9847350" lon="34.9088741">
<ele>460.200012</ele>
<time>2015-10-30T06:40:10.000Z</time>
</trkpt>
<trkpt lat="30.9846542" lon="34.9089299">
<ele>460.200012</ele>
<time>2015-10-30T06:40:13.000Z</time>
</trkpt>
<trkpt lat="30.9845661" lon="34.9089919">
<ele>460.000000</ele>
<time>2015-10-30T06:40:16.000Z</time>
</trkpt>
<trkpt lat="30.9844692" lon="34.9090414">
<ele>460.000000</ele>
<time>2015-10-30T06:40:19.000Z</time>
</trkpt>
<trkpt lat="30.9843735" lon="34.9090853">
<ele>460.000000</ele>
<time>2015-10-30T06:40:22.000Z</time>
</trkpt>
<trkpt lat="30.9842741" lon="34.9091134">
<ele>459.799988</ele>
<time>2015-10-30T06:40:25.000Z</time>
</trkpt>
<trkpt lat="30.9841784" lon="34.9091450">
<ele>459.200012</ele>
<time>2015-10-30T06:40:28.000Z</time>
</trkpt>
<trkpt lat="30.9840866" lon="34.9092223">
<ele>458.599976</ele>
<time>2015-10-30T06:40:31.000Z</time>
</trkpt>
<trkpt lat="30.9839940" lon="34.9092828">
<ele>458.000000</ele>
<time>2015-10-30T06:40:35.000Z</time>
</trkpt>
<trkpt lat="30.9838999" lon="34.9093414">
<ele>457.600006</ele>
<time>2015-10-30T06:40:38.000Z</time>
</trkpt>
<trkpt lat="30.9838249" lon="34.9094242">
<ele>457.799988</ele>
<time>2015-10-30T06:40:41.000Z</time>
</trkpt>
<trkpt lat="30.9837672" lon="34.9095366">
<ele>458.399994</ele>
<time>2015-10-30T06:40:45.000Z</time>
</trkpt>
<trkpt lat="30.9836966" lon="34.9096284">
<ele>459.399963</ele>
<time>2015-10-30T06:40:49.000Z</time>
</trkpt>
<trkpt lat="30.9836284" lon="34.9097075">
<ele>460.399994</ele>
<time>2015-10-30T06:40:53.000Z</time>
</trkpt>
<trkpt lat="30.9835435" lon="34.9097796">
<ele>461.600006</ele>
<time>2015-10-30T06:40:58.000Z</time>
</trkpt>
<trkpt lat="30.9834788" lon="34.9098624">
<ele>462.600006</ele>
<time>2015-10-30T06:41:01.000Z</time>
</trkpt>
<trkpt lat="30.9834246" lon="34.9099633">
<ele>463.399994</ele>
<time>2015-10-30T06:41:05.000Z</time>
</trkpt>
<trkpt lat="30.9833668" lon="34.9100481">
<ele>463.799957</ele>
<time>2015-10-30T06:41:09.000Z</time>
</trkpt>
<trkpt lat="30.9832862" lon="34.9101314">
<ele>464.399994</ele>
<time>2015-10-30T06:41:13.000Z</time>
</trkpt>
<trkpt lat="30.9832064" lon="34.9102046">
<ele>465.000000</ele>
<time>2015-10-30T06:41:17.000Z</time>
</trkpt>
<trkpt lat="30.9831237" lon="34.9103074">
<ele>465.600006</ele>
<time>2015-10-30T06:41:21.000Z</time>
</trkpt>
<trkpt lat="30.9830645" lon="34.9103923">
<ele>465.999969</ele>
<time>2015-10-30T06:41:24.000Z</time>
</trkpt>
<trkpt lat="30.9830039" lon="34.9104713">
<ele>465.999969</ele>
<time>2015-10-30T06:41:27.000Z</time>
</trkpt>
<trkpt lat="30.9829324" lon="34.9105529">
<ele>466.200012</ele>
<time>2015-10-30T06:41:30.000Z</time>
</trkpt>
<trkpt lat="30.9828546" lon="34.9106349">
<ele>466.200012</ele>
<time>2015-10-30T06:41:33.000Z</time>
</trkpt>
<trkpt lat="30.9827754" lon="34.9107135">
<ele>466.399994</ele>
<time>2015-10-30T06:41:36.000Z</time>
</trkpt>
<trkpt lat="30.9826934" lon="34.9107911">
<ele>466.399994</ele>
<time>2015-10-30T06:41:39.000Z</time>
</trkpt>
<trkpt lat="30.9826146" lon="34.9108717">
<ele>466.399994</ele>
<time>2015-10-30T06:41:42.000Z</time>
</trkpt>
<trkpt lat="30.9825379" lon="34.9109428">
<ele>465.999969</ele>
<time>2015-10-30T06:41:45.000Z</time>
</trkpt>
<trkpt lat="30.9824583" lon="34.9110132">
<ele>465.799988</ele>
<time>2015-10-30T06:41:48.000Z</time>
</trkpt>
<trkpt lat="30.9823635" lon="34.9110663">
<ele>465.600006</ele>
<time>2015-10-30T06:41:51.000Z</time>
</trkpt>
<trkpt lat="30.9822725" lon="34.9110695">
<ele>465.399994</ele>
<time>2015-10-30T06:41:56.000Z</time>
</trkpt>
<trkpt lat="30.9821577" lon="34.9111012">
<ele>465.600006</ele>
<time>2015-10-30T06:42:01.000Z</time>
</trkpt>
<trkpt lat="30.9820607" lon="34.9111087">
<ele>465.799988</ele>
<time>2015-10-30T06:42:04.000Z</time>
</trkpt>
<trkpt lat="30.9819622" lon="34.9111063">
<ele>465.799988</ele>
<time>2015-10-30T06:42:07.000Z</time>
</trkpt>
<trkpt lat="30.9818575" lon="34.9111065">
<ele>465.799988</ele>
<time>2015-10-30T06:42:10.000Z</time>
</trkpt>
<trkpt lat="30.9817588" lon="34.9111093">
<ele>465.799988</ele>
<time>2015-10-30T06:42:13.000Z</time>
</trkpt>
<trkpt lat="30.9816625" lon="34.9111113">
<ele>465.799988</ele>
<time>2015-10-30T06:42:16.000Z</time>
</trkpt>
<trkpt lat="30.9815680" lon="34.9111117">
<ele>465.799988</ele>
<time>2015-10-30T06:42:19.000Z</time>
</trkpt>
<trkpt lat="30.9814746" lon="34.9111108">
<ele>465.799988</ele>
<time>2015-10-30T06:42:22.000Z</time>
</trkpt>
<trkpt lat="30.9813709" lon="34.9110971">
<ele>465.799988</ele>
<time>2015-10-30T06:42:25.000Z</time>
</trkpt>
<trkpt lat="30.9812559" lon="34.9110700">
<ele>466.200012</ele>
<time>2015-10-30T06:42:29.000Z</time>
</trkpt>
<trkpt lat="30.9811673" lon="34.9110436">
<ele>466.799957</ele>
<time>2015-10-30T06:42:32.000Z</time>
</trkpt>
<trkpt lat="30.9810679" lon="34.9110214">
<ele>467.400024</ele>
<time>2015-10-30T06:42:35.000Z</time>
</trkpt>
<trkpt lat="30.9809503" lon="34.9109969">
<ele>468.000000</ele>
<time>2015-10-30T06:42:38.000Z</time>
</trkpt>
<trkpt lat="30.9808538" lon="34.9109733">
<ele>468.600006</ele>
<time>2015-10-30T06:42:41.000Z</time>
</trkpt>
<trkpt lat="30.9807432" lon="34.9109422">
<ele>469.399994</ele>
<time>2015-10-30T06:42:45.000Z</time>
</trkpt>
<trkpt lat="30.9806534" lon="34.9109213">
<ele>470.000000</ele>
<time>2015-10-30T06:42:48.000Z</time>
</trkpt>
<trkpt lat="30.9805578" lon="34.9108866">
<ele>470.399963</ele>
<time>2015-10-30T06:42:51.000Z</time>
</trkpt>
<trkpt lat="30.9804694" lon="34.9108410">
<ele>470.399963</ele>
<time>2015-10-30T06:42:54.000Z</time>
</trkpt>
<trkpt lat="30.9803564" lon="34.9107964">
<ele>470.600006</ele>
<time>2015-10-30T06:42:58.000Z</time>
</trkpt>
<trkpt lat="30.9802615" lon="34.9108080">
<ele>470.600006</ele>
<time>2015-10-30T06:43:02.000Z</time>
</trkpt>
<trkpt lat="30.9802562" lon="34.9109235">
<ele>470.399963</ele>
<time>2015-10-30T06:43:06.000Z</time>
</trkpt>
<trkpt lat="30.9802724" lon="34.9110337">
<ele>470.399963</ele>
<time>2015-10-30T06:43:11.000Z</time>
</trkpt>
<trkpt lat="30.9802570" lon="34.9111336">
<ele>470.399963</ele>
<time>2015-10-30T06:43:17.000Z</time>
</trkpt>
<trkpt lat="30.9801650" lon="34.9111663">
<ele>470.399963</ele>
<time>2015-10-30T06:43:22.000Z</time>
</trkpt>
<trkpt lat="30.9800558" lon="34.9111802">
<ele>470.600006</ele>
<time>2015-10-30T06:43:27.000Z</time>
</trkpt>
<trkpt lat="30.9799408" lon="34.9112202">
<ele>470.799988</ele>
<time>2015-10-30T06:43:32.000Z</time>
</trkpt>
<trkpt lat="30.9798368" lon="34.9112478">
<ele>470.799988</ele>
<time>2015-10-30T06:43:36.000Z</time>
</trkpt>
<trkpt lat="30.9797498" lon="34.9112663">
<ele>470.799988</ele>
<time>2015-10-30T06:43:45.000Z</time>
</trkpt>
<trkpt lat="30.9797633" lon="34.9113952">
<ele>470.200012</ele>
<time>2015-10-30T06:43:59.000Z</time>
</trkpt>
<trkpt lat="30.9797320" lon="34.9115025">
<ele>469.600037</ele>
<time>2015-10-30T06:44:08.000Z</time>
</trkpt>
<trkpt lat="30.9796885" lon="34.9116147">
<ele>469.000000</ele>
<time>2015-10-30T06:44:17.000Z</time>
</trkpt>
<trkpt lat="30.9796300" lon="34.9117173">
<ele>468.399994</ele>
<time>2015-10-30T06:44:22.000Z</time>
</trkpt>
<trkpt lat="30.9795730" lon="34.9118116">
<ele>467.799988</ele>
<time>2015-10-30T06:44:26.000Z</time>
</trkpt>
<trkpt lat="30.9794853" lon="34.9119009">
<ele>467.200012</ele>
<time>2015-10-30T06:44:30.000Z</time>
</trkpt>
<trkpt lat="30.9793822" lon="34.9119801">
<ele>466.799957</ele>
<time>2015-10-30T06:44:34.000Z</time>
</trkpt>
<trkpt lat="30.9793046" lon="34.9120458">
<ele>466.600037</ele>
<time>2015-10-30T06:44:37.000Z</time>
</trkpt>
<trkpt lat="30.9792101" lon="34.9121295">
<ele>466.399994</ele>
<time>2015-10-30T06:44:41.000Z</time>
</trkpt>
<trkpt lat="30.9791253" lon="34.9122148">
<ele>466.399994</ele>
<time>2015-10-30T06:44:45.000Z</time>
</trkpt>
<trkpt lat="30.9790428" lon="34.9123049">
<ele>466.600037</ele>
<time>2015-10-30T06:44:49.000Z</time>
</trkpt>
<trkpt lat="30.9789737" lon="34.9123813">
<ele>467.000000</ele>
<time>2015-10-30T06:44:54.000Z</time>
</trkpt>
<trkpt lat="30.9789399" lon="34.9124998">
<ele>467.600006</ele>
<time>2015-10-30T06:44:58.000Z</time>
</trkpt>
<trkpt lat="30.9789221" lon="34.9126269">
<ele>468.000000</ele>
<time>2015-10-30T06:45:02.000Z</time>
</trkpt>
<trkpt lat="30.9789431" lon="34.9127382">
<ele>468.399994</ele>
<time>2015-10-30T06:45:06.000Z</time>
</trkpt>
<trkpt lat="30.9789872" lon="34.9128637">
<ele>468.799988</ele>
<time>2015-10-30T06:45:10.000Z</time>
</trkpt>
<trkpt lat="30.9790467" lon="34.9129570">
<ele>469.200012</ele>
<time>2015-10-30T06:45:13.000Z</time>
</trkpt>
<trkpt lat="30.9791000" lon="34.9130439">
<ele>469.399994</ele>
<time>2015-10-30T06:45:16.000Z</time>
</trkpt>
<trkpt lat="30.9791230" lon="34.9131735">
<ele>470.200012</ele>
<time>2015-10-30T06:45:20.000Z</time>
</trkpt>
<trkpt lat="30.9790981" lon="34.9132822">
<ele>470.799988</ele>
<time>2015-10-30T06:45:24.000Z</time>
</trkpt>
<trkpt lat="30.9790566" lon="34.9133969">
<ele>471.600006</ele>
<time>2015-10-30T06:45:28.000Z</time>
</trkpt>
<trkpt lat="30.9790327" lon="34.9135361">
<ele>472.599976</ele>
<time>2015-10-30T06:45:32.000Z</time>
</trkpt>
<trkpt lat="30.9790462" lon="34.9136449">
<ele>473.200043</ele>
<time>2015-10-30T06:45:35.000Z</time>
</trkpt>
<trkpt lat="30.9790477" lon="34.9137612">
<ele>473.600006</ele>
<time>2015-10-30T06:45:38.000Z</time>
</trkpt>
<trkpt lat="30.9790273" lon="34.9138822">
<ele>473.600006</ele>
<time>2015-10-30T06:45:41.000Z</time>
</trkpt>
<trkpt lat="30.9790062" lon="34.9139992">
<ele>474.000031</ele>
<time>2015-10-30T06:45:44.000Z</time>
</trkpt>
<trkpt lat="30.9789903" lon="34.9141235">
<ele>474.399994</ele>
<time>2015-10-30T06:45:47.000Z</time>
</trkpt>
<trkpt lat="30.9789785" lon="34.9142505">
<ele>474.800018</ele>
<time>2015-10-30T06:45:50.000Z</time>
</trkpt>
<trkpt lat="30.9789786" lon="34.9143744">
<ele>475.000000</ele>
<time>2015-10-30T06:45:53.000Z</time>
</trkpt>
<trkpt lat="30.9790074" lon="34.9144836">
<ele>475.200012</ele>
<time>2015-10-30T06:45:56.000Z</time>
</trkpt>
<trkpt lat="30.9790686" lon="34.9145748">
<ele>475.000000</ele>
<time>2015-10-30T06:45:59.000Z</time>
</trkpt>
<trkpt lat="30.9791380" lon="34.9146509">
<ele>474.800018</ele>
<time>2015-10-30T06:46:02.000Z</time>
</trkpt>
<trkpt lat="30.9792219" lon="34.9147267">
<ele>474.800018</ele>
<time>2015-10-30T06:46:06.000Z</time>
</trkpt>
<trkpt lat="30.9792490" lon="34.9148479">
<ele>475.200012</ele>
<time>2015-10-30T06:46:10.000Z</time>
</trkpt>
<trkpt lat="30.9793379" lon="34.9149346">
<ele>475.200012</ele>
<time>2015-10-30T06:46:14.000Z</time>
</trkpt>
<trkpt lat="30.9794004" lon="34.9150121">
<ele>475.200012</ele>
<time>2015-10-30T06:46:17.000Z</time>
</trkpt>
<trkpt lat="30.9794902" lon="34.9151090">
<ele>475.000000</ele>
<time>2015-10-30T06:46:21.000Z</time>
</trkpt>
<trkpt lat="30.9795621" lon="34.9152171">
<ele>475.200012</ele>
<time>2015-10-30T06:46:25.000Z</time>
</trkpt>
<trkpt lat="30.9796219" lon="34.9153163">
<ele>475.200012</ele>
<time>2015-10-30T06:46:28.000Z</time>
</trkpt>
<trkpt lat="30.9796729" lon="34.9154163">
<ele>475.399994</ele>
<time>2015-10-30T06:46:31.000Z</time>
</trkpt>
<trkpt lat="30.9797293" lon="34.9155002">
<ele>475.000000</ele>
<time>2015-10-30T06:46:34.000Z</time>
</trkpt>
<trkpt lat="30.9797971" lon="34.9155844">
<ele>475.200012</ele>
<time>2015-10-30T06:46:37.000Z</time>
</trkpt>
<trkpt lat="30.9798596" lon="34.9156688">
<ele>475.600006</ele>
<time>2015-10-30T06:46:40.000Z</time>
</trkpt>
<trkpt lat="30.9799217" lon="34.9157626">
<ele>475.799988</ele>
<time>2015-10-30T06:46:43.000Z</time>
</trkpt>
<trkpt lat="30.9799898" lon="34.9158638">
<ele>476.199982</ele>
<time>2015-10-30T06:46:47.000Z</time>
</trkpt>
<trkpt lat="30.9800646" lon="34.9159615">
<ele>476.600006</ele>
<time>2015-10-30T06:46:52.000Z</time>
</trkpt>
<trkpt lat="30.9801270" lon="34.9160714">
<ele>476.799988</ele>
<time>2015-10-30T06:46:56.000Z</time>
</trkpt>
<trkpt lat="30.9801698" lon="34.9161682">
<ele>476.999969</ele>
<time>2015-10-30T06:46:59.000Z</time>
</trkpt>
<trkpt lat="30.9801921" lon="34.9162928">
<ele>476.799988</ele>
<time>2015-10-30T06:47:03.000Z</time>
</trkpt>
<trkpt lat="30.9801833" lon="34.9163985">
<ele>476.399994</ele>
<time>2015-10-30T06:47:06.000Z</time>
</trkpt>
<trkpt lat="30.9801465" lon="34.9165224">
<ele>475.600006</ele>
<time>2015-10-30T06:47:10.000Z</time>
</trkpt>
<trkpt lat="30.9800926" lon="34.9166369">
<ele>474.800018</ele>
<time>2015-10-30T06:47:14.000Z</time>
</trkpt>
<trkpt lat="30.9800279" lon="34.9167601">
<ele>474.399994</ele>
<time>2015-10-30T06:47:18.000Z</time>
</trkpt>
<trkpt lat="30.9799839" lon="34.9168652">
<ele>474.000031</ele>
<time>2015-10-30T06:47:22.000Z</time>
</trkpt>
<trkpt lat="30.9799051" lon="34.9169248">
<ele>473.799988</ele>
<time>2015-10-30T06:47:26.000Z</time>
</trkpt>
<trkpt lat="30.9798134" lon="34.9169626">
<ele>473.399963</ele>
<time>2015-10-30T06:47:31.000Z</time>
</trkpt>
<trkpt lat="30.9799281" lon="34.9169406">
<ele>473.799988</ele>
<time>2015-10-30T06:47:36.000Z</time>
</trkpt>
<trkpt lat="30.9800396" lon="34.9169116">
<ele>474.000031</ele>
<time>2015-10-30T06:47:40.000Z</time>
</trkpt>
<trkpt lat="30.9801346" lon="34.9168970">
<ele>474.399994</ele>
<time>2015-10-30T06:47:43.000Z</time>
</trkpt>
<trkpt lat="30.9802353" lon="34.9168986">
<ele>474.600006</ele>
<time>2015-10-30T06:47:46.000Z</time>
</trkpt>
<trkpt lat="30.9803447" lon="34.9169085">
<ele>474.800018</ele>
<time>2015-10-30T06:47:49.000Z</time>
</trkpt>
<trkpt lat="30.9804635" lon="34.9169292">
<ele>475.200012</ele>
<time>2015-10-30T06:47:52.000Z</time>
</trkpt>
<trkpt lat="30.9805668" lon="34.9169705">
<ele>475.399994</ele>
<time>2015-10-30T06:47:55.000Z</time>
</trkpt>
<trkpt lat="30.9806689" lon="34.9170452">
<ele>475.200012</ele>
<time>2015-10-30T06:47:58.000Z</time>
</trkpt>
<trkpt lat="30.9807448" lon="34.9171296">
<ele>475.200012</ele>
<time>2015-10-30T06:48:01.000Z</time>
</trkpt>
<trkpt lat="30.9807893" lon="34.9172322">
<ele>475.399994</ele>
<time>2015-10-30T06:48:05.000Z</time>
</trkpt>
<trkpt lat="30.9808499" lon="34.9173284">
<ele>475.600006</ele>
<time>2015-10-30T06:48:09.000Z</time>
</trkpt>
<trkpt lat="30.9809142" lon="34.9174220">
<ele>476.000000</ele>
<time>2015-10-30T06:48:13.000Z</time>
</trkpt>
<trkpt lat="30.9809780" lon="34.9175264">
<ele>476.399994</ele>
<time>2015-10-30T06:48:17.000Z</time>
</trkpt>
<trkpt lat="30.9810420" lon="34.9176400">
<ele>476.799988</ele>
<time>2015-10-30T06:48:21.000Z</time>
</trkpt>
<trkpt lat="30.9811080" lon="34.9177452">
<ele>477.200012</ele>
<time>2015-10-30T06:48:25.000Z</time>
</trkpt>
<trkpt lat="30.9811518" lon="34.9178351">
<ele>477.600006</ele>
<time>2015-10-30T06:48:29.000Z</time>
</trkpt>
<trkpt lat="30.9811168" lon="34.9179664">
<ele>478.000000</ele>
<time>2015-10-30T06:48:34.000Z</time>
</trkpt>
<trkpt lat="30.9811524" lon="34.9180735">
<ele>478.000000</ele>
<time>2015-10-30T06:48:38.000Z</time>
</trkpt>
<trkpt lat="30.9811902" lon="34.9181830">
<ele>477.799957</ele>
<time>2015-10-30T06:48:42.000Z</time>
</trkpt>
<trkpt lat="30.9812055" lon="34.9182997">
<ele>477.799957</ele>
<time>2015-10-30T06:48:46.000Z</time>
</trkpt>
<trkpt lat="30.9812452" lon="34.9184194">
<ele>477.600006</ele>
<time>2015-10-30T06:48:50.000Z</time>
</trkpt>
<trkpt lat="30.9812814" lon="34.9185536">
<ele>477.399994</ele>
<time>2015-10-30T06:48:54.000Z</time>
</trkpt>
<trkpt lat="30.9813384" lon="34.9186696">
<ele>477.399994</ele>
<time>2015-10-30T06:48:58.000Z</time>
</trkpt>
<trkpt lat="30.9812930" lon="34.9187518">
<ele>478.000000</ele>
<time>2015-10-30T06:49:03.000Z</time>
</trkpt>
<trkpt lat="30.9811939" lon="34.9188048">
<ele>478.600006</ele>
<time>2015-10-30T06:49:09.000Z</time>
</trkpt>
<trkpt lat="30.9811010" lon="34.9188552">
<ele>479.000000</ele>
<time>2015-10-30T06:49:15.000Z</time>
</trkpt>
<trkpt lat="30.9810307" lon="34.9189209">
<ele>479.399994</ele>
<time>2015-10-30T06:49:22.000Z</time>
</trkpt>
<trkpt lat="30.9810545" lon="34.9190405">
<ele>478.600006</ele>
<time>2015-10-30T06:49:28.000Z</time>
</trkpt>
<trkpt lat="30.9810834" lon="34.9191783">
<ele>477.600006</ele>
<time>2015-10-30T06:49:33.000Z</time>
</trkpt>
<trkpt lat="30.9810690" lon="34.9192991">
<ele>478.000000</ele>
<time>2015-10-30T06:49:37.000Z</time>
</trkpt>
<trkpt lat="30.9810771" lon="34.9194036">
<ele>478.200012</ele>
<time>2015-10-30T06:49:42.000Z</time>
</trkpt>
<trkpt lat="30.9811141" lon="34.9195096">
<ele>478.200012</ele>
<time>2015-10-30T06:49:47.000Z</time>
</trkpt>
<trkpt lat="30.9811690" lon="34.9196119">
<ele>477.600006</ele>
<time>2015-10-30T06:49:54.000Z</time>
</trkpt>
<trkpt lat="30.9811705" lon="34.9197220">
<ele>478.200012</ele>
<time>2015-10-30T06:49:58.000Z</time>
</trkpt>
<trkpt lat="30.9811208" lon="34.9198241">
<ele>479.399994</ele>
<time>2015-10-30T06:50:03.000Z</time>
</trkpt>
<trkpt lat="30.9810843" lon="34.9199496">
<ele>480.799988</ele>
<time>2015-10-30T06:50:08.000Z</time>
</trkpt>
<trkpt lat="30.9810537" lon="34.9200499">
<ele>481.799988</ele>
<time>2015-10-30T06:50:12.000Z</time>
</trkpt>
<trkpt lat="30.9810251" lon="34.9201513">
<ele>481.400024</ele>
<time>2015-10-30T06:50:17.000Z</time>
</trkpt>
<trkpt lat="30.9809779" lon="34.9202536">
<ele>481.000000</ele>
<time>2015-10-30T06:50:22.000Z</time>
</trkpt>
<trkpt lat="30.9809080" lon="34.9203527">
<ele>481.000000</ele>
<time>2015-10-30T06:50:27.000Z</time>
</trkpt>
<trkpt lat="30.9808453" lon="34.9204301">
<ele>481.400024</ele>
<time>2015-10-30T06:50:31.000Z</time>
</trkpt>
<trkpt lat="30.9807816" lon="34.9205248">
<ele>482.600006</ele>
<time>2015-10-30T06:50:36.000Z</time>
</trkpt>
<trkpt lat="30.9807200" lon="34.9206255">
<ele>483.399994</ele>
<time>2015-10-30T06:50:41.000Z</time>
</trkpt>
<trkpt lat="30.9806572" lon="34.9207274">
<ele>483.599976</ele>
<time>2015-10-30T06:50:46.000Z</time>
</trkpt>
<trkpt lat="30.9805895" lon="34.9208291">
<ele>484.000000</ele>
<time>2015-10-30T06:50:51.000Z</time>
</trkpt>
<trkpt lat="30.9805198" lon="34.9209151">
<ele>484.799988</ele>
<time>2015-10-30T06:50:56.000Z</time>
</trkpt>
<trkpt lat="30.9804417" lon="34.9209945">
<ele>485.600006</ele>
<time>2015-10-30T06:51:01.000Z</time>
</trkpt>
<trkpt lat="30.9803437" lon="34.9210132">
<ele>486.399994</ele>
<time>2015-10-30T06:51:06.000Z</time>
</trkpt>
<trkpt lat="30.9802521" lon="34.9210287">
<ele>487.000000</ele>
<time>2015-10-30T06:51:11.000Z</time>
</trkpt>
<trkpt lat="30.9801501" lon="34.9210670">
<ele>487.600006</ele>
<time>2015-10-30T06:51:16.000Z</time>
</trkpt>
<trkpt lat="30.9800792" lon="34.9211358">
<ele>488.000031</ele>
<time>2015-10-30T06:51:21.000Z</time>
</trkpt>
<trkpt lat="30.9799920" lon="34.9211977">
<ele>488.600006</ele>
<time>2015-10-30T06:51:27.000Z</time>
</trkpt>
<trkpt lat="30.9798896" lon="34.9211813">
<ele>489.200012</ele>
<time>2015-10-30T06:51:32.000Z</time>
</trkpt>
<trkpt lat="30.9798251" lon="34.9212752">
<ele>489.600006</ele>
<time>2015-10-30T06:51:37.000Z</time>
</trkpt>
<trkpt lat="30.9797409" lon="34.9213246">
<ele>490.199982</ele>
<time>2015-10-30T06:51:41.000Z</time>
</trkpt>
<trkpt lat="30.9796536" lon="34.9213741">
<ele>490.999969</ele>
<time>2015-10-30T06:51:45.000Z</time>
</trkpt>
<trkpt lat="30.9795739" lon="34.9214016">
<ele>491.799957</ele>
<time>2015-10-30T06:51:51.000Z</time>
</trkpt>
<trkpt lat="30.9794771" lon="34.9213593">
<ele>492.799988</ele>
<time>2015-10-30T06:51:56.000Z</time>
</trkpt>
<trkpt lat="30.9793798" lon="34.9212917">
<ele>493.600006</ele>
<time>2015-10-30T06:52:01.000Z</time>
</trkpt>
<trkpt lat="30.9793104" lon="34.9212286">
<ele>494.200012</ele>
<time>2015-10-30T06:52:05.000Z</time>
</trkpt>
<trkpt lat="30.9792429" lon="34.9211347">
<ele>494.399994</ele>
<time>2015-10-30T06:52:10.000Z</time>
</trkpt>
<trkpt lat="30.9791846" lon="34.9210502">
<ele>494.799988</ele>
<time>2015-10-30T06:52:16.000Z</time>
</trkpt>
<trkpt lat="30.9791244" lon="34.9211084">
<ele>495.600006</ele>
<time>2015-10-30T06:52:25.000Z</time>
</trkpt>
<trkpt lat="30.9791431" lon="34.9212325">
<ele>495.799988</ele>
<time>2015-10-30T06:52:33.000Z</time>
</trkpt>
<trkpt lat="30.9792084" lon="34.9213385">
<ele>495.200012</ele>
<time>2015-10-30T06:52:38.000Z</time>
</trkpt>
<trkpt lat="30.9791572" lon="34.9212856">
<ele>495.799988</ele>
<time>2015-10-30T06:52:44.000Z</time>
</trkpt>
<trkpt lat="30.9790928" lon="34.9211840">
<ele>496.000000</ele>
<time>2015-10-30T06:52:49.000Z</time>
</trkpt>
<trkpt lat="30.9790174" lon="34.9211076">
<ele>496.600006</ele>
<time>2015-10-30T06:52:54.000Z</time>
</trkpt>
<trkpt lat="30.9789425" lon="34.9210351">
<ele>497.000000</ele>
<time>2015-10-30T06:52:59.000Z</time>
</trkpt>
<trkpt lat="30.9788693" lon="34.9209512">
<ele>497.000000</ele>
<time>2015-10-30T06:53:05.000Z</time>
</trkpt>
<trkpt lat="30.9787934" lon="34.9208873">
<ele>496.799988</ele>
<time>2015-10-30T06:53:10.000Z</time>
</trkpt>
<trkpt lat="30.9786935" lon="34.9208974">
<ele>496.799988</ele>
<time>2015-10-30T06:53:17.000Z</time>
</trkpt>
<trkpt lat="30.9786195" lon="34.9209836">
<ele>497.200012</ele>
<time>2015-10-30T06:53:23.000Z</time>
</trkpt>
<trkpt lat="30.9785580" lon="34.9210736">
<ele>498.200043</ele>
<time>2015-10-30T06:53:28.000Z</time>
</trkpt>
<trkpt lat="30.9784935" lon="34.9211641">
<ele>499.000031</ele>
<time>2015-10-30T06:53:33.000Z</time>
</trkpt>
<trkpt lat="30.9784153" lon="34.9212497">
<ele>499.800018</ele>
<time>2015-10-30T06:53:38.000Z</time>
</trkpt>
<trkpt lat="30.9783347" lon="34.9213211">
<ele>500.000000</ele>
<time>2015-10-30T06:53:43.000Z</time>
</trkpt>
<trkpt lat="30.9782506" lon="34.9213654">
<ele>500.399994</ele>
<time>2015-10-30T06:53:48.000Z</time>
</trkpt>
<trkpt lat="30.9781807" lon="34.9214347">
<ele>501.000000</ele>
<time>2015-10-30T06:53:53.000Z</time>
</trkpt>
<trkpt lat="30.9781034" lon="34.9214919">
<ele>501.799988</ele>
<time>2015-10-30T06:53:59.000Z</time>
</trkpt>
<trkpt lat="30.9780326" lon="34.9215746">
<ele>502.399994</ele>
<time>2015-10-30T06:54:05.000Z</time>
</trkpt>
<trkpt lat="30.9779859" lon="34.9216784">
<ele>503.000000</ele>
<time>2015-10-30T06:54:11.000Z</time>
</trkpt>
<trkpt lat="30.9779682" lon="34.9217871">
<ele>503.399994</ele>
<time>2015-10-30T06:54:16.000Z</time>
</trkpt>
<trkpt lat="30.9779778" lon="34.9219121">
<ele>503.799988</ele>
<time>2015-10-30T06:54:21.000Z</time>
</trkpt>
<trkpt lat="30.9779651" lon="34.9220319">
<ele>504.000000</ele>
<time>2015-10-30T06:54:26.000Z</time>
</trkpt>
<trkpt lat="30.9779792" lon="34.9221586">
<ele>504.199982</ele>
<time>2015-10-30T06:54:31.000Z</time>
</trkpt>
<trkpt lat="30.9779889" lon="34.9222755">
<ele>504.199982</ele>
<time>2015-10-30T06:54:35.000Z</time>
</trkpt>
<trkpt lat="30.9780018" lon="34.9223939">
<ele>504.399994</ele>
<time>2015-10-30T06:54:39.000Z</time>
</trkpt>
<trkpt lat="30.9780139" lon="34.9225212">
<ele>504.600006</ele>
<time>2015-10-30T06:54:43.000Z</time>
</trkpt>
<trkpt lat="30.9780220" lon="34.9226558">
<ele>504.799988</ele>
<time>2015-10-30T06:54:47.000Z</time>
</trkpt>
<trkpt lat="30.9780312" lon="34.9227670">
<ele>504.799988</ele>
<time>2015-10-30T06:54:50.000Z</time>
</trkpt>
<trkpt lat="30.9780545" lon="34.9228766">
<ele>504.999969</ele>
<time>2015-10-30T06:54:53.000Z</time>
</trkpt>
<trkpt lat="30.9781003" lon="34.9230034">
<ele>504.799988</ele>
<time>2015-10-30T06:54:57.000Z</time>
</trkpt>
<trkpt lat="30.9781606" lon="34.9231106">
<ele>504.600006</ele>
<time>2015-10-30T06:55:01.000Z</time>
</trkpt>
<trkpt lat="30.9782251" lon="34.9231893">
<ele>504.399994</ele>
<time>2015-10-30T06:55:04.000Z</time>
</trkpt>
<trkpt lat="30.9783041" lon="34.9232502">
<ele>504.000000</ele>
<time>2015-10-30T06:55:07.000Z</time>
</trkpt>
<trkpt lat="30.9784169" lon="34.9232973">
<ele>503.799988</ele>
<time>2015-10-30T06:55:11.000Z</time>
</trkpt>
<trkpt lat="30.9785312" lon="34.9232585">
<ele>503.200012</ele>
<time>2015-10-30T06:55:15.000Z</time>
</trkpt>
<trkpt lat="30.9786160" lon="34.9232035">
<ele>502.600006</ele>
<time>2015-10-30T06:55:18.000Z</time>
</trkpt>
<trkpt lat="30.9786959" lon="34.9231432">
<ele>501.799988</ele>
<time>2015-10-30T06:55:21.000Z</time>
</trkpt>
<trkpt lat="30.9787992" lon="34.9230909">
<ele>501.200043</ele>
<time>2015-10-30T06:55:25.000Z</time>
</trkpt>
<trkpt lat="30.9789014" lon="34.9230617">
<ele>500.399994</ele>
<time>2015-10-30T06:55:29.000Z</time>
</trkpt>
<trkpt lat="30.9790159" lon="34.9230396">
<ele>499.000031</ele>
<time>2015-10-30T06:55:33.000Z</time>
</trkpt>
<trkpt lat="30.9791241" lon="34.9230562">
<ele>497.599976</ele>
<time>2015-10-30T06:55:37.000Z</time>
</trkpt>
<trkpt lat="30.9792446" lon="34.9230581">
<ele>496.000000</ele>
<time>2015-10-30T06:55:41.000Z</time>
</trkpt>
<trkpt lat="30.9793436" lon="34.9230862">
<ele>494.799988</ele>
<time>2015-10-30T06:55:44.000Z</time>
</trkpt>
<trkpt lat="30.9793612" lon="34.9231722">
<ele>494.799988</ele>
<time>2015-10-30T06:55:50.000Z</time>
</trkpt>
<trkpt lat="30.9792899" lon="34.9232421">
<ele>495.799988</ele>
<time>2015-10-30T06:55:56.000Z</time>
</trkpt>
<trkpt lat="30.9792010" lon="34.9233017">
<ele>497.200012</ele>
<time>2015-10-30T06:56:00.000Z</time>
</trkpt>
<trkpt lat="30.9790993" lon="34.9233519">
<ele>498.600006</ele>
<time>2015-10-30T06:56:04.000Z</time>
</trkpt>
<trkpt lat="30.9789949" lon="34.9233736">
<ele>500.000000</ele>
<time>2015-10-30T06:56:08.000Z</time>
</trkpt>
<trkpt lat="30.9789367" lon="34.9234472">
<ele>501.000000</ele>
<time>2015-10-30T06:56:14.000Z</time>
</trkpt>
<trkpt lat="30.9789432" lon="34.9235553">
<ele>501.200043</ele>
<time>2015-10-30T06:56:21.000Z</time>
</trkpt>
<trkpt lat="30.9789587" lon="34.9236729">
<ele>501.200043</ele>
<time>2015-10-30T06:56:30.000Z</time>
</trkpt>
<trkpt lat="30.9788790" lon="34.9237496">
<ele>501.999969</ele>
<time>2015-10-30T06:56:36.000Z</time>
</trkpt>
<trkpt lat="30.9788534" lon="34.9238589">
<ele>501.799988</ele>
<time>2015-10-30T06:56:41.000Z</time>
</trkpt>
<trkpt lat="30.9787908" lon="34.9239407">
<ele>501.799988</ele>
<time>2015-10-30T06:56:45.000Z</time>
</trkpt>
<trkpt lat="30.9787036" lon="34.9239769">
<ele>501.999969</ele>
<time>2015-10-30T06:56:51.000Z</time>
</trkpt>
<trkpt lat="30.9786390" lon="34.9240260">
<ele>501.999969</ele>
<time>2015-10-30T06:57:08.000Z</time>
</trkpt>
<trkpt lat="30.9786371" lon="34.9241352">
<ele>501.799988</ele>
<time>2015-10-30T06:57:18.000Z</time>
</trkpt>
<trkpt lat="30.9786535" lon="34.9242447">
<ele>501.399994</ele>
<time>2015-10-30T06:57:28.000Z</time>
</trkpt>
<trkpt lat="30.9785780" lon="34.9243129">
<ele>501.600006</ele>
<time>2015-10-30T06:57:42.000Z</time>
</trkpt>
<trkpt lat="30.9785081" lon="34.9243890">
<ele>501.600006</ele>
<time>2015-10-30T06:57:47.000Z</time>
</trkpt>
<trkpt lat="30.9784515" lon="34.9244807">
<ele>501.799988</ele>
<time>2015-10-30T06:57:52.000Z</time>
</trkpt>
<trkpt lat="30.9784117" lon="34.9245785">
<ele>501.799988</ele>
<time>2015-10-30T06:57:56.000Z</time>
</trkpt>
<trkpt lat="30.9783751" lon="34.9246954">
<ele>501.399994</ele>
<time>2015-10-30T06:58:00.000Z</time>
</trkpt>
<trkpt lat="30.9784535" lon="34.9247653">
<ele>501.000000</ele>
<time>2015-10-30T06:58:05.000Z</time>
</trkpt>
<trkpt lat="30.9785328" lon="34.9248258">
<ele>500.399994</ele>
<time>2015-10-30T06:58:08.000Z</time>
</trkpt>
<trkpt lat="30.9786193" lon="34.9249218">
<ele>499.800018</ele>
<time>2015-10-30T06:58:12.000Z</time>
</trkpt>
<trkpt lat="30.9787037" lon="34.9249831">
<ele>499.200012</ele>
<time>2015-10-30T06:58:15.000Z</time>
</trkpt>
<trkpt lat="30.9787984" lon="34.9250475">
<ele>498.600006</ele>
<time>2015-10-30T06:58:18.000Z</time>
</trkpt>
<trkpt lat="30.9788634" lon="34.9251295">
<ele>498.200043</ele>
<time>2015-10-30T06:58:21.000Z</time>
</trkpt>
<trkpt lat="30.9788773" lon="34.9252342">
<ele>497.799988</ele>
<time>2015-10-30T06:58:24.000Z</time>
</trkpt>
<trkpt lat="30.9787655" lon="34.9252968">
<ele>498.200043</ele>
<time>2015-10-30T06:58:27.000Z</time>
</trkpt>
<trkpt lat="30.9786582" lon="34.9253209">
<ele>499.200012</ele>
<time>2015-10-30T06:58:30.000Z</time>
</trkpt>
<trkpt lat="30.9785658" lon="34.9253624">
<ele>500.200012</ele>
<time>2015-10-30T06:58:33.000Z</time>
</trkpt>
<trkpt lat="30.9784929" lon="34.9254522">
<ele>501.200043</ele>
<time>2015-10-30T06:58:36.000Z</time>
</trkpt>
<trkpt lat="30.9784909" lon="34.9255786">
<ele>501.399994</ele>
<time>2015-10-30T06:58:39.000Z</time>
</trkpt>
<trkpt lat="30.9785759" lon="34.9256864">
<ele>501.000000</ele>
<time>2015-10-30T06:58:42.000Z</time>
</trkpt>
<trkpt lat="30.9786617" lon="34.9257957">
<ele>500.399994</ele>
<time>2015-10-30T06:58:45.000Z</time>
</trkpt>
<trkpt lat="30.9787570" lon="34.9258917">
<ele>499.600006</ele>
<time>2015-10-30T06:58:48.000Z</time>
</trkpt>
<trkpt lat="30.9788764" lon="34.9259268">
<ele>498.600006</ele>
<time>2015-10-30T06:58:51.000Z</time>
</trkpt>
<trkpt lat="30.9789855" lon="34.9259515">
<ele>498.399963</ele>
<time>2015-10-30T06:58:54.000Z</time>
</trkpt>
<trkpt lat="30.9790136" lon="34.9260585">
<ele>498.600006</ele>
<time>2015-10-30T06:58:58.000Z</time>
</trkpt>
<trkpt lat="30.9789405" lon="34.9261349">
<ele>498.799988</ele>
<time>2015-10-30T06:59:01.000Z</time>
</trkpt>
<trkpt lat="30.9788459" lon="34.9261989">
<ele>499.399994</ele>
<time>2015-10-30T06:59:04.000Z</time>
</trkpt>
<trkpt lat="30.9788250" lon="34.9263181">
<ele>499.399994</ele>
<time>2015-10-30T06:59:08.000Z</time>
</trkpt>
<trkpt lat="30.9788940" lon="34.9263956">
<ele>499.200012</ele>
<time>2015-10-30T06:59:11.000Z</time>
</trkpt>
<trkpt lat="30.9789250" lon="34.9264190">
<ele>499.200012</ele>
<time>2015-10-30T07:01:12.000Z</time>
</trkpt>
<trkpt lat="30.9789569" lon="34.9264356">
<ele>499.200012</ele>
<time>2015-10-30T07:05:11.000Z</time>
</trkpt>
<trkpt lat="30.9790563" lon="34.9264987">
<ele>499.200012</ele>
<time>2015-10-30T07:05:16.000Z</time>
</trkpt>
<trkpt lat="30.9791221" lon="34.9265771">
<ele>499.200012</ele>
<time>2015-10-30T07:05:20.000Z</time>
</trkpt>
<trkpt lat="30.9790797" lon="34.9266832">
<ele>499.399994</ele>
<time>2015-10-30T07:05:25.000Z</time>
</trkpt>
<trkpt lat="30.9790027" lon="34.9267625">
<ele>499.600006</ele>
<time>2015-10-30T07:05:29.000Z</time>
</trkpt>
<trkpt lat="30.9789564" lon="34.9268635">
<ele>499.600006</ele>
<time>2015-10-30T07:05:34.000Z</time>
</trkpt>
<trkpt lat="30.9789748" lon="34.9269699">
<ele>499.800018</ele>
<time>2015-10-30T07:05:38.000Z</time>
</trkpt>
<trkpt lat="30.9789747" lon="34.9270773">
<ele>500.000000</ele>
<time>2015-10-30T07:05:42.000Z</time>
</trkpt>
<trkpt lat="30.9789129" lon="34.9271627">
<ele>500.200012</ele>
<time>2015-10-30T07:05:46.000Z</time>
</trkpt>
<trkpt lat="30.9788266" lon="34.9271879">
<ele>500.600006</ele>
<time>2015-10-30T07:05:50.000Z</time>
</trkpt>
<trkpt lat="30.9787535" lon="34.9271382">
<ele>500.799988</ele>
<time>2015-10-30T07:05:54.000Z</time>
</trkpt>
<trkpt lat="30.9786685" lon="34.9270840">
<ele>501.000000</ele>
<time>2015-10-30T07:05:58.000Z</time>
</trkpt>
<trkpt lat="30.9785719" lon="34.9270664">
<ele>501.200043</ele>
<time>2015-10-30T07:06:02.000Z</time>
</trkpt>
<trkpt lat="30.9784852" lon="34.9271495">
<ele>501.799988</ele>
<time>2015-10-30T07:06:06.000Z</time>
</trkpt>
<trkpt lat="30.9784523" lon="34.9272672">
<ele>502.200012</ele>
<time>2015-10-30T07:06:10.000Z</time>
</trkpt>
<trkpt lat="30.9784574" lon="34.9273723">
<ele>502.399994</ele>
<time>2015-10-30T07:06:13.000Z</time>
</trkpt>
<trkpt lat="30.9784306" lon="34.9274947">
<ele>502.799957</ele>
<time>2015-10-30T07:06:17.000Z</time>
</trkpt>
<trkpt lat="30.9783509" lon="34.9275512">
<ele>503.200012</ele>
<time>2015-10-30T07:06:20.000Z</time>
</trkpt>
<trkpt lat="30.9782911" lon="34.9276565">
<ele>503.600006</ele>
<time>2015-10-30T07:06:24.000Z</time>
</trkpt>
<trkpt lat="30.9781909" lon="34.9277331">
<ele>504.199982</ele>
<time>2015-10-30T07:06:28.000Z</time>
</trkpt>
<trkpt lat="30.9781008" lon="34.9277266">
<ele>504.399994</ele>
<time>2015-10-30T07:06:31.000Z</time>
</trkpt>
<trkpt lat="30.9780045" lon="34.9277273">
<ele>504.799988</ele>
<time>2015-10-30T07:06:35.000Z</time>
</trkpt>
<trkpt lat="30.9779097" lon="34.9277561">
<ele>505.200012</ele>
<time>2015-10-30T07:06:39.000Z</time>
</trkpt>
<trkpt lat="30.9778371" lon="34.9278334">
<ele>505.799988</ele>
<time>2015-10-30T07:06:43.000Z</time>
</trkpt>
<trkpt lat="30.9778466" lon="34.9279746">
<ele>506.400024</ele>
<time>2015-10-30T07:06:47.000Z</time>
</trkpt>
<trkpt lat="30.9778993" lon="34.9280728">
<ele>506.400024</ele>
<time>2015-10-30T07:06:50.000Z</time>
</trkpt>
<trkpt lat="30.9779396" lon="34.9281801">
<ele>506.600006</ele>
<time>2015-10-30T07:06:53.000Z</time>
</trkpt>
<trkpt lat="30.9779910" lon="34.9282902">
<ele>506.799988</ele>
<time>2015-10-30T07:06:56.000Z</time>
</trkpt>
<trkpt lat="30.9780509" lon="34.9284020">
<ele>507.000000</ele>
<time>2015-10-30T07:06:59.000Z</time>
</trkpt>
<trkpt lat="30.9781024" lon="34.9284971">
<ele>507.000000</ele>
<time>2015-10-30T07:07:02.000Z</time>
</trkpt>
<trkpt lat="30.9781352" lon="34.9286055">
<ele>507.000000</ele>
<time>2015-10-30T07:07:05.000Z</time>
</trkpt>
<trkpt lat="30.9781532" lon="34.9287227">
<ele>507.399994</ele>
<time>2015-10-30T07:07:08.000Z</time>
</trkpt>
<trkpt lat="30.9781687" lon="34.9288470">
<ele>507.600006</ele>
<time>2015-10-30T07:07:11.000Z</time>
</trkpt>
<trkpt lat="30.9781762" lon="34.9289799">
<ele>507.799988</ele>
<time>2015-10-30T07:07:14.000Z</time>
</trkpt>
<trkpt lat="30.9782025" lon="34.9291103">
<ele>508.000000</ele>
<time>2015-10-30T07:07:17.000Z</time>
</trkpt>
<trkpt lat="30.9782747" lon="34.9291984">
<ele>507.799988</ele>
<time>2015-10-30T07:07:20.000Z</time>
</trkpt>
<trkpt lat="30.9783614" lon="34.9292482">
<ele>507.200012</ele>
<time>2015-10-30T07:07:23.000Z</time>
</trkpt>
<trkpt lat="30.9784512" lon="34.9293018">
<ele>506.600006</ele>
<time>2015-10-30T07:07:26.000Z</time>
</trkpt>
<trkpt lat="30.9785195" lon="34.9293931">
<ele>506.400024</ele>
<time>2015-10-30T07:07:29.000Z</time>
</trkpt>
<trkpt lat="30.9785371" lon="34.9295102">
<ele>506.600006</ele>
<time>2015-10-30T07:07:32.000Z</time>
</trkpt>
<trkpt lat="30.9785595" lon="34.9296255">
<ele>506.400024</ele>
<time>2015-10-30T07:07:35.000Z</time>
</trkpt>
<trkpt lat="30.9785272" lon="34.9297507">
<ele>506.400024</ele>
<time>2015-10-30T07:07:38.000Z</time>
</trkpt>
<trkpt lat="30.9784781" lon="34.9298611">
<ele>506.400024</ele>
<time>2015-10-30T07:07:41.000Z</time>
</trkpt>
<trkpt lat="30.9784536" lon="34.9299661">
<ele>506.400024</ele>
<time>2015-10-30T07:07:44.000Z</time>
</trkpt>
<trkpt lat="30.9784438" lon="34.9300669">
<ele>506.000000</ele>
<time>2015-10-30T07:07:47.000Z</time>
</trkpt>
<trkpt lat="30.9784475" lon="34.9301867">
<ele>505.600037</ele>
<time>2015-10-30T07:07:50.000Z</time>
</trkpt>
<trkpt lat="30.9784007" lon="34.9303130">
<ele>505.399994</ele>
<time>2015-10-30T07:07:53.000Z</time>
</trkpt>
<trkpt lat="30.9783258" lon="34.9304036">
<ele>505.600037</ele>
<time>2015-10-30T07:07:56.000Z</time>
</trkpt>
<trkpt lat="30.9782703" lon="34.9305025">
<ele>506.000000</ele>
<time>2015-10-30T07:07:59.000Z</time>
</trkpt>
<trkpt lat="30.9782408" lon="34.9306046">
<ele>506.000000</ele>
<time>2015-10-30T07:08:03.000Z</time>
</trkpt>
<trkpt lat="30.9782283" lon="34.9307313">
<ele>505.200012</ele>
<time>2015-10-30T07:08:08.000Z</time>
</trkpt>
<trkpt lat="30.9782289" lon="34.9308353">
<ele>504.600006</ele>
<time>2015-10-30T07:08:12.000Z</time>
</trkpt>
<trkpt lat="30.9782283" lon="34.9309508">
<ele>504.000000</ele>
<time>2015-10-30T07:08:15.000Z</time>
</trkpt>
<trkpt lat="30.9782253" lon="34.9310843">
<ele>503.000000</ele>
<time>2015-10-30T07:08:18.000Z</time>
</trkpt>
<trkpt lat="30.9781703" lon="34.9312019">
<ele>502.399994</ele>
<time>2015-10-30T07:08:21.000Z</time>
</trkpt>
<trkpt lat="30.9780937" lon="34.9312811">
<ele>501.999969</ele>
<time>2015-10-30T07:08:24.000Z</time>
</trkpt>
<trkpt lat="30.9779937" lon="34.9313156">
<ele>502.399994</ele>
<time>2015-10-30T07:08:28.000Z</time>
</trkpt>
<trkpt lat="30.9778968" lon="34.9313180">
<ele>503.200012</ele>
<time>2015-10-30T07:08:31.000Z</time>
</trkpt>
<trkpt lat="30.9777851" lon="34.9313345">
<ele>503.799988</ele>
<time>2015-10-30T07:08:34.000Z</time>
</trkpt>
<trkpt lat="30.9776806" lon="34.9313741">
<ele>504.600006</ele>
<time>2015-10-30T07:08:37.000Z</time>
</trkpt>
<trkpt lat="30.9775761" lon="34.9314496">
<ele>505.200012</ele>
<time>2015-10-30T07:08:40.000Z</time>
</trkpt>
<trkpt lat="30.9774780" lon="34.9315030">
<ele>505.600037</ele>
<time>2015-10-30T07:08:43.000Z</time>
</trkpt>
<trkpt lat="30.9774062" lon="34.9314454">
<ele>506.200012</ele>
<time>2015-10-30T07:15:37.000Z</time>
</trkpt>
<trkpt lat="30.9773135" lon="34.9315393">
<ele>506.200012</ele>
<time>2015-10-30T07:16:14.000Z</time>
</trkpt>
<trkpt lat="30.9772187" lon="34.9316095">
<ele>506.200012</ele>
<time>2015-10-30T07:16:19.000Z</time>
</trkpt>
<trkpt lat="30.9771295" lon="34.9316619">
<ele>505.600037</ele>
<time>2015-10-30T07:16:23.000Z</time>
</trkpt>
<trkpt lat="30.9771366" lon="34.9317356">
<ele>505.200012</ele>
<time>2015-10-30T07:16:30.000Z</time>
</trkpt>
<trkpt lat="30.9770908" lon="34.9318263">
<ele>504.600006</ele>
<time>2015-10-30T07:16:36.000Z</time>
</trkpt>
<trkpt lat="30.9769773" lon="34.9318210">
<ele>504.199982</ele>
<time>2015-10-30T07:16:41.000Z</time>
</trkpt>
<trkpt lat="30.9768623" lon="34.9318317">
<ele>504.000000</ele>
<time>2015-10-30T07:16:45.000Z</time>
</trkpt>
<trkpt lat="30.9767721" lon="34.9319029">
<ele>503.399994</ele>
<time>2015-10-30T07:16:49.000Z</time>
</trkpt>
<trkpt lat="30.9767043" lon="34.9319885">
<ele>503.000000</ele>
<time>2015-10-30T07:16:53.000Z</time>
</trkpt>
<trkpt lat="30.9766284" lon="34.9320621">
<ele>502.600006</ele>
<time>2015-10-30T07:16:57.000Z</time>
</trkpt>
<trkpt lat="30.9765787" lon="34.9321695">
<ele>502.200012</ele>
<time>2015-10-30T07:17:01.000Z</time>
</trkpt>
<trkpt lat="30.9765976" lon="34.9322668">
<ele>502.200012</ele>
<time>2015-10-30T07:17:05.000Z</time>
</trkpt>
<trkpt lat="30.9766909" lon="34.9323517">
<ele>502.399994</ele>
<time>2015-10-30T07:17:11.000Z</time>
</trkpt>
<trkpt lat="30.9767773" lon="34.9324166">
<ele>502.399994</ele>
<time>2015-10-30T07:17:15.000Z</time>
</trkpt>
<trkpt lat="30.9768659" lon="34.9325098">
<ele>502.600006</ele>
<time>2015-10-30T07:17:19.000Z</time>
</trkpt>
<trkpt lat="30.9769182" lon="34.9325989">
<ele>502.600006</ele>
<time>2015-10-30T07:17:22.000Z</time>
</trkpt>
<trkpt lat="30.9769564" lon="34.9327015">
<ele>502.799957</ele>
<time>2015-10-30T07:17:25.000Z</time>
</trkpt>
<trkpt lat="30.9769848" lon="34.9328093">
<ele>502.799957</ele>
<time>2015-10-30T07:17:28.000Z</time>
</trkpt>
<trkpt lat="30.9770204" lon="34.9329108">
<ele>503.000000</ele>
<time>2015-10-30T07:17:31.000Z</time>
</trkpt>
<trkpt lat="30.9770463" lon="34.9330225">
<ele>503.399994</ele>
<time>2015-10-30T07:17:34.000Z</time>
</trkpt>
<trkpt lat="30.9770519" lon="34.9331414">
<ele>503.799988</ele>
<time>2015-10-30T07:17:37.000Z</time>
</trkpt>
<trkpt lat="30.9770560" lon="34.9332555">
<ele>504.199982</ele>
<time>2015-10-30T07:17:40.000Z</time>
</trkpt>
<trkpt lat="30.9770658" lon="34.9333666">
<ele>504.600006</ele>
<time>2015-10-30T07:17:43.000Z</time>
</trkpt>
<trkpt lat="30.9770689" lon="34.9334740">
<ele>504.999969</ele>
<time>2015-10-30T07:17:46.000Z</time>
</trkpt>
<trkpt lat="30.9770600" lon="34.9335996">
<ele>505.399994</ele>
<time>2015-10-30T07:17:50.000Z</time>
</trkpt>
<trkpt lat="30.9770446" lon="34.9337306">
<ele>506.000000</ele>
<time>2015-10-30T07:17:54.000Z</time>
</trkpt>
<trkpt lat="30.9770509" lon="34.9338676">
<ele>506.400024</ele>
<time>2015-10-30T07:17:58.000Z</time>
</trkpt>
<trkpt lat="30.9770785" lon="34.9340021">
<ele>506.600006</ele>
<time>2015-10-30T07:18:02.000Z</time>
</trkpt>
<trkpt lat="30.9771098" lon="34.9341063">
<ele>506.799988</ele>
<time>2015-10-30T07:18:05.000Z</time>
</trkpt>
<trkpt lat="30.9771550" lon="34.9342168">
<ele>507.200012</ele>
<time>2015-10-30T07:18:08.000Z</time>
</trkpt>
<trkpt lat="30.9771889" lon="34.9343239">
<ele>507.399994</ele>
<time>2015-10-30T07:18:11.000Z</time>
</trkpt>
<trkpt lat="30.9771970" lon="34.9344601">
<ele>507.799988</ele>
<time>2015-10-30T07:18:15.000Z</time>
</trkpt>
<trkpt lat="30.9771837" lon="34.9345662">
<ele>508.000000</ele>
<time>2015-10-30T07:18:18.000Z</time>
</trkpt>
<trkpt lat="30.9771780" lon="34.9346766">
<ele>508.200012</ele>
<time>2015-10-30T07:18:21.000Z</time>
</trkpt>
<trkpt lat="30.9771838" lon="34.9347870">
<ele>508.399994</ele>
<time>2015-10-30T07:18:24.000Z</time>
</trkpt>
<trkpt lat="30.9771752" lon="34.9349044">
<ele>508.799988</ele>
<time>2015-10-30T07:18:27.000Z</time>
</trkpt>
<trkpt lat="30.9771689" lon="34.9350334">
<ele>509.000000</ele>
<time>2015-10-30T07:18:30.000Z</time>
</trkpt>
<trkpt lat="30.9771726" lon="34.9351600">
<ele>509.399963</ele>
<time>2015-10-30T07:18:33.000Z</time>
</trkpt>
<trkpt lat="30.9771987" lon="34.9352841">
<ele>509.600006</ele>
<time>2015-10-30T07:18:36.000Z</time>
</trkpt>
<trkpt lat="30.9772529" lon="34.9353749">
<ele>510.000000</ele>
<time>2015-10-30T07:18:39.000Z</time>
</trkpt>
<trkpt lat="30.9773383" lon="34.9354612">
<ele>510.200012</ele>
<time>2015-10-30T07:18:43.000Z</time>
</trkpt>
<trkpt lat="30.9773539" lon="34.9355647">
<ele>510.399994</ele>
<time>2015-10-30T07:18:46.000Z</time>
</trkpt>
<trkpt lat="30.9772790" lon="34.9356559">
<ele>510.399994</ele>
<time>2015-10-30T07:18:49.000Z</time>
</trkpt>
<trkpt lat="30.9771847" lon="34.9357346">
<ele>510.399994</ele>
<time>2015-10-30T07:18:52.000Z</time>
</trkpt>
<trkpt lat="30.9771458" lon="34.9358439">
<ele>510.399994</ele>
<time>2015-10-30T07:18:55.000Z</time>
</trkpt>
<trkpt lat="30.9771051" lon="34.9359442">
<ele>510.399994</ele>
<time>2015-10-30T07:18:58.000Z</time>
</trkpt>
<trkpt lat="30.9770477" lon="34.9360408">
<ele>510.600006</ele>
<time>2015-10-30T07:19:01.000Z</time>
</trkpt>
<trkpt lat="30.9770119" lon="34.9361526">
<ele>510.000000</ele>
<time>2015-10-30T07:19:04.000Z</time>
</trkpt>
<trkpt lat="30.9770267" lon="34.9362746">
<ele>510.000000</ele>
<time>2015-10-30T07:19:07.000Z</time>
</trkpt>
<trkpt lat="30.9770596" lon="34.9364089">
<ele>510.600006</ele>
<time>2015-10-30T07:19:11.000Z</time>
</trkpt>
<trkpt lat="30.9771185" lon="34.9365222">
<ele>511.000000</ele>
<time>2015-10-30T07:19:14.000Z</time>
</trkpt>
<trkpt lat="30.9771464" lon="34.9366392">
<ele>511.399994</ele>
<time>2015-10-30T07:19:17.000Z</time>
</trkpt>
<trkpt lat="30.9771500" lon="34.9367505">
<ele>511.799988</ele>
<time>2015-10-30T07:19:20.000Z</time>
</trkpt>
<trkpt lat="30.9770812" lon="34.9368392">
<ele>511.600006</ele>
<time>2015-10-30T07:19:23.000Z</time>
</trkpt>
<trkpt lat="30.9770017" lon="34.9368963">
<ele>511.200012</ele>
<time>2015-10-30T07:19:26.000Z</time>
</trkpt>
<trkpt lat="30.9769116" lon="34.9369647">
<ele>510.600006</ele>
<time>2015-10-30T07:19:29.000Z</time>
</trkpt>
<trkpt lat="30.9768203" lon="34.9370550">
<ele>510.000000</ele>
<time>2015-10-30T07:19:32.000Z</time>
</trkpt>
<trkpt lat="30.9767232" lon="34.9371485">
<ele>509.399963</ele>
<time>2015-10-30T07:19:35.000Z</time>
</trkpt>
<trkpt lat="30.9766270" lon="34.9372398">
<ele>508.799988</ele>
<time>2015-10-30T07:19:38.000Z</time>
</trkpt>
<trkpt lat="30.9765587" lon="34.9373614">
<ele>509.000000</ele>
<time>2015-10-30T07:19:41.000Z</time>
</trkpt>
<trkpt lat="30.9764840" lon="34.9374694">
<ele>509.600006</ele>
<time>2015-10-30T07:19:44.000Z</time>
</trkpt>
<trkpt lat="30.9764209" lon="34.9375933">
<ele>510.200012</ele>
<time>2015-10-30T07:19:47.000Z</time>
</trkpt>
<trkpt lat="30.9763570" lon="34.9377200">
<ele>511.200012</ele>
<time>2015-10-30T07:19:50.000Z</time>
</trkpt>
<trkpt lat="30.9763390" lon="34.9378619">
<ele>512.000000</ele>
<time>2015-10-30T07:19:53.000Z</time>
</trkpt>
<trkpt lat="30.9763619" lon="34.9379640">
<ele>512.200012</ele>
<time>2015-10-30T07:19:56.000Z</time>
</trkpt>
<trkpt lat="30.9764080" lon="34.9380670">
<ele>512.599976</ele>
<time>2015-10-30T07:20:00.000Z</time>
</trkpt>
<trkpt lat="30.9764104" lon="34.9381824">
<ele>513.000000</ele>
<time>2015-10-30T07:20:03.000Z</time>
</trkpt>
<trkpt lat="30.9763686" lon="34.9382988">
<ele>513.400024</ele>
<time>2015-10-30T07:20:06.000Z</time>
</trkpt>
<trkpt lat="30.9763421" lon="34.9384031">
<ele>513.799988</ele>
<time>2015-10-30T07:20:09.000Z</time>
</trkpt>
<trkpt lat="30.9762769" lon="34.9384912">
<ele>514.200012</ele>
<time>2015-10-30T07:20:12.000Z</time>
</trkpt>
<trkpt lat="30.9762166" lon="34.9385770">
<ele>514.599976</ele>
<time>2015-10-30T07:20:15.000Z</time>
</trkpt>
<trkpt lat="30.9761629" lon="34.9386687">
<ele>514.400024</ele>
<time>2015-10-30T07:20:18.000Z</time>
</trkpt>
<trkpt lat="30.9761084" lon="34.9387721">
<ele>514.400024</ele>
<time>2015-10-30T07:20:21.000Z</time>
</trkpt>
<trkpt lat="30.9760656" lon="34.9388725">
<ele>514.400024</ele>
<time>2015-10-30T07:20:24.000Z</time>
</trkpt>
<trkpt lat="30.9760304" lon="34.9389747">
<ele>514.599976</ele>
<time>2015-10-30T07:20:27.000Z</time>
</trkpt>
<trkpt lat="30.9759925" lon="34.9390813">
<ele>514.799988</ele>
<time>2015-10-30T07:20:30.000Z</time>
</trkpt>
<trkpt lat="30.9759878" lon="34.9391904">
<ele>515.000000</ele>
<time>2015-10-30T07:20:33.000Z</time>
</trkpt>
<trkpt lat="30.9759885" lon="34.9393077">
<ele>515.400024</ele>
<time>2015-10-30T07:20:37.000Z</time>
</trkpt>
<trkpt lat="30.9759926" lon="34.9394362">
<ele>515.599976</ele>
<time>2015-10-30T07:20:42.000Z</time>
</trkpt>
<trkpt lat="30.9759956" lon="34.9395487">
<ele>516.000000</ele>
<time>2015-10-30T07:20:46.000Z</time>
</trkpt>
<trkpt lat="30.9760528" lon="34.9396494">
<ele>516.400024</ele>
<time>2015-10-30T07:20:50.000Z</time>
</trkpt>
<trkpt lat="30.9761166" lon="34.9397637">
<ele>516.799988</ele>
<time>2015-10-30T07:20:54.000Z</time>
</trkpt>
<trkpt lat="30.9761620" lon="34.9398622">
<ele>517.000000</ele>
<time>2015-10-30T07:20:57.000Z</time>
</trkpt>
<trkpt lat="30.9761999" lon="34.9399728">
<ele>517.400024</ele>
<time>2015-10-30T07:21:01.000Z</time>
</trkpt>
<trkpt lat="30.9762400" lon="34.9400759">
<ele>517.799988</ele>
<time>2015-10-30T07:21:06.000Z</time>
</trkpt>
<trkpt lat="30.9762810" lon="34.9401713">
<ele>518.200012</ele>
<time>2015-10-30T07:21:10.000Z</time>
</trkpt>
<trkpt lat="30.9763094" lon="34.9402727">
<ele>518.400024</ele>
<time>2015-10-30T07:21:14.000Z</time>
</trkpt>
<trkpt lat="30.9763536" lon="34.9403898">
<ele>519.000000</ele>
<time>2015-10-30T07:21:19.000Z</time>
</trkpt>
<trkpt lat="30.9764531" lon="34.9404405">
<ele>519.200012</ele>
<time>2015-10-30T07:21:24.000Z</time>
</trkpt>
<trkpt lat="30.9765566" lon="34.9404793">
<ele>519.200012</ele>
<time>2015-10-30T07:21:28.000Z</time>
</trkpt>
<trkpt lat="30.9766403" lon="34.9405538">
<ele>519.599976</ele>
<time>2015-10-30T07:21:32.000Z</time>
</trkpt>
<trkpt lat="30.9766905" lon="34.9406608">
<ele>520.000000</ele>
<time>2015-10-30T07:21:36.000Z</time>
</trkpt>
<trkpt lat="30.9767058" lon="34.9408047">
<ele>520.599976</ele>
<time>2015-10-30T07:21:40.000Z</time>
</trkpt>
<trkpt lat="30.9767043" lon="34.9409223">
<ele>521.200012</ele>
<time>2015-10-30T07:21:43.000Z</time>
</trkpt>
<trkpt lat="30.9767019" lon="34.9410465">
<ele>521.799988</ele>
<time>2015-10-30T07:21:46.000Z</time>
</trkpt>
<trkpt lat="30.9766868" lon="34.9411632">
<ele>522.400024</ele>
<time>2015-10-30T07:21:49.000Z</time>
</trkpt>
<trkpt lat="30.9766869" lon="34.9412773">
<ele>522.799988</ele>
<time>2015-10-30T07:21:52.000Z</time>
</trkpt>
<trkpt lat="30.9767332" lon="34.9413857">
<ele>523.000000</ele>
<time>2015-10-30T07:21:55.000Z</time>
</trkpt>
<trkpt lat="30.9767598" lon="34.9414972">
<ele>523.200012</ele>
<time>2015-10-30T07:21:58.000Z</time>
</trkpt>
<trkpt lat="30.9768280" lon="34.9415687">
<ele>523.200012</ele>
<time>2015-10-30T07:22:01.000Z</time>
</trkpt>
<trkpt lat="30.9769183" lon="34.9415926">
<ele>523.200012</ele>
<time>2015-10-30T07:22:04.000Z</time>
</trkpt>
<trkpt lat="30.9770316" lon="34.9416134">
<ele>523.200012</ele>
<time>2015-10-30T07:22:08.000Z</time>
</trkpt>
<trkpt lat="30.9771193" lon="34.9416521">
<ele>523.200012</ele>
<time>2015-10-30T07:22:11.000Z</time>
</trkpt>
<trkpt lat="30.9771980" lon="34.9417181">
<ele>523.200012</ele>
<time>2015-10-30T07:22:14.000Z</time>
</trkpt>
<trkpt lat="30.9772732" lon="34.9417939">
<ele>523.200012</ele>
<time>2015-10-30T07:22:17.000Z</time>
</trkpt>
<trkpt lat="30.9773548" lon="34.9418799">
<ele>523.200012</ele>
<time>2015-10-30T07:22:20.000Z</time>
</trkpt>
<trkpt lat="30.9774343" lon="34.9419703">
<ele>523.000000</ele>
<time>2015-10-30T07:22:23.000Z</time>
</trkpt>
<trkpt lat="30.9775088" lon="34.9420362">
<ele>523.000000</ele>
<time>2015-10-30T07:22:26.000Z</time>
</trkpt>
<trkpt lat="30.9775497" lon="34.9421339">
<ele>523.000000</ele>
<time>2015-10-30T07:22:29.000Z</time>
</trkpt>
<trkpt lat="30.9775307" lon="34.9422626">
<ele>523.000000</ele>
<time>2015-10-30T07:22:32.000Z</time>
</trkpt>
<trkpt lat="30.9774653" lon="34.9423624">
<ele>523.400024</ele>
<time>2015-10-30T07:22:35.000Z</time>
</trkpt>
<trkpt lat="30.9773889" lon="34.9424483">
<ele>524.000000</ele>
<time>2015-10-30T07:22:38.000Z</time>
</trkpt>
<trkpt lat="30.9773083" lon="34.9425197">
<ele>524.599976</ele>
<time>2015-10-30T07:22:41.000Z</time>
</trkpt>
<trkpt lat="30.9772433" lon="34.9426069">
<ele>525.200012</ele>
<time>2015-10-30T07:22:44.000Z</time>
</trkpt>
<trkpt lat="30.9771772" lon="34.9426856">
<ele>525.799988</ele>
<time>2015-10-30T07:22:47.000Z</time>
</trkpt>
<trkpt lat="30.9771001" lon="34.9427512">
<ele>526.200012</ele>
<time>2015-10-30T07:22:50.000Z</time>
</trkpt>
<trkpt lat="30.9770265" lon="34.9428237">
<ele>526.799988</ele>
<time>2015-10-30T07:22:53.000Z</time>
</trkpt>
<trkpt lat="30.9769544" lon="34.9429006">
<ele>527.400024</ele>
<time>2015-10-30T07:22:56.000Z</time>
</trkpt>
<trkpt lat="30.9768711" lon="34.9429623">
<ele>527.799988</ele>
<time>2015-10-30T07:22:59.000Z</time>
</trkpt>
<trkpt lat="30.9767732" lon="34.9429984">
<ele>528.200012</ele>
<time>2015-10-30T07:23:02.000Z</time>
</trkpt>
<trkpt lat="30.9766722" lon="34.9430161">
<ele>528.799988</ele>
<time>2015-10-30T07:23:05.000Z</time>
</trkpt>
<trkpt lat="30.9765616" lon="34.9430411">
<ele>529.200012</ele>
<time>2015-10-30T07:23:09.000Z</time>
</trkpt>
<trkpt lat="30.9764784" lon="34.9430768">
<ele>529.400024</ele>
<time>2015-10-30T07:23:12.000Z</time>
</trkpt>
<trkpt lat="30.9763950" lon="34.9431546">
<ele>529.000000</ele>
<time>2015-10-30T07:23:15.000Z</time>
</trkpt>
<trkpt lat="30.9763197" lon="34.9432446">
<ele>528.599976</ele>
<time>2015-10-30T07:23:20.000Z</time>
</trkpt>
<trkpt lat="30.9762423" lon="34.9433376">
<ele>528.000000</ele>
<time>2015-10-30T07:23:24.000Z</time>
</trkpt>
<trkpt lat="30.9761783" lon="34.9434111">
<ele>527.599976</ele>
<time>2015-10-30T07:23:27.000Z</time>
</trkpt>
<trkpt lat="30.9761034" lon="34.9434908">
<ele>527.200012</ele>
<time>2015-10-30T07:23:30.000Z</time>
</trkpt>
<trkpt lat="30.9760143" lon="34.9435701">
<ele>526.599976</ele>
<time>2015-10-30T07:23:33.000Z</time>
</trkpt>
<trkpt lat="30.9759312" lon="34.9436620">
<ele>526.200012</ele>
<time>2015-10-30T07:23:36.000Z</time>
</trkpt>
<trkpt lat="30.9758542" lon="34.9437541">
<ele>525.799988</ele>
<time>2015-10-30T07:23:39.000Z</time>
</trkpt>
<trkpt lat="30.9757784" lon="34.9438618">
<ele>526.200012</ele>
<time>2015-10-30T07:23:42.000Z</time>
</trkpt>
<trkpt lat="30.9757087" lon="34.9439524">
<ele>526.200012</ele>
<time>2015-10-30T07:23:45.000Z</time>
</trkpt>
<trkpt lat="30.9756447" lon="34.9439802">
<ele>526.000000</ele>
<time>2015-10-30T07:23:50.000Z</time>
</trkpt>
<trkpt lat="30.9756207" lon="34.9438516">
<ele>525.599976</ele>
<time>2015-10-30T07:23:55.000Z</time>
</trkpt>
<trkpt lat="30.9756045" lon="34.9437371">
<ele>525.000000</ele>
<time>2015-10-30T07:23:59.000Z</time>
</trkpt>
<trkpt lat="30.9756226" lon="34.9436256">
<ele>525.599976</ele>
<time>2015-10-30T07:24:03.000Z</time>
</trkpt>
<trkpt lat="30.9756154" lon="34.9435093">
<ele>526.000000</ele>
<time>2015-10-30T07:24:07.000Z</time>
</trkpt>
<trkpt lat="30.9756018" lon="34.9434035">
<ele>526.200012</ele>
<time>2015-10-30T07:24:11.000Z</time>
</trkpt>
<trkpt lat="30.9756292" lon="34.9432926">
<ele>526.799988</ele>
<time>2015-10-30T07:24:15.000Z</time>
</trkpt>
<trkpt lat="30.9756463" lon="34.9431729">
<ele>527.200012</ele>
<time>2015-10-30T07:24:21.000Z</time>
</trkpt>
<trkpt lat="30.9755811" lon="34.9430777">
<ele>527.400024</ele>
<time>2015-10-30T07:24:26.000Z</time>
</trkpt>
<trkpt lat="30.9755014" lon="34.9430159">
<ele>527.400024</ele>
<time>2015-10-30T07:24:31.000Z</time>
</trkpt>
<trkpt lat="30.9754324" lon="34.9429592">
<ele>527.400024</ele>
<time>2015-10-30T07:24:37.000Z</time>
</trkpt>
<trkpt lat="30.9753374" lon="34.9429317">
<ele>527.400024</ele>
<time>2015-10-30T07:24:44.000Z</time>
</trkpt>
<trkpt lat="30.9752428" lon="34.9429323">
<ele>527.200012</ele>
<time>2015-10-30T07:24:50.000Z</time>
</trkpt>
<trkpt lat="30.9751511" lon="34.9429303">
<ele>526.799988</ele>
<time>2015-10-30T07:24:55.000Z</time>
</trkpt>
<trkpt lat="30.9750415" lon="34.9428985">
<ele>526.599976</ele>
<time>2015-10-30T07:25:00.000Z</time>
</trkpt>
<trkpt lat="30.9749400" lon="34.9428913">
<ele>526.400024</ele>
<time>2015-10-30T07:25:04.000Z</time>
</trkpt>
<trkpt lat="30.9748410" lon="34.9428504">
<ele>526.200012</ele>
<time>2015-10-30T07:25:08.000Z</time>
</trkpt>
<trkpt lat="30.9747644" lon="34.9427954">
<ele>526.000000</ele>
<time>2015-10-30T07:25:13.000Z</time>
</trkpt>
<trkpt lat="30.9746809" lon="34.9427607">
<ele>526.200012</ele>
<time>2015-10-30T07:25:18.000Z</time>
</trkpt>
<trkpt lat="30.9745910" lon="34.9426941">
<ele>526.799988</ele>
<time>2015-10-30T07:25:23.000Z</time>
</trkpt>
<trkpt lat="30.9745013" lon="34.9426402">
<ele>527.400024</ele>
<time>2015-10-30T07:25:27.000Z</time>
</trkpt>
<trkpt lat="30.9744127" lon="34.9425566">
<ele>528.000000</ele>
<time>2015-10-30T07:25:31.000Z</time>
</trkpt>
<trkpt lat="30.9743247" lon="34.9424722">
<ele>528.599976</ele>
<time>2015-10-30T07:25:35.000Z</time>
</trkpt>
<trkpt lat="30.9742500" lon="34.9424127">
<ele>529.000000</ele>
<time>2015-10-30T07:25:39.000Z</time>
</trkpt>
<trkpt lat="30.9741569" lon="34.9423815">
<ele>529.599976</ele>
<time>2015-10-30T07:25:43.000Z</time>
</trkpt>
<trkpt lat="30.9740351" lon="34.9424007">
<ele>530.200012</ele>
<time>2015-10-30T07:25:47.000Z</time>
</trkpt>
<trkpt lat="30.9739449" lon="34.9424285">
<ele>530.799988</ele>
<time>2015-10-30T07:25:50.000Z</time>
</trkpt>
<trkpt lat="30.9738257" lon="34.9424637">
<ele>530.799988</ele>
<time>2015-10-30T07:25:54.000Z</time>
</trkpt>
<trkpt lat="30.9737279" lon="34.9424972">
<ele>530.599976</ele>
<time>2015-10-30T07:25:58.000Z</time>
</trkpt>
<trkpt lat="30.9736437" lon="34.9424517">
<ele>530.400024</ele>
<time>2015-10-30T07:26:03.000Z</time>
</trkpt>
<trkpt lat="30.9735557" lon="34.9424017">
<ele>530.200012</ele>
<time>2015-10-30T07:26:09.000Z</time>
</trkpt>
<trkpt lat="30.9734428" lon="34.9424376">
<ele>529.799988</ele>
<time>2015-10-30T07:26:15.000Z</time>
</trkpt>
<trkpt lat="30.9733466" lon="34.9424603">
<ele>529.599976</ele>
<time>2015-10-30T07:26:19.000Z</time>
</trkpt>
<trkpt lat="30.9732500" lon="34.9424789">
<ele>529.400024</ele>
<time>2015-10-30T07:26:22.000Z</time>
</trkpt>
<trkpt lat="30.9731484" lon="34.9425197">
<ele>529.200012</ele>
<time>2015-10-30T07:26:25.000Z</time>
</trkpt>
<trkpt lat="30.9730477" lon="34.9425545">
<ele>529.200012</ele>
<time>2015-10-30T07:26:28.000Z</time>
</trkpt>
<trkpt lat="30.9729557" lon="34.9425828">
<ele>529.599976</ele>
<time>2015-10-30T07:26:31.000Z</time>
</trkpt>
<trkpt lat="30.9728690" lon="34.9426082">
<ele>530.000000</ele>
<time>2015-10-30T07:26:34.000Z</time>
</trkpt>
<trkpt lat="30.9727769" lon="34.9426293">
<ele>530.400024</ele>
<time>2015-10-30T07:26:37.000Z</time>
</trkpt>
<trkpt lat="30.9726686" lon="34.9426289">
<ele>530.400024</ele>
<time>2015-10-30T07:26:41.000Z</time>
</trkpt>
<trkpt lat="30.9725819" lon="34.9426104">
<ele>530.599976</ele>
<time>2015-10-30T07:26:45.000Z</time>
</trkpt>
<trkpt lat="30.9724946" lon="34.9425839">
<ele>530.799988</ele>
<time>2015-10-30T07:26:49.000Z</time>
</trkpt>
<trkpt lat="30.9723951" lon="34.9425633">
<ele>531.000000</ele>
<time>2015-10-30T07:26:53.000Z</time>
</trkpt>
<trkpt lat="30.9723172" lon="34.9425079">
<ele>531.400024</ele>
<time>2015-10-30T07:26:56.000Z</time>
</trkpt>
<trkpt lat="30.9722302" lon="34.9424513">
<ele>531.599976</ele>
<time>2015-10-30T07:26:59.000Z</time>
</trkpt>
<trkpt lat="30.9721330" lon="34.9423929">
<ele>532.200012</ele>
<time>2015-10-30T07:27:03.000Z</time>
</trkpt>
<trkpt lat="30.9720318" lon="34.9423441">
<ele>532.799988</ele>
<time>2015-10-30T07:27:07.000Z</time>
</trkpt>
<trkpt lat="30.9719187" lon="34.9423238">
<ele>533.200012</ele>
<time>2015-10-30T07:27:11.000Z</time>
</trkpt>
<trkpt lat="30.9718239" lon="34.9423030">
<ele>533.599976</ele>
<time>2015-10-30T07:27:15.000Z</time>
</trkpt>
<trkpt lat="30.9717098" lon="34.9422966">
<ele>534.200012</ele>
<time>2015-10-30T07:27:19.000Z</time>
</trkpt>
<trkpt lat="30.9716187" lon="34.9423135">
<ele>534.400024</ele>
<time>2015-10-30T07:27:22.000Z</time>
</trkpt>
<trkpt lat="30.9714937" lon="34.9423255">
<ele>534.799988</ele>
<time>2015-10-30T07:27:26.000Z</time>
</trkpt>
<trkpt lat="30.9713942" lon="34.9423474">
<ele>535.000000</ele>
<time>2015-10-30T07:27:29.000Z</time>
</trkpt>
<trkpt lat="30.9712931" lon="34.9424062">
<ele>535.400024</ele>
<time>2015-10-30T07:27:33.000Z</time>
</trkpt>
<trkpt lat="30.9712098" lon="34.9424501">
<ele>535.599976</ele>
<time>2015-10-30T07:27:37.000Z</time>
</trkpt>
<trkpt lat="30.9711121" lon="34.9424773">
<ele>536.000000</ele>
<time>2015-10-30T07:27:42.000Z</time>
</trkpt>
<trkpt lat="30.9710293" lon="34.9425257">
<ele>536.200012</ele>
<time>2015-10-30T07:27:46.000Z</time>
</trkpt>
<trkpt lat="30.9709422" lon="34.9425465">
<ele>536.200012</ele>
<time>2015-10-30T07:27:51.000Z</time>
</trkpt>
<trkpt lat="30.9708545" lon="34.9425791">
<ele>536.400024</ele>
<time>2015-10-30T07:27:57.000Z</time>
</trkpt>
<trkpt lat="30.9707558" lon="34.9425993">
<ele>536.400024</ele>
<time>2015-10-30T07:28:04.000Z</time>
</trkpt>
<trkpt lat="30.9706700" lon="34.9426439">
<ele>536.400024</ele>
<time>2015-10-30T07:28:10.000Z</time>
</trkpt>
<trkpt lat="30.9705737" lon="34.9426611">
<ele>536.400024</ele>
<time>2015-10-30T07:28:15.000Z</time>
</trkpt>
<trkpt lat="30.9704687" lon="34.9426909">
<ele>536.799988</ele>
<time>2015-10-30T07:28:20.000Z</time>
</trkpt>
<trkpt lat="30.9703629" lon="34.9426976">
<ele>537.200012</ele>
<time>2015-10-30T07:28:24.000Z</time>
</trkpt>
<trkpt lat="30.9702503" lon="34.9426936">
<ele>537.400024</ele>
<time>2015-10-30T07:28:28.000Z</time>
</trkpt>
<trkpt lat="30.9701582" lon="34.9426994">
<ele>537.400024</ele>
<time>2015-10-30T07:28:31.000Z</time>
</trkpt>
<trkpt lat="30.9700536" lon="34.9427170">
<ele>537.400024</ele>
<time>2015-10-30T07:28:35.000Z</time>
</trkpt>
<trkpt lat="30.9699514" lon="34.9427070">
<ele>537.599976</ele>
<time>2015-10-30T07:28:40.000Z</time>
</trkpt>
<trkpt lat="30.9698570" lon="34.9426618">
<ele>538.200012</ele>
<time>2015-10-30T07:28:45.000Z</time>
</trkpt>
<trkpt lat="30.9697459" lon="34.9426531">
<ele>538.400024</ele>
<time>2015-10-30T07:28:51.000Z</time>
</trkpt>
<trkpt lat="30.9696531" lon="34.9426147">
<ele>539.000000</ele>
<time>2015-10-30T07:28:56.000Z</time>
</trkpt>
<trkpt lat="30.9695632" lon="34.9425818">
<ele>539.400024</ele>
<time>2015-10-30T07:29:00.000Z</time>
</trkpt>
<trkpt lat="30.9694558" lon="34.9426023">
<ele>539.200012</ele>
<time>2015-10-30T07:29:05.000Z</time>
</trkpt>
<trkpt lat="30.9693603" lon="34.9426214">
<ele>539.599976</ele>
<time>2015-10-30T07:29:10.000Z</time>
</trkpt>
<trkpt lat="30.9692549" lon="34.9426101">
<ele>540.200012</ele>
<time>2015-10-30T07:29:15.000Z</time>
</trkpt>
<trkpt lat="30.9691474" lon="34.9426172">
<ele>540.599976</ele>
<time>2015-10-30T07:29:20.000Z</time>
</trkpt>
<trkpt lat="30.9690523" lon="34.9426606">
<ele>540.799988</ele>
<time>2015-10-30T07:29:24.000Z</time>
</trkpt>
<trkpt lat="30.9689528" lon="34.9427157">
<ele>541.000000</ele>
<time>2015-10-30T07:29:28.000Z</time>
</trkpt>
<trkpt lat="30.9688616" lon="34.9427903">
<ele>540.799988</ele>
<time>2015-10-30T07:29:32.000Z</time>
</trkpt>
<trkpt lat="30.9687718" lon="34.9428813">
<ele>541.000000</ele>
<time>2015-10-30T07:29:36.000Z</time>
</trkpt>
<trkpt lat="30.9687164" lon="34.9429900">
<ele>541.400024</ele>
<time>2015-10-30T07:29:40.000Z</time>
</trkpt>
<trkpt lat="30.9686860" lon="34.9431006">
<ele>541.799988</ele>
<time>2015-10-30T07:29:44.000Z</time>
</trkpt>
<trkpt lat="30.9686586" lon="34.9432177">
<ele>542.200012</ele>
<time>2015-10-30T07:29:48.000Z</time>
</trkpt>
<trkpt lat="30.9686710" lon="34.9433365">
<ele>542.400024</ele>
<time>2015-10-30T07:29:52.000Z</time>
</trkpt>
<trkpt lat="30.9686916" lon="34.9434704">
<ele>542.599976</ele>
<time>2015-10-30T07:29:56.000Z</time>
</trkpt>
<trkpt lat="30.9686858" lon="34.9436037">
<ele>542.799988</ele>
<time>2015-10-30T07:30:00.000Z</time>
</trkpt>
<trkpt lat="30.9686674" lon="34.9437104">
<ele>542.799988</ele>
<time>2015-10-30T07:30:05.000Z</time>
</trkpt>
<trkpt lat="30.9686420" lon="34.9438211">
<ele>543.200012</ele>
<time>2015-10-30T07:30:10.000Z</time>
</trkpt>
<trkpt lat="30.9686115" lon="34.9439226">
<ele>543.799988</ele>
<time>2015-10-30T07:30:15.000Z</time>
</trkpt>
<trkpt lat="30.9685829" lon="34.9440372">
<ele>544.200012</ele>
<time>2015-10-30T07:30:20.000Z</time>
</trkpt>
<trkpt lat="30.9686081" lon="34.9441496">
<ele>544.599976</ele>
<time>2015-10-30T07:30:25.000Z</time>
</trkpt>
<trkpt lat="30.9686301" lon="34.9442769">
<ele>545.000000</ele>
<time>2015-10-30T07:30:29.000Z</time>
</trkpt>
<trkpt lat="30.9686166" lon="34.9443830">
<ele>545.200012</ele>
<time>2015-10-30T07:30:32.000Z</time>
</trkpt>
<trkpt lat="30.9685823" lon="34.9444848">
<ele>545.200012</ele>
<time>2015-10-30T07:30:35.000Z</time>
</trkpt>
<trkpt lat="30.9685482" lon="34.9445888">
<ele>545.599976</ele>
<time>2015-10-30T07:30:38.000Z</time>
</trkpt>
<trkpt lat="30.9684912" lon="34.9446753">
<ele>546.400024</ele>
<time>2015-10-30T07:30:42.000Z</time>
</trkpt>
<trkpt lat="30.9684296" lon="34.9447487">
<ele>547.200012</ele>
<time>2015-10-30T07:30:47.000Z</time>
</trkpt>
<trkpt lat="30.9683699" lon="34.9448401">
<ele>548.200012</ele>
<time>2015-10-30T07:30:52.000Z</time>
</trkpt>
<trkpt lat="30.9683013" lon="34.9449182">
<ele>548.200012</ele>
<time>2015-10-30T07:30:56.000Z</time>
</trkpt>
<trkpt lat="30.9682314" lon="34.9450177">
<ele>548.000000</ele>
<time>2015-10-30T07:31:00.000Z</time>
</trkpt>
<trkpt lat="30.9681778" lon="34.9451472">
<ele>548.000000</ele>
<time>2015-10-30T07:31:04.000Z</time>
</trkpt>
<trkpt lat="30.9681470" lon="34.9452630">
<ele>548.000000</ele>
<time>2015-10-30T07:31:07.000Z</time>
</trkpt>
<trkpt lat="30.9681203" lon="34.9453782">
<ele>548.200012</ele>
<time>2015-10-30T07:31:10.000Z</time>
</trkpt>
<trkpt lat="30.9681049" lon="34.9454947">
<ele>549.000000</ele>
<time>2015-10-30T07:31:13.000Z</time>
</trkpt>
<trkpt lat="30.9680840" lon="34.9456062">
<ele>549.799988</ele>
<time>2015-10-30T07:31:16.000Z</time>
</trkpt>
<trkpt lat="30.9680701" lon="34.9457176">
<ele>550.599976</ele>
<time>2015-10-30T07:31:19.000Z</time>
</trkpt>
<trkpt lat="30.9680570" lon="34.9458191">
<ele>551.599976</ele>
<time>2015-10-30T07:31:22.000Z</time>
</trkpt>
<trkpt lat="30.9680394" lon="34.9459497">
<ele>553.000000</ele>
<time>2015-10-30T07:31:26.000Z</time>
</trkpt>
<trkpt lat="30.9680063" lon="34.9460840">
<ele>554.400024</ele>
<time>2015-10-30T07:31:30.000Z</time>
</trkpt>
<trkpt lat="30.9679950" lon="34.9461915">
<ele>555.200012</ele>
<time>2015-10-30T07:31:33.000Z</time>
</trkpt>
<trkpt lat="30.9679830" lon="34.9462997">
<ele>555.000000</ele>
<time>2015-10-30T07:31:36.000Z</time>
</trkpt>
<trkpt lat="30.9679632" lon="34.9464219">
<ele>555.000000</ele>
<time>2015-10-30T07:31:40.000Z</time>
</trkpt>
<trkpt lat="30.9679547" lon="34.9465355">
<ele>554.799988</ele>
<time>2015-10-30T07:31:44.000Z</time>
</trkpt>
<trkpt lat="30.9680230" lon="34.9466355">
<ele>554.599976</ele>
<time>2015-10-30T07:31:48.000Z</time>
</trkpt>
<trkpt lat="30.9680690" lon="34.9467418">
<ele>554.400024</ele>
<time>2015-10-30T07:31:52.000Z</time>
</trkpt>
<trkpt lat="30.9681011" lon="34.9468629">
<ele>554.599976</ele>
<time>2015-10-30T07:31:57.000Z</time>
</trkpt>
<trkpt lat="30.9681229" lon="34.9469680">
<ele>554.599976</ele>
<time>2015-10-30T07:32:01.000Z</time>
</trkpt>
<trkpt lat="30.9681054" lon="34.9470659">
<ele>554.400024</ele>
<time>2015-10-30T07:32:06.000Z</time>
</trkpt>
<trkpt lat="30.9680294" lon="34.9471502">
<ele>554.000000</ele>
<time>2015-10-30T07:32:13.000Z</time>
</trkpt>
<trkpt lat="30.9679354" lon="34.9471543">
<ele>553.799988</ele>
<time>2015-10-30T07:32:20.000Z</time>
</trkpt>
<trkpt lat="30.9678444" lon="34.9471652">
<ele>553.799988</ele>
<time>2015-10-30T07:32:26.000Z</time>
</trkpt>
<trkpt lat="30.9677840" lon="34.9472437">
<ele>553.599976</ele>
<time>2015-10-30T07:32:32.000Z</time>
</trkpt>
<trkpt lat="30.9677051" lon="34.9473334">
<ele>553.599976</ele>
<time>2015-10-30T07:32:40.000Z</time>
</trkpt>
<trkpt lat="30.9676179" lon="34.9473933">
<ele>553.400024</ele>
<time>2015-10-30T07:32:47.000Z</time>
</trkpt>
<trkpt lat="30.9675611" lon="34.9474669">
<ele>553.599976</ele>
<time>2015-10-30T07:32:54.000Z</time>
</trkpt>
<trkpt lat="30.9675842" lon="34.9475835">
<ele>553.799988</ele>
<time>2015-10-30T07:33:01.000Z</time>
</trkpt>
<trkpt lat="30.9676012" lon="34.9476921">
<ele>554.000000</ele>
<time>2015-10-30T07:33:07.000Z</time>
</trkpt>
<trkpt lat="30.9676225" lon="34.9478074">
<ele>554.400024</ele>
<time>2015-10-30T07:33:13.000Z</time>
</trkpt>
<trkpt lat="30.9676074" lon="34.9479187">
<ele>554.599976</ele>
<time>2015-10-30T07:33:18.000Z</time>
</trkpt>
<trkpt lat="30.9675718" lon="34.9480305">
<ele>555.000000</ele>
<time>2015-10-30T07:33:24.000Z</time>
</trkpt>
<trkpt lat="30.9675407" lon="34.9481478">
<ele>555.599976</ele>
<time>2015-10-30T07:33:30.000Z</time>
</trkpt>
<trkpt lat="30.9674775" lon="34.9482341">
<ele>555.599976</ele>
<time>2015-10-30T07:33:37.000Z</time>
</trkpt>
<trkpt lat="30.9674506" lon="34.9483381">
<ele>555.799988</ele>
<time>2015-10-30T07:33:43.000Z</time>
</trkpt>
<trkpt lat="30.9674734" lon="34.9484423">
<ele>556.000000</ele>
<time>2015-10-30T07:33:48.000Z</time>
</trkpt>
<trkpt lat="30.9674255" lon="34.9485129">
<ele>556.000000</ele>
<time>2015-10-30T07:34:04.000Z</time>
</trkpt>
<trkpt lat="30.9675070" lon="34.9485600">
<ele>556.000000</ele>
<time>2015-10-30T07:34:24.000Z</time>
</trkpt>
<trkpt lat="30.9675993" lon="34.9485407">
<ele>556.200012</ele>
<time>2015-10-30T07:34:34.000Z</time>
</trkpt>
<trkpt lat="30.9676818" lon="34.9484914">
<ele>556.200012</ele>
<time>2015-10-30T07:34:40.000Z</time>
</trkpt>
<trkpt lat="30.9677168" lon="34.9485868">
<ele>556.400024</ele>
<time>2015-10-30T07:34:48.000Z</time>
</trkpt>
<trkpt lat="30.9677311" lon="34.9487023">
<ele>556.599976</ele>
<time>2015-10-30T07:34:54.000Z</time>
</trkpt>
<trkpt lat="30.9677640" lon="34.9488222">
<ele>557.200012</ele>
<time>2015-10-30T07:35:00.000Z</time>
</trkpt>
<trkpt lat="30.9678030" lon="34.9489194">
<ele>558.000000</ele>
<time>2015-10-30T07:35:05.000Z</time>
</trkpt>
<trkpt lat="30.9678413" lon="34.9490183">
<ele>558.799988</ele>
<time>2015-10-30T07:35:10.000Z</time>
</trkpt>
<trkpt lat="30.9678628" lon="34.9491217">
<ele>559.400024</ele>
<time>2015-10-30T07:35:15.000Z</time>
</trkpt>
<trkpt lat="30.9678985" lon="34.9492271">
<ele>560.200012</ele>
<time>2015-10-30T07:35:20.000Z</time>
</trkpt>
<trkpt lat="30.9679430" lon="34.9493246">
<ele>561.000000</ele>
<time>2015-10-30T07:35:25.000Z</time>
</trkpt>
<trkpt lat="30.9680028" lon="34.9494056">
<ele>561.599976</ele>
<time>2015-10-30T07:35:30.000Z</time>
</trkpt>
<trkpt lat="30.9680566" lon="34.9494927">
<ele>562.400024</ele>
<time>2015-10-30T07:35:35.000Z</time>
</trkpt>
<trkpt lat="30.9681178" lon="34.9495752">
<ele>563.000000</ele>
<time>2015-10-30T07:35:40.000Z</time>
</trkpt>
<trkpt lat="30.9681491" lon="34.9496738">
<ele>563.799988</ele>
<time>2015-10-30T07:35:46.000Z</time>
</trkpt>
<trkpt lat="30.9681722" lon="34.9497972">
<ele>564.400024</ele>
<time>2015-10-30T07:35:51.000Z</time>
</trkpt>
<trkpt lat="30.9682164" lon="34.9499063">
<ele>565.000000</ele>
<time>2015-10-30T07:35:56.000Z</time>
</trkpt>
<trkpt lat="30.9682618" lon="34.9499981">
<ele>565.599976</ele>
<time>2015-10-30T07:36:01.000Z</time>
</trkpt>
<trkpt lat="30.9683224" lon="34.9500798">
<ele>566.400024</ele>
<time>2015-10-30T07:36:06.000Z</time>
</trkpt>
<trkpt lat="30.9683842" lon="34.9501575">
<ele>566.799988</ele>
<time>2015-10-30T07:36:11.000Z</time>
</trkpt>
<trkpt lat="30.9683969" lon="34.9501913">
<ele>567.200012</ele>
<time>2015-10-30T07:36:39.000Z</time>
</trkpt>
<trkpt lat="30.9684495" lon="34.9502957">
<ele>567.799988</ele>
<time>2015-10-30T07:37:27.000Z</time>
</trkpt>
<trkpt lat="30.9685053" lon="34.9504150">
<ele>568.599976</ele>
<time>2015-10-30T07:37:32.000Z</time>
</trkpt>
<trkpt lat="30.9685503" lon="34.9505270">
<ele>568.599976</ele>
<time>2015-10-30T07:37:36.000Z</time>
</trkpt>
<trkpt lat="30.9685861" lon="34.9506418">
<ele>568.599976</ele>
<time>2015-10-30T07:37:40.000Z</time>
</trkpt>
<trkpt lat="30.9686108" lon="34.9507476">
<ele>568.599976</ele>
<time>2015-10-30T07:37:44.000Z</time>
</trkpt>
<trkpt lat="30.9686498" lon="34.9508420">
<ele>568.599976</ele>
<time>2015-10-30T07:37:48.000Z</time>
</trkpt>
<trkpt lat="30.9686731" lon="34.9509507">
<ele>568.400024</ele>
<time>2015-10-30T07:37:52.000Z</time>
</trkpt>
<trkpt lat="30.9686622" lon="34.9510638">
<ele>568.799988</ele>
<time>2015-10-30T07:37:56.000Z</time>
</trkpt>
<trkpt lat="30.9686604" lon="34.9511769">
<ele>569.599976</ele>
<time>2015-10-30T07:38:00.000Z</time>
</trkpt>
<trkpt lat="30.9687014" lon="34.9512897">
<ele>569.599976</ele>
<time>2015-10-30T07:38:04.000Z</time>
</trkpt>
<trkpt lat="30.9687755" lon="34.9513931">
<ele>569.000000</ele>
<time>2015-10-30T07:38:08.000Z</time>
</trkpt>
<trkpt lat="30.9688126" lon="34.9515108">
<ele>568.400024</ele>
<time>2015-10-30T07:38:12.000Z</time>
</trkpt>
<trkpt lat="30.9688380" lon="34.9516139">
<ele>568.000000</ele>
<time>2015-10-30T07:38:16.000Z</time>
</trkpt>
<trkpt lat="30.9688614" lon="34.9517298">
<ele>567.400024</ele>
<time>2015-10-30T07:38:21.000Z</time>
</trkpt>
<trkpt lat="30.9688715" lon="34.9518311">
<ele>567.000000</ele>
<time>2015-10-30T07:39:21.000Z</time>
</trkpt>
<trkpt lat="30.9688348" lon="34.9519339">
<ele>566.799988</ele>
<time>2015-10-30T07:39:26.000Z</time>
</trkpt>
<trkpt lat="30.9688075" lon="34.9520393">
<ele>567.200012</ele>
<time>2015-10-30T07:39:31.000Z</time>
</trkpt>
<trkpt lat="30.9688917" lon="34.9520896">
<ele>566.400024</ele>
<time>2015-10-30T07:39:40.000Z</time>
</trkpt>
<trkpt lat="30.9689827" lon="34.9521218">
<ele>565.799988</ele>
<time>2015-10-30T07:39:51.000Z</time>
</trkpt>
<trkpt lat="30.9690695" lon="34.9522014">
<ele>565.599976</ele>
<time>2015-10-30T07:40:06.000Z</time>
</trkpt>
<trkpt lat="30.9691450" lon="34.9522816">
<ele>565.400024</ele>
<time>2015-10-30T07:40:11.000Z</time>
</trkpt>
<trkpt lat="30.9691968" lon="34.9523812">
<ele>565.400024</ele>
<time>2015-10-30T07:40:16.000Z</time>
</trkpt>
<trkpt lat="30.9692476" lon="34.9524748">
<ele>565.599976</ele>
<time>2015-10-30T07:40:21.000Z</time>
</trkpt>
<trkpt lat="30.9692949" lon="34.9525736">
<ele>566.000000</ele>
<time>2015-10-30T07:40:26.000Z</time>
</trkpt>
<trkpt lat="30.9693370" lon="34.9526790">
<ele>566.200012</ele>
<time>2015-10-30T07:40:31.000Z</time>
</trkpt>
<trkpt lat="30.9693416" lon="34.9527877">
<ele>567.000000</ele>
<time>2015-10-30T07:40:35.000Z</time>
</trkpt>
<trkpt lat="30.9693452" lon="34.9529090">
<ele>567.799988</ele>
<time>2015-10-30T07:40:39.000Z</time>
</trkpt>
<trkpt lat="30.9693448" lon="34.9530407">
<ele>567.599976</ele>
<time>2015-10-30T07:40:43.000Z</time>
</trkpt>
<trkpt lat="30.9693363" lon="34.9531640">
<ele>567.599976</ele>
<time>2015-10-30T07:40:47.000Z</time>
</trkpt>
<trkpt lat="30.9693409" lon="34.9532940">
<ele>567.400024</ele>
<time>2015-10-30T07:40:51.000Z</time>
</trkpt>
<trkpt lat="30.9693946" lon="34.9533934">
<ele>566.799988</ele>
<time>2015-10-30T07:40:56.000Z</time>
</trkpt>
<trkpt lat="30.9694686" lon="34.9534846">
<ele>566.000000</ele>
<time>2015-10-30T07:41:00.000Z</time>
</trkpt>
<trkpt lat="30.9695001" lon="34.9535892">
<ele>565.799988</ele>
<time>2015-10-30T07:41:04.000Z</time>
</trkpt>
<trkpt lat="30.9695387" lon="34.9537226">
<ele>565.599976</ele>
<time>2015-10-30T07:41:08.000Z</time>
</trkpt>
<trkpt lat="30.9695548" lon="34.9538257">
<ele>565.599976</ele>
<time>2015-10-30T07:41:11.000Z</time>
</trkpt>
<trkpt lat="30.9695704" lon="34.9539291">
<ele>565.400024</ele>
<time>2015-10-30T07:41:15.000Z</time>
</trkpt>
<trkpt lat="30.9694991" lon="34.9540068">
<ele>566.200012</ele>
<time>2015-10-30T07:41:20.000Z</time>
</trkpt>
<trkpt lat="30.9694958" lon="34.9541150">
<ele>566.200012</ele>
<time>2015-10-30T07:41:25.000Z</time>
</trkpt>
<trkpt lat="30.9695580" lon="34.9541979">
<ele>565.400024</ele>
<time>2015-10-30T07:41:30.000Z</time>
</trkpt>
<trkpt lat="30.9696179" lon="34.9542909">
<ele>564.599976</ele>
<time>2015-10-30T07:41:35.000Z</time>
</trkpt>
<trkpt lat="30.9696619" lon="34.9543864">
<ele>564.000000</ele>
<time>2015-10-30T07:41:39.000Z</time>
</trkpt>
<trkpt lat="30.9696717" lon="34.9545061">
<ele>564.000000</ele>
<time>2015-10-30T07:41:43.000Z</time>
</trkpt>
<trkpt lat="30.9696690" lon="34.9546148">
<ele>564.000000</ele>
<time>2015-10-30T07:41:46.000Z</time>
</trkpt>
<trkpt lat="30.9696776" lon="34.9547311">
<ele>563.799988</ele>
<time>2015-10-30T07:41:49.000Z</time>
</trkpt>
<trkpt lat="30.9696950" lon="34.9548495">
<ele>563.599976</ele>
<time>2015-10-30T07:41:52.000Z</time>
</trkpt>
<trkpt lat="30.9697222" lon="34.9549672">
<ele>563.400024</ele>
<time>2015-10-30T07:41:55.000Z</time>
</trkpt>
<trkpt lat="30.9697642" lon="34.9550865">
<ele>563.000000</ele>
<time>2015-10-30T07:41:58.000Z</time>
</trkpt>
<trkpt lat="30.9697993" lon="34.9552023">
<ele>562.799988</ele>
<time>2015-10-30T07:42:01.000Z</time>
</trkpt>
<trkpt lat="30.9698107" lon="34.9553236">
<ele>562.599976</ele>
<time>2015-10-30T07:42:04.000Z</time>
</trkpt>
<trkpt lat="30.9698008" lon="34.9554456">
<ele>563.000000</ele>
<time>2015-10-30T07:42:07.000Z</time>
</trkpt>
<trkpt lat="30.9697721" lon="34.9555688">
<ele>562.400024</ele>
<time>2015-10-30T07:42:10.000Z</time>
</trkpt>
<trkpt lat="30.9697342" lon="34.9556835">
<ele>561.799988</ele>
<time>2015-10-30T07:42:13.000Z</time>
</trkpt>
<trkpt lat="30.9696866" lon="34.9557929">
<ele>562.000000</ele>
<time>2015-10-30T07:42:16.000Z</time>
</trkpt>
<trkpt lat="30.9696243" lon="34.9558897">
<ele>562.400024</ele>
<time>2015-10-30T07:42:19.000Z</time>
</trkpt>
<trkpt lat="30.9695583" lon="34.9559664">
<ele>563.000000</ele>
<time>2015-10-30T07:42:22.000Z</time>
</trkpt>
<trkpt lat="30.9694839" lon="34.9560511">
<ele>563.599976</ele>
<time>2015-10-30T07:42:25.000Z</time>
</trkpt>
<trkpt lat="30.9694206" lon="34.9561417">
<ele>563.799988</ele>
<time>2015-10-30T07:42:28.000Z</time>
</trkpt>
<trkpt lat="30.9693891" lon="34.9562611">
<ele>563.799988</ele>
<time>2015-10-30T07:42:32.000Z</time>
</trkpt>
<trkpt lat="30.9693301" lon="34.9563507">
<ele>565.599976</ele>
<time>2015-10-30T07:42:36.000Z</time>
</trkpt>
<trkpt lat="30.9692356" lon="34.9564117">
<ele>567.599976</ele>
<time>2015-10-30T07:42:40.000Z</time>
</trkpt>
<trkpt lat="30.9691382" lon="34.9564109">
<ele>568.799988</ele>
<time>2015-10-30T07:42:44.000Z</time>
</trkpt>
<trkpt lat="30.9690238" lon="34.9564360">
<ele>569.400024</ele>
<time>2015-10-30T07:42:49.000Z</time>
</trkpt>
<trkpt lat="30.9689284" lon="34.9564747">
<ele>569.000000</ele>
<time>2015-10-30T07:42:54.000Z</time>
</trkpt>
<trkpt lat="30.9688229" lon="34.9565132">
<ele>570.000000</ele>
<time>2015-10-30T07:42:59.000Z</time>
</trkpt>
<trkpt lat="30.9687196" lon="34.9565082">
<ele>571.400024</ele>
<time>2015-10-30T07:43:03.000Z</time>
</trkpt>
<trkpt lat="30.9686141" lon="34.9565310">
<ele>572.799988</ele>
<time>2015-10-30T07:43:08.000Z</time>
</trkpt>
<trkpt lat="30.9685120" lon="34.9565711">
<ele>574.200012</ele>
<time>2015-10-30T07:43:14.000Z</time>
</trkpt>
<trkpt lat="30.9684027" lon="34.9565971">
<ele>575.400024</ele>
<time>2015-10-30T07:43:19.000Z</time>
</trkpt>
<trkpt lat="30.9682959" lon="34.9565931">
<ele>576.000000</ele>
<time>2015-10-30T07:43:24.000Z</time>
</trkpt>
<trkpt lat="30.9682105" lon="34.9565620">
<ele>576.799988</ele>
<time>2015-10-30T07:43:28.000Z</time>
</trkpt>
<trkpt lat="30.9681112" lon="34.9565492">
<ele>577.400024</ele>
<time>2015-10-30T07:43:33.000Z</time>
</trkpt>
<trkpt lat="30.9680191" lon="34.9566019">
<ele>577.599976</ele>
<time>2015-10-30T07:43:37.000Z</time>
</trkpt>
<trkpt lat="30.9679228" lon="34.9565937">
<ele>579.000000</ele>
<time>2015-10-30T07:43:42.000Z</time>
</trkpt>
<trkpt lat="30.9678237" lon="34.9565676">
<ele>580.599976</ele>
<time>2015-10-30T07:43:49.000Z</time>
</trkpt>
<trkpt lat="30.9677267" lon="34.9565607">
<ele>582.000000</ele>
<time>2015-10-30T07:43:54.000Z</time>
</trkpt>
<trkpt lat="30.9676179" lon="34.9565771">
<ele>583.200012</ele>
<time>2015-10-30T07:44:00.000Z</time>
</trkpt>
<trkpt lat="30.9675156" lon="34.9565800">
<ele>584.000000</ele>
<time>2015-10-30T07:44:05.000Z</time>
</trkpt>
<trkpt lat="30.9674236" lon="34.9565862">
<ele>584.599976</ele>
<time>2015-10-30T07:44:09.000Z</time>
</trkpt>
<trkpt lat="30.9673200" lon="34.9566210">
<ele>584.400024</ele>
<time>2015-10-30T07:44:14.000Z</time>
</trkpt>
<trkpt lat="30.9672396" lon="34.9566743">
<ele>583.799988</ele>
<time>2015-10-30T07:44:18.000Z</time>
</trkpt>
<trkpt lat="30.9671315" lon="34.9567155">
<ele>584.000000</ele>
<time>2015-10-30T07:44:23.000Z</time>
</trkpt>
<trkpt lat="30.9670375" lon="34.9567572">
<ele>584.200012</ele>
<time>2015-10-30T07:44:28.000Z</time>
</trkpt>
<trkpt lat="30.9669550" lon="34.9568195">
<ele>583.599976</ele>
<time>2015-10-30T07:44:34.000Z</time>
</trkpt>
<trkpt lat="30.9668881" lon="34.9568920">
<ele>582.200012</ele>
<time>2015-10-30T07:44:45.000Z</time>
</trkpt>
<trkpt lat="30.9668315" lon="34.9569639">
<ele>580.799988</ele>
<time>2015-10-30T07:44:56.000Z</time>
</trkpt>
<trkpt lat="30.9667904" lon="34.9570465">
<ele>579.000000</ele>
<time>2015-10-30T07:45:11.000Z</time>
</trkpt>
<trkpt lat="30.9667366" lon="34.9571240">
<ele>579.599976</ele>
<time>2015-10-30T07:45:24.000Z</time>
</trkpt>
<trkpt lat="30.9667123" lon="34.9572374">
<ele>581.799988</ele>
<time>2015-10-30T07:45:36.000Z</time>
</trkpt>
<trkpt lat="30.9666550" lon="34.9573157">
<ele>583.599976</ele>
<time>2015-10-30T07:45:47.000Z</time>
</trkpt>
<trkpt lat="30.9665937" lon="34.9573930">
<ele>582.400024</ele>
<time>2015-10-30T07:46:00.000Z</time>
</trkpt>
<trkpt lat="30.9665282" lon="34.9574539">
<ele>581.400024</ele>
<time>2015-10-30T07:46:13.000Z</time>
</trkpt>
<trkpt lat="30.9664402" lon="34.9575001">
<ele>579.799988</ele>
<time>2015-10-30T07:46:27.000Z</time>
</trkpt>
<trkpt lat="30.9663391" lon="34.9575423">
<ele>581.200012</ele>
<time>2015-10-30T07:46:34.000Z</time>
</trkpt>
<trkpt lat="30.9662615" lon="34.9576141">
<ele>582.799988</ele>
<time>2015-10-30T07:46:40.000Z</time>
</trkpt>
<trkpt lat="30.9662049" lon="34.9577021">
<ele>584.000000</ele>
<time>2015-10-30T07:46:45.000Z</time>
</trkpt>
<trkpt lat="30.9661369" lon="34.9577925">
<ele>583.000000</ele>
<time>2015-10-30T07:46:50.000Z</time>
</trkpt>
<trkpt lat="30.9660738" lon="34.9578771">
<ele>582.200012</ele>
<time>2015-10-30T07:46:55.000Z</time>
</trkpt>
<trkpt lat="30.9659998" lon="34.9579431">
<ele>583.200012</ele>
<time>2015-10-30T07:47:00.000Z</time>
</trkpt>
<trkpt lat="30.9659233" lon="34.9580065">
<ele>585.200012</ele>
<time>2015-10-30T07:47:05.000Z</time>
</trkpt>
<trkpt lat="30.9658448" lon="34.9580761">
<ele>587.599976</ele>
<time>2015-10-30T07:47:11.000Z</time>
</trkpt>
<trkpt lat="30.9657981" lon="34.9581819">
<ele>588.799988</ele>
<time>2015-10-30T07:47:17.000Z</time>
</trkpt>
<trkpt lat="30.9657308" lon="34.9582567">
<ele>587.599976</ele>
<time>2015-10-30T07:47:23.000Z</time>
</trkpt>
<trkpt lat="30.9656381" lon="34.9583317">
<ele>585.799988</ele>
<time>2015-10-30T07:47:30.000Z</time>
</trkpt>
<trkpt lat="30.9655629" lon="34.9583958">
<ele>585.000000</ele>
<time>2015-10-30T07:47:34.000Z</time>
</trkpt>
<trkpt lat="30.9654823" lon="34.9584505">
<ele>586.599976</ele>
<time>2015-10-30T07:47:39.000Z</time>
</trkpt>
<trkpt lat="30.9654013" lon="34.9585021">
<ele>588.200012</ele>
<time>2015-10-30T07:47:44.000Z</time>
</trkpt>
<trkpt lat="30.9653110" lon="34.9585341">
<ele>589.200012</ele>
<time>2015-10-30T07:47:50.000Z</time>
</trkpt>
<trkpt lat="30.9652313" lon="34.9586041">
<ele>588.599976</ele>
<time>2015-10-30T07:47:57.000Z</time>
</trkpt>
<trkpt lat="30.9651695" lon="34.9587181">
<ele>587.000000</ele>
<time>2015-10-30T07:48:05.000Z</time>
</trkpt>
<trkpt lat="30.9651058" lon="34.9588024">
<ele>587.599976</ele>
<time>2015-10-30T07:48:10.000Z</time>
</trkpt>
<trkpt lat="30.9650464" lon="34.9588887">
<ele>589.200012</ele>
<time>2015-10-30T07:48:18.000Z</time>
</trkpt>
<trkpt lat="30.9650066" lon="34.9589811">
<ele>590.599976</ele>
<time>2015-10-30T07:48:25.000Z</time>
</trkpt>
<trkpt lat="30.9649402" lon="34.9590609">
<ele>590.200012</ele>
<time>2015-10-30T07:48:31.000Z</time>
</trkpt>
<trkpt lat="30.9648745" lon="34.9591547">
<ele>589.200012</ele>
<time>2015-10-30T07:48:37.000Z</time>
</trkpt>
<trkpt lat="30.9647917" lon="34.9592008">
<ele>588.200012</ele>
<time>2015-10-30T07:48:42.000Z</time>
</trkpt>
<trkpt lat="30.9647073" lon="34.9592361">
<ele>588.400024</ele>
<time>2015-10-30T07:48:48.000Z</time>
</trkpt>
<trkpt lat="30.9646122" lon="34.9592614">
<ele>590.000000</ele>
<time>2015-10-30T07:48:54.000Z</time>
</trkpt>
<trkpt lat="30.9645222" lon="34.9592675">
<ele>591.799988</ele>
<time>2015-10-30T07:49:00.000Z</time>
</trkpt>
<trkpt lat="30.9644276" lon="34.9592656">
<ele>593.599976</ele>
<time>2015-10-30T07:49:06.000Z</time>
</trkpt>
<trkpt lat="30.9643420" lon="34.9592678">
<ele>594.200012</ele>
<time>2015-10-30T07:49:20.000Z</time>
</trkpt>
<trkpt lat="30.9642549" lon="34.9593010">
<ele>594.400024</ele>
<time>2015-10-30T07:49:33.000Z</time>
</trkpt>
<trkpt lat="30.9641695" lon="34.9593107">
<ele>595.000000</ele>
<time>2015-10-30T07:49:45.000Z</time>
</trkpt>
<trkpt lat="30.9640761" lon="34.9593326">
<ele>595.400024</ele>
<time>2015-10-30T07:50:03.000Z</time>
</trkpt>
<trkpt lat="30.9639952" lon="34.9593510">
<ele>595.799988</ele>
<time>2015-10-30T07:50:17.000Z</time>
</trkpt>
<trkpt lat="30.9639595" lon="34.9594418">
<ele>594.599976</ele>
<time>2015-10-30T07:50:29.000Z</time>
</trkpt>
<trkpt lat="30.9639607" lon="34.9595449">
<ele>593.000000</ele>
<time>2015-10-30T07:50:41.000Z</time>
</trkpt>
<trkpt lat="30.9639545" lon="34.9596467">
<ele>593.200012</ele>
<time>2015-10-30T07:50:55.000Z</time>
</trkpt>
<trkpt lat="30.9639545" lon="34.9597718">
<ele>593.599976</ele>
<time>2015-10-30T07:51:04.000Z</time>
</trkpt>
<trkpt lat="30.9639369" lon="34.9598828">
<ele>594.000000</ele>
<time>2015-10-30T07:51:09.000Z</time>
</trkpt>
<trkpt lat="30.9638840" lon="34.9599794">
<ele>595.200012</ele>
<time>2015-10-30T07:51:15.000Z</time>
</trkpt>
<trkpt lat="30.9638196" lon="34.9600521">
<ele>597.200012</ele>
<time>2015-10-30T07:51:22.000Z</time>
</trkpt>
<trkpt lat="30.9637375" lon="34.9600537">
<ele>599.200012</ele>
<time>2015-10-30T07:51:42.000Z</time>
</trkpt>
<trkpt lat="30.9636572" lon="34.9600822">
<ele>601.599976</ele>
<time>2015-10-30T07:51:56.000Z</time>
</trkpt>
<trkpt lat="30.9635845" lon="34.9601182">
<ele>603.000000</ele>
<time>2015-10-30T07:52:10.000Z</time>
</trkpt>
<trkpt lat="30.9635199" lon="34.9601938">
<ele>602.799988</ele>
<time>2015-10-30T07:52:24.000Z</time>
</trkpt>
<trkpt lat="30.9634634" lon="34.9602694">
<ele>602.599976</ele>
<time>2015-10-30T07:52:43.000Z</time>
</trkpt>
<trkpt lat="30.9633738" lon="34.9603494">
<ele>602.599976</ele>
<time>2015-10-30T07:52:56.000Z</time>
</trkpt>
<trkpt lat="30.9632780" lon="34.9603954">
<ele>603.000000</ele>
<time>2015-10-30T07:53:02.000Z</time>
</trkpt>
<trkpt lat="30.9632050" lon="34.9604653">
<ele>604.400024</ele>
<time>2015-10-30T07:53:08.000Z</time>
</trkpt>
<trkpt lat="30.9631806" lon="34.9605698">
<ele>605.599976</ele>
<time>2015-10-30T07:53:15.000Z</time>
</trkpt>
<trkpt lat="30.9631392" lon="34.9606667">
<ele>605.599976</ele>
<time>2015-10-30T07:53:21.000Z</time>
</trkpt>
<trkpt lat="30.9630920" lon="34.9607658">
<ele>605.799988</ele>
<time>2015-10-30T07:53:26.000Z</time>
</trkpt>
<trkpt lat="30.9630424" lon="34.9608608">
<ele>607.000000</ele>
<time>2015-10-30T07:53:30.000Z</time>
</trkpt>
<trkpt lat="30.9629832" lon="34.9609459">
<ele>608.599976</ele>
<time>2015-10-30T07:53:36.000Z</time>
</trkpt>
<trkpt lat="30.9629080" lon="34.9610252">
<ele>610.599976</ele>
<time>2015-10-30T07:53:42.000Z</time>
</trkpt>
<trkpt lat="30.9628270" lon="34.9610992">
<ele>609.799988</ele>
<time>2015-10-30T07:53:48.000Z</time>
</trkpt>
<trkpt lat="30.9627491" lon="34.9611699">
<ele>608.000000</ele>
<time>2015-10-30T07:53:53.000Z</time>
</trkpt>
<trkpt lat="30.9626675" lon="34.9612409">
<ele>606.000000</ele>
<time>2015-10-30T07:53:58.000Z</time>
</trkpt>
<trkpt lat="30.9625817" lon="34.9613217">
<ele>607.200012</ele>
<time>2015-10-30T07:54:03.000Z</time>
</trkpt>
<trkpt lat="30.9625041" lon="34.9614130">
<ele>608.599976</ele>
<time>2015-10-30T07:54:08.000Z</time>
</trkpt>
<trkpt lat="30.9624380" lon="34.9614909">
<ele>609.000000</ele>
<time>2015-10-30T07:54:13.000Z</time>
</trkpt>
<trkpt lat="30.9623616" lon="34.9615674">
<ele>607.400024</ele>
<time>2015-10-30T07:54:18.000Z</time>
</trkpt>
<trkpt lat="30.9622839" lon="34.9616407">
<ele>605.799988</ele>
<time>2015-10-30T07:54:23.000Z</time>
</trkpt>
<trkpt lat="30.9621848" lon="34.9616914">
<ele>606.400024</ele>
<time>2015-10-30T07:54:28.000Z</time>
</trkpt>
<trkpt lat="30.9620959" lon="34.9617203">
<ele>608.400024</ele>
<time>2015-10-30T07:54:33.000Z</time>
</trkpt>
<trkpt lat="30.9620168" lon="34.9617644">
<ele>610.200012</ele>
<time>2015-10-30T07:54:38.000Z</time>
</trkpt>
<trkpt lat="30.9619224" lon="34.9618057">
<ele>611.200012</ele>
<time>2015-10-30T07:54:44.000Z</time>
</trkpt>
<trkpt lat="30.9618483" lon="34.9618708">
<ele>609.599976</ele>
<time>2015-10-30T07:54:49.000Z</time>
</trkpt>
<trkpt lat="30.9617761" lon="34.9619354">
<ele>608.200012</ele>
<time>2015-10-30T07:54:54.000Z</time>
</trkpt>
<trkpt lat="30.9617057" lon="34.9620050">
<ele>606.599976</ele>
<time>2015-10-30T07:54:59.000Z</time>
</trkpt>
<trkpt lat="30.9616537" lon="34.9621071">
<ele>605.599976</ele>
<time>2015-10-30T07:55:04.000Z</time>
</trkpt>
<trkpt lat="30.9616714" lon="34.9622073">
<ele>607.599976</ele>
<time>2015-10-30T07:55:12.000Z</time>
</trkpt>
<trkpt lat="30.9616037" lon="34.9622980">
<ele>609.000000</ele>
<time>2015-10-30T07:55:25.000Z</time>
</trkpt>
<trkpt lat="30.9615385" lon="34.9623997">
<ele>608.000000</ele>
<time>2015-10-30T07:55:31.000Z</time>
</trkpt>
<trkpt lat="30.9614670" lon="34.9624957">
<ele>607.000000</ele>
<time>2015-10-30T07:55:37.000Z</time>
</trkpt>
<trkpt lat="30.9614202" lon="34.9625965">
<ele>606.400024</ele>
<time>2015-10-30T07:55:43.000Z</time>
</trkpt>
<trkpt lat="30.9613702" lon="34.9626951">
<ele>607.000000</ele>
<time>2015-10-30T07:55:49.000Z</time>
</trkpt>
<trkpt lat="30.9613297" lon="34.9628078">
<ele>608.000000</ele>
<time>2015-10-30T07:55:55.000Z</time>
</trkpt>
<trkpt lat="30.9613016" lon="34.9629185">
<ele>607.000000</ele>
<time>2015-10-30T07:56:01.000Z</time>
</trkpt>
<trkpt lat="30.9612448" lon="34.9630005">
<ele>607.599976</ele>
<time>2015-10-30T07:56:08.000Z</time>
</trkpt>
<trkpt lat="30.9612148" lon="34.9630515">
<ele>607.799988</ele>
<time>2015-10-30T07:56:24.000Z</time>
</trkpt>
<trkpt lat="30.9612567" lon="34.9631550">
<ele>608.400024</ele>
<time>2015-10-30T07:56:34.000Z</time>
</trkpt>
<trkpt lat="30.9612896" lon="34.9632628">
<ele>609.200012</ele>
<time>2015-10-30T07:56:40.000Z</time>
</trkpt>
<trkpt lat="30.9613363" lon="34.9633656">
<ele>609.799988</ele>
<time>2015-10-30T07:56:45.000Z</time>
</trkpt>
<trkpt lat="30.9613722" lon="34.9634695">
<ele>610.400024</ele>
<time>2015-10-30T07:56:51.000Z</time>
</trkpt>
<trkpt lat="30.9614177" lon="34.9635689">
<ele>611.200012</ele>
<time>2015-10-30T07:56:57.000Z</time>
</trkpt>
<trkpt lat="30.9614364" lon="34.9636900">
<ele>612.400024</ele>
<time>2015-10-30T07:57:04.000Z</time>
</trkpt>
<trkpt lat="30.9614476" lon="34.9638030">
<ele>612.799988</ele>
<time>2015-10-30T07:57:11.000Z</time>
</trkpt>
<trkpt lat="30.9614608" lon="34.9639147">
<ele>613.599976</ele>
<time>2015-10-30T07:57:18.000Z</time>
</trkpt>
<trkpt lat="30.9615045" lon="34.9640235">
<ele>614.799988</ele>
<time>2015-10-30T07:57:25.000Z</time>
</trkpt>
<trkpt lat="30.9615479" lon="34.9641283">
<ele>615.799988</ele>
<time>2015-10-30T07:57:32.000Z</time>
</trkpt>
<trkpt lat="30.9615934" lon="34.9642276">
<ele>617.000000</ele>
<time>2015-10-30T07:57:39.000Z</time>
</trkpt>
<trkpt lat="30.9616479" lon="34.9643165">
<ele>618.200012</ele>
<time>2015-10-30T07:57:46.000Z</time>
</trkpt>
<trkpt lat="30.9616981" lon="34.9644085">
<ele>619.400024</ele>
<time>2015-10-30T07:57:52.000Z</time>
</trkpt>
<trkpt lat="30.9617521" lon="34.9645120">
<ele>620.599976</ele>
<time>2015-10-30T07:57:58.000Z</time>
</trkpt>
<trkpt lat="30.9618148" lon="34.9646061">
<ele>620.799988</ele>
<time>2015-10-30T07:58:04.000Z</time>
</trkpt>
<trkpt lat="30.9618578" lon="34.9647097">
<ele>618.200012</ele>
<time>2015-10-30T07:58:10.000Z</time>
</trkpt>
<trkpt lat="30.9618576" lon="34.9648264">
<ele>614.400024</ele>
<time>2015-10-30T07:58:16.000Z</time>
</trkpt>
<trkpt lat="30.9618886" lon="34.9649259">
<ele>611.599976</ele>
<time>2015-10-30T07:58:22.000Z</time>
</trkpt>
<trkpt lat="30.9619185" lon="34.9650426">
<ele>608.200012</ele>
<time>2015-10-30T07:58:27.000Z</time>
</trkpt>
<trkpt lat="30.9619581" lon="34.9651391">
<ele>606.200012</ele>
<time>2015-10-30T07:58:32.000Z</time>
</trkpt>
<trkpt lat="30.9619980" lon="34.9652440">
<ele>605.400024</ele>
<time>2015-10-30T07:58:37.000Z</time>
</trkpt>
<trkpt lat="30.9620203" lon="34.9653430">
<ele>604.799988</ele>
<time>2015-10-30T07:58:42.000Z</time>
</trkpt>
<trkpt lat="30.9620443" lon="34.9654374">
<ele>603.599976</ele>
<time>2015-10-30T07:59:13.000Z</time>
</trkpt>
<trkpt lat="30.9620573" lon="34.9653661">
<ele>604.200012</ele>
<time>2015-10-30T08:08:35.000Z</time>
</trkpt>
<trkpt lat="30.9620127" lon="34.9652677">
<ele>605.000000</ele>
<time>2015-10-30T08:08:50.000Z</time>
</trkpt>
<trkpt lat="30.9619814" lon="34.9651690">
<ele>605.599976</ele>
<time>2015-10-30T08:09:07.000Z</time>
</trkpt>
<trkpt lat="30.9619373" lon="34.9650698">
<ele>607.599976</ele>
<time>2015-10-30T08:09:18.000Z</time>
</trkpt>
<trkpt lat="30.9619098" lon="34.9649638">
<ele>610.599976</ele>
<time>2015-10-30T08:09:30.000Z</time>
</trkpt>
<trkpt lat="30.9619022" lon="34.9648613">
<ele>613.799988</ele>
<time>2015-10-30T08:09:41.000Z</time>
</trkpt>
<trkpt lat="30.9619374" lon="34.9647585">
<ele>617.799988</ele>
<time>2015-10-30T08:09:52.000Z</time>
</trkpt>
<trkpt lat="30.9619917" lon="34.9646696">
<ele>621.400024</ele>
<time>2015-10-30T08:10:08.000Z</time>
</trkpt>
<trkpt lat="30.9620368" lon="34.9645723">
<ele>625.000000</ele>
<time>2015-10-30T08:10:23.000Z</time>
</trkpt>
<trkpt lat="30.9620740" lon="34.9644762">
<ele>625.000000</ele>
<time>2015-10-30T08:10:36.000Z</time>
</trkpt>
<trkpt lat="30.9621093" lon="34.9643832">
<ele>625.999939</ele>
<time>2015-10-30T08:10:49.000Z</time>
</trkpt>
<trkpt lat="30.9621547" lon="34.9642959">
<ele>628.000000</ele>
<time>2015-10-30T08:11:05.000Z</time>
</trkpt>
<trkpt lat="30.9622012" lon="34.9642084">
<ele>630.000000</ele>
<time>2015-10-30T08:11:19.000Z</time>
</trkpt>
<trkpt lat="30.9622583" lon="34.9641380">
<ele>631.800049</ele>
<time>2015-10-30T08:11:35.000Z</time>
</trkpt>
<trkpt lat="30.9623365" lon="34.9641332">
<ele>632.000000</ele>
<time>2015-10-30T08:11:49.000Z</time>
</trkpt>
<trkpt lat="30.9623730" lon="34.9642368">
<ele>631.400024</ele>
<time>2015-10-30T08:12:03.000Z</time>
</trkpt>
<trkpt lat="30.9624201" lon="34.9642037">
<ele>631.800049</ele>
<time>2015-10-30T08:14:50.000Z</time>
</trkpt>
<trkpt lat="30.9625323" lon="34.9641918">
<ele>632.200012</ele>
<time>2015-10-30T08:14:59.000Z</time>
</trkpt>
<trkpt lat="30.9626279" lon="34.9641969">
<ele>632.599976</ele>
<time>2015-10-30T08:15:03.000Z</time>
</trkpt>
<trkpt lat="30.9627284" lon="34.9642234">
<ele>632.799988</ele>
<time>2015-10-30T08:15:08.000Z</time>
</trkpt>
<trkpt lat="30.9628304" lon="34.9642428">
<ele>633.799988</ele>
<time>2015-10-30T08:15:14.000Z</time>
</trkpt>
<trkpt lat="30.9629121" lon="34.9642507">
<ele>634.800049</ele>
<time>2015-10-30T08:15:27.000Z</time>
</trkpt>
<trkpt lat="30.9630016" lon="34.9642784">
<ele>635.599976</ele>
<time>2015-10-30T08:15:38.000Z</time>
</trkpt>
<trkpt lat="30.9630860" lon="34.9642903">
<ele>636.400024</ele>
<time>2015-10-30T08:15:55.000Z</time>
</trkpt>
<trkpt lat="30.9631790" lon="34.9642575">
<ele>636.799988</ele>
<time>2015-10-30T08:16:09.000Z</time>
</trkpt>
<trkpt lat="30.9632720" lon="34.9642405">
<ele>636.799988</ele>
<time>2015-10-30T08:16:37.000Z</time>
</trkpt>
<trkpt lat="30.9633692" lon="34.9642630">
<ele>636.000000</ele>
<time>2015-10-30T08:16:50.000Z</time>
</trkpt>
<trkpt lat="30.9633657" lon="34.9641908">
<ele>637.400024</ele>
<time>2015-10-30T08:17:06.000Z</time>
</trkpt>
<trkpt lat="30.9634305" lon="34.9641553">
<ele>637.799927</ele>
<time>2015-10-30T08:17:20.000Z</time>
</trkpt>
<trkpt lat="30.9635062" lon="34.9641601">
<ele>637.200012</ele>
<time>2015-10-30T08:17:39.000Z</time>
</trkpt>
<trkpt lat="30.9635832" lon="34.9640759">
<ele>635.799988</ele>
<time>2015-10-30T08:17:59.000Z</time>
</trkpt>
<trkpt lat="30.9636347" lon="34.9639707">
<ele>635.000000</ele>
<time>2015-10-30T08:18:11.000Z</time>
</trkpt>
<trkpt lat="30.9636837" lon="34.9638700">
<ele>634.400024</ele>
<time>2015-10-30T08:18:16.000Z</time>
</trkpt>
<trkpt lat="30.9637391" lon="34.9637816">
<ele>633.400024</ele>
<time>2015-10-30T08:18:21.000Z</time>
</trkpt>
<trkpt lat="30.9638091" lon="34.9637122">
<ele>631.800049</ele>
<time>2015-10-30T08:18:26.000Z</time>
</trkpt>
<trkpt lat="30.9638454" lon="34.9636144">
<ele>630.799988</ele>
<time>2015-10-30T08:18:34.000Z</time>
</trkpt>
<trkpt lat="30.9638625" lon="34.9634894">
<ele>630.400024</ele>
<time>2015-10-30T08:18:40.000Z</time>
</trkpt>
<trkpt lat="30.9638800" lon="34.9633858">
<ele>630.000000</ele>
<time>2015-10-30T08:18:44.000Z</time>
</trkpt>
<trkpt lat="30.9639145" lon="34.9632730">
<ele>629.400024</ele>
<time>2015-10-30T08:18:49.000Z</time>
</trkpt>
<trkpt lat="30.9639296" lon="34.9631550">
<ele>628.999939</ele>
<time>2015-10-30T08:18:56.000Z</time>
</trkpt>
<trkpt lat="30.9639453" lon="34.9630305">
<ele>628.599976</ele>
<time>2015-10-30T08:19:01.000Z</time>
</trkpt>
<trkpt lat="30.9639790" lon="34.9629217">
<ele>628.200012</ele>
<time>2015-10-30T08:19:06.000Z</time>
</trkpt>
<trkpt lat="30.9640144" lon="34.9628533">
<ele>627.399963</ele>
<time>2015-10-30T08:19:18.000Z</time>
</trkpt>
<trkpt lat="30.9640745" lon="34.9627735">
<ele>626.200012</ele>
<time>2015-10-30T08:19:51.000Z</time>
</trkpt>
<trkpt lat="30.9641515" lon="34.9626808">
<ele>624.399963</ele>
<time>2015-10-30T08:19:56.000Z</time>
</trkpt>
<trkpt lat="30.9642417" lon="34.9626301">
<ele>623.200012</ele>
<time>2015-10-30T08:20:01.000Z</time>
</trkpt>
<trkpt lat="30.9643406" lon="34.9626327">
<ele>622.200012</ele>
<time>2015-10-30T08:20:06.000Z</time>
</trkpt>
<trkpt lat="30.9644347" lon="34.9626815">
<ele>621.799988</ele>
<time>2015-10-30T08:20:12.000Z</time>
</trkpt>
<trkpt lat="30.9643976" lon="34.9627714">
<ele>623.000000</ele>
<time>2015-10-30T08:20:33.000Z</time>
</trkpt>
<trkpt lat="30.9643337" lon="34.9628678">
<ele>624.599915</ele>
<time>2015-10-30T08:20:37.000Z</time>
</trkpt>
<trkpt lat="30.9642651" lon="34.9629610">
<ele>625.200012</ele>
<time>2015-10-30T08:20:41.000Z</time>
</trkpt>
<trkpt lat="30.9641978" lon="34.9630613">
<ele>625.400024</ele>
<time>2015-10-30T08:20:46.000Z</time>
</trkpt>
<trkpt lat="30.9641711" lon="34.9631810">
<ele>625.000000</ele>
<time>2015-10-30T08:20:51.000Z</time>
</trkpt>
<trkpt lat="30.9641644" lon="34.9632938">
<ele>625.200012</ele>
<time>2015-10-30T08:20:55.000Z</time>
</trkpt>
<trkpt lat="30.9641632" lon="34.9634108">
<ele>625.400024</ele>
<time>2015-10-30T08:20:59.000Z</time>
</trkpt>
<trkpt lat="30.9641826" lon="34.9635184">
<ele>625.200012</ele>
<time>2015-10-30T08:21:03.000Z</time>
</trkpt>
<trkpt lat="30.9642051" lon="34.9636236">
<ele>625.000000</ele>
<time>2015-10-30T08:21:07.000Z</time>
</trkpt>
<trkpt lat="30.9642161" lon="34.9637276">
<ele>624.799988</ele>
<time>2015-10-30T08:21:11.000Z</time>
</trkpt>
<trkpt lat="30.9641975" lon="34.9638351">
<ele>625.599976</ele>
<time>2015-10-30T08:21:16.000Z</time>
</trkpt>
<trkpt lat="30.9641536" lon="34.9639417">
<ele>626.599976</ele>
<time>2015-10-30T08:21:22.000Z</time>
</trkpt>
<trkpt lat="30.9641068" lon="34.9640629">
<ele>627.200012</ele>
<time>2015-10-30T08:21:27.000Z</time>
</trkpt>
<trkpt lat="30.9640458" lon="34.9641711">
<ele>627.599915</ele>
<time>2015-10-30T08:21:30.000Z</time>
</trkpt>
<trkpt lat="30.9640610" lon="34.9642992">
<ele>627.000000</ele>
<time>2015-10-30T08:21:34.000Z</time>
</trkpt>
<trkpt lat="30.9640743" lon="34.9644187">
<ele>626.599976</ele>
<time>2015-10-30T08:21:39.000Z</time>
</trkpt>
<trkpt lat="30.9641005" lon="34.9645360">
<ele>625.999939</ele>
<time>2015-10-30T08:21:44.000Z</time>
</trkpt>
<trkpt lat="30.9641394" lon="34.9646310">
<ele>625.799988</ele>
<time>2015-10-30T08:21:47.000Z</time>
</trkpt>
<trkpt lat="30.9642241" lon="34.9647285">
<ele>625.400024</ele>
<time>2015-10-30T08:21:50.000Z</time>
</trkpt>
<trkpt lat="30.9643122" lon="34.9648000">
<ele>624.799988</ele>
<time>2015-10-30T08:21:54.000Z</time>
</trkpt>
<trkpt lat="30.9644164" lon="34.9648181">
<ele>623.599976</ele>
<time>2015-10-30T08:21:58.000Z</time>
</trkpt>
<trkpt lat="30.9645109" lon="34.9648212">
<ele>622.599976</ele>
<time>2015-10-30T08:22:02.000Z</time>
</trkpt>
<trkpt lat="30.9646010" lon="34.9648251">
<ele>621.799988</ele>
<time>2015-10-30T08:22:06.000Z</time>
</trkpt>
<trkpt lat="30.9646893" lon="34.9648412">
<ele>620.799988</ele>
<time>2015-10-30T08:22:16.000Z</time>
</trkpt>
<trkpt lat="30.9647927" lon="34.9648449">
<ele>619.799988</ele>
<time>2015-10-30T08:22:24.000Z</time>
</trkpt>
<trkpt lat="30.9648911" lon="34.9648418">
<ele>619.000000</ele>
<time>2015-10-30T08:22:29.000Z</time>
</trkpt>
<trkpt lat="30.9650002" lon="34.9648335">
<ele>618.000000</ele>
<time>2015-10-30T08:22:34.000Z</time>
</trkpt>
<trkpt lat="30.9650913" lon="34.9648074">
<ele>617.400024</ele>
<time>2015-10-30T08:22:38.000Z</time>
</trkpt>
<trkpt lat="30.9651812" lon="34.9647482">
<ele>616.400024</ele>
<time>2015-10-30T08:22:42.000Z</time>
</trkpt>
<trkpt lat="30.9652677" lon="34.9646719">
<ele>615.599976</ele>
<time>2015-10-30T08:22:47.000Z</time>
</trkpt>
<trkpt lat="30.9653574" lon="34.9646015">
<ele>614.599976</ele>
<time>2015-10-30T08:22:52.000Z</time>
</trkpt>
<trkpt lat="30.9654561" lon="34.9645686">
<ele>613.799988</ele>
<time>2015-10-30T08:23:09.000Z</time>
</trkpt>
<trkpt lat="30.9655476" lon="34.9645406">
<ele>613.000000</ele>
<time>2015-10-30T08:23:14.000Z</time>
</trkpt>
<trkpt lat="30.9656073" lon="34.9645403">
<ele>612.400024</ele>
<time>2015-10-30T08:23:24.000Z</time>
</trkpt>
<trkpt lat="30.9655665" lon="34.9646568">
<ele>613.400024</ele>
<time>2015-10-30T08:23:36.000Z</time>
</trkpt>
<trkpt lat="30.9655276" lon="34.9647731">
<ele>614.000000</ele>
<time>2015-10-30T08:23:41.000Z</time>
</trkpt>
<trkpt lat="30.9654910" lon="34.9648859">
<ele>614.799988</ele>
<time>2015-10-30T08:23:47.000Z</time>
</trkpt>
<trkpt lat="30.9654377" lon="34.9649886">
<ele>615.400024</ele>
<time>2015-10-30T08:23:52.000Z</time>
</trkpt>
<trkpt lat="30.9653723" lon="34.9650647">
<ele>616.200012</ele>
<time>2015-10-30T08:23:59.000Z</time>
</trkpt>
<trkpt lat="30.9653446" lon="34.9651655">
<ele>616.799988</ele>
<time>2015-10-30T08:24:08.000Z</time>
</trkpt>
<trkpt lat="30.9653273" lon="34.9652740">
<ele>617.400024</ele>
<time>2015-10-30T08:24:15.000Z</time>
</trkpt>
<trkpt lat="30.9652542" lon="34.9653217">
<ele>618.200012</ele>
<time>2015-10-30T08:24:36.000Z</time>
</trkpt>
<trkpt lat="30.9652015" lon="34.9654191">
<ele>619.200012</ele>
<time>2015-10-30T08:24:48.000Z</time>
</trkpt>
<trkpt lat="30.9651468" lon="34.9655107">
<ele>620.200012</ele>
<time>2015-10-30T08:25:04.000Z</time>
</trkpt>
<trkpt lat="30.9650764" lon="34.9656179">
<ele>621.400024</ele>
<time>2015-10-30T08:25:09.000Z</time>
</trkpt>
<trkpt lat="30.9650300" lon="34.9657116">
<ele>622.200012</ele>
<time>2015-10-30T08:25:13.000Z</time>
</trkpt>
<trkpt lat="30.9650151" lon="34.9658416">
<ele>621.799988</ele>
<time>2015-10-30T08:25:17.000Z</time>
</trkpt>
<trkpt lat="30.9650715" lon="34.9659412">
<ele>621.400024</ele>
<time>2015-10-30T08:25:21.000Z</time>
</trkpt>
<trkpt lat="30.9651764" lon="34.9659671">
<ele>621.599976</ele>
<time>2015-10-30T08:25:26.000Z</time>
</trkpt>
<trkpt lat="30.9652798" lon="34.9659813">
<ele>621.599976</ele>
<time>2015-10-30T08:25:32.000Z</time>
</trkpt>
<trkpt lat="30.9653631" lon="34.9659671">
<ele>621.200012</ele>
<time>2015-10-30T08:26:39.000Z</time>
</trkpt>
<trkpt lat="30.9654639" lon="34.9659364">
<ele>620.200012</ele>
<time>2015-10-30T08:26:53.000Z</time>
</trkpt>
<trkpt lat="30.9655413" lon="34.9659719">
<ele>619.599976</ele>
<time>2015-10-30T08:27:12.000Z</time>
</trkpt>
<trkpt lat="30.9656386" lon="34.9659496">
<ele>618.799988</ele>
<time>2015-10-30T08:27:25.000Z</time>
</trkpt>
<trkpt lat="30.9657277" lon="34.9659180">
<ele>618.200012</ele>
<time>2015-10-30T08:27:38.000Z</time>
</trkpt>
<trkpt lat="30.9658166" lon="34.9658469">
<ele>617.200012</ele>
<time>2015-10-30T08:27:49.000Z</time>
</trkpt>
<trkpt lat="30.9659099" lon="34.9657904">
<ele>616.200012</ele>
<time>2015-10-30T08:27:55.000Z</time>
</trkpt>
<trkpt lat="30.9660025" lon="34.9658065">
<ele>615.599976</ele>
<time>2015-10-30T08:28:02.000Z</time>
</trkpt>
<trkpt lat="30.9660434" lon="34.9659243">
<ele>616.200012</ele>
<time>2015-10-30T08:28:09.000Z</time>
</trkpt>
<trkpt lat="30.9660584" lon="34.9660476">
<ele>617.000000</ele>
<time>2015-10-30T08:28:15.000Z</time>
</trkpt>
<trkpt lat="30.9660659" lon="34.9661670">
<ele>617.599976</ele>
<time>2015-10-30T08:28:21.000Z</time>
</trkpt>
<trkpt lat="30.9660883" lon="34.9662758">
<ele>618.200012</ele>
<time>2015-10-30T08:28:27.000Z</time>
</trkpt>
<trkpt lat="30.9661057" lon="34.9663943">
<ele>619.000000</ele>
<time>2015-10-30T08:28:33.000Z</time>
</trkpt>
<trkpt lat="30.9661248" lon="34.9665141">
<ele>620.000000</ele>
<time>2015-10-30T08:28:39.000Z</time>
</trkpt>
<trkpt lat="30.9661431" lon="34.9666255">
<ele>620.799988</ele>
<time>2015-10-30T08:28:46.000Z</time>
</trkpt>
<trkpt lat="30.9661616" lon="34.9667352">
<ele>621.599976</ele>
<time>2015-10-30T08:28:51.000Z</time>
</trkpt>
<trkpt lat="30.9661979" lon="34.9668571">
<ele>622.400024</ele>
<time>2015-10-30T08:28:57.000Z</time>
</trkpt>
<trkpt lat="30.9662820" lon="34.9668856">
<ele>622.200012</ele>
<time>2015-10-30T08:29:03.000Z</time>
</trkpt>
<trkpt lat="30.9663723" lon="34.9668457">
<ele>621.200012</ele>
<time>2015-10-30T08:29:21.000Z</time>
</trkpt>
<trkpt lat="30.9664595" lon="34.9668115">
<ele>620.400024</ele>
<time>2015-10-30T08:29:35.000Z</time>
</trkpt>
<trkpt lat="30.9665087" lon="34.9668419">
<ele>620.000000</ele>
<time>2015-10-30T08:29:48.000Z</time>
</trkpt>
<trkpt lat="30.9664886" lon="34.9669475">
<ele>621.200012</ele>
<time>2015-10-30T08:30:04.000Z</time>
</trkpt>
<trkpt lat="30.9664821" lon="34.9670601">
<ele>622.200012</ele>
<time>2015-10-30T08:30:16.000Z</time>
</trkpt>
<trkpt lat="30.9665617" lon="34.9671601">
<ele>622.599976</ele>
<time>2015-10-30T08:30:36.000Z</time>
</trkpt>
<trkpt lat="30.9666421" lon="34.9672863">
<ele>623.599976</ele>
<time>2015-10-30T08:30:39.000Z</time>
</trkpt>
<trkpt lat="30.9667015" lon="34.9673860">
<ele>624.000000</ele>
<time>2015-10-30T08:30:41.000Z</time>
</trkpt>
<trkpt lat="30.9667797" lon="34.9675081">
<ele>624.399963</ele>
<time>2015-10-30T08:30:44.000Z</time>
</trkpt>
<trkpt lat="30.9668388" lon="34.9676036">
<ele>624.799988</ele>
<time>2015-10-30T08:30:47.000Z</time>
</trkpt>
<trkpt lat="30.9669035" lon="34.9677142">
<ele>625.200012</ele>
<time>2015-10-30T08:30:51.000Z</time>
</trkpt>
<trkpt lat="30.9669512" lon="34.9678139">
<ele>625.400024</ele>
<time>2015-10-30T08:30:56.000Z</time>
</trkpt>
<trkpt lat="30.9669968" lon="34.9679169">
<ele>625.599976</ele>
<time>2015-10-30T08:31:01.000Z</time>
</trkpt>
<trkpt lat="30.9670916" lon="34.9679974">
<ele>625.000000</ele>
<time>2015-10-30T08:31:05.000Z</time>
</trkpt>
<trkpt lat="30.9671741" lon="34.9680525">
<ele>624.799988</ele>
<time>2015-10-30T08:31:08.000Z</time>
</trkpt>
<trkpt lat="30.9672674" lon="34.9680947">
<ele>624.599915</ele>
<time>2015-10-30T08:31:11.000Z</time>
</trkpt>
<trkpt lat="30.9673619" lon="34.9681062">
<ele>624.799988</ele>
<time>2015-10-30T08:31:14.000Z</time>
</trkpt>
<trkpt lat="30.9674519" lon="34.9680723">
<ele>625.599976</ele>
<time>2015-10-30T08:31:17.000Z</time>
</trkpt>
<trkpt lat="30.9675639" lon="34.9680651">
<ele>626.799988</ele>
<time>2015-10-30T08:31:21.000Z</time>
</trkpt>
<trkpt lat="30.9676822" lon="34.9680507">
<ele>628.200012</ele>
<time>2015-10-30T08:31:25.000Z</time>
</trkpt>
<trkpt lat="30.9677753" lon="34.9680414">
<ele>629.200012</ele>
<time>2015-10-30T08:31:28.000Z</time>
</trkpt>
<trkpt lat="30.9678465" lon="34.9681305">
<ele>628.599976</ele>
<time>2015-10-30T08:31:32.000Z</time>
</trkpt>
<trkpt lat="30.9678907" lon="34.9682432">
<ele>627.399963</ele>
<time>2015-10-30T08:31:36.000Z</time>
</trkpt>
<trkpt lat="30.9679334" lon="34.9683515">
<ele>626.200012</ele>
<time>2015-10-30T08:31:39.000Z</time>
</trkpt>
<trkpt lat="30.9679465" lon="34.9684634">
<ele>624.799988</ele>
<time>2015-10-30T08:31:42.000Z</time>
</trkpt>
<trkpt lat="30.9679818" lon="34.9685743">
<ele>623.599976</ele>
<time>2015-10-30T08:31:45.000Z</time>
</trkpt>
<trkpt lat="30.9680442" lon="34.9686826">
<ele>622.599976</ele>
<time>2015-10-30T08:31:48.000Z</time>
</trkpt>
<trkpt lat="30.9681380" lon="34.9687663">
<ele>620.799988</ele>
<time>2015-10-30T08:31:51.000Z</time>
</trkpt>
<trkpt lat="30.9682478" lon="34.9688322">
<ele>618.000000</ele>
<time>2015-10-30T08:31:54.000Z</time>
</trkpt>
<trkpt lat="30.9683449" lon="34.9688566">
<ele>616.200012</ele>
<time>2015-10-30T08:31:57.000Z</time>
</trkpt>
<trkpt lat="30.9684574" lon="34.9688499">
<ele>615.000000</ele>
<time>2015-10-30T08:32:01.000Z</time>
</trkpt>
<trkpt lat="30.9685657" lon="34.9688367">
<ele>614.000000</ele>
<time>2015-10-30T08:32:04.000Z</time>
</trkpt>
<trkpt lat="30.9687052" lon="34.9688453">
<ele>612.200012</ele>
<time>2015-10-30T08:32:07.000Z</time>
</trkpt>
<trkpt lat="30.9688119" lon="34.9688669">
<ele>610.400024</ele>
<time>2015-10-30T08:32:09.000Z</time>
</trkpt>
<trkpt lat="30.9688996" lon="34.9688985">
<ele>608.599976</ele>
<time>2015-10-30T08:32:11.000Z</time>
</trkpt>
<trkpt lat="30.9690138" lon="34.9689394">
<ele>607.200012</ele>
<time>2015-10-30T08:32:14.000Z</time>
</trkpt>
<trkpt lat="30.9691224" lon="34.9689715">
<ele>606.000000</ele>
<time>2015-10-30T08:32:17.000Z</time>
</trkpt>
<trkpt lat="30.9692537" lon="34.9690218">
<ele>603.599976</ele>
<time>2015-10-30T08:32:20.000Z</time>
</trkpt>
<trkpt lat="30.9693471" lon="34.9690672">
<ele>601.400024</ele>
<time>2015-10-30T08:32:22.000Z</time>
</trkpt>
<trkpt lat="30.9694372" lon="34.9691192">
<ele>599.400024</ele>
<time>2015-10-30T08:32:24.000Z</time>
</trkpt>
<trkpt lat="30.9695218" lon="34.9691760">
<ele>597.400024</ele>
<time>2015-10-30T08:32:26.000Z</time>
</trkpt>
<trkpt lat="30.9696195" lon="34.9692265">
<ele>595.200012</ele>
<time>2015-10-30T08:32:28.000Z</time>
</trkpt>
<trkpt lat="30.9697215" lon="34.9692811">
<ele>593.000000</ele>
<time>2015-10-30T08:32:30.000Z</time>
</trkpt>
<trkpt lat="30.9698188" lon="34.9693433">
<ele>591.200012</ele>
<time>2015-10-30T08:32:32.000Z</time>
</trkpt>
<trkpt lat="30.9699217" lon="34.9694027">
<ele>589.799988</ele>
<time>2015-10-30T08:32:34.000Z</time>
</trkpt>
<trkpt lat="30.9700334" lon="34.9694439">
<ele>588.400024</ele>
<time>2015-10-30T08:32:36.000Z</time>
</trkpt>
<trkpt lat="30.9701490" lon="34.9694654">
<ele>587.000000</ele>
<time>2015-10-30T08:32:38.000Z</time>
</trkpt>
<trkpt lat="30.9702582" lon="34.9694884">
<ele>585.799988</ele>
<time>2015-10-30T08:32:40.000Z</time>
</trkpt>
<trkpt lat="30.9703690" lon="34.9695071">
<ele>584.599976</ele>
<time>2015-10-30T08:32:42.000Z</time>
</trkpt>
<trkpt lat="30.9704775" lon="34.9695077">
<ele>583.599976</ele>
<time>2015-10-30T08:32:44.000Z</time>
</trkpt>
<trkpt lat="30.9705906" lon="34.9695062">
<ele>582.400024</ele>
<time>2015-10-30T08:32:46.000Z</time>
</trkpt>
<trkpt lat="30.9707221" lon="34.9695361">
<ele>582.599976</ele>
<time>2015-10-30T08:32:48.000Z</time>
</trkpt>
<trkpt lat="30.9708554" lon="34.9695747">
<ele>582.599976</ele>
<time>2015-10-30T08:32:50.000Z</time>
</trkpt>
<trkpt lat="30.9709622" lon="34.9695931">
<ele>583.000000</ele>
<time>2015-10-30T08:32:52.000Z</time>
</trkpt>
<trkpt lat="30.9710779" lon="34.9695931">
<ele>583.200012</ele>
<time>2015-10-30T08:32:55.000Z</time>
</trkpt>
<trkpt lat="30.9711888" lon="34.9696313">
<ele>583.599976</ele>
<time>2015-10-30T08:32:58.000Z</time>
</trkpt>
<trkpt lat="30.9712945" lon="34.9696697">
<ele>584.000000</ele>
<time>2015-10-30T08:33:01.000Z</time>
</trkpt>
<trkpt lat="30.9713964" lon="34.9697216">
<ele>584.400024</ele>
<time>2015-10-30T08:33:04.000Z</time>
</trkpt>
<trkpt lat="30.9714939" lon="34.9698123">
<ele>586.799988</ele>
<time>2015-10-30T08:33:07.000Z</time>
</trkpt>
<trkpt lat="30.9715486" lon="34.9699005">
<ele>588.599976</ele>
<time>2015-10-30T08:33:09.000Z</time>
</trkpt>
<trkpt lat="30.9715811" lon="34.9700164">
<ele>589.799988</ele>
<time>2015-10-30T08:33:12.000Z</time>
</trkpt>
<trkpt lat="30.9715842" lon="34.9701364">
<ele>590.000000</ele>
<time>2015-10-30T08:33:17.000Z</time>
</trkpt>
<trkpt lat="30.9715795" lon="34.9702672">
<ele>590.200012</ele>
<time>2015-10-30T08:33:23.000Z</time>
</trkpt>
<trkpt lat="30.9715793" lon="34.9703784">
<ele>590.599976</ele>
<time>2015-10-30T08:33:28.000Z</time>
</trkpt>
<trkpt lat="30.9715809" lon="34.9704883">
<ele>590.799988</ele>
<time>2015-10-30T08:33:33.000Z</time>
</trkpt>
<trkpt lat="30.9716236" lon="34.9705832">
<ele>592.200012</ele>
<time>2015-10-30T08:33:38.000Z</time>
</trkpt>
<trkpt lat="30.9717156" lon="34.9706201">
<ele>594.799988</ele>
<time>2015-10-30T08:33:44.000Z</time>
</trkpt>
<trkpt lat="30.9717733" lon="34.9707187">
<ele>596.799988</ele>
<time>2015-10-30T08:33:51.000Z</time>
</trkpt>
<trkpt lat="30.9717692" lon="34.9708448">
<ele>597.200012</ele>
<time>2015-10-30T08:33:57.000Z</time>
</trkpt>
<trkpt lat="30.9717588" lon="34.9709723">
<ele>598.000000</ele>
<time>2015-10-30T08:34:03.000Z</time>
</trkpt>
<trkpt lat="30.9717496" lon="34.9710737">
<ele>598.400024</ele>
<time>2015-10-30T08:34:08.000Z</time>
</trkpt>
<trkpt lat="30.9717574" lon="34.9711782">
<ele>599.400024</ele>
<time>2015-10-30T08:34:13.000Z</time>
</trkpt>
<trkpt lat="30.9718100" lon="34.9712679">
<ele>601.000000</ele>
<time>2015-10-30T08:34:19.000Z</time>
</trkpt>
<trkpt lat="30.9718645" lon="34.9713556">
<ele>602.200012</ele>
<time>2015-10-30T08:34:27.000Z</time>
</trkpt>
<trkpt lat="30.9719315" lon="34.9714450">
<ele>603.599976</ele>
<time>2015-10-30T08:34:35.000Z</time>
</trkpt>
<trkpt lat="30.9719909" lon="34.9715348">
<ele>604.799988</ele>
<time>2015-10-30T08:34:42.000Z</time>
</trkpt>
<trkpt lat="30.9720491" lon="34.9716309">
<ele>606.000000</ele>
<time>2015-10-30T08:34:50.000Z</time>
</trkpt>
<trkpt lat="30.9720971" lon="34.9717273">
<ele>607.000000</ele>
<time>2015-10-30T08:34:57.000Z</time>
</trkpt>
<trkpt lat="30.9721591" lon="34.9718133">
<ele>608.400024</ele>
<time>2015-10-30T08:35:04.000Z</time>
</trkpt>
<trkpt lat="30.9722019" lon="34.9719123">
<ele>609.200012</ele>
<time>2015-10-30T08:35:11.000Z</time>
</trkpt>
<trkpt lat="30.9722220" lon="34.9720117">
<ele>609.599976</ele>
<time>2015-10-30T08:35:18.000Z</time>
</trkpt>
<trkpt lat="30.9722574" lon="34.9721109">
<ele>610.400024</ele>
<time>2015-10-30T08:35:25.000Z</time>
</trkpt>
<trkpt lat="30.9723082" lon="34.9722048">
<ele>612.000000</ele>
<time>2015-10-30T08:35:33.000Z</time>
</trkpt>
<trkpt lat="30.9723478" lon="34.9723139">
<ele>613.200012</ele>
<time>2015-10-30T08:35:41.000Z</time>
</trkpt>
<trkpt lat="30.9723629" lon="34.9724217">
<ele>613.599976</ele>
<time>2015-10-30T08:35:48.000Z</time>
</trkpt>
<trkpt lat="30.9723805" lon="34.9725411">
<ele>614.200012</ele>
<time>2015-10-30T08:35:56.000Z</time>
</trkpt>
<trkpt lat="30.9724017" lon="34.9726552">
<ele>614.799988</ele>
<time>2015-10-30T08:36:04.000Z</time>
</trkpt>
<trkpt lat="30.9724250" lon="34.9727547">
<ele>615.599976</ele>
<time>2015-10-30T08:36:11.000Z</time>
</trkpt>
<trkpt lat="30.9724533" lon="34.9728644">
<ele>616.400024</ele>
<time>2015-10-30T08:36:19.000Z</time>
</trkpt>
<trkpt lat="30.9724789" lon="34.9729766">
<ele>616.599976</ele>
<time>2015-10-30T08:36:26.000Z</time>
</trkpt>
<trkpt lat="30.9724894" lon="34.9730793">
<ele>616.000000</ele>
<time>2015-10-30T08:36:33.000Z</time>
</trkpt>
<trkpt lat="30.9724972" lon="34.9731873">
<ele>615.400024</ele>
<time>2015-10-30T08:36:40.000Z</time>
</trkpt>
<trkpt lat="30.9724948" lon="34.9732931">
<ele>615.400024</ele>
<time>2015-10-30T08:36:47.000Z</time>
</trkpt>
<trkpt lat="30.9725110" lon="34.9733979">
<ele>615.799988</ele>
<time>2015-10-30T08:36:54.000Z</time>
</trkpt>
<trkpt lat="30.9725343" lon="34.9735146">
<ele>616.200012</ele>
<time>2015-10-30T08:37:01.000Z</time>
</trkpt>
<trkpt lat="30.9725641" lon="34.9736325">
<ele>616.799988</ele>
<time>2015-10-30T08:37:08.000Z</time>
</trkpt>
<trkpt lat="30.9726042" lon="34.9737453">
<ele>617.799988</ele>
<time>2015-10-30T08:37:15.000Z</time>
</trkpt>
<trkpt lat="30.9726452" lon="34.9738509">
<ele>617.200012</ele>
<time>2015-10-30T08:37:22.000Z</time>
</trkpt>
<trkpt lat="30.9726899" lon="34.9739612">
<ele>616.799988</ele>
<time>2015-10-30T08:37:29.000Z</time>
</trkpt>
<trkpt lat="30.9727452" lon="34.9740518">
<ele>616.799988</ele>
<time>2015-10-30T08:37:35.000Z</time>
</trkpt>
<trkpt lat="30.9728233" lon="34.9741396">
<ele>617.200012</ele>
<time>2015-10-30T08:37:41.000Z</time>
</trkpt>
<trkpt lat="30.9728950" lon="34.9742147">
<ele>617.799988</ele>
<time>2015-10-30T08:37:45.000Z</time>
</trkpt>
<trkpt lat="30.9729814" lon="34.9742852">
<ele>618.799988</ele>
<time>2015-10-30T08:37:49.000Z</time>
</trkpt>
<trkpt lat="30.9730514" lon="34.9743702">
<ele>619.200012</ele>
<time>2015-10-30T08:37:53.000Z</time>
</trkpt>
<trkpt lat="30.9731288" lon="34.9744540">
<ele>618.599976</ele>
<time>2015-10-30T08:37:57.000Z</time>
</trkpt>
<trkpt lat="30.9731975" lon="34.9745548">
<ele>617.400024</ele>
<time>2015-10-30T08:38:01.000Z</time>
</trkpt>
<trkpt lat="30.9732477" lon="34.9746445">
<ele>616.200012</ele>
<time>2015-10-30T08:38:04.000Z</time>
</trkpt>
<trkpt lat="30.9732896" lon="34.9747732">
<ele>614.599976</ele>
<time>2015-10-30T08:38:08.000Z</time>
</trkpt>
<trkpt lat="30.9733459" lon="34.9748795">
<ele>613.599976</ele>
<time>2015-10-30T08:38:13.000Z</time>
</trkpt>
<trkpt lat="30.9734473" lon="34.9748952">
<ele>613.200012</ele>
<time>2015-10-30T08:38:19.000Z</time>
</trkpt>
<trkpt lat="30.9735429" lon="34.9749141">
<ele>613.000000</ele>
<time>2015-10-30T08:38:23.000Z</time>
</trkpt>
<trkpt lat="30.9736599" lon="34.9749364">
<ele>612.799988</ele>
<time>2015-10-30T08:38:27.000Z</time>
</trkpt>
<trkpt lat="30.9737736" lon="34.9749451">
<ele>612.599976</ele>
<time>2015-10-30T08:38:30.000Z</time>
</trkpt>
<trkpt lat="30.9738892" lon="34.9749315">
<ele>612.799988</ele>
<time>2015-10-30T08:38:33.000Z</time>
</trkpt>
<trkpt lat="30.9739904" lon="34.9749098">
<ele>612.400024</ele>
<time>2015-10-30T08:38:36.000Z</time>
</trkpt>
<trkpt lat="30.9740836" lon="34.9748631">
<ele>612.400024</ele>
<time>2015-10-30T08:38:39.000Z</time>
</trkpt>
<trkpt lat="30.9741650" lon="34.9748040">
<ele>612.400024</ele>
<time>2015-10-30T08:38:42.000Z</time>
</trkpt>
<trkpt lat="30.9742493" lon="34.9747226">
<ele>612.200012</ele>
<time>2015-10-30T08:38:45.000Z</time>
</trkpt>
<trkpt lat="30.9743463" lon="34.9746395">
<ele>611.799988</ele>
<time>2015-10-30T08:38:48.000Z</time>
</trkpt>
<trkpt lat="30.9744416" lon="34.9745800">
<ele>611.200012</ele>
<time>2015-10-30T08:38:51.000Z</time>
</trkpt>
<trkpt lat="30.9745433" lon="34.9745338">
<ele>610.400024</ele>
<time>2015-10-30T08:38:54.000Z</time>
</trkpt>
<trkpt lat="30.9746377" lon="34.9745019">
<ele>609.400024</ele>
<time>2015-10-30T08:38:57.000Z</time>
</trkpt>
<trkpt lat="30.9747470" lon="34.9744484">
<ele>608.000000</ele>
<time>2015-10-30T08:39:01.000Z</time>
</trkpt>
<trkpt lat="30.9748355" lon="34.9744134">
<ele>607.400024</ele>
<time>2015-10-30T08:39:04.000Z</time>
</trkpt>
<trkpt lat="30.9749257" lon="34.9743978">
<ele>606.799988</ele>
<time>2015-10-30T08:39:07.000Z</time>
</trkpt>
<trkpt lat="30.9750192" lon="34.9743728">
<ele>606.000000</ele>
<time>2015-10-30T08:39:12.000Z</time>
</trkpt>
<trkpt lat="30.9751213" lon="34.9743839">
<ele>605.200012</ele>
<time>2015-10-30T08:39:17.000Z</time>
</trkpt>
<trkpt lat="30.9752142" lon="34.9744165">
<ele>604.599976</ele>
<time>2015-10-30T08:39:22.000Z</time>
</trkpt>
<trkpt lat="30.9753023" lon="34.9744796">
<ele>604.000000</ele>
<time>2015-10-30T08:39:26.000Z</time>
</trkpt>
<trkpt lat="30.9754001" lon="34.9745305">
<ele>603.200012</ele>
<time>2015-10-30T08:39:29.000Z</time>
</trkpt>
<trkpt lat="30.9754953" lon="34.9745310">
<ele>602.599976</ele>
<time>2015-10-30T08:39:32.000Z</time>
</trkpt>
<trkpt lat="30.9756018" lon="34.9744922">
<ele>601.599976</ele>
<time>2015-10-30T08:39:36.000Z</time>
</trkpt>
<trkpt lat="30.9756845" lon="34.9743928">
<ele>601.599976</ele>
<time>2015-10-30T08:39:40.000Z</time>
</trkpt>
<trkpt lat="30.9757618" lon="34.9742868">
<ele>601.400024</ele>
<time>2015-10-30T08:39:44.000Z</time>
</trkpt>
<trkpt lat="30.9758432" lon="34.9742262">
<ele>601.400024</ele>
<time>2015-10-30T08:39:47.000Z</time>
</trkpt>
<trkpt lat="30.9759348" lon="34.9741651">
<ele>601.599976</ele>
<time>2015-10-30T08:39:51.000Z</time>
</trkpt>
<trkpt lat="30.9759825" lon="34.9740555">
<ele>600.799988</ele>
<time>2015-10-30T08:39:55.000Z</time>
</trkpt>
<trkpt lat="30.9760181" lon="34.9739542">
<ele>599.799988</ele>
<time>2015-10-30T08:39:58.000Z</time>
</trkpt>
<trkpt lat="30.9760634" lon="34.9738451">
<ele>598.599976</ele>
<time>2015-10-30T08:40:01.000Z</time>
</trkpt>
<trkpt lat="30.9760908" lon="34.9737388">
<ele>597.599976</ele>
<time>2015-10-30T08:40:04.000Z</time>
</trkpt>
<trkpt lat="30.9761396" lon="34.9736064">
<ele>597.599976</ele>
<time>2015-10-30T08:40:08.000Z</time>
</trkpt>
<trkpt lat="30.9761875" lon="34.9735104">
<ele>597.599976</ele>
<time>2015-10-30T08:40:11.000Z</time>
</trkpt>
<trkpt lat="30.9762562" lon="34.9734186">
<ele>596.200012</ele>
<time>2015-10-30T08:40:16.000Z</time>
</trkpt>
<trkpt lat="30.9763456" lon="34.9733622">
<ele>594.799988</ele>
<time>2015-10-30T08:40:21.000Z</time>
</trkpt>
<trkpt lat="30.9763995" lon="34.9732832">
<ele>593.599976</ele>
<time>2015-10-30T08:40:28.000Z</time>
</trkpt>
<trkpt lat="30.9764729" lon="34.9731958">
<ele>593.599976</ele>
<time>2015-10-30T08:40:35.000Z</time>
</trkpt>
<trkpt lat="30.9765408" lon="34.9731162">
<ele>593.599976</ele>
<time>2015-10-30T08:40:41.000Z</time>
</trkpt>
<trkpt lat="30.9766245" lon="34.9730799">
<ele>593.799988</ele>
<time>2015-10-30T08:40:48.000Z</time>
</trkpt>
<trkpt lat="30.9766945" lon="34.9730980">
<ele>594.200012</ele>
<time>2015-10-30T08:41:10.000Z</time>
</trkpt>
<trkpt lat="30.9767760" lon="34.9730433">
<ele>593.000000</ele>
<time>2015-10-30T08:41:33.000Z</time>
</trkpt>
<trkpt lat="30.9768718" lon="34.9729710">
<ele>591.400024</ele>
<time>2015-10-30T08:41:50.000Z</time>
</trkpt>
<trkpt lat="30.9769574" lon="34.9729433">
<ele>590.799988</ele>
<time>2015-10-30T08:42:05.000Z</time>
</trkpt>
<trkpt lat="30.9770107" lon="34.9728473">
<ele>591.000000</ele>
<time>2015-10-30T08:42:23.000Z</time>
</trkpt>
<trkpt lat="30.9770944" lon="34.9727375">
<ele>592.400024</ele>
<time>2015-10-30T08:42:27.000Z</time>
</trkpt>
<trkpt lat="30.9771631" lon="34.9726613">
<ele>591.599976</ele>
<time>2015-10-30T08:42:30.000Z</time>
</trkpt>
<trkpt lat="30.9772387" lon="34.9726161">
<ele>590.799988</ele>
<time>2015-10-30T08:42:34.000Z</time>
</trkpt>
<trkpt lat="30.9773314" lon="34.9725952">
<ele>591.400024</ele>
<time>2015-10-30T08:42:39.000Z</time>
</trkpt>
<trkpt lat="30.9774172" lon="34.9725438">
<ele>592.200012</ele>
<time>2015-10-30T08:42:44.000Z</time>
</trkpt>
<trkpt lat="30.9774995" lon="34.9725069">
<ele>592.799988</ele>
<time>2015-10-30T08:42:47.000Z</time>
</trkpt>
<trkpt lat="30.9776136" lon="34.9724783">
<ele>593.599976</ele>
<time>2015-10-30T08:42:51.000Z</time>
</trkpt>
<trkpt lat="30.9777070" lon="34.9724311">
<ele>592.200012</ele>
<time>2015-10-30T08:42:55.000Z</time>
</trkpt>
<trkpt lat="30.9777839" lon="34.9723533">
<ele>589.799988</ele>
<time>2015-10-30T08:42:59.000Z</time>
</trkpt>
<trkpt lat="30.9778757" lon="34.9722937">
<ele>587.599976</ele>
<time>2015-10-30T08:43:03.000Z</time>
</trkpt>
<trkpt lat="30.9779765" lon="34.9722365">
<ele>585.200012</ele>
<time>2015-10-30T08:43:07.000Z</time>
</trkpt>
<trkpt lat="30.9780444" lon="34.9721498">
<ele>582.799988</ele>
<time>2015-10-30T08:43:10.000Z</time>
</trkpt>
<trkpt lat="30.9781356" lon="34.9720528">
<ele>581.599976</ele>
<time>2015-10-30T08:43:14.000Z</time>
</trkpt>
<trkpt lat="30.9782129" lon="34.9719806">
<ele>582.799988</ele>
<time>2015-10-30T08:43:17.000Z</time>
</trkpt>
<trkpt lat="30.9782977" lon="34.9719100">
<ele>584.200012</ele>
<time>2015-10-30T08:43:20.000Z</time>
</trkpt>
<trkpt lat="30.9783910" lon="34.9718370">
<ele>585.599976</ele>
<time>2015-10-30T08:43:23.000Z</time>
</trkpt>
<trkpt lat="30.9784794" lon="34.9717879">
<ele>586.599976</ele>
<time>2015-10-30T08:43:26.000Z</time>
</trkpt>
<trkpt lat="30.9785769" lon="34.9717264">
<ele>587.400024</ele>
<time>2015-10-30T08:43:30.000Z</time>
</trkpt>
<trkpt lat="30.9785728" lon="34.9716746">
<ele>587.200012</ele>
<time>2015-10-30T08:43:47.000Z</time>
</trkpt>
<trkpt lat="30.9785812" lon="34.9715735">
<ele>586.200012</ele>
<time>2015-10-30T08:43:59.000Z</time>
</trkpt>
<trkpt lat="30.9786689" lon="34.9715504">
<ele>584.200012</ele>
<time>2015-10-30T08:44:11.000Z</time>
</trkpt>
<trkpt lat="30.9787473" lon="34.9715005">
<ele>582.400024</ele>
<time>2015-10-30T08:44:21.000Z</time>
</trkpt>
<trkpt lat="30.9788354" lon="34.9714631">
<ele>580.400024</ele>
<time>2015-10-30T08:44:26.000Z</time>
</trkpt>
<trkpt lat="30.9789178" lon="34.9713784">
<ele>578.200012</ele>
<time>2015-10-30T08:44:31.000Z</time>
</trkpt>
<trkpt lat="30.9789719" lon="34.9712635">
<ele>577.799988</ele>
<time>2015-10-30T08:44:35.000Z</time>
</trkpt>
<trkpt lat="30.9790181" lon="34.9711724">
<ele>579.000000</ele>
<time>2015-10-30T08:44:38.000Z</time>
</trkpt>
<trkpt lat="30.9790806" lon="34.9710592">
<ele>580.599976</ele>
<time>2015-10-30T08:44:42.000Z</time>
</trkpt>
<trkpt lat="30.9791300" lon="34.9709534">
<ele>582.000000</ele>
<time>2015-10-30T08:44:46.000Z</time>
</trkpt>
<trkpt lat="30.9791678" lon="34.9708319">
<ele>583.400024</ele>
<time>2015-10-30T08:44:50.000Z</time>
</trkpt>
<trkpt lat="30.9792142" lon="34.9707198">
<ele>584.799988</ele>
<time>2015-10-30T08:44:54.000Z</time>
</trkpt>
<trkpt lat="30.9792593" lon="34.9706026">
<ele>582.400024</ele>
<time>2015-10-30T08:44:58.000Z</time>
</trkpt>
<trkpt lat="30.9793035" lon="34.9705511">
<ele>581.200012</ele>
<time>2015-10-30T08:45:07.000Z</time>
</trkpt>
<trkpt lat="30.9793467" lon="34.9704660">
<ele>579.200012</ele>
<time>2015-10-30T08:45:12.000Z</time>
</trkpt>
<trkpt lat="30.9794170" lon="34.9703884">
<ele>577.799988</ele>
<time>2015-10-30T08:45:16.000Z</time>
</trkpt>
<trkpt lat="30.9794731" lon="34.9703025">
<ele>577.799988</ele>
<time>2015-10-30T08:45:21.000Z</time>
</trkpt>
<trkpt lat="30.9795506" lon="34.9702082">
<ele>577.799988</ele>
<time>2015-10-30T08:45:26.000Z</time>
</trkpt>
<trkpt lat="30.9796302" lon="34.9701436">
<ele>575.200012</ele>
<time>2015-10-30T08:45:30.000Z</time>
</trkpt>
<trkpt lat="30.9796945" lon="34.9700551">
<ele>572.799988</ele>
<time>2015-10-30T08:45:34.000Z</time>
</trkpt>
<trkpt lat="30.9797372" lon="34.9699465">
<ele>570.799988</ele>
<time>2015-10-30T08:45:38.000Z</time>
</trkpt>
<trkpt lat="30.9797770" lon="34.9698247">
<ele>570.200012</ele>
<time>2015-10-30T08:45:42.000Z</time>
</trkpt>
<trkpt lat="30.9798134" lon="34.9696911">
<ele>570.000000</ele>
<time>2015-10-30T08:45:46.000Z</time>
</trkpt>
<trkpt lat="30.9798372" lon="34.9695824">
<ele>569.000000</ele>
<time>2015-10-30T08:45:49.000Z</time>
</trkpt>
<trkpt lat="30.9798372" lon="34.9694696">
<ele>568.599976</ele>
<time>2015-10-30T08:45:53.000Z</time>
</trkpt>
<trkpt lat="30.9798647" lon="34.9693739">
<ele>568.599976</ele>
<time>2015-10-30T08:45:57.000Z</time>
</trkpt>
<trkpt lat="30.9798994" lon="34.9692743">
<ele>568.599976</ele>
<time>2015-10-30T08:46:01.000Z</time>
</trkpt>
<trkpt lat="30.9799327" lon="34.9691554">
<ele>568.400024</ele>
<time>2015-10-30T08:46:06.000Z</time>
</trkpt>
<trkpt lat="30.9799690" lon="34.9690477">
<ele>568.400024</ele>
<time>2015-10-30T08:46:11.000Z</time>
</trkpt>
<trkpt lat="30.9799770" lon="34.9689273">
<ele>567.599976</ele>
<time>2015-10-30T08:46:16.000Z</time>
</trkpt>
<trkpt lat="30.9799931" lon="34.9688094">
<ele>566.000000</ele>
<time>2015-10-30T08:46:22.000Z</time>
</trkpt>
<trkpt lat="30.9800271" lon="34.9686993">
<ele>565.200012</ele>
<time>2015-10-30T08:46:27.000Z</time>
</trkpt>
<trkpt lat="30.9800655" lon="34.9686007">
<ele>565.400024</ele>
<time>2015-10-30T08:46:32.000Z</time>
</trkpt>
<trkpt lat="30.9801008" lon="34.9684941">
<ele>565.599976</ele>
<time>2015-10-30T08:46:36.000Z</time>
</trkpt>
<trkpt lat="30.9801312" lon="34.9683914">
<ele>565.799988</ele>
<time>2015-10-30T08:46:39.000Z</time>
</trkpt>
<trkpt lat="30.9801732" lon="34.9682740">
<ele>565.400024</ele>
<time>2015-10-30T08:46:43.000Z</time>
</trkpt>
<trkpt lat="30.9801847" lon="34.9681441">
<ele>564.200012</ele>
<time>2015-10-30T08:46:49.000Z</time>
</trkpt>
<trkpt lat="30.9802662" lon="34.9680629">
<ele>562.599976</ele>
<time>2015-10-30T08:46:54.000Z</time>
</trkpt>
<trkpt lat="30.9803543" lon="34.9679397">
<ele>560.599976</ele>
<time>2015-10-30T08:46:59.000Z</time>
</trkpt>
<trkpt lat="30.9804337" lon="34.9678503">
<ele>560.200012</ele>
<time>2015-10-30T08:47:02.000Z</time>
</trkpt>
<trkpt lat="30.9805287" lon="34.9677349">
<ele>559.400024</ele>
<time>2015-10-30T08:47:06.000Z</time>
</trkpt>
<trkpt lat="30.9806151" lon="34.9676832">
<ele>558.799988</ele>
<time>2015-10-30T08:47:08.000Z</time>
</trkpt>
<trkpt lat="30.9807189" lon="34.9676314">
<ele>559.200012</ele>
<time>2015-10-30T08:47:11.000Z</time>
</trkpt>
<trkpt lat="30.9808169" lon="34.9675953">
<ele>559.400024</ele>
<time>2015-10-30T08:47:14.000Z</time>
</trkpt>
<trkpt lat="30.9809028" lon="34.9675371">
<ele>559.799988</ele>
<time>2015-10-30T08:47:17.000Z</time>
</trkpt>
<trkpt lat="30.9809974" lon="34.9674698">
<ele>559.799988</ele>
<time>2015-10-30T08:47:20.000Z</time>
</trkpt>
<trkpt lat="30.9810732" lon="34.9673887">
<ele>558.599976</ele>
<time>2015-10-30T08:47:23.000Z</time>
</trkpt>
<trkpt lat="30.9811465" lon="34.9673065">
<ele>557.200012</ele>
<time>2015-10-30T08:47:26.000Z</time>
</trkpt>
<trkpt lat="30.9812242" lon="34.9672341">
<ele>556.000000</ele>
<time>2015-10-30T08:47:29.000Z</time>
</trkpt>
<trkpt lat="30.9813100" lon="34.9671546">
<ele>554.599976</ele>
<time>2015-10-30T08:47:32.000Z</time>
</trkpt>
<trkpt lat="30.9813885" lon="34.9670953">
<ele>553.400024</ele>
<time>2015-10-30T08:47:35.000Z</time>
</trkpt>
<trkpt lat="30.9814762" lon="34.9670320">
<ele>553.000000</ele>
<time>2015-10-30T08:47:40.000Z</time>
</trkpt>
<trkpt lat="30.9815500" lon="34.9669638">
<ele>553.000000</ele>
<time>2015-10-30T08:47:46.000Z</time>
</trkpt>
<trkpt lat="30.9816157" lon="34.9669131">
<ele>552.799988</ele>
<time>2015-10-30T08:48:02.000Z</time>
</trkpt>
<trkpt lat="30.9816953" lon="34.9669254">
<ele>552.599976</ele>
<time>2015-10-30T08:48:19.000Z</time>
</trkpt>
<trkpt lat="30.9818132" lon="34.9669572">
<ele>552.000000</ele>
<time>2015-10-30T08:48:25.000Z</time>
</trkpt>
<trkpt lat="30.9818985" lon="34.9669663">
<ele>551.599976</ele>
<time>2015-10-30T08:48:30.000Z</time>
</trkpt>
<trkpt lat="30.9819985" lon="34.9669989">
<ele>551.200012</ele>
<time>2015-10-30T08:48:35.000Z</time>
</trkpt>
<trkpt lat="30.9820896" lon="34.9670595">
<ele>550.599976</ele>
<time>2015-10-30T08:48:39.000Z</time>
</trkpt>
<trkpt lat="30.9821985" lon="34.9670655">
<ele>550.200012</ele>
<time>2015-10-30T08:48:45.000Z</time>
</trkpt>
<trkpt lat="30.9822885" lon="34.9670690">
<ele>550.200012</ele>
<time>2015-10-30T08:48:50.000Z</time>
</trkpt>
<trkpt lat="30.9823819" lon="34.9670157">
<ele>550.400024</ele>
<time>2015-10-30T08:48:56.000Z</time>
</trkpt>
<trkpt lat="30.9824669" lon="34.9670276">
<ele>550.799988</ele>
<time>2015-10-30T08:49:18.000Z</time>
</trkpt>
<trkpt lat="30.9825499" lon="34.9669765">
<ele>551.000000</ele>
<time>2015-10-30T08:49:32.000Z</time>
</trkpt>
<trkpt lat="30.9826519" lon="34.9669257">
<ele>551.200012</ele>
<time>2015-10-30T08:49:44.000Z</time>
</trkpt>
<trkpt lat="30.9827796" lon="34.9668839">
<ele>551.599976</ele>
<time>2015-10-30T08:49:48.000Z</time>
</trkpt>
<trkpt lat="30.9828624" lon="34.9668287">
<ele>551.599976</ele>
<time>2015-10-30T08:49:51.000Z</time>
</trkpt>
<trkpt lat="30.9829615" lon="34.9667908">
<ele>550.799988</ele>
<time>2015-10-30T08:49:56.000Z</time>
</trkpt>
<trkpt lat="30.9830668" lon="34.9667458">
<ele>549.799988</ele>
<time>2015-10-30T08:50:00.000Z</time>
</trkpt>
<trkpt lat="30.9831577" lon="34.9667105">
<ele>549.799988</ele>
<time>2015-10-30T08:50:04.000Z</time>
</trkpt>
<trkpt lat="30.9832602" lon="34.9666664">
<ele>549.599976</ele>
<time>2015-10-30T08:50:09.000Z</time>
</trkpt>
<trkpt lat="30.9833497" lon="34.9666337">
<ele>549.799988</ele>
<time>2015-10-30T08:50:14.000Z</time>
</trkpt>
<trkpt lat="30.9834389" lon="34.9665809">
<ele>549.400024</ele>
<time>2015-10-30T08:50:21.000Z</time>
</trkpt>
<trkpt lat="30.9835205" lon="34.9665113">
<ele>548.599976</ele>
<time>2015-10-30T08:50:25.000Z</time>
</trkpt>
<trkpt lat="30.9836202" lon="34.9664929">
<ele>548.200012</ele>
<time>2015-10-30T08:50:31.000Z</time>
</trkpt>
<trkpt lat="30.9837099" lon="34.9664841">
<ele>548.200012</ele>
<time>2015-10-30T08:50:36.000Z</time>
</trkpt>
<trkpt lat="30.9838007" lon="34.9664675">
<ele>548.000000</ele>
<time>2015-10-30T08:50:41.000Z</time>
</trkpt>
<trkpt lat="30.9838944" lon="34.9664627">
<ele>547.799988</ele>
<time>2015-10-30T08:50:47.000Z</time>
</trkpt>
<trkpt lat="30.9839885" lon="34.9664618">
<ele>547.400024</ele>
<time>2015-10-30T08:50:53.000Z</time>
</trkpt>
<trkpt lat="30.9840865" lon="34.9664388">
<ele>546.599976</ele>
<time>2015-10-30T08:50:59.000Z</time>
</trkpt>
<trkpt lat="30.9841803" lon="34.9664214">
<ele>546.200012</ele>
<time>2015-10-30T08:51:15.000Z</time>
</trkpt>
<trkpt lat="30.9842776" lon="34.9663944">
<ele>545.799988</ele>
<time>2015-10-30T08:51:29.000Z</time>
</trkpt>
<trkpt lat="30.9843707" lon="34.9663589">
<ele>545.400024</ele>
<time>2015-10-30T08:51:41.000Z</time>
</trkpt>
<trkpt lat="30.9844607" lon="34.9662970">
<ele>544.799988</ele>
<time>2015-10-30T08:51:51.000Z</time>
</trkpt>
<trkpt lat="30.9845481" lon="34.9662968">
<ele>544.599976</ele>
<time>2015-10-30T08:51:57.000Z</time>
</trkpt>
<trkpt lat="30.9846140" lon="34.9663894">
<ele>545.400024</ele>
<time>2015-10-30T08:52:04.000Z</time>
</trkpt>
<trkpt lat="30.9846206" lon="34.9665022">
<ele>546.400024</ele>
<time>2015-10-30T08:52:11.000Z</time>
</trkpt>
<trkpt lat="30.9846547" lon="34.9666145">
<ele>547.200012</ele>
<time>2015-10-30T08:52:18.000Z</time>
</trkpt>
<trkpt lat="30.9847049" lon="34.9667198">
<ele>548.000000</ele>
<time>2015-10-30T08:52:25.000Z</time>
</trkpt>
<trkpt lat="30.9847294" lon="34.9668382">
<ele>549.000000</ele>
<time>2015-10-30T08:52:30.000Z</time>
</trkpt>
<trkpt lat="30.9847347" lon="34.9669550">
<ele>550.000000</ele>
<time>2015-10-30T08:52:36.000Z</time>
</trkpt>
<trkpt lat="30.9847532" lon="34.9670642">
<ele>550.799988</ele>
<time>2015-10-30T08:52:42.000Z</time>
</trkpt>
<trkpt lat="30.9847435" lon="34.9671826">
<ele>551.799988</ele>
<time>2015-10-30T08:52:49.000Z</time>
</trkpt>
<trkpt lat="30.9848044" lon="34.9672719">
<ele>551.799988</ele>
<time>2015-10-30T08:52:56.000Z</time>
</trkpt>
<trkpt lat="30.9848730" lon="34.9673565">
<ele>551.599976</ele>
<time>2015-10-30T08:53:03.000Z</time>
</trkpt>
<trkpt lat="30.9849312" lon="34.9674450">
<ele>551.599976</ele>
<time>2015-10-30T08:53:10.000Z</time>
</trkpt>
<trkpt lat="30.9849658" lon="34.9675403">
<ele>552.000000</ele>
<time>2015-10-30T08:53:17.000Z</time>
</trkpt>
<trkpt lat="30.9850303" lon="34.9676353">
<ele>552.000000</ele>
<time>2015-10-30T08:53:23.000Z</time>
</trkpt>
<trkpt lat="30.9850727" lon="34.9677314">
<ele>552.200012</ele>
<time>2015-10-30T08:53:27.000Z</time>
</trkpt>
<trkpt lat="30.9850840" lon="34.9678490">
<ele>553.000000</ele>
<time>2015-10-30T08:53:30.000Z</time>
</trkpt>
<trkpt lat="30.9850859" lon="34.9679911">
<ele>553.799988</ele>
<time>2015-10-30T08:53:33.000Z</time>
</trkpt>
<trkpt lat="30.9850968" lon="34.9680986">
<ele>554.200012</ele>
<time>2015-10-30T08:53:35.000Z</time>
</trkpt>
<trkpt lat="30.9851418" lon="34.9682075">
<ele>554.200012</ele>
<time>2015-10-30T08:53:37.000Z</time>
</trkpt>
<trkpt lat="30.9852147" lon="34.9682883">
<ele>553.799988</ele>
<time>2015-10-30T08:53:39.000Z</time>
</trkpt>
<trkpt lat="30.9853077" lon="34.9683737">
<ele>553.200012</ele>
<time>2015-10-30T08:53:42.000Z</time>
</trkpt>
<trkpt lat="30.9853920" lon="34.9684529">
<ele>552.599976</ele>
<time>2015-10-30T08:53:46.000Z</time>
</trkpt>
<trkpt lat="30.9854860" lon="34.9684817">
<ele>551.799988</ele>
<time>2015-10-30T08:53:50.000Z</time>
</trkpt>
<trkpt lat="30.9855745" lon="34.9684788">
<ele>550.799988</ele>
<time>2015-10-30T08:53:54.000Z</time>
</trkpt>
<trkpt lat="30.9856693" lon="34.9684820">
<ele>550.799988</ele>
<time>2015-10-30T08:53:58.000Z</time>
</trkpt>
<trkpt lat="30.9857553" lon="34.9685194">
<ele>551.200012</ele>
<time>2015-10-30T08:54:02.000Z</time>
</trkpt>
<trkpt lat="30.9858517" lon="34.9685956">
<ele>551.599976</ele>
<time>2015-10-30T08:54:07.000Z</time>
</trkpt>
<trkpt lat="30.9859318" lon="34.9686756">
<ele>552.000000</ele>
<time>2015-10-30T08:54:11.000Z</time>
</trkpt>
<trkpt lat="30.9860238" lon="34.9687144">
<ele>552.400024</ele>
<time>2015-10-30T08:54:14.000Z</time>
</trkpt>
<trkpt lat="30.9861146" lon="34.9687394">
<ele>552.599976</ele>
<time>2015-10-30T08:54:17.000Z</time>
</trkpt>
<trkpt lat="30.9862176" lon="34.9687553">
<ele>552.799988</ele>
<time>2015-10-30T08:54:21.000Z</time>
</trkpt>
<trkpt lat="30.9863286" lon="34.9687355">
<ele>552.799988</ele>
<time>2015-10-30T08:54:26.000Z</time>
</trkpt>
<trkpt lat="30.9864216" lon="34.9687328">
<ele>553.200012</ele>
<time>2015-10-30T08:54:30.000Z</time>
</trkpt>
<trkpt lat="30.9865110" lon="34.9687035">
<ele>555.000000</ele>
<time>2015-10-30T08:54:35.000Z</time>
</trkpt>
<trkpt lat="30.9865445" lon="34.9685991">
<ele>556.000000</ele>
<time>2015-10-30T08:54:40.000Z</time>
</trkpt>
<trkpt lat="30.9865300" lon="34.9684624">
<ele>556.400024</ele>
<time>2015-10-30T08:54:44.000Z</time>
</trkpt>
<trkpt lat="30.9864745" lon="34.9683630">
<ele>556.000000</ele>
<time>2015-10-30T08:54:47.000Z</time>
</trkpt>
<trkpt lat="30.9864042" lon="34.9682750">
<ele>555.200012</ele>
<time>2015-10-30T08:54:50.000Z</time>
</trkpt>
<trkpt lat="30.9863376" lon="34.9682004">
<ele>554.799988</ele>
<time>2015-10-30T08:54:53.000Z</time>
</trkpt>
<trkpt lat="30.9862683" lon="34.9681023">
<ele>554.599976</ele>
<time>2015-10-30T08:54:57.000Z</time>
</trkpt>
<trkpt lat="30.9862110" lon="34.9680300">
<ele>554.200012</ele>
<time>2015-10-30T08:56:03.000Z</time>
</trkpt>
<trkpt lat="30.9861370" lon="34.9679352">
<ele>553.799988</ele>
<time>2015-10-30T08:56:08.000Z</time>
</trkpt>
<trkpt lat="30.9860696" lon="34.9678327">
<ele>553.000000</ele>
<time>2015-10-30T08:56:12.000Z</time>
</trkpt>
<trkpt lat="30.9860314" lon="34.9677226">
<ele>552.000000</ele>
<time>2015-10-30T08:56:16.000Z</time>
</trkpt>
<trkpt lat="30.9860523" lon="34.9676301">
<ele>551.799988</ele>
<time>2015-10-30T08:56:25.000Z</time>
</trkpt>
<trkpt lat="30.9860102" lon="34.9675346">
<ele>550.799988</ele>
<time>2015-10-30T08:56:43.000Z</time>
</trkpt>
<trkpt lat="30.9860124" lon="34.9674289">
<ele>550.599976</ele>
<time>2015-10-30T08:57:01.000Z</time>
</trkpt>
<trkpt lat="30.9860181" lon="34.9673154">
<ele>550.400024</ele>
<time>2015-10-30T08:57:14.000Z</time>
</trkpt>
<trkpt lat="30.9859824" lon="34.9671990">
<ele>549.599976</ele>
<time>2015-10-30T08:57:19.000Z</time>
</trkpt>
<trkpt lat="30.9859332" lon="34.9670788">
<ele>548.599976</ele>
<time>2015-10-30T08:57:23.000Z</time>
</trkpt>
<trkpt lat="30.9858985" lon="34.9669704">
<ele>547.400024</ele>
<time>2015-10-30T08:57:27.000Z</time>
</trkpt>
<trkpt lat="30.9858560" lon="34.9668463">
<ele>546.000000</ele>
<time>2015-10-30T08:57:31.000Z</time>
</trkpt>
<trkpt lat="30.9858156" lon="34.9667299">
<ele>544.599976</ele>
<time>2015-10-30T08:57:35.000Z</time>
</trkpt>
<trkpt lat="30.9857847" lon="34.9666241">
<ele>543.400024</ele>
<time>2015-10-30T08:57:40.000Z</time>
</trkpt>
<trkpt lat="30.9857415" lon="34.9665219">
<ele>542.200012</ele>
<time>2015-10-30T08:57:45.000Z</time>
</trkpt>
<trkpt lat="30.9856988" lon="34.9664241">
<ele>540.799988</ele>
<time>2015-10-30T08:57:51.000Z</time>
</trkpt>
<trkpt lat="30.9856698" lon="34.9663305">
<ele>539.799988</ele>
<time>2015-10-30T08:58:13.000Z</time>
</trkpt>
<trkpt lat="30.9856220" lon="34.9662415">
<ele>538.400024</ele>
<time>2015-10-30T08:58:26.000Z</time>
</trkpt>
<trkpt lat="30.9855297" lon="34.9661948">
<ele>537.799988</ele>
<time>2015-10-30T08:58:44.000Z</time>
</trkpt>
<trkpt lat="30.9855106" lon="34.9660778">
<ele>537.799988</ele>
<time>2015-10-30T08:59:02.000Z</time>
</trkpt>
<trkpt lat="30.9855446" lon="34.9659659">
<ele>537.599976</ele>
<time>2015-10-30T08:59:18.000Z</time>
</trkpt>
<trkpt lat="30.9855967" lon="34.9658838">
<ele>537.799988</ele>
<time>2015-10-30T08:59:32.000Z</time>
</trkpt>
<trkpt lat="30.9856763" lon="34.9658429">
<ele>538.599976</ele>
<time>2015-10-30T08:59:46.000Z</time>
</trkpt>
<trkpt lat="30.9857640" lon="34.9658453">
<ele>539.799988</ele>
<time>2015-10-30T09:00:06.000Z</time>
</trkpt>
<trkpt lat="30.9858411" lon="34.9658269">
<ele>540.599976</ele>
<time>2015-10-30T09:00:28.000Z</time>
</trkpt>
<trkpt lat="30.9858716" lon="34.9657449">
<ele>540.799988</ele>
<time>2015-10-30T09:00:45.000Z</time>
</trkpt>
<trkpt lat="30.9859587" lon="34.9657134">
<ele>541.599976</ele>
<time>2015-10-30T09:00:59.000Z</time>
</trkpt>
<trkpt lat="30.9860186" lon="34.9656429">
<ele>541.799988</ele>
<time>2015-10-30T09:01:13.000Z</time>
</trkpt>
<trkpt lat="30.9860626" lon="34.9655579">
<ele>541.799988</ele>
<time>2015-10-30T09:01:29.000Z</time>
</trkpt>
<trkpt lat="30.9861316" lon="34.9654738">
<ele>542.000000</ele>
<time>2015-10-30T09:01:34.000Z</time>
</trkpt>
<trkpt lat="30.9862118" lon="34.9654192">
<ele>542.400024</ele>
<time>2015-10-30T09:01:38.000Z</time>
</trkpt>
<trkpt lat="30.9863112" lon="34.9653783">
<ele>543.000000</ele>
<time>2015-10-30T09:01:43.000Z</time>
</trkpt>
<trkpt lat="30.9864079" lon="34.9653289">
<ele>543.400024</ele>
<time>2015-10-30T09:01:48.000Z</time>
</trkpt>
<trkpt lat="30.9864816" lon="34.9652671">
<ele>543.400024</ele>
<time>2015-10-30T09:01:52.000Z</time>
</trkpt>
<trkpt lat="30.9865465" lon="34.9651808">
<ele>543.000000</ele>
<time>2015-10-30T09:01:56.000Z</time>
</trkpt>
<trkpt lat="30.9866197" lon="34.9651083">
<ele>543.000000</ele>
<time>2015-10-30T09:02:01.000Z</time>
</trkpt>
<trkpt lat="30.9867127" lon="34.9650616">
<ele>543.000000</ele>
<time>2015-10-30T09:02:09.000Z</time>
</trkpt>
<trkpt lat="30.9867906" lon="34.9649959">
<ele>542.799988</ele>
<time>2015-10-30T09:02:16.000Z</time>
</trkpt>
<trkpt lat="30.9868713" lon="34.9649397">
<ele>542.799988</ele>
<time>2015-10-30T09:02:23.000Z</time>
</trkpt>
<trkpt lat="30.9869594" lon="34.9649341">
<ele>542.799988</ele>
<time>2015-10-30T09:02:29.000Z</time>
</trkpt>
<trkpt lat="30.9870492" lon="34.9649853">
<ele>543.400024</ele>
<time>2015-10-30T09:02:33.000Z</time>
</trkpt>
<trkpt lat="30.9871311" lon="34.9650562">
<ele>544.200012</ele>
<time>2015-10-30T09:02:38.000Z</time>
</trkpt>
<trkpt lat="30.9872134" lon="34.9651228">
<ele>544.799988</ele>
<time>2015-10-30T09:02:44.000Z</time>
</trkpt>
<trkpt lat="30.9872800" lon="34.9651990">
<ele>545.400024</ele>
<time>2015-10-30T09:02:50.000Z</time>
</trkpt>
<trkpt lat="30.9873698" lon="34.9652293">
<ele>545.200012</ele>
<time>2015-10-30T09:02:57.000Z</time>
</trkpt>
<trkpt lat="30.9874564" lon="34.9652540">
<ele>545.200012</ele>
<time>2015-10-30T09:03:40.000Z</time>
</trkpt>
<trkpt lat="30.9875551" lon="34.9652867">
<ele>545.000000</ele>
<time>2015-10-30T09:03:44.000Z</time>
</trkpt>
<trkpt lat="30.9876592" lon="34.9652990">
<ele>544.799988</ele>
<time>2015-10-30T09:03:48.000Z</time>
</trkpt>
<trkpt lat="30.9877658" lon="34.9653382">
<ele>544.599976</ele>
<time>2015-10-30T09:03:52.000Z</time>
</trkpt>
<trkpt lat="30.9878704" lon="34.9653749">
<ele>544.599976</ele>
<time>2015-10-30T09:03:56.000Z</time>
</trkpt>
<trkpt lat="30.9879675" lon="34.9653915">
<ele>544.200012</ele>
<time>2015-10-30T09:04:00.000Z</time>
</trkpt>
<trkpt lat="30.9880517" lon="34.9654424">
<ele>544.200012</ele>
<time>2015-10-30T09:04:03.000Z</time>
</trkpt>
<trkpt lat="30.9881392" lon="34.9654248">
<ele>544.000000</ele>
<time>2015-10-30T09:04:06.000Z</time>
</trkpt>
<trkpt lat="30.9882072" lon="34.9653082">
<ele>543.200012</ele>
<time>2015-10-30T09:04:10.000Z</time>
</trkpt>
<trkpt lat="30.9882555" lon="34.9652091">
<ele>542.400024</ele>
<time>2015-10-30T09:04:13.000Z</time>
</trkpt>
<trkpt lat="30.9882916" lon="34.9650969">
<ele>541.400024</ele>
<time>2015-10-30T09:04:16.000Z</time>
</trkpt>
<trkpt lat="30.9883206" lon="34.9649492">
<ele>540.400024</ele>
<time>2015-10-30T09:04:19.000Z</time>
</trkpt>
<trkpt lat="30.9883347" lon="34.9648364">
<ele>539.599976</ele>
<time>2015-10-30T09:04:21.000Z</time>
</trkpt>
<trkpt lat="30.9883708" lon="34.9647115">
<ele>539.400024</ele>
<time>2015-10-30T09:04:24.000Z</time>
</trkpt>
<trkpt lat="30.9884539" lon="34.9646732">
<ele>539.599976</ele>
<time>2015-10-30T09:04:28.000Z</time>
</trkpt>
<trkpt lat="30.9885387" lon="34.9646312">
<ele>539.799988</ele>
<time>2015-10-30T09:04:31.000Z</time>
</trkpt>
<trkpt lat="30.9886119" lon="34.9645413">
<ele>539.799988</ele>
<time>2015-10-30T09:04:34.000Z</time>
</trkpt>
<trkpt lat="30.9886638" lon="34.9643978">
<ele>539.200012</ele>
<time>2015-10-30T09:04:37.000Z</time>
</trkpt>
<trkpt lat="30.9887103" lon="34.9642868">
<ele>539.000000</ele>
<time>2015-10-30T09:04:39.000Z</time>
</trkpt>
<trkpt lat="30.9887610" lon="34.9641659">
<ele>538.799988</ele>
<time>2015-10-30T09:04:41.000Z</time>
</trkpt>
<trkpt lat="30.9888179" lon="34.9640375">
<ele>538.599976</ele>
<time>2015-10-30T09:04:43.000Z</time>
</trkpt>
<trkpt lat="30.9888801" lon="34.9639065">
<ele>538.400024</ele>
<time>2015-10-30T09:04:45.000Z</time>
</trkpt>
<trkpt lat="30.9889308" lon="34.9637870">
<ele>538.000000</ele>
<time>2015-10-30T09:04:47.000Z</time>
</trkpt>
<trkpt lat="30.9889557" lon="34.9636466">
<ele>537.200012</ele>
<time>2015-10-30T09:04:50.000Z</time>
</trkpt>
<trkpt lat="30.9889323" lon="34.9635447">
<ele>537.000000</ele>
<time>2015-10-30T09:04:55.000Z</time>
</trkpt>
<trkpt lat="30.9889311" lon="34.9634241">
<ele>536.400024</ele>
<time>2015-10-30T09:05:00.000Z</time>
</trkpt>
<trkpt lat="30.9889200" lon="34.9633101">
<ele>535.799988</ele>
<time>2015-10-30T09:05:04.000Z</time>
</trkpt>
<trkpt lat="30.9888972" lon="34.9631973">
<ele>535.400024</ele>
<time>2015-10-30T09:05:08.000Z</time>
</trkpt>
<trkpt lat="30.9888765" lon="34.9630663">
<ele>534.599976</ele>
<time>2015-10-30T09:05:12.000Z</time>
</trkpt>
<trkpt lat="30.9888484" lon="34.9629358">
<ele>534.000000</ele>
<time>2015-10-30T09:05:16.000Z</time>
</trkpt>
<trkpt lat="30.9888091" lon="34.9628156">
<ele>533.599976</ele>
<time>2015-10-30T09:05:20.000Z</time>
</trkpt>
<trkpt lat="30.9887870" lon="34.9627630">
<ele>533.599976</ele>
<time>2015-10-30T09:06:39.000Z</time>
</trkpt>
<trkpt lat="30.9887857" lon="34.9626481">
<ele>533.400024</ele>
<time>2015-10-30T09:06:48.000Z</time>
</trkpt>
<trkpt lat="30.9887835" lon="34.9625458">
<ele>533.200012</ele>
<time>2015-10-30T09:07:32.000Z</time>
</trkpt>
<trkpt lat="30.9887482" lon="34.9624192">
<ele>533.000000</ele>
<time>2015-10-30T09:08:36.000Z</time>
</trkpt>
<trkpt lat="30.9887355" lon="34.9623032">
<ele>532.799988</ele>
<time>2015-10-30T09:08:41.000Z</time>
</trkpt>
<trkpt lat="30.9887196" lon="34.9621786">
<ele>532.599976</ele>
<time>2015-10-30T09:08:46.000Z</time>
</trkpt>
<trkpt lat="30.9887558" lon="34.9620772">
<ele>532.599976</ele>
<time>2015-10-30T09:08:50.000Z</time>
</trkpt>
<trkpt lat="30.9887796" lon="34.9619619">
<ele>532.000000</ele>
<time>2015-10-30T09:08:54.000Z</time>
</trkpt>
<trkpt lat="30.9887963" lon="34.9618499">
<ele>531.400024</ele>
<time>2015-10-30T09:08:57.000Z</time>
</trkpt>
<trkpt lat="30.9888246" lon="34.9617414">
<ele>531.000000</ele>
<time>2015-10-30T09:09:00.000Z</time>
</trkpt>
<trkpt lat="30.9888620" lon="34.9616392">
<ele>530.799988</ele>
<time>2015-10-30T09:09:03.000Z</time>
</trkpt>
<trkpt lat="30.9888853" lon="34.9615375">
<ele>530.400024</ele>
<time>2015-10-30T09:09:06.000Z</time>
</trkpt>
<trkpt lat="30.9888997" lon="34.9614229">
<ele>529.799988</ele>
<time>2015-10-30T09:09:09.000Z</time>
</trkpt>
<trkpt lat="30.9889086" lon="34.9613016">
<ele>529.200012</ele>
<time>2015-10-30T09:09:12.000Z</time>
</trkpt>
<trkpt lat="30.9889258" lon="34.9611871">
<ele>528.799988</ele>
<time>2015-10-30T09:09:15.000Z</time>
</trkpt>
<trkpt lat="30.9889780" lon="34.9610842">
<ele>528.000000</ele>
<time>2015-10-30T09:09:18.000Z</time>
</trkpt>
<trkpt lat="30.9890407" lon="34.9609750">
<ele>527.400024</ele>
<time>2015-10-30T09:09:21.000Z</time>
</trkpt>
<trkpt lat="30.9891164" lon="34.9608783">
<ele>526.799988</ele>
<time>2015-10-30T09:09:24.000Z</time>
</trkpt>
<trkpt lat="30.9891944" lon="34.9607710">
<ele>526.000000</ele>
<time>2015-10-30T09:09:27.000Z</time>
</trkpt>
<trkpt lat="30.9892602" lon="34.9606478">
<ele>525.799988</ele>
<time>2015-10-30T09:09:30.000Z</time>
</trkpt>
<trkpt lat="30.9893270" lon="34.9605325">
<ele>526.000000</ele>
<time>2015-10-30T09:09:33.000Z</time>
</trkpt>
<trkpt lat="30.9893914" lon="34.9604181">
<ele>526.200012</ele>
<time>2015-10-30T09:09:36.000Z</time>
</trkpt>
<trkpt lat="30.9894595" lon="34.9602838">
<ele>526.000000</ele>
<time>2015-10-30T09:09:39.000Z</time>
</trkpt>
<trkpt lat="30.9895075" lon="34.9601429">
<ele>525.799988</ele>
<time>2015-10-30T09:09:42.000Z</time>
</trkpt>
<trkpt lat="30.9895212" lon="34.9600354">
<ele>525.799988</ele>
<time>2015-10-30T09:09:44.000Z</time>
</trkpt>
<trkpt lat="30.9895309" lon="34.9599284">
<ele>525.599976</ele>
<time>2015-10-30T09:09:46.000Z</time>
</trkpt>
<trkpt lat="30.9895515" lon="34.9598289">
<ele>525.599976</ele>
<time>2015-10-30T09:09:48.000Z</time>
</trkpt>
<trkpt lat="30.9895723" lon="34.9597212">
<ele>525.599976</ele>
<time>2015-10-30T09:09:50.000Z</time>
</trkpt>
<trkpt lat="30.9895916" lon="34.9596073">
<ele>525.400024</ele>
<time>2015-10-30T09:09:52.000Z</time>
</trkpt>
<trkpt lat="30.9896185" lon="34.9594865">
<ele>525.400024</ele>
<time>2015-10-30T09:09:54.000Z</time>
</trkpt>
<trkpt lat="30.9896302" lon="34.9593692">
<ele>525.000000</ele>
<time>2015-10-30T09:09:56.000Z</time>
</trkpt>
<trkpt lat="30.9896045" lon="34.9592627">
<ele>524.799988</ele>
<time>2015-10-30T09:09:58.000Z</time>
</trkpt>
<trkpt lat="30.9895393" lon="34.9591410">
<ele>524.200012</ele>
<time>2015-10-30T09:10:01.000Z</time>
</trkpt>
<trkpt lat="30.9894674" lon="34.9590618">
<ele>523.799988</ele>
<time>2015-10-30T09:10:04.000Z</time>
</trkpt>
<trkpt lat="30.9893793" lon="34.9590143">
<ele>523.400024</ele>
<time>2015-10-30T09:10:08.000Z</time>
</trkpt>
<trkpt lat="30.9893055" lon="34.9589467">
<ele>522.799988</ele>
<time>2015-10-30T09:10:13.000Z</time>
</trkpt>
<trkpt lat="30.9892671" lon="34.9588190">
<ele>522.400024</ele>
<time>2015-10-30T09:10:18.000Z</time>
</trkpt>
<trkpt lat="30.9893225" lon="34.9587001">
<ele>522.400024</ele>
<time>2015-10-30T09:10:22.000Z</time>
</trkpt>
<trkpt lat="30.9894262" lon="34.9586644">
<ele>522.799988</ele>
<time>2015-10-30T09:10:26.000Z</time>
</trkpt>
<trkpt lat="30.9895243" lon="34.9586690">
<ele>523.200012</ele>
<time>2015-10-30T09:10:30.000Z</time>
</trkpt>
<trkpt lat="30.9896349" lon="34.9586652">
<ele>523.400024</ele>
<time>2015-10-30T09:10:34.000Z</time>
</trkpt>
<trkpt lat="30.9897459" lon="34.9586864">
<ele>523.799988</ele>
<time>2015-10-30T09:10:38.000Z</time>
</trkpt>
<trkpt lat="30.9898602" lon="34.9586967">
<ele>523.799988</ele>
<time>2015-10-30T09:10:43.000Z</time>
</trkpt>
<trkpt lat="30.9899488" lon="34.9586372">
<ele>523.799988</ele>
<time>2015-10-30T09:10:47.000Z</time>
</trkpt>
<trkpt lat="30.9900038" lon="34.9585383">
<ele>523.599976</ele>
<time>2015-10-30T09:10:51.000Z</time>
</trkpt>
<trkpt lat="30.9900467" lon="34.9584279">
<ele>523.200012</ele>
<time>2015-10-30T09:10:56.000Z</time>
</trkpt>
<trkpt lat="30.9900866" lon="34.9583201">
<ele>523.000000</ele>
<time>2015-10-30T09:11:01.000Z</time>
</trkpt>
<trkpt lat="30.9901435" lon="34.9582382">
<ele>522.799988</ele>
<time>2015-10-30T09:11:06.000Z</time>
</trkpt>
<trkpt lat="30.9902290" lon="34.9581664">
<ele>522.599976</ele>
<time>2015-10-30T09:11:11.000Z</time>
</trkpt>
<trkpt lat="30.9903244" lon="34.9581018">
<ele>522.400024</ele>
<time>2015-10-30T09:11:16.000Z</time>
</trkpt>
<trkpt lat="30.9903637" lon="34.9580016">
<ele>522.200012</ele>
<time>2015-10-30T09:11:21.000Z</time>
</trkpt>
<trkpt lat="30.9903135" lon="34.9579083">
<ele>522.000000</ele>
<time>2015-10-30T09:11:25.000Z</time>
</trkpt>
<trkpt lat="30.9902540" lon="34.9577981">
<ele>522.200012</ele>
<time>2015-10-30T09:11:29.000Z</time>
</trkpt>
<trkpt lat="30.9901836" lon="34.9576943">
<ele>522.200012</ele>
<time>2015-10-30T09:11:33.000Z</time>
</trkpt>
<trkpt lat="30.9900647" lon="34.9576197">
<ele>522.400024</ele>
<time>2015-10-30T09:11:37.000Z</time>
</trkpt>
<trkpt lat="30.9899621" lon="34.9576110">
<ele>522.400024</ele>
<time>2015-10-30T09:11:40.000Z</time>
</trkpt>
<trkpt lat="30.9898580" lon="34.9576058">
<ele>522.400024</ele>
<time>2015-10-30T09:11:43.000Z</time>
</trkpt>
<trkpt lat="30.9897467" lon="34.9575634">
<ele>522.400024</ele>
<time>2015-10-30T09:11:46.000Z</time>
</trkpt>
<trkpt lat="30.9896480" lon="34.9574795">
<ele>522.000000</ele>
<time>2015-10-30T09:11:49.000Z</time>
</trkpt>
<trkpt lat="30.9895987" lon="34.9573770">
<ele>522.000000</ele>
<time>2015-10-30T09:11:52.000Z</time>
</trkpt>
<trkpt lat="30.9896012" lon="34.9572432">
<ele>522.000000</ele>
<time>2015-10-30T09:11:56.000Z</time>
</trkpt>
<trkpt lat="30.9896193" lon="34.9571496">
<ele>522.200012</ele>
<time>2015-10-30T09:12:00.000Z</time>
</trkpt>
<trkpt lat="30.9896419" lon="34.9570517">
<ele>522.400024</ele>
<time>2015-10-30T09:12:05.000Z</time>
</trkpt>
<trkpt lat="30.9896665" lon="34.9569438">
<ele>522.200012</ele>
<time>2015-10-30T09:12:09.000Z</time>
</trkpt>
<trkpt lat="30.9896927" lon="34.9568156">
<ele>521.799988</ele>
<time>2015-10-30T09:12:13.000Z</time>
</trkpt>
<trkpt lat="30.9897441" lon="34.9566880">
<ele>521.599976</ele>
<time>2015-10-30T09:12:17.000Z</time>
</trkpt>
<trkpt lat="30.9897956" lon="34.9565800">
<ele>521.200012</ele>
<time>2015-10-30T09:12:21.000Z</time>
</trkpt>
<trkpt lat="30.9898365" lon="34.9564632">
<ele>520.599976</ele>
<time>2015-10-30T09:12:25.000Z</time>
</trkpt>
<trkpt lat="30.9898869" lon="34.9563392">
<ele>520.200012</ele>
<time>2015-10-30T09:12:29.000Z</time>
</trkpt>
<trkpt lat="30.9899391" lon="34.9562312">
<ele>520.200012</ele>
<time>2015-10-30T09:12:33.000Z</time>
</trkpt>
<trkpt lat="30.9899893" lon="34.9561140">
<ele>519.799988</ele>
<time>2015-10-30T09:12:37.000Z</time>
</trkpt>
<trkpt lat="30.9900227" lon="34.9559863">
<ele>519.400024</ele>
<time>2015-10-30T09:12:41.000Z</time>
</trkpt>
<trkpt lat="30.9900338" lon="34.9558737">
<ele>519.000000</ele>
<time>2015-10-30T09:12:44.000Z</time>
</trkpt>
<trkpt lat="30.9900532" lon="34.9557649">
<ele>518.599976</ele>
<time>2015-10-30T09:12:48.000Z</time>
</trkpt>
<trkpt lat="30.9900797" lon="34.9556432">
<ele>518.599976</ele>
<time>2015-10-30T09:12:53.000Z</time>
</trkpt>
<trkpt lat="30.9901321" lon="34.9555574">
<ele>518.799988</ele>
<time>2015-10-30T09:12:57.000Z</time>
</trkpt>
<trkpt lat="30.9901911" lon="34.9554719">
<ele>519.200012</ele>
<time>2015-10-30T09:13:01.000Z</time>
</trkpt>
<trkpt lat="30.9902294" lon="34.9553611">
<ele>519.400024</ele>
<time>2015-10-30T09:13:04.000Z</time>
</trkpt>
<trkpt lat="30.9902392" lon="34.9552398">
<ele>519.400024</ele>
<time>2015-10-30T09:13:07.000Z</time>
</trkpt>
<trkpt lat="30.9902316" lon="34.9551156">
<ele>519.400024</ele>
<time>2015-10-30T09:13:10.000Z</time>
</trkpt>
<trkpt lat="30.9902306" lon="34.9550065">
<ele>519.400024</ele>
<time>2015-10-30T09:13:13.000Z</time>
</trkpt>
<trkpt lat="30.9902456" lon="34.9548967">
<ele>519.400024</ele>
<time>2015-10-30T09:13:16.000Z</time>
</trkpt>
<trkpt lat="30.9902651" lon="34.9547859">
<ele>519.400024</ele>
<time>2015-10-30T09:13:19.000Z</time>
</trkpt>
<trkpt lat="30.9902960" lon="34.9546738">
<ele>519.599976</ele>
<time>2015-10-30T09:13:22.000Z</time>
</trkpt>
<trkpt lat="30.9903244" lon="34.9545578">
<ele>519.799988</ele>
<time>2015-10-30T09:13:25.000Z</time>
</trkpt>
<trkpt lat="30.9903373" lon="34.9544228">
<ele>519.200012</ele>
<time>2015-10-30T09:13:28.000Z</time>
</trkpt>
<trkpt lat="30.9903544" lon="34.9542823">
<ele>519.000000</ele>
<time>2015-10-30T09:13:31.000Z</time>
</trkpt>
<trkpt lat="30.9903788" lon="34.9541339">
<ele>518.799988</ele>
<time>2015-10-30T09:13:34.000Z</time>
</trkpt>
<trkpt lat="30.9904077" lon="34.9539855">
<ele>518.599976</ele>
<time>2015-10-30T09:13:37.000Z</time>
</trkpt>
<trkpt lat="30.9904308" lon="34.9538339">
<ele>518.400024</ele>
<time>2015-10-30T09:13:40.000Z</time>
</trkpt>
<trkpt lat="30.9904471" lon="34.9537267">
<ele>518.200012</ele>
<time>2015-10-30T09:13:42.000Z</time>
</trkpt>
<trkpt lat="30.9904585" lon="34.9536207">
<ele>518.000000</ele>
<time>2015-10-30T09:13:44.000Z</time>
</trkpt>
<trkpt lat="30.9904634" lon="34.9535134">
<ele>517.599976</ele>
<time>2015-10-30T09:13:46.000Z</time>
</trkpt>
<trkpt lat="30.9904593" lon="34.9533979">
<ele>517.200012</ele>
<time>2015-10-30T09:13:48.000Z</time>
</trkpt>
<trkpt lat="30.9904630" lon="34.9532839">
<ele>516.799988</ele>
<time>2015-10-30T09:13:50.000Z</time>
</trkpt>
<trkpt lat="30.9904783" lon="34.9531760">
<ele>516.400024</ele>
<time>2015-10-30T09:13:52.000Z</time>
</trkpt>
<trkpt lat="30.9904896" lon="34.9530655">
<ele>516.200012</ele>
<time>2015-10-30T09:13:54.000Z</time>
</trkpt>
<trkpt lat="30.9904917" lon="34.9529529">
<ele>515.799988</ele>
<time>2015-10-30T09:13:56.000Z</time>
</trkpt>
<trkpt lat="30.9904958" lon="34.9528457">
<ele>515.400024</ele>
<time>2015-10-30T09:13:58.000Z</time>
</trkpt>
<trkpt lat="30.9904870" lon="34.9526956">
<ele>515.000000</ele>
<time>2015-10-30T09:14:01.000Z</time>
</trkpt>
<trkpt lat="30.9904970" lon="34.9525488">
<ele>514.799988</ele>
<time>2015-10-30T09:14:04.000Z</time>
</trkpt>
<trkpt lat="30.9905046" lon="34.9524111">
<ele>514.400024</ele>
<time>2015-10-30T09:14:07.000Z</time>
</trkpt>
<trkpt lat="30.9904756" lon="34.9522613">
<ele>514.000000</ele>
<time>2015-10-30T09:14:10.000Z</time>
</trkpt>
<trkpt lat="30.9904383" lon="34.9521146">
<ele>513.400024</ele>
<time>2015-10-30T09:14:13.000Z</time>
</trkpt>
<trkpt lat="30.9904028" lon="34.9519745">
<ele>513.000000</ele>
<time>2015-10-30T09:14:16.000Z</time>
</trkpt>
<trkpt lat="30.9903368" lon="34.9518627">
<ele>512.599976</ele>
<time>2015-10-30T09:14:19.000Z</time>
</trkpt>
<trkpt lat="30.9902964" lon="34.9517566">
<ele>512.200012</ele>
<time>2015-10-30T09:14:22.000Z</time>
</trkpt>
<trkpt lat="30.9902673" lon="34.9516491">
<ele>511.799988</ele>
<time>2015-10-30T09:14:25.000Z</time>
</trkpt>
<trkpt lat="30.9902540" lon="34.9515363">
<ele>511.600006</ele>
<time>2015-10-30T09:14:28.000Z</time>
</trkpt>
<trkpt lat="30.9902544" lon="34.9514091">
<ele>511.200012</ele>
<time>2015-10-30T09:14:31.000Z</time>
</trkpt>
<trkpt lat="30.9902686" lon="34.9512804">
<ele>511.000000</ele>
<time>2015-10-30T09:14:34.000Z</time>
</trkpt>
<trkpt lat="30.9902474" lon="34.9511701">
<ele>510.600006</ele>
<time>2015-10-30T09:14:37.000Z</time>
</trkpt>
<trkpt lat="30.9902577" lon="34.9510413">
<ele>510.399994</ele>
<time>2015-10-30T09:14:40.000Z</time>
</trkpt>
<trkpt lat="30.9902907" lon="34.9509088">
<ele>510.200012</ele>
<time>2015-10-30T09:14:43.000Z</time>
</trkpt>
<trkpt lat="30.9903328" lon="34.9507625">
<ele>510.200012</ele>
<time>2015-10-30T09:14:46.000Z</time>
</trkpt>
<trkpt lat="30.9903387" lon="34.9506573">
<ele>510.200012</ele>
<time>2015-10-30T09:14:48.000Z</time>
</trkpt>
<trkpt lat="30.9903012" lon="34.9505620">
<ele>509.799988</ele>
<time>2015-10-30T09:14:50.000Z</time>
</trkpt>
<trkpt lat="30.9902540" lon="34.9504702">
<ele>509.600006</ele>
<time>2015-10-30T09:14:52.000Z</time>
</trkpt>
<trkpt lat="30.9901914" lon="34.9503318">
<ele>509.000000</ele>
<time>2015-10-30T09:14:55.000Z</time>
</trkpt>
<trkpt lat="30.9901698" lon="34.9501838">
<ele>508.399994</ele>
<time>2015-10-30T09:14:58.000Z</time>
</trkpt>
<trkpt lat="30.9901479" lon="34.9500494">
<ele>508.000000</ele>
<time>2015-10-30T09:15:01.000Z</time>
</trkpt>
<trkpt lat="30.9901121" lon="34.9499301">
<ele>507.600006</ele>
<time>2015-10-30T09:15:04.000Z</time>
</trkpt>
<trkpt lat="30.9900535" lon="34.9498258">
<ele>507.000000</ele>
<time>2015-10-30T09:15:07.000Z</time>
</trkpt>
<trkpt lat="30.9899959" lon="34.9497279">
<ele>506.400024</ele>
<time>2015-10-30T09:15:10.000Z</time>
</trkpt>
<trkpt lat="30.9899224" lon="34.9496452">
<ele>505.799988</ele>
<time>2015-10-30T09:15:13.000Z</time>
</trkpt>
<trkpt lat="30.9898454" lon="34.9495360">
<ele>505.399994</ele>
<time>2015-10-30T09:15:16.000Z</time>
</trkpt>
<trkpt lat="30.9898023" lon="34.9494146">
<ele>504.999969</ele>
<time>2015-10-30T09:15:19.000Z</time>
</trkpt>
<trkpt lat="30.9898410" lon="34.9493271">
<ele>504.999969</ele>
<time>2015-10-30T09:15:23.000Z</time>
</trkpt>
<trkpt lat="30.9899371" lon="34.9492870">
<ele>505.399994</ele>
<time>2015-10-30T09:15:27.000Z</time>
</trkpt>
<trkpt lat="30.9899910" lon="34.9492000">
<ele>505.399994</ele>
<time>2015-10-30T09:15:31.000Z</time>
</trkpt>
<trkpt lat="30.9900295" lon="34.9490983">
<ele>505.399994</ele>
<time>2015-10-30T09:15:35.000Z</time>
</trkpt>
<trkpt lat="30.9900408" lon="34.9489832">
<ele>505.200012</ele>
<time>2015-10-30T09:15:39.000Z</time>
</trkpt>
<trkpt lat="30.9900729" lon="34.9488560">
<ele>504.799988</ele>
<time>2015-10-30T09:15:43.000Z</time>
</trkpt>
<trkpt lat="30.9900945" lon="34.9487481">
<ele>504.399994</ele>
<time>2015-10-30T09:15:46.000Z</time>
</trkpt>
<trkpt lat="30.9901268" lon="34.9486295">
<ele>504.600006</ele>
<time>2015-10-30T09:15:49.000Z</time>
</trkpt>
<trkpt lat="30.9901683" lon="34.9485210">
<ele>504.799988</ele>
<time>2015-10-30T09:15:52.000Z</time>
</trkpt>
<trkpt lat="30.9902104" lon="34.9484081">
<ele>504.999969</ele>
<time>2015-10-30T09:15:55.000Z</time>
</trkpt>
<trkpt lat="30.9902270" lon="34.9482931">
<ele>504.999969</ele>
<time>2015-10-30T09:15:58.000Z</time>
</trkpt>
<trkpt lat="30.9902475" lon="34.9481689">
<ele>504.999969</ele>
<time>2015-10-30T09:16:01.000Z</time>
</trkpt>
<trkpt lat="30.9902902" lon="34.9480444">
<ele>504.999969</ele>
<time>2015-10-30T09:16:04.000Z</time>
</trkpt>
<trkpt lat="30.9903259" lon="34.9479201">
<ele>504.999969</ele>
<time>2015-10-30T09:16:07.000Z</time>
</trkpt>
<trkpt lat="30.9903742" lon="34.9478104">
<ele>504.600006</ele>
<time>2015-10-30T09:16:10.000Z</time>
</trkpt>
<trkpt lat="30.9904293" lon="34.9477069">
<ele>504.199982</ele>
<time>2015-10-30T09:16:13.000Z</time>
</trkpt>
<trkpt lat="30.9904553" lon="34.9475814">
<ele>504.000000</ele>
<time>2015-10-30T09:16:16.000Z</time>
</trkpt>
<trkpt lat="30.9904686" lon="34.9474567">
<ele>503.600006</ele>
<time>2015-10-30T09:16:20.000Z</time>
</trkpt>
<trkpt lat="30.9905060" lon="34.9473221">
<ele>503.399994</ele>
<time>2015-10-30T09:16:24.000Z</time>
</trkpt>
<trkpt lat="30.9905591" lon="34.9472109">
<ele>503.200012</ele>
<time>2015-10-30T09:16:27.000Z</time>
</trkpt>
<trkpt lat="30.9906166" lon="34.9471270">
<ele>503.000000</ele>
<time>2015-10-30T09:16:31.000Z</time>
</trkpt>
<trkpt lat="30.9906579" lon="34.9470208">
<ele>503.200012</ele>
<time>2015-10-30T09:16:36.000Z</time>
</trkpt>
<trkpt lat="30.9906930" lon="34.9468856">
<ele>503.200012</ele>
<time>2015-10-30T09:16:40.000Z</time>
</trkpt>
<trkpt lat="30.9907170" lon="34.9467680">
<ele>503.200012</ele>
<time>2015-10-30T09:16:43.000Z</time>
</trkpt>
<trkpt lat="30.9907525" lon="34.9466365">
<ele>503.000000</ele>
<time>2015-10-30T09:16:47.000Z</time>
</trkpt>
<trkpt lat="30.9907698" lon="34.9465175">
<ele>503.000000</ele>
<time>2015-10-30T09:16:52.000Z</time>
</trkpt>
<trkpt lat="30.9907247" lon="34.9463888">
<ele>502.600006</ele>
<time>2015-10-30T09:16:56.000Z</time>
</trkpt>
<trkpt lat="30.9907149" lon="34.9462757">
<ele>502.600006</ele>
<time>2015-10-30T09:16:59.000Z</time>
</trkpt>
<trkpt lat="30.9907484" lon="34.9461669">
<ele>502.600006</ele>
<time>2015-10-30T09:17:02.000Z</time>
</trkpt>
<trkpt lat="30.9908137" lon="34.9460772">
<ele>503.000000</ele>
<time>2015-10-30T09:17:05.000Z</time>
</trkpt>
<trkpt lat="30.9908646" lon="34.9459598">
<ele>503.399994</ele>
<time>2015-10-30T09:17:08.000Z</time>
</trkpt>
<trkpt lat="30.9908980" lon="34.9458498">
<ele>503.600006</ele>
<time>2015-10-30T09:17:11.000Z</time>
</trkpt>
<trkpt lat="30.9909024" lon="34.9457294">
<ele>503.799988</ele>
<time>2015-10-30T09:17:15.000Z</time>
</trkpt>
<trkpt lat="30.9908983" lon="34.9456009">
<ele>503.399994</ele>
<time>2015-10-30T09:17:20.000Z</time>
</trkpt>
<trkpt lat="30.9909225" lon="34.9454969">
<ele>503.200012</ele>
<time>2015-10-30T09:17:23.000Z</time>
</trkpt>
<trkpt lat="30.9909838" lon="34.9453964">
<ele>503.000000</ele>
<time>2015-10-30T09:17:26.000Z</time>
</trkpt>
<trkpt lat="30.9910392" lon="34.9452807">
<ele>502.399994</ele>
<time>2015-10-30T09:17:30.000Z</time>
</trkpt>
<trkpt lat="30.9910454" lon="34.9451539">
<ele>501.799988</ele>
<time>2015-10-30T09:17:34.000Z</time>
</trkpt>
<trkpt lat="30.9910568" lon="34.9450387">
<ele>501.200043</ele>
<time>2015-10-30T09:17:37.000Z</time>
</trkpt>
<trkpt lat="30.9910900" lon="34.9449404">
<ele>501.000000</ele>
<time>2015-10-30T09:17:40.000Z</time>
</trkpt>
<trkpt lat="30.9911306" lon="34.9448312">
<ele>501.000000</ele>
<time>2015-10-30T09:17:44.000Z</time>
</trkpt>
<trkpt lat="30.9911606" lon="34.9447007">
<ele>500.600006</ele>
<time>2015-10-30T09:17:48.000Z</time>
</trkpt>
<trkpt lat="30.9911735" lon="34.9445614">
<ele>500.399994</ele>
<time>2015-10-30T09:17:51.000Z</time>
</trkpt>
<trkpt lat="30.9911945" lon="34.9444334">
<ele>500.000000</ele>
<time>2015-10-30T09:17:54.000Z</time>
</trkpt>
<trkpt lat="30.9912183" lon="34.9443264">
<ele>499.399994</ele>
<time>2015-10-30T09:17:57.000Z</time>
</trkpt>
<trkpt lat="30.9912189" lon="34.9442117">
<ele>498.600006</ele>
<time>2015-10-30T09:18:00.000Z</time>
</trkpt>
<trkpt lat="30.9912174" lon="34.9440970">
<ele>497.799988</ele>
<time>2015-10-30T09:18:03.000Z</time>
</trkpt>
<trkpt lat="30.9912153" lon="34.9439884">
<ele>497.000000</ele>
<time>2015-10-30T09:18:06.000Z</time>
</trkpt>
<trkpt lat="30.9912090" lon="34.9438638">
<ele>496.200012</ele>
<time>2015-10-30T09:18:09.000Z</time>
</trkpt>
<trkpt lat="30.9911935" lon="34.9437303">
<ele>495.200012</ele>
<time>2015-10-30T09:18:12.000Z</time>
</trkpt>
<trkpt lat="30.9912090" lon="34.9436030">
<ele>495.200012</ele>
<time>2015-10-30T09:18:15.000Z</time>
</trkpt>
<trkpt lat="30.9912028" lon="34.9434702">
<ele>495.000000</ele>
<time>2015-10-30T09:18:18.000Z</time>
</trkpt>
<trkpt lat="30.9911961" lon="34.9433308">
<ele>494.399994</ele>
<time>2015-10-30T09:18:21.000Z</time>
</trkpt>
<trkpt lat="30.9911964" lon="34.9431788">
<ele>493.600006</ele>
<time>2015-10-30T09:18:24.000Z</time>
</trkpt>
<trkpt lat="30.9912005" lon="34.9430752">
<ele>493.000000</ele>
<time>2015-10-30T09:18:26.000Z</time>
</trkpt>
<trkpt lat="30.9912089" lon="34.9429690">
<ele>492.600006</ele>
<time>2015-10-30T09:18:28.000Z</time>
</trkpt>
<trkpt lat="30.9912087" lon="34.9428607">
<ele>492.200012</ele>
<time>2015-10-30T09:18:30.000Z</time>
</trkpt>
<trkpt lat="30.9912015" lon="34.9427522">
<ele>492.200012</ele>
<time>2015-10-30T09:18:32.000Z</time>
</trkpt>
<trkpt lat="30.9911904" lon="34.9426479">
<ele>492.400024</ele>
<time>2015-10-30T09:18:34.000Z</time>
</trkpt>
<trkpt lat="30.9911630" lon="34.9424976">
<ele>492.799988</ele>
<time>2015-10-30T09:18:37.000Z</time>
</trkpt>
<trkpt lat="30.9911522" lon="34.9423548">
<ele>493.000000</ele>
<time>2015-10-30T09:18:40.000Z</time>
</trkpt>
<trkpt lat="30.9911731" lon="34.9422224">
<ele>493.000000</ele>
<time>2015-10-30T09:18:43.000Z</time>
</trkpt>
<trkpt lat="30.9911827" lon="34.9421020">
<ele>493.000000</ele>
<time>2015-10-30T09:18:46.000Z</time>
</trkpt>
<trkpt lat="30.9911667" lon="34.9419529">
<ele>492.799988</ele>
<time>2015-10-30T09:18:49.000Z</time>
</trkpt>
<trkpt lat="30.9911707" lon="34.9418030">
<ele>492.200012</ele>
<time>2015-10-30T09:18:52.000Z</time>
</trkpt>
<trkpt lat="30.9911878" lon="34.9416732">
<ele>491.600006</ele>
<time>2015-10-30T09:18:55.000Z</time>
</trkpt>
<trkpt lat="30.9912516" lon="34.9415644">
<ele>490.999969</ele>
<time>2015-10-30T09:18:59.000Z</time>
</trkpt>
<trkpt lat="30.9912955" lon="34.9414442">
<ele>490.399994</ele>
<time>2015-10-30T09:19:03.000Z</time>
</trkpt>
<trkpt lat="30.9912628" lon="34.9413187">
<ele>490.000000</ele>
<time>2015-10-30T09:19:07.000Z</time>
</trkpt>
<trkpt lat="30.9912671" lon="34.9412086">
<ele>489.799988</ele>
<time>2015-10-30T09:19:10.000Z</time>
</trkpt>
<trkpt lat="30.9912898" lon="34.9410994">
<ele>489.600006</ele>
<time>2015-10-30T09:19:13.000Z</time>
</trkpt>
<trkpt lat="30.9912908" lon="34.9409893">
<ele>490.000000</ele>
<time>2015-10-30T09:19:16.000Z</time>
</trkpt>
<trkpt lat="30.9912731" lon="34.9408819">
<ele>490.399994</ele>
<time>2015-10-30T09:19:19.000Z</time>
</trkpt>
<trkpt lat="30.9912336" lon="34.9407837">
<ele>490.799988</ele>
<time>2015-10-30T09:19:22.000Z</time>
</trkpt>
<trkpt lat="30.9911485" lon="34.9406986">
<ele>491.200012</ele>
<time>2015-10-30T09:19:26.000Z</time>
</trkpt>
<trkpt lat="30.9910831" lon="34.9406148">
<ele>491.600006</ele>
<time>2015-10-30T09:19:29.000Z</time>
</trkpt>
<trkpt lat="30.9909743" lon="34.9406412">
<ele>491.600006</ele>
<time>2015-10-30T09:19:33.000Z</time>
</trkpt>
<trkpt lat="30.9908780" lon="34.9406809">
<ele>491.600006</ele>
<time>2015-10-30T09:19:36.000Z</time>
</trkpt>
<trkpt lat="30.9907672" lon="34.9406774">
<ele>492.200012</ele>
<time>2015-10-30T09:19:40.000Z</time>
</trkpt>
<trkpt lat="30.9906855" lon="34.9406220">
<ele>492.600006</ele>
<time>2015-10-30T09:19:44.000Z</time>
</trkpt>
<trkpt lat="30.9906548" lon="34.9405112">
<ele>492.600006</ele>
<time>2015-10-30T09:19:48.000Z</time>
</trkpt>
<trkpt lat="30.9907032" lon="34.9403983">
<ele>492.799988</ele>
<time>2015-10-30T09:19:51.000Z</time>
</trkpt>
<trkpt lat="30.9907408" lon="34.9402801">
<ele>492.600006</ele>
<time>2015-10-30T09:19:54.000Z</time>
</trkpt>
<trkpt lat="30.9907983" lon="34.9401802">
<ele>492.400024</ele>
<time>2015-10-30T09:19:58.000Z</time>
</trkpt>
<trkpt lat="30.9908760" lon="34.9400971">
<ele>492.200012</ele>
<time>2015-10-30T09:20:01.000Z</time>
</trkpt>
<trkpt lat="30.9909457" lon="34.9400168">
<ele>492.000000</ele>
<time>2015-10-30T09:20:04.000Z</time>
</trkpt>
<trkpt lat="30.9910128" lon="34.9399356">
<ele>492.000000</ele>
<time>2015-10-30T09:20:07.000Z</time>
</trkpt>
<trkpt lat="30.9910685" lon="34.9398372">
<ele>492.000000</ele>
<time>2015-10-30T09:20:10.000Z</time>
</trkpt>
<trkpt lat="30.9911138" lon="34.9397386">
<ele>492.000000</ele>
<time>2015-10-30T09:20:13.000Z</time>
</trkpt>
<trkpt lat="30.9911705" lon="34.9396506">
<ele>492.000000</ele>
<time>2015-10-30T09:20:16.000Z</time>
</trkpt>
<trkpt lat="30.9912240" lon="34.9395537">
<ele>492.000000</ele>
<time>2015-10-30T09:20:19.000Z</time>
</trkpt>
<trkpt lat="30.9912754" lon="34.9394328">
<ele>491.799957</ele>
<time>2015-10-30T09:20:22.000Z</time>
</trkpt>
<trkpt lat="30.9913187" lon="34.9392853">
<ele>491.799957</ele>
<time>2015-10-30T09:20:25.000Z</time>
</trkpt>
<trkpt lat="30.9913468" lon="34.9391316">
<ele>492.000000</ele>
<time>2015-10-30T09:20:28.000Z</time>
</trkpt>
<trkpt lat="30.9913697" lon="34.9389915">
<ele>492.000000</ele>
<time>2015-10-30T09:20:31.000Z</time>
</trkpt>
<trkpt lat="30.9913754" lon="34.9388700">
<ele>492.000000</ele>
<time>2015-10-30T09:20:33.000Z</time>
</trkpt>
<trkpt lat="30.9913661" lon="34.9387267">
<ele>492.000000</ele>
<time>2015-10-30T09:20:36.000Z</time>
</trkpt>
<trkpt lat="30.9913554" lon="34.9386019">
<ele>491.799957</ele>
<time>2015-10-30T09:20:38.000Z</time>
</trkpt>
<trkpt lat="30.9913429" lon="34.9384926">
<ele>491.600006</ele>
<time>2015-10-30T09:20:40.000Z</time>
</trkpt>
<trkpt lat="30.9913381" lon="34.9383353">
<ele>491.399994</ele>
<time>2015-10-30T09:20:43.000Z</time>
</trkpt>
<trkpt lat="30.9913442" lon="34.9382199">
<ele>491.200012</ele>
<time>2015-10-30T09:20:46.000Z</time>
</trkpt>
<trkpt lat="30.9913259" lon="34.9381240">
<ele>491.200012</ele>
<time>2015-10-30T09:20:51.000Z</time>
</trkpt>
<trkpt lat="30.9913062" lon="34.9380421">
<ele>490.999969</ele>
<time>2015-10-30T09:21:05.000Z</time>
</trkpt>
<trkpt lat="30.9912714" lon="34.9379433">
<ele>490.799988</ele>
<time>2015-10-30T09:21:18.000Z</time>
</trkpt>
<trkpt lat="30.9912623" lon="34.9378386">
<ele>490.799988</ele>
<time>2015-10-30T09:21:29.000Z</time>
</trkpt>
<trkpt lat="30.9912466" lon="34.9377267">
<ele>490.600006</ele>
<time>2015-10-30T09:21:39.000Z</time>
</trkpt>
<trkpt lat="30.9911819" lon="34.9376519">
<ele>490.600006</ele>
<time>2015-10-30T09:21:49.000Z</time>
</trkpt>
<trkpt lat="30.9911463" lon="34.9375473">
<ele>490.600006</ele>
<time>2015-10-30T09:21:59.000Z</time>
</trkpt>
<trkpt lat="30.9911033" lon="34.9374682">
<ele>490.799988</ele>
<time>2015-10-30T09:22:10.000Z</time>
</trkpt>
<trkpt lat="30.9910393" lon="34.9373931">
<ele>490.600006</ele>
<time>2015-10-30T09:22:22.000Z</time>
</trkpt>
<trkpt lat="30.9909475" lon="34.9373524">
<ele>490.199982</ele>
<time>2015-10-30T09:22:33.000Z</time>
</trkpt>
<trkpt lat="30.9909495" lon="34.9372351">
<ele>490.600006</ele>
<time>2015-10-30T09:22:45.000Z</time>
</trkpt>
<trkpt lat="30.9910183" lon="34.9372170">
<ele>491.200012</ele>
<time>2015-10-30T09:23:09.000Z</time>
</trkpt>
<trkpt lat="30.9910754" lon="34.9372827">
<ele>491.200012</ele>
<time>2015-10-30T09:23:24.000Z</time>
</trkpt>
<trkpt lat="30.9910464" lon="34.9372247">
<ele>491.200012</ele>
<time>2015-10-30T09:23:53.000Z</time>
</trkpt>
<trkpt lat="30.9909689" lon="34.9371748">
<ele>490.999969</ele>
<time>2015-10-30T09:24:06.000Z</time>
</trkpt>
<trkpt lat="30.9910561" lon="34.9371599">
<ele>491.600006</ele>
<time>2015-10-30T09:24:21.000Z</time>
</trkpt>
<trkpt lat="30.9911454" lon="34.9371792">
<ele>492.000000</ele>
<time>2015-10-30T09:24:36.000Z</time>
</trkpt>
<trkpt lat="30.9911739" lon="34.9370999">
<ele>492.400024</ele>
<time>2015-10-30T09:25:00.000Z</time>
</trkpt>
<trkpt lat="30.9911979" lon="34.9369640">
<ele>492.600006</ele>
<time>2015-10-30T09:25:34.000Z</time>
</trkpt>
<trkpt lat="30.9911776" lon="34.9368662">
<ele>492.400024</ele>
<time>2015-10-30T09:25:44.000Z</time>
</trkpt>
<trkpt lat="30.9911462" lon="34.9367648">
<ele>491.799957</ele>
<time>2015-10-30T09:25:54.000Z</time>
</trkpt>
<trkpt lat="30.9910547" lon="34.9367296">
<ele>491.399994</ele>
<time>2015-10-30T09:26:10.000Z</time>
</trkpt>
<trkpt lat="30.9909560" lon="34.9366981">
<ele>490.799988</ele>
<time>2015-10-30T09:26:17.000Z</time>
</trkpt>
<trkpt lat="30.9908633" lon="34.9366751">
<ele>490.199982</ele>
<time>2015-10-30T09:26:22.000Z</time>
</trkpt>
<trkpt lat="30.9907649" lon="34.9366427">
<ele>489.600006</ele>
<time>2015-10-30T09:26:27.000Z</time>
</trkpt>
<trkpt lat="30.9906719" lon="34.9366098">
<ele>489.000000</ele>
<time>2015-10-30T09:26:32.000Z</time>
</trkpt>
<trkpt lat="30.9905835" lon="34.9365466">
<ele>488.399994</ele>
<time>2015-10-30T09:26:37.000Z</time>
</trkpt>
<trkpt lat="30.9905952" lon="34.9364296">
<ele>488.399994</ele>
<time>2015-10-30T09:26:43.000Z</time>
</trkpt>
<trkpt lat="30.9906237" lon="34.9363127">
<ele>488.399994</ele>
<time>2015-10-30T09:26:48.000Z</time>
</trkpt>
<trkpt lat="30.9906826" lon="34.9362225">
<ele>488.200012</ele>
<time>2015-10-30T09:26:52.000Z</time>
</trkpt>
<trkpt lat="30.9907496" lon="34.9361361">
<ele>488.600006</ele>
<time>2015-10-30T09:26:56.000Z</time>
</trkpt>
<trkpt lat="30.9908416" lon="34.9360623">
<ele>489.000000</ele>
<time>2015-10-30T09:27:00.000Z</time>
</trkpt>
<trkpt lat="30.9909354" lon="34.9359892">
<ele>489.399994</ele>
<time>2015-10-30T09:27:04.000Z</time>
</trkpt>
<trkpt lat="30.9910000" lon="34.9359073">
<ele>489.799988</ele>
<time>2015-10-30T09:27:08.000Z</time>
</trkpt>
<trkpt lat="30.9910537" lon="34.9358108">
<ele>489.799988</ele>
<time>2015-10-30T09:27:12.000Z</time>
</trkpt>
<trkpt lat="30.9911010" lon="34.9356948">
<ele>489.399994</ele>
<time>2015-10-30T09:27:16.000Z</time>
</trkpt>
<trkpt lat="30.9911591" lon="34.9356034">
<ele>489.000000</ele>
<time>2015-10-30T09:27:21.000Z</time>
</trkpt>
<trkpt lat="30.9911604" lon="34.9355369">
<ele>489.000000</ele>
<time>2015-10-30T09:28:25.000Z</time>
</trkpt>
<trkpt lat="30.9911811" lon="34.9354196">
<ele>488.600006</ele>
<time>2015-10-30T09:28:38.000Z</time>
</trkpt>
<trkpt lat="30.9912217" lon="34.9353133">
<ele>488.399994</ele>
<time>2015-10-30T09:28:50.000Z</time>
</trkpt>
<trkpt lat="30.9912609" lon="34.9352052">
<ele>488.399994</ele>
<time>2015-10-30T09:29:02.000Z</time>
</trkpt>
<trkpt lat="30.9912869" lon="34.9351079">
<ele>488.399994</ele>
<time>2015-10-30T09:29:16.000Z</time>
</trkpt>
<trkpt lat="30.9913243" lon="34.9350176">
<ele>488.200012</ele>
<time>2015-10-30T09:29:30.000Z</time>
</trkpt>
<trkpt lat="30.9913909" lon="34.9349489">
<ele>488.000031</ele>
<time>2015-10-30T09:29:41.000Z</time>
</trkpt>
<trkpt lat="30.9914406" lon="34.9348757">
<ele>488.000031</ele>
<time>2015-10-30T09:29:51.000Z</time>
</trkpt>
<trkpt lat="30.9914612" lon="34.9347727">
<ele>488.200012</ele>
<time>2015-10-30T09:30:01.000Z</time>
</trkpt>
<trkpt lat="30.9915256" lon="34.9347040">
<ele>488.200012</ele>
<time>2015-10-30T09:30:13.000Z</time>
</trkpt>
<trkpt lat="30.9916168" lon="34.9346771">
<ele>488.000031</ele>
<time>2015-10-30T09:30:25.000Z</time>
</trkpt>
<trkpt lat="30.9917076" lon="34.9346841">
<ele>487.600006</ele>
<time>2015-10-30T09:30:38.000Z</time>
</trkpt>
<trkpt lat="30.9917882" lon="34.9347341">
<ele>487.600006</ele>
<time>2015-10-30T09:30:49.000Z</time>
</trkpt>
<trkpt lat="30.9918704" lon="34.9347821">
<ele>487.600006</ele>
<time>2015-10-30T09:31:00.000Z</time>
</trkpt>
<trkpt lat="30.9919540" lon="34.9348238">
<ele>487.600006</ele>
<time>2015-10-30T09:31:10.000Z</time>
</trkpt>
<trkpt lat="30.9920352" lon="34.9348229">
<ele>487.200043</ele>
<time>2015-10-30T09:31:20.000Z</time>
</trkpt>
<trkpt lat="30.9921244" lon="34.9347785">
<ele>486.600006</ele>
<time>2015-10-30T09:31:25.000Z</time>
</trkpt>
<trkpt lat="30.9921989" lon="34.9346891">
<ele>485.800018</ele>
<time>2015-10-30T09:31:30.000Z</time>
</trkpt>
<trkpt lat="30.9922769" lon="34.9346270">
<ele>485.399994</ele>
<time>2015-10-30T09:31:34.000Z</time>
</trkpt>
<trkpt lat="30.9923678" lon="34.9345965">
<ele>485.399994</ele>
<time>2015-10-30T09:31:38.000Z</time>
</trkpt>
<trkpt lat="30.9924647" lon="34.9345692">
<ele>485.600006</ele>
<time>2015-10-30T09:31:42.000Z</time>
</trkpt>
<trkpt lat="30.9925789" lon="34.9345383">
<ele>485.800018</ele>
<time>2015-10-30T09:31:46.000Z</time>
</trkpt>
<trkpt lat="30.9926839" lon="34.9345527">
<ele>486.000000</ele>
<time>2015-10-30T09:31:50.000Z</time>
</trkpt>
<trkpt lat="30.9927715" lon="34.9344970">
<ele>486.399994</ele>
<time>2015-10-30T09:31:55.000Z</time>
</trkpt>
<trkpt lat="30.9928423" lon="34.9344249">
<ele>486.799988</ele>
<time>2015-10-30T09:31:59.000Z</time>
</trkpt>
<trkpt lat="30.9929216" lon="34.9343434">
<ele>486.799988</ele>
<time>2015-10-30T09:32:04.000Z</time>
</trkpt>
<trkpt lat="30.9930085" lon="34.9342918">
<ele>486.600006</ele>
<time>2015-10-30T09:32:08.000Z</time>
</trkpt>
<trkpt lat="30.9930899" lon="34.9342473">
<ele>486.200012</ele>
<time>2015-10-30T09:32:12.000Z</time>
</trkpt>
<trkpt lat="30.9931784" lon="34.9341964">
<ele>486.200012</ele>
<time>2015-10-30T09:32:17.000Z</time>
</trkpt>
<trkpt lat="30.9932713" lon="34.9341411">
<ele>486.200012</ele>
<time>2015-10-30T09:32:23.000Z</time>
</trkpt>
<trkpt lat="30.9933604" lon="34.9340844">
<ele>486.200012</ele>
<time>2015-10-30T09:32:28.000Z</time>
</trkpt>
<trkpt lat="30.9934442" lon="34.9340271">
<ele>486.200012</ele>
<time>2015-10-30T09:32:33.000Z</time>
</trkpt>
<trkpt lat="30.9935262" lon="34.9339535">
<ele>486.399994</ele>
<time>2015-10-30T09:32:38.000Z</time>
</trkpt>
<trkpt lat="30.9936009" lon="34.9338783">
<ele>486.399994</ele>
<time>2015-10-30T09:32:43.000Z</time>
</trkpt>
<trkpt lat="30.9937024" lon="34.9338389">
<ele>486.600006</ele>
<time>2015-10-30T09:32:48.000Z</time>
</trkpt>
<trkpt lat="30.9937880" lon="34.9337919">
<ele>486.799988</ele>
<time>2015-10-30T09:32:51.000Z</time>
</trkpt>
<trkpt lat="30.9938781" lon="34.9337395">
<ele>487.000000</ele>
<time>2015-10-30T09:32:54.000Z</time>
</trkpt>
<trkpt lat="30.9939574" lon="34.9336668">
<ele>486.600006</ele>
<time>2015-10-30T09:32:58.000Z</time>
</trkpt>
<trkpt lat="30.9939937" lon="34.9335523">
<ele>486.000000</ele>
<time>2015-10-30T09:33:03.000Z</time>
</trkpt>
<trkpt lat="30.9940305" lon="34.9334582">
<ele>485.600006</ele>
<time>2015-10-30T09:33:07.000Z</time>
</trkpt>
<trkpt lat="30.9940699" lon="34.9333409">
<ele>485.000000</ele>
<time>2015-10-30T09:33:12.000Z</time>
</trkpt>
<trkpt lat="30.9941136" lon="34.9332428">
<ele>484.399963</ele>
<time>2015-10-30T09:33:16.000Z</time>
</trkpt>
<trkpt lat="30.9941620" lon="34.9331354">
<ele>484.000000</ele>
<time>2015-10-30T09:33:20.000Z</time>
</trkpt>
<trkpt lat="30.9942111" lon="34.9330428">
<ele>484.200012</ele>
<time>2015-10-30T09:33:23.000Z</time>
</trkpt>
<trkpt lat="30.9942646" lon="34.9329600">
<ele>484.200012</ele>
<time>2015-10-30T09:33:26.000Z</time>
</trkpt>
<trkpt lat="30.9943398" lon="34.9328767">
<ele>484.399963</ele>
<time>2015-10-30T09:33:31.000Z</time>
</trkpt>
<trkpt lat="30.9944257" lon="34.9328319">
<ele>484.799988</ele>
<time>2015-10-30T09:33:37.000Z</time>
</trkpt>
<trkpt lat="30.9944394" lon="34.9327115">
<ele>484.600006</ele>
<time>2015-10-30T09:33:42.000Z</time>
</trkpt>
<trkpt lat="30.9944632" lon="34.9325967">
<ele>484.600006</ele>
<time>2015-10-30T09:33:46.000Z</time>
</trkpt>
<trkpt lat="30.9944454" lon="34.9324917">
<ele>484.000000</ele>
<time>2015-10-30T09:33:50.000Z</time>
</trkpt>
<trkpt lat="30.9944200" lon="34.9323694">
<ele>483.399994</ele>
<time>2015-10-30T09:33:56.000Z</time>
</trkpt>
<trkpt lat="30.9944467" lon="34.9322678">
<ele>483.200012</ele>
<time>2015-10-30T09:34:00.000Z</time>
</trkpt>
<trkpt lat="30.9944902" lon="34.9321590">
<ele>483.000000</ele>
<time>2015-10-30T09:34:05.000Z</time>
</trkpt>
<trkpt lat="30.9945392" lon="34.9320529">
<ele>483.000000</ele>
<time>2015-10-30T09:34:10.000Z</time>
</trkpt>
<trkpt lat="30.9945970" lon="34.9319488">
<ele>483.799988</ele>
<time>2015-10-30T09:34:15.000Z</time>
</trkpt>
<trkpt lat="30.9946433" lon="34.9318446">
<ele>483.799988</ele>
<time>2015-10-30T09:34:19.000Z</time>
</trkpt>
<trkpt lat="30.9946870" lon="34.9317361">
<ele>483.599976</ele>
<time>2015-10-30T09:34:23.000Z</time>
</trkpt>
<trkpt lat="30.9947270" lon="34.9316240">
<ele>483.399994</ele>
<time>2015-10-30T09:34:27.000Z</time>
</trkpt>
<trkpt lat="30.9947570" lon="34.9315039">
<ele>483.399994</ele>
<time>2015-10-30T09:34:31.000Z</time>
</trkpt>
<trkpt lat="30.9947764" lon="34.9313793">
<ele>483.399994</ele>
<time>2015-10-30T09:34:35.000Z</time>
</trkpt>
<trkpt lat="30.9947942" lon="34.9312402">
<ele>483.399994</ele>
<time>2015-10-30T09:34:39.000Z</time>
</trkpt>
<trkpt lat="30.9948077" lon="34.9311186">
<ele>483.200012</ele>
<time>2015-10-30T09:34:42.000Z</time>
</trkpt>
<trkpt lat="30.9948129" lon="34.9310061">
<ele>483.000000</ele>
<time>2015-10-30T09:34:45.000Z</time>
</trkpt>
<trkpt lat="30.9948211" lon="34.9309028">
<ele>482.799988</ele>
<time>2015-10-30T09:34:48.000Z</time>
</trkpt>
<trkpt lat="30.9948252" lon="34.9307746">
<ele>482.600006</ele>
<time>2015-10-30T09:34:52.000Z</time>
</trkpt>
<trkpt lat="30.9948345" lon="34.9306708">
<ele>482.399994</ele>
<time>2015-10-30T09:34:55.000Z</time>
</trkpt>
<trkpt lat="30.9948451" lon="34.9305412">
<ele>482.200012</ele>
<time>2015-10-30T09:34:59.000Z</time>
</trkpt>
<trkpt lat="30.9948436" lon="34.9304198">
<ele>482.000000</ele>
<time>2015-10-30T09:35:03.000Z</time>
</trkpt>
<trkpt lat="30.9948462" lon="34.9303057">
<ele>481.600006</ele>
<time>2015-10-30T09:35:07.000Z</time>
</trkpt>
<trkpt lat="30.9948445" lon="34.9301923">
<ele>481.200012</ele>
<time>2015-10-30T09:35:11.000Z</time>
</trkpt>
<trkpt lat="30.9948414" lon="34.9300789">
<ele>480.799988</ele>
<time>2015-10-30T09:35:15.000Z</time>
</trkpt>
<trkpt lat="30.9948516" lon="34.9299568">
<ele>480.399994</ele>
<time>2015-10-30T09:35:19.000Z</time>
</trkpt>
<trkpt lat="30.9948578" lon="34.9298289">
<ele>480.000000</ele>
<time>2015-10-30T09:35:23.000Z</time>
</trkpt>
<trkpt lat="30.9948634" lon="34.9297118">
<ele>479.600006</ele>
<time>2015-10-30T09:35:27.000Z</time>
</trkpt>
<trkpt lat="30.9948713" lon="34.9295772">
<ele>479.000000</ele>
<time>2015-10-30T09:35:31.000Z</time>
</trkpt>
<trkpt lat="30.9948856" lon="34.9294681">
<ele>478.799988</ele>
<time>2015-10-30T09:35:34.000Z</time>
</trkpt>
<trkpt lat="30.9949088" lon="34.9293586">
<ele>478.600006</ele>
<time>2015-10-30T09:35:37.000Z</time>
</trkpt>
<trkpt lat="30.9949546" lon="34.9292357">
<ele>478.600006</ele>
<time>2015-10-30T09:35:41.000Z</time>
</trkpt>
<trkpt lat="30.9950006" lon="34.9291422">
<ele>478.600006</ele>
<time>2015-10-30T09:35:45.000Z</time>
</trkpt>
<trkpt lat="30.9950575" lon="34.9290552">
<ele>478.799988</ele>
<time>2015-10-30T09:35:49.000Z</time>
</trkpt>
<trkpt lat="30.9950963" lon="34.9289501">
<ele>479.199982</ele>
<time>2015-10-30T09:35:53.000Z</time>
</trkpt>
<trkpt lat="30.9951026" lon="34.9288125">
<ele>479.199982</ele>
<time>2015-10-30T09:35:57.000Z</time>
</trkpt>
<trkpt lat="30.9951166" lon="34.9287066">
<ele>479.399994</ele>
<time>2015-10-30T09:36:00.000Z</time>
</trkpt>
<trkpt lat="30.9951383" lon="34.9286020">
<ele>479.399994</ele>
<time>2015-10-30T09:36:03.000Z</time>
</trkpt>
<trkpt lat="30.9951582" lon="34.9284797">
<ele>479.199982</ele>
<time>2015-10-30T09:36:06.000Z</time>
</trkpt>
<trkpt lat="30.9951779" lon="34.9283320">
<ele>479.199982</ele>
<time>2015-10-30T09:36:09.000Z</time>
</trkpt>
<trkpt lat="30.9951978" lon="34.9281841">
<ele>478.600006</ele>
<time>2015-10-30T09:36:12.000Z</time>
</trkpt>
<trkpt lat="30.9952294" lon="34.9280414">
<ele>478.200012</ele>
<time>2015-10-30T09:36:15.000Z</time>
</trkpt>
<trkpt lat="30.9952691" lon="34.9279230">
<ele>478.000000</ele>
<time>2015-10-30T09:36:18.000Z</time>
</trkpt>
<trkpt lat="30.9953079" lon="34.9278207">
<ele>478.200012</ele>
<time>2015-10-30T09:36:21.000Z</time>
</trkpt>
<trkpt lat="30.9953299" lon="34.9277158">
<ele>478.399994</ele>
<time>2015-10-30T09:36:24.000Z</time>
</trkpt>
<trkpt lat="30.9952771" lon="34.9276053">
<ele>477.799957</ele>
<time>2015-10-30T09:36:27.000Z</time>
</trkpt>
<trkpt lat="30.9952097" lon="34.9275205">
<ele>476.999969</ele>
<time>2015-10-30T09:36:30.000Z</time>
</trkpt>
<trkpt lat="30.9951380" lon="34.9274306">
<ele>476.000000</ele>
<time>2015-10-30T09:36:34.000Z</time>
</trkpt>
<trkpt lat="30.9950634" lon="34.9273494">
<ele>475.200012</ele>
<time>2015-10-30T09:36:39.000Z</time>
</trkpt>
<trkpt lat="30.9951004" lon="34.9273698">
<ele>475.399994</ele>
<time>2015-10-30T09:36:58.000Z</time>
</trkpt>
<trkpt lat="30.9951890" lon="34.9273166">
<ele>475.600006</ele>
<time>2015-10-30T09:37:10.000Z</time>
</trkpt>
<trkpt lat="30.9952410" lon="34.9272292">
<ele>475.399994</ele>
<time>2015-10-30T09:37:20.000Z</time>
</trkpt>
<trkpt lat="30.9952958" lon="34.9271376">
<ele>475.000000</ele>
<time>2015-10-30T09:37:24.000Z</time>
</trkpt>
<trkpt lat="30.9953980" lon="34.9271122">
<ele>475.399994</ele>
<time>2015-10-30T09:37:29.000Z</time>
</trkpt>
<trkpt lat="30.9955056" lon="34.9270839">
<ele>475.799988</ele>
<time>2015-10-30T09:37:34.000Z</time>
</trkpt>
<trkpt lat="30.9955958" lon="34.9270612">
<ele>476.000000</ele>
<time>2015-10-30T09:37:38.000Z</time>
</trkpt>
<trkpt lat="30.9956899" lon="34.9270241">
<ele>476.399994</ele>
<time>2015-10-30T09:37:42.000Z</time>
</trkpt>
<trkpt lat="30.9957703" lon="34.9269575">
<ele>476.600006</ele>
<time>2015-10-30T09:37:46.000Z</time>
</trkpt>
<trkpt lat="30.9958581" lon="34.9269236">
<ele>476.999969</ele>
<time>2015-10-30T09:37:51.000Z</time>
</trkpt>
<trkpt lat="30.9959485" lon="34.9268819">
<ele>477.399994</ele>
<time>2015-10-30T09:37:57.000Z</time>
</trkpt>
<trkpt lat="30.9960504" lon="34.9268505">
<ele>477.799957</ele>
<time>2015-10-30T09:38:03.000Z</time>
</trkpt>
<trkpt lat="30.9961402" lon="34.9267953">
<ele>478.000000</ele>
<time>2015-10-30T09:38:09.000Z</time>
</trkpt>
<trkpt lat="30.9962344" lon="34.9267311">
<ele>478.600006</ele>
<time>2015-10-30T09:38:16.000Z</time>
</trkpt>
<trkpt lat="30.9962980" lon="34.9266532">
<ele>478.799988</ele>
<time>2015-10-30T09:38:21.000Z</time>
</trkpt>
<trkpt lat="30.9963865" lon="34.9265819">
<ele>479.199982</ele>
<time>2015-10-30T09:38:26.000Z</time>
</trkpt>
<trkpt lat="30.9964326" lon="34.9264771">
<ele>479.199982</ele>
<time>2015-10-30T09:38:31.000Z</time>
</trkpt>
<trkpt lat="30.9964979" lon="34.9263978">
<ele>478.799988</ele>
<time>2015-10-30T09:38:36.000Z</time>
</trkpt>
<trkpt lat="30.9965106" lon="34.9262925">
<ele>478.600006</ele>
<time>2015-10-30T09:38:41.000Z</time>
</trkpt>
<trkpt lat="30.9965757" lon="34.9262593">
<ele>478.200012</ele>
<time>2015-10-30T09:39:00.000Z</time>
</trkpt>
<trkpt lat="30.9965530" lon="34.9261551">
<ele>477.600006</ele>
<time>2015-10-30T09:39:58.000Z</time>
</trkpt>
<trkpt lat="30.9965262" lon="34.9260343">
<ele>476.799988</ele>
<time>2015-10-30T09:40:04.000Z</time>
</trkpt>
<trkpt lat="30.9965010" lon="34.9259306">
<ele>476.000000</ele>
<time>2015-10-30T09:40:08.000Z</time>
</trkpt>
<trkpt lat="30.9964666" lon="34.9257975">
<ele>475.000000</ele>
<time>2015-10-30T09:40:12.000Z</time>
</trkpt>
<trkpt lat="30.9964318" lon="34.9256799">
<ele>474.200012</ele>
<time>2015-10-30T09:40:15.000Z</time>
</trkpt>
<trkpt lat="30.9963882" lon="34.9255398">
<ele>473.200043</ele>
<time>2015-10-30T09:40:18.000Z</time>
</trkpt>
<trkpt lat="30.9963383" lon="34.9253944">
<ele>472.200012</ele>
<time>2015-10-30T09:40:21.000Z</time>
</trkpt>
<trkpt lat="30.9962990" lon="34.9252880">
<ele>472.200012</ele>
<time>2015-10-30T09:40:23.000Z</time>
</trkpt>
<trkpt lat="30.9962521" lon="34.9251747">
<ele>472.200012</ele>
<time>2015-10-30T09:40:25.000Z</time>
</trkpt>
<trkpt lat="30.9962032" lon="34.9250567">
<ele>472.000000</ele>
<time>2015-10-30T09:40:27.000Z</time>
</trkpt>
<trkpt lat="30.9961519" lon="34.9249307">
<ele>471.799988</ele>
<time>2015-10-30T09:40:29.000Z</time>
</trkpt>
<trkpt lat="30.9960980" lon="34.9247960">
<ele>471.799988</ele>
<time>2015-10-30T09:40:31.000Z</time>
</trkpt>
<trkpt lat="30.9960403" lon="34.9246556">
<ele>471.600006</ele>
<time>2015-10-30T09:40:33.000Z</time>
</trkpt>
<trkpt lat="30.9959814" lon="34.9245138">
<ele>471.200012</ele>
<time>2015-10-30T09:40:35.000Z</time>
</trkpt>
<trkpt lat="30.9959235" lon="34.9243696">
<ele>470.799988</ele>
<time>2015-10-30T09:40:37.000Z</time>
</trkpt>
<trkpt lat="30.9958695" lon="34.9242212">
<ele>470.200012</ele>
<time>2015-10-30T09:40:39.000Z</time>
</trkpt>
<trkpt lat="30.9958143" lon="34.9240548">
<ele>469.600037</ele>
<time>2015-10-30T09:40:41.000Z</time>
</trkpt>
<trkpt lat="30.9957755" lon="34.9239186">
<ele>469.000000</ele>
<time>2015-10-30T09:40:43.000Z</time>
</trkpt>
<trkpt lat="30.9957334" lon="34.9237708">
<ele>469.200012</ele>
<time>2015-10-30T09:40:45.000Z</time>
</trkpt>
<trkpt lat="30.9956963" lon="34.9236258">
<ele>468.600006</ele>
<time>2015-10-30T09:40:47.000Z</time>
</trkpt>
<trkpt lat="30.9956703" lon="34.9234832">
<ele>467.799988</ele>
<time>2015-10-30T09:40:49.000Z</time>
</trkpt>
<trkpt lat="30.9956431" lon="34.9233476">
<ele>467.200012</ele>
<time>2015-10-30T09:40:51.000Z</time>
</trkpt>
<trkpt lat="30.9956205" lon="34.9232159">
<ele>466.600037</ele>
<time>2015-10-30T09:40:53.000Z</time>
</trkpt>
<trkpt lat="30.9955959" lon="34.9231050">
<ele>465.999969</ele>
<time>2015-10-30T09:40:56.000Z</time>
</trkpt>
<trkpt lat="30.9955693" lon="34.9230545">
<ele>465.799988</ele>
<time>2015-10-30T09:41:03.000Z</time>
</trkpt>
<trkpt lat="30.9955645" lon="34.9231977">
<ele>466.399994</ele>
<time>2015-10-30T09:41:09.000Z</time>
</trkpt>
<trkpt lat="30.9955894" lon="34.9233214">
<ele>467.000000</ele>
<time>2015-10-30T09:41:13.000Z</time>
</trkpt>
<trkpt lat="30.9956218" lon="34.9234372">
<ele>467.600006</ele>
<time>2015-10-30T09:41:17.000Z</time>
</trkpt>
<trkpt lat="30.9956769" lon="34.9235421">
<ele>468.200012</ele>
<time>2015-10-30T09:41:21.000Z</time>
</trkpt>
<trkpt lat="30.9957741" lon="34.9235382">
<ele>468.200012</ele>
<time>2015-10-30T09:41:39.000Z</time>
</trkpt>
<trkpt lat="30.9958484" lon="34.9234843">
<ele>468.200012</ele>
<time>2015-10-30T09:41:50.000Z</time>
</trkpt>
<trkpt lat="30.9958143" lon="34.9233831">
<ele>467.600006</ele>
<time>2015-10-30T09:42:03.000Z</time>
</trkpt>
<trkpt lat="30.9957953" lon="34.9232739">
<ele>467.000000</ele>
<time>2015-10-30T09:42:07.000Z</time>
</trkpt>
<trkpt lat="30.9957422" lon="34.9231561">
<ele>466.399994</ele>
<time>2015-10-30T09:42:11.000Z</time>
</trkpt>
<trkpt lat="30.9957127" lon="34.9230396">
<ele>465.799988</ele>
<time>2015-10-30T09:42:15.000Z</time>
</trkpt>
<trkpt lat="30.9957141" lon="34.9229053">
<ele>465.000000</ele>
<time>2015-10-30T09:42:19.000Z</time>
</trkpt>
<trkpt lat="30.9957303" lon="34.9227935">
<ele>465.399994</ele>
<time>2015-10-30T09:42:22.000Z</time>
</trkpt>
<trkpt lat="30.9957585" lon="34.9226889">
<ele>465.799988</ele>
<time>2015-10-30T09:42:25.000Z</time>
</trkpt>
<trkpt lat="30.9957910" lon="34.9225608">
<ele>466.200012</ele>
<time>2015-10-30T09:42:29.000Z</time>
</trkpt>
<trkpt lat="30.9957606" lon="34.9224472">
<ele>466.600037</ele>
<time>2015-10-30T09:42:35.000Z</time>
</trkpt>
<trkpt lat="30.9957897" lon="34.9224482">
<ele>466.600037</ele>
<time>2015-10-30T09:43:34.000Z</time>
</trkpt>
<trkpt lat="30.9957760" lon="34.9223463">
<ele>467.000000</ele>
<time>2015-10-30T09:43:51.000Z</time>
</trkpt>
<trkpt lat="30.9958619" lon="34.9222860">
<ele>467.000000</ele>
<time>2015-10-30T09:44:02.000Z</time>
</trkpt>
<trkpt lat="30.9959473" lon="34.9222386">
<ele>467.000000</ele>
<time>2015-10-30T09:44:14.000Z</time>
</trkpt>
<trkpt lat="30.9959635" lon="34.9221495">
<ele>467.000000</ele>
<time>2015-10-30T09:44:37.000Z</time>
</trkpt>
<trkpt lat="30.9959478" lon="34.9220473">
<ele>467.200012</ele>
<time>2015-10-30T09:44:47.000Z</time>
</trkpt>
<trkpt lat="30.9959571" lon="34.9219395">
<ele>467.200012</ele>
<time>2015-10-30T09:44:58.000Z</time>
</trkpt>
<trkpt lat="30.9959179" lon="34.9218365">
<ele>467.200012</ele>
<time>2015-10-30T09:45:07.000Z</time>
</trkpt>
<trkpt lat="30.9958422" lon="34.9217693">
<ele>467.400024</ele>
<time>2015-10-30T09:45:18.000Z</time>
</trkpt>
<trkpt lat="30.9957459" lon="34.9217736">
<ele>467.600006</ele>
<time>2015-10-30T09:45:28.000Z</time>
</trkpt>
<trkpt lat="30.9956656" lon="34.9217341">
<ele>467.799988</ele>
<time>2015-10-30T09:45:38.000Z</time>
</trkpt>
<trkpt lat="30.9956228" lon="34.9216319">
<ele>468.000000</ele>
<time>2015-10-30T09:45:51.000Z</time>
</trkpt>
<trkpt lat="30.9956249" lon="34.9215229">
<ele>467.799988</ele>
<time>2015-10-30T09:45:57.000Z</time>
</trkpt>
<trkpt lat="30.9956277" lon="34.9214006">
<ele>467.799988</ele>
<time>2015-10-30T09:46:02.000Z</time>
</trkpt>
<trkpt lat="30.9956134" lon="34.9212820">
<ele>468.000000</ele>
<time>2015-10-30T09:46:07.000Z</time>
</trkpt>
<trkpt lat="30.9955501" lon="34.9211898">
<ele>468.200012</ele>
<time>2015-10-30T09:46:12.000Z</time>
</trkpt>
<trkpt lat="30.9955096" lon="34.9210941">
<ele>468.399994</ele>
<time>2015-10-30T09:46:17.000Z</time>
</trkpt>
<trkpt lat="30.9955044" lon="34.9209784">
<ele>468.200012</ele>
<time>2015-10-30T09:46:22.000Z</time>
</trkpt>
<trkpt lat="30.9955110" lon="34.9208595">
<ele>467.799988</ele>
<time>2015-10-30T09:46:27.000Z</time>
</trkpt>
<trkpt lat="30.9955225" lon="34.9207365">
<ele>467.400024</ele>
<time>2015-10-30T09:46:32.000Z</time>
</trkpt>
<trkpt lat="30.9955228" lon="34.9206292">
<ele>467.200012</ele>
<time>2015-10-30T09:46:36.000Z</time>
</trkpt>
<trkpt lat="30.9955012" lon="34.9205181">
<ele>467.000000</ele>
<time>2015-10-30T09:46:40.000Z</time>
</trkpt>
<trkpt lat="30.9954700" lon="34.9204062">
<ele>467.000000</ele>
<time>2015-10-30T09:46:45.000Z</time>
</trkpt>
<trkpt lat="30.9954097" lon="34.9203153">
<ele>467.200012</ele>
<time>2015-10-30T09:46:49.000Z</time>
</trkpt>
<trkpt lat="30.9954118" lon="34.9201764">
<ele>466.600037</ele>
<time>2015-10-30T09:46:54.000Z</time>
</trkpt>
<trkpt lat="30.9953532" lon="34.9200989">
<ele>466.799957</ele>
<time>2015-10-30T09:46:58.000Z</time>
</trkpt>
<trkpt lat="30.9953017" lon="34.9199963">
<ele>467.000000</ele>
<time>2015-10-30T09:47:03.000Z</time>
</trkpt>
<trkpt lat="30.9952770" lon="34.9198901">
<ele>467.000000</ele>
<time>2015-10-30T09:47:07.000Z</time>
</trkpt>
<trkpt lat="30.9952227" lon="34.9197991">
<ele>467.200012</ele>
<time>2015-10-30T09:47:11.000Z</time>
</trkpt>
<trkpt lat="30.9951638" lon="34.9196927">
<ele>467.600006</ele>
<time>2015-10-30T09:47:16.000Z</time>
</trkpt>
<trkpt lat="30.9951058" lon="34.9196083">
<ele>467.799988</ele>
<time>2015-10-30T09:47:20.000Z</time>
</trkpt>
<trkpt lat="30.9950511" lon="34.9195057">
<ele>467.799988</ele>
<time>2015-10-30T09:47:24.000Z</time>
</trkpt>
<trkpt lat="30.9950058" lon="34.9193925">
<ele>467.600006</ele>
<time>2015-10-30T09:47:28.000Z</time>
</trkpt>
<trkpt lat="30.9949577" lon="34.9192881">
<ele>467.600006</ele>
<time>2015-10-30T09:47:32.000Z</time>
</trkpt>
<trkpt lat="30.9949027" lon="34.9191830">
<ele>467.600006</ele>
<time>2015-10-30T09:47:36.000Z</time>
</trkpt>
<trkpt lat="30.9948420" lon="34.9190736">
<ele>467.400024</ele>
<time>2015-10-30T09:47:40.000Z</time>
</trkpt>
<trkpt lat="30.9947937" lon="34.9189507">
<ele>467.400024</ele>
<time>2015-10-30T09:47:44.000Z</time>
</trkpt>
<trkpt lat="30.9947591" lon="34.9188233">
<ele>467.200012</ele>
<time>2015-10-30T09:47:48.000Z</time>
</trkpt>
<trkpt lat="30.9947136" lon="34.9187072">
<ele>467.000000</ele>
<time>2015-10-30T09:47:52.000Z</time>
</trkpt>
<trkpt lat="30.9946480" lon="34.9186073">
<ele>467.000000</ele>
<time>2015-10-30T09:47:56.000Z</time>
</trkpt>
<trkpt lat="30.9945753" lon="34.9185049">
<ele>467.000000</ele>
<time>2015-10-30T09:48:00.000Z</time>
</trkpt>
<trkpt lat="30.9945437" lon="34.9184082">
<ele>466.799957</ele>
<time>2015-10-30T09:48:03.000Z</time>
</trkpt>
<trkpt lat="30.9944782" lon="34.9183117">
<ele>466.799957</ele>
<time>2015-10-30T09:48:07.000Z</time>
</trkpt>
<trkpt lat="30.9944025" lon="34.9182274">
<ele>466.799957</ele>
<time>2015-10-30T09:48:11.000Z</time>
</trkpt>
<trkpt lat="30.9943301" lon="34.9181219">
<ele>466.799957</ele>
<time>2015-10-30T09:48:15.000Z</time>
</trkpt>
<trkpt lat="30.9942822" lon="34.9180263">
<ele>466.799957</ele>
<time>2015-10-30T09:48:18.000Z</time>
</trkpt>
<trkpt lat="30.9942316" lon="34.9179346">
<ele>466.600037</ele>
<time>2015-10-30T09:48:21.000Z</time>
</trkpt>
<trkpt lat="30.9941782" lon="34.9178165">
<ele>466.600037</ele>
<time>2015-10-30T09:48:25.000Z</time>
</trkpt>
<trkpt lat="30.9941293" lon="34.9177137">
<ele>466.600037</ele>
<time>2015-10-30T09:48:28.000Z</time>
</trkpt>
<trkpt lat="30.9940828" lon="34.9176115">
<ele>466.399994</ele>
<time>2015-10-30T09:48:31.000Z</time>
</trkpt>
<trkpt lat="30.9940248" lon="34.9175088">
<ele>466.399994</ele>
<time>2015-10-30T09:48:35.000Z</time>
</trkpt>
<trkpt lat="30.9939612" lon="34.9174066">
<ele>466.399994</ele>
<time>2015-10-30T09:48:39.000Z</time>
</trkpt>
<trkpt lat="30.9939085" lon="34.9173085">
<ele>466.399994</ele>
<time>2015-10-30T09:48:43.000Z</time>
</trkpt>
<trkpt lat="30.9938361" lon="34.9172154">
<ele>466.399994</ele>
<time>2015-10-30T09:48:48.000Z</time>
</trkpt>
<trkpt lat="30.9937874" lon="34.9171182">
<ele>466.600037</ele>
<time>2015-10-30T09:48:52.000Z</time>
</trkpt>
<trkpt lat="30.9937400" lon="34.9170098">
<ele>466.399994</ele>
<time>2015-10-30T09:48:56.000Z</time>
</trkpt>
<trkpt lat="30.9937050" lon="34.9168966">
<ele>466.399994</ele>
<time>2015-10-30T09:49:00.000Z</time>
</trkpt>
<trkpt lat="30.9936941" lon="34.9167708">
<ele>465.999969</ele>
<time>2015-10-30T09:49:04.000Z</time>
</trkpt>
<trkpt lat="30.9936774" lon="34.9166522">
<ele>465.600006</ele>
<time>2015-10-30T09:49:11.000Z</time>
</trkpt>
<trkpt lat="30.9936173" lon="34.9165791">
<ele>465.600006</ele>
<time>2015-10-30T09:49:15.000Z</time>
</trkpt>
<trkpt lat="30.9935215" lon="34.9165386">
<ele>465.999969</ele>
<time>2015-10-30T09:49:19.000Z</time>
</trkpt>
<trkpt lat="30.9934514" lon="34.9164708">
<ele>465.999969</ele>
<time>2015-10-30T09:49:23.000Z</time>
</trkpt>
<trkpt lat="30.9933956" lon="34.9163615">
<ele>465.999969</ele>
<time>2015-10-30T09:49:28.000Z</time>
</trkpt>
<trkpt lat="30.9933413" lon="34.9162517">
<ele>465.799988</ele>
<time>2015-10-30T09:49:32.000Z</time>
</trkpt>
<trkpt lat="30.9932827" lon="34.9161502">
<ele>465.799988</ele>
<time>2015-10-30T09:49:36.000Z</time>
</trkpt>
<trkpt lat="30.9932313" lon="34.9160375">
<ele>465.600006</ele>
<time>2015-10-30T09:49:40.000Z</time>
</trkpt>
<trkpt lat="30.9931856" lon="34.9159492">
<ele>465.399994</ele>
<time>2015-10-30T09:49:43.000Z</time>
</trkpt>
<trkpt lat="30.9931378" lon="34.9158542">
<ele>465.399994</ele>
<time>2015-10-30T09:49:46.000Z</time>
</trkpt>
<trkpt lat="30.9930895" lon="34.9157485">
<ele>465.199982</ele>
<time>2015-10-30T09:49:49.000Z</time>
</trkpt>
<trkpt lat="30.9930382" lon="34.9156455">
<ele>465.000000</ele>
<time>2015-10-30T09:49:52.000Z</time>
</trkpt>
<trkpt lat="30.9929823" lon="34.9155309">
<ele>464.600006</ele>
<time>2015-10-30T09:49:55.000Z</time>
</trkpt>
<trkpt lat="30.9929233" lon="34.9154067">
<ele>464.200012</ele>
<time>2015-10-30T09:49:58.000Z</time>
</trkpt>
<trkpt lat="30.9928605" lon="34.9152776">
<ele>463.799957</ele>
<time>2015-10-30T09:50:01.000Z</time>
</trkpt>
<trkpt lat="30.9927985" lon="34.9151446">
<ele>463.399994</ele>
<time>2015-10-30T09:50:04.000Z</time>
</trkpt>
<trkpt lat="30.9927556" lon="34.9150499">
<ele>463.200012</ele>
<time>2015-10-30T09:50:06.000Z</time>
</trkpt>
<trkpt lat="30.9927111" lon="34.9149527">
<ele>463.000031</ele>
<time>2015-10-30T09:50:08.000Z</time>
</trkpt>
<trkpt lat="30.9926472" lon="34.9148192">
<ele>462.600006</ele>
<time>2015-10-30T09:50:11.000Z</time>
</trkpt>
<trkpt lat="30.9926270" lon="34.9147081">
<ele>462.399994</ele>
<time>2015-10-30T09:50:14.000Z</time>
</trkpt>
<trkpt lat="30.9926843" lon="34.9145924">
<ele>462.000000</ele>
<time>2015-10-30T09:50:17.000Z</time>
</trkpt>
<trkpt lat="30.9927470" lon="34.9144937">
<ele>461.799988</ele>
<time>2015-10-30T09:50:20.000Z</time>
</trkpt>
<trkpt lat="30.9928126" lon="34.9144137">
<ele>461.600006</ele>
<time>2015-10-30T09:50:24.000Z</time>
</trkpt>
<trkpt lat="30.9928850" lon="34.9143375">
<ele>461.600006</ele>
<time>2015-10-30T09:50:28.000Z</time>
</trkpt>
<trkpt lat="30.9929649" lon="34.9142796">
<ele>461.799988</ele>
<time>2015-10-30T09:50:32.000Z</time>
</trkpt>
<trkpt lat="30.9930532" lon="34.9142028">
<ele>462.000000</ele>
<time>2015-10-30T09:50:36.000Z</time>
</trkpt>
<trkpt lat="30.9931198" lon="34.9141164">
<ele>462.000000</ele>
<time>2015-10-30T09:50:39.000Z</time>
</trkpt>
<trkpt lat="30.9931520" lon="34.9139906">
<ele>462.200043</ele>
<time>2015-10-30T09:50:43.000Z</time>
</trkpt>
<trkpt lat="30.9931846" lon="34.9138852">
<ele>462.200043</ele>
<time>2015-10-30T09:50:47.000Z</time>
</trkpt>
<trkpt lat="30.9932320" lon="34.9137978">
<ele>462.600006</ele>
<time>2015-10-30T09:50:52.000Z</time>
</trkpt>
<trkpt lat="30.9932828" lon="34.9137475">
<ele>463.000031</ele>
<time>2015-10-30T09:51:07.000Z</time>
</trkpt>
<trkpt lat="30.9933573" lon="34.9137205">
<ele>463.399994</ele>
<time>2015-10-30T09:51:32.000Z</time>
</trkpt>
<trkpt lat="30.9934417" lon="34.9136870">
<ele>463.799957</ele>
<time>2015-10-30T09:52:47.000Z</time>
</trkpt>
<trkpt lat="30.9935427" lon="34.9136765">
<ele>464.399994</ele>
<time>2015-10-30T09:52:59.000Z</time>
</trkpt>
<trkpt lat="30.9936418" lon="34.9136574">
<ele>464.799988</ele>
<time>2015-10-30T09:53:10.000Z</time>
</trkpt>
<trkpt lat="30.9937482" lon="34.9136168">
<ele>465.399994</ele>
<time>2015-10-30T09:53:33.000Z</time>
</trkpt>
<trkpt lat="30.9938034" lon="34.9135434">
<ele>466.200012</ele>
<time>2015-10-30T09:53:43.000Z</time>
</trkpt>
<trkpt lat="30.9938924" lon="34.9135054">
<ele>467.000000</ele>
<time>2015-10-30T09:53:49.000Z</time>
</trkpt>
<trkpt lat="30.9939681" lon="34.9134367">
<ele>467.600006</ele>
<time>2015-10-30T09:53:56.000Z</time>
</trkpt>
<trkpt lat="30.9940295" lon="34.9133616">
<ele>468.200012</ele>
<time>2015-10-30T09:54:03.000Z</time>
</trkpt>
<trkpt lat="30.9940985" lon="34.9132812">
<ele>468.799988</ele>
<time>2015-10-30T09:54:10.000Z</time>
</trkpt>
<trkpt lat="30.9941807" lon="34.9132081">
<ele>469.399994</ele>
<time>2015-10-30T09:54:17.000Z</time>
</trkpt>
<trkpt lat="30.9942477" lon="34.9131174">
<ele>469.799988</ele>
<time>2015-10-30T09:54:24.000Z</time>
</trkpt>
<trkpt lat="30.9943240" lon="34.9130425">
<ele>469.799988</ele>
<time>2015-10-30T09:54:30.000Z</time>
</trkpt>
<trkpt lat="30.9943825" lon="34.9129596">
<ele>470.000000</ele>
<time>2015-10-30T09:54:35.000Z</time>
</trkpt>
<trkpt lat="30.9944270" lon="34.9128590">
<ele>470.000000</ele>
<time>2015-10-30T09:54:41.000Z</time>
</trkpt>
<trkpt lat="30.9944562" lon="34.9127646">
<ele>470.000000</ele>
<time>2015-10-30T09:54:46.000Z</time>
</trkpt>
<trkpt lat="30.9945160" lon="34.9126607">
<ele>470.000000</ele>
<time>2015-10-30T09:54:52.000Z</time>
</trkpt>
<trkpt lat="30.9945627" lon="34.9125629">
<ele>470.600006</ele>
<time>2015-10-30T09:54:57.000Z</time>
</trkpt>
<trkpt lat="30.9946218" lon="34.9124577">
<ele>471.200012</ele>
<time>2015-10-30T09:55:03.000Z</time>
</trkpt>
<trkpt lat="30.9946813" lon="34.9123582">
<ele>471.799988</ele>
<time>2015-10-30T09:55:09.000Z</time>
</trkpt>
<trkpt lat="30.9947450" lon="34.9122675">
<ele>472.200012</ele>
<time>2015-10-30T09:55:14.000Z</time>
</trkpt>
<trkpt lat="30.9948044" lon="34.9121765">
<ele>472.799988</ele>
<time>2015-10-30T09:55:19.000Z</time>
</trkpt>
<trkpt lat="30.9948740" lon="34.9120920">
<ele>473.399963</ele>
<time>2015-10-30T09:55:24.000Z</time>
</trkpt>
<trkpt lat="30.9949728" lon="34.9120319">
<ele>474.200012</ele>
<time>2015-10-30T09:55:29.000Z</time>
</trkpt>
<trkpt lat="30.9950546" lon="34.9119838">
<ele>474.800018</ele>
<time>2015-10-30T09:55:34.000Z</time>
</trkpt>
<trkpt lat="30.9951417" lon="34.9119362">
<ele>475.600006</ele>
<time>2015-10-30T09:55:39.000Z</time>
</trkpt>
<trkpt lat="30.9952360" lon="34.9119024">
<ele>476.199982</ele>
<time>2015-10-30T09:55:45.000Z</time>
</trkpt>
<trkpt lat="30.9953127" lon="34.9118296">
<ele>476.999969</ele>
<time>2015-10-30T09:55:50.000Z</time>
</trkpt>
<trkpt lat="30.9953912" lon="34.9117692">
<ele>477.799957</ele>
<time>2015-10-30T09:55:55.000Z</time>
</trkpt>
<trkpt lat="30.9954700" lon="34.9117145">
<ele>478.600006</ele>
<time>2015-10-30T09:56:00.000Z</time>
</trkpt>
<trkpt lat="30.9955425" lon="34.9116512">
<ele>479.399994</ele>
<time>2015-10-30T09:56:05.000Z</time>
</trkpt>
<trkpt lat="30.9956189" lon="34.9115822">
<ele>480.200012</ele>
<time>2015-10-30T09:56:11.000Z</time>
</trkpt>
<trkpt lat="30.9957034" lon="34.9115201">
<ele>480.799988</ele>
<time>2015-10-30T09:56:17.000Z</time>
</trkpt>
<trkpt lat="30.9957909" lon="34.9114685">
<ele>481.600006</ele>
<time>2015-10-30T09:56:23.000Z</time>
</trkpt>
<trkpt lat="30.9958720" lon="34.9114037">
<ele>481.400024</ele>
<time>2015-10-30T09:56:29.000Z</time>
</trkpt>
<trkpt lat="30.9959307" lon="34.9113152">
<ele>481.200012</ele>
<time>2015-10-30T09:56:35.000Z</time>
</trkpt>
<trkpt lat="30.9959816" lon="34.9111942">
<ele>481.200012</ele>
<time>2015-10-30T09:56:41.000Z</time>
</trkpt>
<trkpt lat="30.9960135" lon="34.9110708">
<ele>481.799988</ele>
<time>2015-10-30T09:56:46.000Z</time>
</trkpt>
<trkpt lat="30.9960318" lon="34.9109461">
<ele>482.200012</ele>
<time>2015-10-30T09:56:51.000Z</time>
</trkpt>
<trkpt lat="30.9960499" lon="34.9108356">
<ele>482.600006</ele>
<time>2015-10-30T09:56:56.000Z</time>
</trkpt>
<trkpt lat="30.9960525" lon="34.9107193">
<ele>483.200012</ele>
<time>2015-10-30T09:57:01.000Z</time>
</trkpt>
<trkpt lat="30.9960442" lon="34.9106172">
<ele>483.799988</ele>
<time>2015-10-30T09:57:06.000Z</time>
</trkpt>
<trkpt lat="30.9960311" lon="34.9105034">
<ele>484.399963</ele>
<time>2015-10-30T09:57:11.000Z</time>
</trkpt>
<trkpt lat="30.9960097" lon="34.9103867">
<ele>485.000000</ele>
<time>2015-10-30T09:57:16.000Z</time>
</trkpt>
<trkpt lat="30.9959878" lon="34.9102837">
<ele>485.200012</ele>
<time>2015-10-30T09:57:20.000Z</time>
</trkpt>
<trkpt lat="30.9959491" lon="34.9101745">
<ele>485.600006</ele>
<time>2015-10-30T09:57:24.000Z</time>
</trkpt>
<trkpt lat="30.9959177" lon="34.9100606">
<ele>485.800018</ele>
<time>2015-10-30T09:57:28.000Z</time>
</trkpt>
<trkpt lat="30.9959024" lon="34.9099235">
<ele>486.000000</ele>
<time>2015-10-30T09:57:32.000Z</time>
</trkpt>
<trkpt lat="30.9958888" lon="34.9098148">
<ele>486.399994</ele>
<time>2015-10-30T09:57:35.000Z</time>
</trkpt>
<trkpt lat="30.9958900" lon="34.9096883">
<ele>487.000000</ele>
<time>2015-10-30T09:57:39.000Z</time>
</trkpt>
<trkpt lat="30.9958917" lon="34.9095742">
<ele>487.600006</ele>
<time>2015-10-30T09:57:43.000Z</time>
</trkpt>
<trkpt lat="30.9959047" lon="34.9094523">
<ele>487.799988</ele>
<time>2015-10-30T09:57:47.000Z</time>
</trkpt>
<trkpt lat="30.9959169" lon="34.9093186">
<ele>488.200012</ele>
<time>2015-10-30T09:57:51.000Z</time>
</trkpt>
<trkpt lat="30.9959233" lon="34.9091926">
<ele>488.399994</ele>
<time>2015-10-30T09:57:55.000Z</time>
</trkpt>
<trkpt lat="30.9959466" lon="34.9090796">
<ele>488.800018</ele>
<time>2015-10-30T09:57:59.000Z</time>
</trkpt>
<trkpt lat="30.9959708" lon="34.9089585">
<ele>490.199982</ele>
<time>2015-10-30T09:58:03.000Z</time>
</trkpt>
<trkpt lat="30.9959847" lon="34.9088536">
<ele>491.200012</ele>
<time>2015-10-30T09:58:07.000Z</time>
</trkpt>
<trkpt lat="30.9960452" lon="34.9087489">
<ele>492.600006</ele>
<time>2015-10-30T09:58:12.000Z</time>
</trkpt>
<trkpt lat="30.9961066" lon="34.9086620">
<ele>493.399994</ele>
<time>2015-10-30T09:58:18.000Z</time>
</trkpt>
<trkpt lat="30.9961761" lon="34.9085877">
<ele>494.000000</ele>
<time>2015-10-30T09:58:24.000Z</time>
</trkpt>
<trkpt lat="30.9962428" lon="34.9085049">
<ele>494.799988</ele>
<time>2015-10-30T09:58:30.000Z</time>
</trkpt>
<trkpt lat="30.9963072" lon="34.9084173">
<ele>495.799988</ele>
<time>2015-10-30T09:58:36.000Z</time>
</trkpt>
<trkpt lat="30.9963902" lon="34.9083441">
<ele>497.000000</ele>
<time>2015-10-30T09:58:42.000Z</time>
</trkpt>
<trkpt lat="30.9964618" lon="34.9082623">
<ele>497.599976</ele>
<time>2015-10-30T09:58:48.000Z</time>
</trkpt>
<trkpt lat="30.9965322" lon="34.9081821">
<ele>497.799988</ele>
<time>2015-10-30T09:58:55.000Z</time>
</trkpt>
<trkpt lat="30.9965977" lon="34.9081063">
<ele>498.200043</ele>
<time>2015-10-30T09:59:01.000Z</time>
</trkpt>
<trkpt lat="30.9966692" lon="34.9080301">
<ele>499.200012</ele>
<time>2015-10-30T09:59:08.000Z</time>
</trkpt>
<trkpt lat="30.9967188" lon="34.9079396">
<ele>500.600006</ele>
<time>2015-10-30T09:59:14.000Z</time>
</trkpt>
<trkpt lat="30.9967891" lon="34.9078720">
<ele>501.399994</ele>
<time>2015-10-30T09:59:21.000Z</time>
</trkpt>
<trkpt lat="30.9968635" lon="34.9077931">
<ele>501.600006</ele>
<time>2015-10-30T09:59:28.000Z</time>
</trkpt>
<trkpt lat="30.9969392" lon="34.9077329">
<ele>501.799988</ele>
<time>2015-10-30T09:59:34.000Z</time>
</trkpt>
<trkpt lat="30.9970133" lon="34.9076607">
<ele>502.200012</ele>
<time>2015-10-30T09:59:41.000Z</time>
</trkpt>
<trkpt lat="30.9970939" lon="34.9075869">
<ele>503.799988</ele>
<time>2015-10-30T09:59:48.000Z</time>
</trkpt>
<trkpt lat="30.9971691" lon="34.9075209">
<ele>505.200012</ele>
<time>2015-10-30T09:59:55.000Z</time>
</trkpt>
<trkpt lat="30.9972547" lon="34.9074748">
<ele>506.600006</ele>
<time>2015-10-30T10:00:03.000Z</time>
</trkpt>
<trkpt lat="30.9973295" lon="34.9073968">
<ele>506.400024</ele>
<time>2015-10-30T10:00:11.000Z</time>
</trkpt>
<trkpt lat="30.9973911" lon="34.9073143">
<ele>506.600006</ele>
<time>2015-10-30T10:00:18.000Z</time>
</trkpt>
<trkpt lat="30.9974570" lon="34.9072286">
<ele>507.000000</ele>
<time>2015-10-30T10:00:25.000Z</time>
</trkpt>
<trkpt lat="30.9975046" lon="34.9071323">
<ele>508.399994</ele>
<time>2015-10-30T10:00:32.000Z</time>
</trkpt>
<trkpt lat="30.9975495" lon="34.9070508">
<ele>509.200012</ele>
<time>2015-10-30T10:00:39.000Z</time>
</trkpt>
<trkpt lat="30.9975808" lon="34.9069420">
<ele>509.000000</ele>
<time>2015-10-30T10:00:46.000Z</time>
</trkpt>
<trkpt lat="30.9976099" lon="34.9068457">
<ele>508.599976</ele>
<time>2015-10-30T10:00:52.000Z</time>
</trkpt>
<trkpt lat="30.9976324" lon="34.9067362">
<ele>508.200012</ele>
<time>2015-10-30T10:00:58.000Z</time>
</trkpt>
<trkpt lat="30.9976794" lon="34.9066336">
<ele>508.200012</ele>
<time>2015-10-30T10:01:04.000Z</time>
</trkpt>
<trkpt lat="30.9977371" lon="34.9065394">
<ele>509.799988</ele>
<time>2015-10-30T10:01:10.000Z</time>
</trkpt>
<trkpt lat="30.9977868" lon="34.9064294">
<ele>511.200012</ele>
<time>2015-10-30T10:01:16.000Z</time>
</trkpt>
<trkpt lat="30.9978606" lon="34.9063425">
<ele>512.799988</ele>
<time>2015-10-30T10:01:22.000Z</time>
</trkpt>
<trkpt lat="30.9979340" lon="34.9062423">
<ele>514.400024</ele>
<time>2015-10-30T10:01:28.000Z</time>
</trkpt>
<trkpt lat="30.9980113" lon="34.9061509">
<ele>515.200012</ele>
<time>2015-10-30T10:01:33.000Z</time>
</trkpt>
<trkpt lat="30.9980719" lon="34.9060636">
<ele>516.599976</ele>
<time>2015-10-30T10:01:37.000Z</time>
</trkpt>
<trkpt lat="30.9981526" lon="34.9059841">
<ele>517.000000</ele>
<time>2015-10-30T10:01:41.000Z</time>
</trkpt>
<trkpt lat="30.9982380" lon="34.9059104">
<ele>517.000000</ele>
<time>2015-10-30T10:01:45.000Z</time>
</trkpt>
<trkpt lat="30.9983255" lon="34.9058263">
<ele>517.000000</ele>
<time>2015-10-30T10:01:49.000Z</time>
</trkpt>
<trkpt lat="30.9983931" lon="34.9057501">
<ele>517.200012</ele>
<time>2015-10-30T10:01:52.000Z</time>
</trkpt>
<trkpt lat="30.9984577" lon="34.9056695">
<ele>518.200012</ele>
<time>2015-10-30T10:01:55.000Z</time>
</trkpt>
<trkpt lat="30.9985234" lon="34.9055907">
<ele>519.400024</ele>
<time>2015-10-30T10:01:58.000Z</time>
</trkpt>
<trkpt lat="30.9985997" lon="34.9054928">
<ele>520.799988</ele>
<time>2015-10-30T10:02:02.000Z</time>
</trkpt>
<trkpt lat="30.9986621" lon="34.9053915">
<ele>522.000000</ele>
<time>2015-10-30T10:02:06.000Z</time>
</trkpt>
<trkpt lat="30.9987221" lon="34.9052899">
<ele>522.400024</ele>
<time>2015-10-30T10:02:10.000Z</time>
</trkpt>
<trkpt lat="30.9987767" lon="34.9051961">
<ele>523.000000</ele>
<time>2015-10-30T10:02:15.000Z</time>
</trkpt>
<trkpt lat="30.9988362" lon="34.9050961">
<ele>523.799988</ele>
<time>2015-10-30T10:02:21.000Z</time>
</trkpt>
<trkpt lat="30.9988761" lon="34.9050062">
<ele>524.599976</ele>
<time>2015-10-30T10:02:26.000Z</time>
</trkpt>
<trkpt lat="30.9989299" lon="34.9049089">
<ele>525.200012</ele>
<time>2015-10-30T10:02:32.000Z</time>
</trkpt>
<trkpt lat="30.9989839" lon="34.9048189">
<ele>524.799988</ele>
<time>2015-10-30T10:02:37.000Z</time>
</trkpt>
<trkpt lat="30.9990346" lon="34.9047203">
<ele>524.400024</ele>
<time>2015-10-30T10:02:42.000Z</time>
</trkpt>
<trkpt lat="30.9990700" lon="34.9046086">
<ele>524.599976</ele>
<time>2015-10-30T10:02:47.000Z</time>
</trkpt>
<trkpt lat="30.9991090" lon="34.9044979">
<ele>524.599976</ele>
<time>2015-10-30T10:02:52.000Z</time>
</trkpt>
<trkpt lat="30.9991483" lon="34.9043867">
<ele>524.200012</ele>
<time>2015-10-30T10:02:57.000Z</time>
</trkpt>
<trkpt lat="30.9992083" lon="34.9042782">
<ele>523.400024</ele>
<time>2015-10-30T10:03:02.000Z</time>
</trkpt>
<trkpt lat="30.9992510" lon="34.9041783">
<ele>523.000000</ele>
<time>2015-10-30T10:03:06.000Z</time>
</trkpt>
<trkpt lat="30.9993042" lon="34.9040896">
<ele>522.799988</ele>
<time>2015-10-30T10:03:10.000Z</time>
</trkpt>
<trkpt lat="30.9993728" lon="34.9039884">
<ele>523.799988</ele>
<time>2015-10-30T10:03:15.000Z</time>
</trkpt>
<trkpt lat="30.9994232" lon="34.9038751">
<ele>525.000000</ele>
<time>2015-10-30T10:03:20.000Z</time>
</trkpt>
<trkpt lat="30.9994582" lon="34.9037845">
<ele>526.000000</ele>
<time>2015-10-30T10:03:24.000Z</time>
</trkpt>
<trkpt lat="30.9995010" lon="34.9036850">
<ele>526.400024</ele>
<time>2015-10-30T10:03:28.000Z</time>
</trkpt>
<trkpt lat="30.9995444" lon="34.9035779">
<ele>526.200012</ele>
<time>2015-10-30T10:03:32.000Z</time>
</trkpt>
<trkpt lat="30.9995981" lon="34.9034586">
<ele>526.599976</ele>
<time>2015-10-30T10:03:36.000Z</time>
</trkpt>
<trkpt lat="30.9996475" lon="34.9033705">
<ele>527.200012</ele>
<time>2015-10-30T10:03:39.000Z</time>
</trkpt>
<trkpt lat="30.9996899" lon="34.9032707">
<ele>528.000000</ele>
<time>2015-10-30T10:03:42.000Z</time>
</trkpt>
<trkpt lat="30.9997399" lon="34.9031811">
<ele>528.599976</ele>
<time>2015-10-30T10:03:45.000Z</time>
</trkpt>
<trkpt lat="30.9997950" lon="34.9030892">
<ele>529.000000</ele>
<time>2015-10-30T10:03:48.000Z</time>
</trkpt>
<trkpt lat="30.9998552" lon="34.9029980">
<ele>529.200012</ele>
<time>2015-10-30T10:03:51.000Z</time>
</trkpt>
<trkpt lat="30.9999178" lon="34.9029041">
<ele>529.799988</ele>
<time>2015-10-30T10:03:54.000Z</time>
</trkpt>
<trkpt lat="30.9999799" lon="34.9028183">
<ele>529.799988</ele>
<time>2015-10-30T10:03:57.000Z</time>
</trkpt>
<trkpt lat="31.0000617" lon="34.9027253">
<ele>529.799988</ele>
<time>2015-10-30T10:04:01.000Z</time>
</trkpt>
<trkpt lat="31.0001432" lon="34.9026496">
<ele>529.799988</ele>
<time>2015-10-30T10:04:05.000Z</time>
</trkpt>
<trkpt lat="31.0002087" lon="34.9025699">
<ele>529.799988</ele>
<time>2015-10-30T10:04:09.000Z</time>
</trkpt>
<trkpt lat="31.0001990" lon="34.9024570">
<ele>529.799988</ele>
<time>2015-10-30T10:04:14.000Z</time>
</trkpt>
<trkpt lat="31.0001701" lon="34.9023506">
<ele>529.799988</ele>
<time>2015-10-30T10:04:20.000Z</time>
</trkpt>
<trkpt lat="31.0001591" lon="34.9022338">
<ele>529.799988</ele>
<time>2015-10-30T10:04:25.000Z</time>
</trkpt>
<trkpt lat="31.0001365" lon="34.9021313">
<ele>529.599976</ele>
<time>2015-10-30T10:04:30.000Z</time>
</trkpt>
<trkpt lat="31.0000701" lon="34.9020255">
<ele>529.799988</ele>
<time>2015-10-30T10:04:34.000Z</time>
</trkpt>
<trkpt lat="30.9999948" lon="34.9019594">
<ele>530.000000</ele>
<time>2015-10-30T10:04:39.000Z</time>
</trkpt>
<trkpt lat="30.9999587" lon="34.9018648">
<ele>530.000000</ele>
<time>2015-10-30T10:06:19.000Z</time>
</trkpt>
<trkpt lat="30.9999036" lon="34.9017626">
<ele>530.000000</ele>
<time>2015-10-30T10:06:24.000Z</time>
</trkpt>
<trkpt lat="30.9998616" lon="34.9016670">
<ele>530.200012</ele>
<time>2015-10-30T10:06:28.000Z</time>
</trkpt>
<trkpt lat="30.9998379" lon="34.9015723">
<ele>530.000000</ele>
<time>2015-10-30T10:06:32.000Z</time>
</trkpt>
<trkpt lat="30.9998091" lon="34.9014495">
<ele>530.000000</ele>
<time>2015-10-30T10:06:37.000Z</time>
</trkpt>
<trkpt lat="30.9997954" lon="34.9013444">
<ele>530.000000</ele>
<time>2015-10-30T10:06:41.000Z</time>
</trkpt>
<trkpt lat="30.9997861" lon="34.9012013">
<ele>529.799988</ele>
<time>2015-10-30T10:06:45.000Z</time>
</trkpt>
<trkpt lat="30.9997785" lon="34.9010946">
<ele>529.400024</ele>
<time>2015-10-30T10:06:48.000Z</time>
</trkpt>
<trkpt lat="30.9997686" lon="34.9009677">
<ele>529.200012</ele>
<time>2015-10-30T10:06:52.000Z</time>
</trkpt>
<trkpt lat="30.9997578" lon="34.9008645">
<ele>529.000000</ele>
<time>2015-10-30T10:06:55.000Z</time>
</trkpt>
<trkpt lat="30.9997485" lon="34.9007523">
<ele>528.799988</ele>
<time>2015-10-30T10:06:58.000Z</time>
</trkpt>
<trkpt lat="30.9997186" lon="34.9006201">
<ele>528.400024</ele>
<time>2015-10-30T10:07:02.000Z</time>
</trkpt>
<trkpt lat="30.9996882" lon="34.9004983">
<ele>528.200012</ele>
<time>2015-10-30T10:07:06.000Z</time>
</trkpt>
<trkpt lat="30.9996520" lon="34.9003937">
<ele>527.799988</ele>
<time>2015-10-30T10:07:10.000Z</time>
</trkpt>
<trkpt lat="30.9996148" lon="34.9002902">
<ele>527.799988</ele>
<time>2015-10-30T10:07:14.000Z</time>
</trkpt>
<trkpt lat="30.9995879" lon="34.9001917">
<ele>527.599976</ele>
<time>2015-10-30T10:07:17.000Z</time>
</trkpt>
<trkpt lat="30.9995496" lon="34.9000616">
<ele>527.599976</ele>
<time>2015-10-30T10:07:21.000Z</time>
</trkpt>
<trkpt lat="30.9995287" lon="34.8999255">
<ele>527.400024</ele>
<time>2015-10-30T10:07:25.000Z</time>
</trkpt>
<trkpt lat="30.9995155" lon="34.8998215">
<ele>527.400024</ele>
<time>2015-10-30T10:07:28.000Z</time>
</trkpt>
<trkpt lat="30.9995076" lon="34.8996882">
<ele>527.400024</ele>
<time>2015-10-30T10:07:32.000Z</time>
</trkpt>
<trkpt lat="30.9994930" lon="34.8995535">
<ele>527.400024</ele>
<time>2015-10-30T10:07:36.000Z</time>
</trkpt>
<trkpt lat="30.9995056" lon="34.8994442">
<ele>527.400024</ele>
<time>2015-10-30T10:07:39.000Z</time>
</trkpt>
<trkpt lat="30.9995206" lon="34.8993361">
<ele>527.400024</ele>
<time>2015-10-30T10:07:42.000Z</time>
</trkpt>
<trkpt lat="30.9995389" lon="34.8992263">
<ele>527.400024</ele>
<time>2015-10-30T10:07:45.000Z</time>
</trkpt>
<trkpt lat="30.9995628" lon="34.8991173">
<ele>527.599976</ele>
<time>2015-10-30T10:07:48.000Z</time>
</trkpt>
<trkpt lat="30.9995814" lon="34.8990114">
<ele>527.599976</ele>
<time>2015-10-30T10:07:51.000Z</time>
</trkpt>
<trkpt lat="30.9995897" lon="34.8988838">
<ele>527.599976</ele>
<time>2015-10-30T10:07:55.000Z</time>
</trkpt>
<trkpt lat="30.9996159" lon="34.8987576">
<ele>527.599976</ele>
<time>2015-10-30T10:07:59.000Z</time>
</trkpt>
<trkpt lat="30.9996514" lon="34.8986382">
<ele>527.599976</ele>
<time>2015-10-30T10:08:03.000Z</time>
</trkpt>
<trkpt lat="30.9996809" lon="34.8985273">
<ele>527.599976</ele>
<time>2015-10-30T10:08:07.000Z</time>
</trkpt>
<trkpt lat="30.9997116" lon="34.8984046">
<ele>527.599976</ele>
<time>2015-10-30T10:08:11.000Z</time>
</trkpt>
<trkpt lat="30.9997542" lon="34.8982691">
<ele>527.400024</ele>
<time>2015-10-30T10:08:15.000Z</time>
</trkpt>
<trkpt lat="30.9997890" lon="34.8981665">
<ele>527.000000</ele>
<time>2015-10-30T10:08:18.000Z</time>
</trkpt>
<trkpt lat="30.9998174" lon="34.8980508">
<ele>526.799988</ele>
<time>2015-10-30T10:08:21.000Z</time>
</trkpt>
<trkpt lat="30.9998340" lon="34.8979389">
<ele>526.599976</ele>
<time>2015-10-30T10:08:24.000Z</time>
</trkpt>
<trkpt lat="30.9998455" lon="34.8978161">
<ele>526.400024</ele>
<time>2015-10-30T10:08:27.000Z</time>
</trkpt>
<trkpt lat="30.9998609" lon="34.8976882">
<ele>526.200012</ele>
<time>2015-10-30T10:08:30.000Z</time>
</trkpt>
<trkpt lat="30.9998784" lon="34.8975602">
<ele>526.000000</ele>
<time>2015-10-30T10:08:33.000Z</time>
</trkpt>
<trkpt lat="30.9998904" lon="34.8974314">
<ele>525.799988</ele>
<time>2015-10-30T10:08:36.000Z</time>
</trkpt>
<trkpt lat="30.9999119" lon="34.8973047">
<ele>525.599976</ele>
<time>2015-10-30T10:08:39.000Z</time>
</trkpt>
<trkpt lat="30.9999284" lon="34.8971769">
<ele>525.599976</ele>
<time>2015-10-30T10:08:42.000Z</time>
</trkpt>
<trkpt lat="30.9999515" lon="34.8970439">
<ele>525.799988</ele>
<time>2015-10-30T10:08:45.000Z</time>
</trkpt>
<trkpt lat="30.9999711" lon="34.8969117">
<ele>526.000000</ele>
<time>2015-10-30T10:08:48.000Z</time>
</trkpt>
<trkpt lat="30.9999948" lon="34.8967899">
<ele>526.000000</ele>
<time>2015-10-30T10:08:51.000Z</time>
</trkpt>
<trkpt lat="31.0000225" lon="34.8966806">
<ele>526.200012</ele>
<time>2015-10-30T10:08:54.000Z</time>
</trkpt>
<trkpt lat="31.0000392" lon="34.8965715">
<ele>526.200012</ele>
<time>2015-10-30T10:08:58.000Z</time>
</trkpt>
<trkpt lat="31.0000684" lon="34.8964557">
<ele>525.799988</ele>
<time>2015-10-30T10:09:03.000Z</time>
</trkpt>
<trkpt lat="31.0000737" lon="34.8963512">
<ele>525.200012</ele>
<time>2015-10-30T10:09:07.000Z</time>
</trkpt>
<trkpt lat="31.0000820" lon="34.8962384">
<ele>524.599976</ele>
<time>2015-10-30T10:09:11.000Z</time>
</trkpt>
<trkpt lat="31.0000920" lon="34.8961218">
<ele>524.599976</ele>
<time>2015-10-30T10:09:15.000Z</time>
</trkpt>
<trkpt lat="31.0000805" lon="34.8959962">
<ele>524.599976</ele>
<time>2015-10-30T10:09:19.000Z</time>
</trkpt>
<trkpt lat="31.0000719" lon="34.8958636">
<ele>524.599976</ele>
<time>2015-10-30T10:09:23.000Z</time>
</trkpt>
<trkpt lat="31.0000591" lon="34.8957346">
<ele>524.799988</ele>
<time>2015-10-30T10:09:27.000Z</time>
</trkpt>
<trkpt lat="31.0000631" lon="34.8955954">
<ele>524.799988</ele>
<time>2015-10-30T10:09:31.000Z</time>
</trkpt>
<trkpt lat="31.0000592" lon="34.8954902">
<ele>524.799988</ele>
<time>2015-10-30T10:09:34.000Z</time>
</trkpt>
<trkpt lat="31.0000544" lon="34.8953725">
<ele>524.799988</ele>
<time>2015-10-30T10:09:37.000Z</time>
</trkpt>
<trkpt lat="31.0000504" lon="34.8952457">
<ele>524.799988</ele>
<time>2015-10-30T10:09:40.000Z</time>
</trkpt>
<trkpt lat="31.0000501" lon="34.8951091">
<ele>524.799988</ele>
<time>2015-10-30T10:09:43.000Z</time>
</trkpt>
<trkpt lat="31.0000578" lon="34.8949778">
<ele>524.799988</ele>
<time>2015-10-30T10:09:46.000Z</time>
</trkpt>
<trkpt lat="31.0000494" lon="34.8948726">
<ele>524.799988</ele>
<time>2015-10-30T10:09:49.000Z</time>
</trkpt>
<trkpt lat="31.0000297" lon="34.8947393">
<ele>525.200012</ele>
<time>2015-10-30T10:09:53.000Z</time>
</trkpt>
<trkpt lat="30.9999957" lon="34.8946366">
<ele>525.400024</ele>
<time>2015-10-30T10:09:56.000Z</time>
</trkpt>
<trkpt lat="30.9999471" lon="34.8945358">
<ele>525.799988</ele>
<time>2015-10-30T10:09:59.000Z</time>
</trkpt>
<trkpt lat="30.9998762" lon="34.8944221">
<ele>526.000000</ele>
<time>2015-10-30T10:10:02.000Z</time>
</trkpt>
<trkpt lat="30.9998172" lon="34.8943440">
<ele>526.400024</ele>
<time>2015-10-30T10:10:04.000Z</time>
</trkpt>
<trkpt lat="30.9997526" lon="34.8942683">
<ele>526.599976</ele>
<time>2015-10-30T10:10:06.000Z</time>
</trkpt>
<trkpt lat="30.9996552" lon="34.8941662">
<ele>526.000000</ele>
<time>2015-10-30T10:10:09.000Z</time>
</trkpt>
<trkpt lat="30.9995598" lon="34.8940760">
<ele>525.599976</ele>
<time>2015-10-30T10:10:12.000Z</time>
</trkpt>
<trkpt lat="30.9994495" lon="34.8940172">
<ele>524.799988</ele>
<time>2015-10-30T10:10:15.000Z</time>
</trkpt>
<trkpt lat="30.9993472" lon="34.8939725">
<ele>524.400024</ele>
<time>2015-10-30T10:10:18.000Z</time>
</trkpt>
<trkpt lat="30.9992574" lon="34.8938975">
<ele>523.799988</ele>
<time>2015-10-30T10:10:21.000Z</time>
</trkpt>
<trkpt lat="30.9991766" lon="34.8937851">
<ele>523.400024</ele>
<time>2015-10-30T10:10:24.000Z</time>
</trkpt>
<trkpt lat="30.9991297" lon="34.8936818">
<ele>522.799988</ele>
<time>2015-10-30T10:10:26.000Z</time>
</trkpt>
<trkpt lat="30.9990616" lon="34.8935489">
<ele>522.000000</ele>
<time>2015-10-30T10:10:29.000Z</time>
</trkpt>
<trkpt lat="30.9989765" lon="34.8934457">
<ele>521.200012</ele>
<time>2015-10-30T10:10:32.000Z</time>
</trkpt>
<trkpt lat="30.9989088" lon="34.8933664">
<ele>520.599976</ele>
<time>2015-10-30T10:10:34.000Z</time>
</trkpt>
<trkpt lat="30.9988457" lon="34.8932644">
<ele>519.799988</ele>
<time>2015-10-30T10:10:36.000Z</time>
</trkpt>
<trkpt lat="30.9987956" lon="34.8931515">
<ele>518.799988</ele>
<time>2015-10-30T10:10:38.000Z</time>
</trkpt>
<trkpt lat="30.9987580" lon="34.8930488">
<ele>518.200012</ele>
<time>2015-10-30T10:10:40.000Z</time>
</trkpt>
<trkpt lat="30.9987265" lon="34.8929463">
<ele>517.599976</ele>
<time>2015-10-30T10:10:42.000Z</time>
</trkpt>
<trkpt lat="30.9987021" lon="34.8928406">
<ele>517.400024</ele>
<time>2015-10-30T10:10:44.000Z</time>
</trkpt>
<trkpt lat="30.9986793" lon="34.8927361">
<ele>517.400024</ele>
<time>2015-10-30T10:10:46.000Z</time>
</trkpt>
<trkpt lat="30.9986515" lon="34.8925774">
<ele>517.000000</ele>
<time>2015-10-30T10:10:49.000Z</time>
</trkpt>
<trkpt lat="30.9986335" lon="34.8924716">
<ele>516.000000</ele>
<time>2015-10-30T10:10:51.000Z</time>
</trkpt>
<trkpt lat="30.9985714" lon="34.8923705">
<ele>515.400024</ele>
<time>2015-10-30T10:10:55.000Z</time>
</trkpt>
<trkpt lat="30.9984908" lon="34.8923038">
<ele>515.000000</ele>
<time>2015-10-30T10:10:59.000Z</time>
</trkpt>
<trkpt lat="30.9984023" lon="34.8922562">
<ele>514.799988</ele>
<time>2015-10-30T10:11:03.000Z</time>
</trkpt>
<trkpt lat="30.9983053" lon="34.8922429">
<ele>515.000000</ele>
<time>2015-10-30T10:11:10.000Z</time>
</trkpt>
<trkpt lat="30.9982137" lon="34.8922627">
<ele>514.599976</ele>
<time>2015-10-30T10:11:15.000Z</time>
</trkpt>
<trkpt lat="30.9981046" lon="34.8922615">
<ele>513.799988</ele>
<time>2015-10-30T10:11:20.000Z</time>
</trkpt>
<trkpt lat="30.9980045" lon="34.8922521">
<ele>513.599976</ele>
<time>2015-10-30T10:11:24.000Z</time>
</trkpt>
<trkpt lat="30.9979076" lon="34.8922808">
<ele>513.400024</ele>
<time>2015-10-30T10:11:27.000Z</time>
</trkpt>
<trkpt lat="30.9977919" lon="34.8923268">
<ele>513.400024</ele>
<time>2015-10-30T10:11:30.000Z</time>
</trkpt>
<trkpt lat="30.9977060" lon="34.8923919">
<ele>513.200012</ele>
<time>2015-10-30T10:11:33.000Z</time>
</trkpt>
<trkpt lat="30.9976337" lon="34.8925026">
<ele>512.799988</ele>
<time>2015-10-30T10:11:37.000Z</time>
</trkpt>
<trkpt lat="30.9975657" lon="34.8926117">
<ele>512.200012</ele>
<time>2015-10-30T10:11:41.000Z</time>
</trkpt>
<trkpt lat="30.9975075" lon="34.8927096">
<ele>511.600006</ele>
<time>2015-10-30T10:11:46.000Z</time>
</trkpt>
<trkpt lat="30.9974514" lon="34.8927986">
<ele>511.000000</ele>
<time>2015-10-30T10:11:50.000Z</time>
</trkpt>
<trkpt lat="30.9974065" lon="34.8929131">
<ele>510.399994</ele>
<time>2015-10-30T10:11:55.000Z</time>
</trkpt>
<trkpt lat="30.9973493" lon="34.8929956">
<ele>510.600006</ele>
<time>2015-10-30T10:12:00.000Z</time>
</trkpt>
<trkpt lat="30.9972672" lon="34.8930602">
<ele>509.200012</ele>
<time>2015-10-30T10:12:05.000Z</time>
</trkpt>
<trkpt lat="30.9971699" lon="34.8930595">
<ele>508.599976</ele>
<time>2015-10-30T10:12:12.000Z</time>
</trkpt>
<trkpt lat="30.9971797" lon="34.8929478">
<ele>509.200012</ele>
<time>2015-10-30T10:12:47.000Z</time>
</trkpt>
<trkpt lat="30.9971946" lon="34.8928314">
<ele>509.600006</ele>
<time>2015-10-30T10:12:53.000Z</time>
</trkpt>
<trkpt lat="30.9971912" lon="34.8927063">
<ele>510.200012</ele>
<time>2015-10-30T10:12:59.000Z</time>
</trkpt>
<trkpt lat="30.9971826" lon="34.8925938">
<ele>510.600006</ele>
<time>2015-10-30T10:13:05.000Z</time>
</trkpt>
<trkpt lat="30.9972676" lon="34.8925235">
<ele>511.799988</ele>
<time>2015-10-30T10:13:10.000Z</time>
</trkpt>
<trkpt lat="30.9973641" lon="34.8924653">
<ele>512.400024</ele>
<time>2015-10-30T10:13:15.000Z</time>
</trkpt>
<trkpt lat="30.9974289" lon="34.8923641">
<ele>513.000000</ele>
<time>2015-10-30T10:13:20.000Z</time>
</trkpt>
<trkpt lat="30.9974769" lon="34.8922717">
<ele>513.599976</ele>
<time>2015-10-30T10:13:24.000Z</time>
</trkpt>
<trkpt lat="30.9975010" lon="34.8921473">
<ele>513.799988</ele>
<time>2015-10-30T10:13:29.000Z</time>
</trkpt>
<trkpt lat="30.9975034" lon="34.8920338">
<ele>514.200012</ele>
<time>2015-10-30T10:13:34.000Z</time>
</trkpt>
<trkpt lat="30.9974800" lon="34.8919092">
<ele>514.599976</ele>
<time>2015-10-30T10:13:39.000Z</time>
</trkpt>
<trkpt lat="30.9974245" lon="34.8918245">
<ele>514.799988</ele>
<time>2015-10-30T10:13:43.000Z</time>
</trkpt>
<trkpt lat="30.9973721" lon="34.8917361">
<ele>515.200012</ele>
<time>2015-10-30T10:13:48.000Z</time>
</trkpt>
<trkpt lat="30.9974149" lon="34.8916448">
<ele>515.599976</ele>
<time>2015-10-30T10:13:53.000Z</time>
</trkpt>
<trkpt lat="30.9974703" lon="34.8915428">
<ele>515.799988</ele>
<time>2015-10-30T10:13:57.000Z</time>
</trkpt>
<trkpt lat="30.9975253" lon="34.8914210">
<ele>516.599976</ele>
<time>2015-10-30T10:14:01.000Z</time>
</trkpt>
<trkpt lat="30.9975706" lon="34.8913168">
<ele>517.599976</ele>
<time>2015-10-30T10:14:05.000Z</time>
</trkpt>
<trkpt lat="30.9976016" lon="34.8912167">
<ele>518.200012</ele>
<time>2015-10-30T10:14:09.000Z</time>
</trkpt>
<trkpt lat="30.9976016" lon="34.8911102">
<ele>518.000000</ele>
<time>2015-10-30T10:14:13.000Z</time>
</trkpt>
<trkpt lat="30.9975689" lon="34.8909856">
<ele>517.599976</ele>
<time>2015-10-30T10:14:17.000Z</time>
</trkpt>
<trkpt lat="30.9975231" lon="34.8908599">
<ele>517.000000</ele>
<time>2015-10-30T10:14:21.000Z</time>
</trkpt>
<trkpt lat="30.9974446" lon="34.8907826">
<ele>516.599976</ele>
<time>2015-10-30T10:14:24.000Z</time>
</trkpt>
<trkpt lat="30.9973531" lon="34.8907302">
<ele>516.200012</ele>
<time>2015-10-30T10:14:28.000Z</time>
</trkpt>
<trkpt lat="30.9972714" lon="34.8906840">
<ele>515.799988</ele>
<time>2015-10-30T10:14:33.000Z</time>
</trkpt>
<trkpt lat="30.9972303" lon="34.8905927">
<ele>515.400024</ele>
<time>2015-10-30T10:14:37.000Z</time>
</trkpt>
<trkpt lat="30.9971608" lon="34.8905003">
<ele>514.799988</ele>
<time>2015-10-30T10:14:41.000Z</time>
</trkpt>
<trkpt lat="30.9970836" lon="34.8904108">
<ele>514.000000</ele>
<time>2015-10-30T10:14:45.000Z</time>
</trkpt>
<trkpt lat="30.9970595" lon="34.8902958">
<ele>513.799988</ele>
<time>2015-10-30T10:14:49.000Z</time>
</trkpt>
<trkpt lat="30.9970206" lon="34.8901814">
<ele>513.599976</ele>
<time>2015-10-30T10:14:53.000Z</time>
</trkpt>
<trkpt lat="30.9969429" lon="34.8900677">
<ele>512.799988</ele>
<time>2015-10-30T10:14:57.000Z</time>
</trkpt>
<trkpt lat="30.9968683" lon="34.8899604">
<ele>512.000000</ele>
<time>2015-10-30T10:15:00.000Z</time>
</trkpt>
<trkpt lat="30.9967559" lon="34.8898846">
<ele>511.799988</ele>
<time>2015-10-30T10:15:03.000Z</time>
</trkpt>
<trkpt lat="30.9966560" lon="34.8898846">
<ele>511.399994</ele>
<time>2015-10-30T10:15:05.000Z</time>
</trkpt>
<trkpt lat="30.9965601" lon="34.8899092">
<ele>510.799988</ele>
<time>2015-10-30T10:15:07.000Z</time>
</trkpt>
<trkpt lat="30.9964502" lon="34.8899346">
<ele>510.200012</ele>
<time>2015-10-30T10:15:10.000Z</time>
</trkpt>
<trkpt lat="30.9963596" lon="34.8899450">
<ele>509.799988</ele>
<time>2015-10-30T10:15:13.000Z</time>
</trkpt>
<trkpt lat="30.9962495" lon="34.8899496">
<ele>509.200012</ele>
<time>2015-10-30T10:15:17.000Z</time>
</trkpt>
<trkpt lat="30.9961632" lon="34.8899888">
<ele>508.799988</ele>
<time>2015-10-30T10:15:20.000Z</time>
</trkpt>
<trkpt lat="30.9960755" lon="34.8900263">
<ele>508.399994</ele>
<time>2015-10-30T10:15:23.000Z</time>
</trkpt>
<trkpt lat="30.9959792" lon="34.8900572">
<ele>508.000000</ele>
<time>2015-10-30T10:15:26.000Z</time>
</trkpt>
<trkpt lat="30.9958787" lon="34.8900817">
<ele>507.399994</ele>
<time>2015-10-30T10:15:29.000Z</time>
</trkpt>
<trkpt lat="30.9957711" lon="34.8901050">
<ele>507.000000</ele>
<time>2015-10-30T10:15:32.000Z</time>
</trkpt>
<trkpt lat="30.9956641" lon="34.8901308">
<ele>506.400024</ele>
<time>2015-10-30T10:15:35.000Z</time>
</trkpt>
<trkpt lat="30.9955478" lon="34.8901677">
<ele>506.000000</ele>
<time>2015-10-30T10:15:38.000Z</time>
</trkpt>
<trkpt lat="30.9954144" lon="34.8901791">
<ele>505.600037</ele>
<time>2015-10-30T10:15:41.000Z</time>
</trkpt>
<trkpt lat="30.9952745" lon="34.8901909">
<ele>506.200012</ele>
<time>2015-10-30T10:15:44.000Z</time>
</trkpt>
<trkpt lat="30.9951739" lon="34.8902141">
<ele>507.000000</ele>
<time>2015-10-30T10:15:46.000Z</time>
</trkpt>
<trkpt lat="30.9950762" lon="34.8902616">
<ele>507.799988</ele>
<time>2015-10-30T10:15:48.000Z</time>
</trkpt>
<trkpt lat="30.9949990" lon="34.8903231">
<ele>508.799988</ele>
<time>2015-10-30T10:15:50.000Z</time>
</trkpt>
<trkpt lat="30.9949144" lon="34.8904081">
<ele>510.000000</ele>
<time>2015-10-30T10:15:53.000Z</time>
</trkpt>
<trkpt lat="30.9948083" lon="34.8904780">
<ele>510.000000</ele>
<time>2015-10-30T10:15:57.000Z</time>
</trkpt>
<trkpt lat="30.9947138" lon="34.8904996">
<ele>509.200012</ele>
<time>2015-10-30T10:16:00.000Z</time>
</trkpt>
<trkpt lat="30.9946195" lon="34.8905142">
<ele>507.799988</ele>
<time>2015-10-30T10:16:03.000Z</time>
</trkpt>
<trkpt lat="30.9945049" lon="34.8905329">
<ele>506.000000</ele>
<time>2015-10-30T10:16:07.000Z</time>
</trkpt>
<trkpt lat="30.9943941" lon="34.8905683">
<ele>504.000000</ele>
<time>2015-10-30T10:16:11.000Z</time>
</trkpt>
<trkpt lat="30.9943100" lon="34.8906094">
<ele>502.399994</ele>
<time>2015-10-30T10:16:14.000Z</time>
</trkpt>
<trkpt lat="30.9942199" lon="34.8906323">
<ele>501.000000</ele>
<time>2015-10-30T10:16:17.000Z</time>
</trkpt>
<trkpt lat="30.9941276" lon="34.8906417">
<ele>500.000000</ele>
<time>2015-10-30T10:16:20.000Z</time>
</trkpt>
<trkpt lat="30.9940403" lon="34.8906437">
<ele>499.800018</ele>
<time>2015-10-30T10:16:23.000Z</time>
</trkpt>
<trkpt lat="30.9939302" lon="34.8906235">
<ele>499.800018</ele>
<time>2015-10-30T10:16:27.000Z</time>
</trkpt>
<trkpt lat="30.9938099" lon="34.8905909">
<ele>498.000000</ele>
<time>2015-10-30T10:16:31.000Z</time>
</trkpt>
<trkpt lat="30.9937312" lon="34.8905328">
<ele>496.799988</ele>
<time>2015-10-30T10:16:34.000Z</time>
</trkpt>
<trkpt lat="30.9936366" lon="34.8905339">
<ele>495.200012</ele>
<time>2015-10-30T10:16:39.000Z</time>
</trkpt>
<trkpt lat="30.9935419" lon="34.8905702">
<ele>493.600006</ele>
<time>2015-10-30T10:16:43.000Z</time>
</trkpt>
<trkpt lat="30.9934407" lon="34.8905927">
<ele>491.799957</ele>
<time>2015-10-30T10:16:48.000Z</time>
</trkpt>
<trkpt lat="30.9933374" lon="34.8906191">
<ele>490.000000</ele>
<time>2015-10-30T10:16:52.000Z</time>
</trkpt>
<trkpt lat="30.9932237" lon="34.8906530">
<ele>488.800018</ele>
<time>2015-10-30T10:16:56.000Z</time>
</trkpt>
<trkpt lat="30.9931313" lon="34.8906806">
<ele>488.200012</ele>
<time>2015-10-30T10:16:59.000Z</time>
</trkpt>
<trkpt lat="30.9930302" lon="34.8907007">
<ele>487.600006</ele>
<time>2015-10-30T10:17:02.000Z</time>
</trkpt>
<trkpt lat="30.9929392" lon="34.8907068">
<ele>487.600006</ele>
<time>2015-10-30T10:17:05.000Z</time>
</trkpt>
<trkpt lat="30.9928408" lon="34.8907139">
<ele>487.399994</ele>
<time>2015-10-30T10:17:09.000Z</time>
</trkpt>
<trkpt lat="30.9927336" lon="34.8907524">
<ele>487.200043</ele>
<time>2015-10-30T10:17:14.000Z</time>
</trkpt>
<trkpt lat="30.9926305" lon="34.8907941">
<ele>487.200043</ele>
<time>2015-10-30T10:17:18.000Z</time>
</trkpt>
<trkpt lat="30.9925235" lon="34.8908367">
<ele>485.800018</ele>
<time>2015-10-30T10:17:22.000Z</time>
</trkpt>
<trkpt lat="30.9924351" lon="34.8908568">
<ele>484.600006</ele>
<time>2015-10-30T10:17:26.000Z</time>
</trkpt>
<trkpt lat="30.9923377" lon="34.8908789">
<ele>483.399994</ele>
<time>2015-10-30T10:17:30.000Z</time>
</trkpt>
<trkpt lat="30.9922433" lon="34.8909141">
<ele>482.200012</ele>
<time>2015-10-30T10:17:33.000Z</time>
</trkpt>
<trkpt lat="30.9921343" lon="34.8909411">
<ele>481.200012</ele>
<time>2015-10-30T10:17:37.000Z</time>
</trkpt>
<trkpt lat="30.9920322" lon="34.8909797">
<ele>480.399994</ele>
<time>2015-10-30T10:17:43.000Z</time>
</trkpt>
<trkpt lat="30.9919282" lon="34.8910080">
<ele>478.600006</ele>
<time>2015-10-30T10:17:48.000Z</time>
</trkpt>
<trkpt lat="30.9918353" lon="34.8910388">
<ele>476.600006</ele>
<time>2015-10-30T10:17:53.000Z</time>
</trkpt>
<trkpt lat="30.9917432" lon="34.8910913">
<ele>474.399994</ele>
<time>2015-10-30T10:17:59.000Z</time>
</trkpt>
<trkpt lat="30.9916529" lon="34.8911409">
<ele>472.200012</ele>
<time>2015-10-30T10:18:04.000Z</time>
</trkpt>
<trkpt lat="30.9915494" lon="34.8911680">
<ele>470.000000</ele>
<time>2015-10-30T10:18:09.000Z</time>
</trkpt>
<trkpt lat="30.9914603" lon="34.8912119">
<ele>468.000000</ele>
<time>2015-10-30T10:18:13.000Z</time>
</trkpt>
<trkpt lat="30.9913790" lon="34.8912790">
<ele>466.799957</ele>
<time>2015-10-30T10:18:18.000Z</time>
</trkpt>
<trkpt lat="30.9912769" lon="34.8913161">
<ele>465.600006</ele>
<time>2015-10-30T10:19:55.000Z</time>
</trkpt>
<trkpt lat="30.9912077" lon="34.8913881">
<ele>465.000000</ele>
<time>2015-10-30T10:19:59.000Z</time>
</trkpt>
<trkpt lat="30.9911597" lon="34.8914942">
<ele>464.799988</ele>
<time>2015-10-30T10:20:03.000Z</time>
</trkpt>
<trkpt lat="30.9911159" lon="34.8916047">
<ele>465.000000</ele>
<time>2015-10-30T10:20:07.000Z</time>
</trkpt>
<trkpt lat="30.9910745" lon="34.8916977">
<ele>464.799988</ele>
<time>2015-10-30T10:20:11.000Z</time>
</trkpt>
<trkpt lat="30.9909637" lon="34.8916866">
<ele>463.200012</ele>
<time>2015-10-30T10:20:16.000Z</time>
</trkpt>
<trkpt lat="30.9908633" lon="34.8916907">
<ele>461.600006</ele>
<time>2015-10-30T10:20:20.000Z</time>
</trkpt>
<trkpt lat="30.9907543" lon="34.8916740">
<ele>459.799988</ele>
<time>2015-10-30T10:20:24.000Z</time>
</trkpt>
<trkpt lat="30.9906413" lon="34.8916778">
<ele>458.000000</ele>
<time>2015-10-30T10:20:28.000Z</time>
</trkpt>
<trkpt lat="30.9905338" lon="34.8916844">
<ele>456.799988</ele>
<time>2015-10-30T10:20:31.000Z</time>
</trkpt>
<trkpt lat="30.9904347" lon="34.8916598">
<ele>455.799988</ele>
<time>2015-10-30T10:20:34.000Z</time>
</trkpt>
<trkpt lat="30.9903633" lon="34.8915912">
<ele>454.799988</ele>
<time>2015-10-30T10:20:38.000Z</time>
</trkpt>
<trkpt lat="30.9902710" lon="34.8915305">
<ele>453.799988</ele>
<time>2015-10-30T10:20:43.000Z</time>
</trkpt>
<trkpt lat="30.9901907" lon="34.8914907">
<ele>453.000000</ele>
<time>2015-10-30T10:20:48.000Z</time>
</trkpt>
<trkpt lat="30.9901047" lon="34.8914850">
<ele>452.200012</ele>
<time>2015-10-30T10:20:55.000Z</time>
</trkpt>
<trkpt lat="30.9901736" lon="34.8915052">
<ele>452.799957</ele>
<time>2015-10-30T10:31:04.000Z</time>
</trkpt>
<trkpt lat="30.9902717" lon="34.8915278">
<ele>453.799988</ele>
<time>2015-10-30T10:31:18.000Z</time>
</trkpt>
<trkpt lat="30.9902922" lon="34.8914177">
<ele>453.399994</ele>
<time>2015-10-30T10:31:30.000Z</time>
</trkpt>
<trkpt lat="30.9902689" lon="34.8913105">
<ele>452.799957</ele>
<time>2015-10-30T10:31:35.000Z</time>
</trkpt>
<trkpt lat="30.9902522" lon="34.8911915">
<ele>452.200012</ele>
<time>2015-10-30T10:31:39.000Z</time>
</trkpt>
<trkpt lat="30.9901637" lon="34.8911356">
<ele>451.600006</ele>
<time>2015-10-30T10:31:44.000Z</time>
</trkpt>
<trkpt lat="30.9900559" lon="34.8911425">
<ele>450.600006</ele>
<time>2015-10-30T10:31:48.000Z</time>
</trkpt>
<trkpt lat="30.9899818" lon="34.8911187">
<ele>450.000000</ele>
<time>2015-10-30T10:32:27.000Z</time>
</trkpt>
<trkpt lat="30.9899195" lon="34.8910582">
<ele>449.600006</ele>
<time>2015-10-30T10:32:41.000Z</time>
</trkpt>
<trkpt lat="30.9898897" lon="34.8909525">
<ele>449.600006</ele>
<time>2015-10-30T10:33:06.000Z</time>
</trkpt>
<trkpt lat="30.9898453" lon="34.8908816">
<ele>449.200012</ele>
<time>2015-10-30T10:33:25.000Z</time>
</trkpt>
<trkpt lat="30.9898523" lon="34.8907670">
<ele>449.399994</ele>
<time>2015-10-30T10:33:41.000Z</time>
</trkpt>
<trkpt lat="30.9898700" lon="34.8906598">
<ele>449.800018</ele>
<time>2015-10-30T10:33:47.000Z</time>
</trkpt>
<trkpt lat="30.9898763" lon="34.8905372">
<ele>450.000000</ele>
<time>2015-10-30T10:33:54.000Z</time>
</trkpt>
<trkpt lat="30.9898826" lon="34.8904194">
<ele>450.600006</ele>
<time>2015-10-30T10:34:03.000Z</time>
</trkpt>
<trkpt lat="30.9898778" lon="34.8903073">
<ele>450.600006</ele>
<time>2015-10-30T10:34:11.000Z</time>
</trkpt>
<trkpt lat="30.9898652" lon="34.8902034">
<ele>450.399994</ele>
<time>2015-10-30T10:34:19.000Z</time>
</trkpt>
<trkpt lat="30.9898374" lon="34.8901044">
<ele>449.800018</ele>
<time>2015-10-30T10:34:27.000Z</time>
</trkpt>
<trkpt lat="30.9898043" lon="34.8899977">
<ele>449.200012</ele>
<time>2015-10-30T10:34:36.000Z</time>
</trkpt>
<trkpt lat="30.9897541" lon="34.8899072">
<ele>448.399994</ele>
<time>2015-10-30T10:34:44.000Z</time>
</trkpt>
<trkpt lat="30.9897070" lon="34.8898198">
<ele>449.600006</ele>
<time>2015-10-30T10:34:53.000Z</time>
</trkpt>
<trkpt lat="30.9896423" lon="34.8897395">
<ele>451.799988</ele>
<time>2015-10-30T10:35:02.000Z</time>
</trkpt>
<trkpt lat="30.9896010" lon="34.8896337">
<ele>453.000000</ele>
<time>2015-10-30T10:35:11.000Z</time>
</trkpt>
<trkpt lat="30.9895638" lon="34.8895459">
<ele>454.399994</ele>
<time>2015-10-30T10:35:19.000Z</time>
</trkpt>
<trkpt lat="30.9895026" lon="34.8894682">
<ele>457.200012</ele>
<time>2015-10-30T10:35:28.000Z</time>
</trkpt>
<trkpt lat="30.9894295" lon="34.8894053">
<ele>460.200012</ele>
<time>2015-10-30T10:35:43.000Z</time>
</trkpt>
<trkpt lat="30.9893552" lon="34.8893252">
<ele>463.600006</ele>
<time>2015-10-30T10:36:07.000Z</time>
</trkpt>
<trkpt lat="30.9892967" lon="34.8892516">
<ele>466.200012</ele>
<time>2015-10-30T10:36:21.000Z</time>
</trkpt>
<trkpt lat="30.9892176" lon="34.8891885">
<ele>469.399994</ele>
<time>2015-10-30T10:36:33.000Z</time>
</trkpt>
<trkpt lat="30.9891617" lon="34.8891027">
<ele>472.200012</ele>
<time>2015-10-30T10:36:44.000Z</time>
</trkpt>
<trkpt lat="30.9891552" lon="34.8889983">
<ele>473.399963</ele>
<time>2015-10-30T10:36:57.000Z</time>
</trkpt>
<trkpt lat="30.9891358" lon="34.8888923">
<ele>474.600006</ele>
<time>2015-10-30T10:37:22.000Z</time>
</trkpt>
<trkpt lat="30.9891137" lon="34.8888028">
<ele>475.799988</ele>
<time>2015-10-30T10:37:48.000Z</time>
</trkpt>
<trkpt lat="30.9890894" lon="34.8887021">
<ele>476.600006</ele>
<time>2015-10-30T10:38:14.000Z</time>
</trkpt>
<trkpt lat="30.9890491" lon="34.8886105">
<ele>477.600006</ele>
<time>2015-10-30T10:38:37.000Z</time>
</trkpt>
<trkpt lat="30.9890539" lon="34.8885079">
<ele>476.799988</ele>
<time>2015-10-30T10:38:55.000Z</time>
</trkpt>
<trkpt lat="30.9890359" lon="34.8884034">
<ele>476.600006</ele>
<time>2015-10-30T10:39:13.000Z</time>
</trkpt>
<trkpt lat="30.9889986" lon="34.8883164">
<ele>477.600006</ele>
<time>2015-10-30T10:39:31.000Z</time>
</trkpt>
<trkpt lat="30.9889655" lon="34.8882171">
<ele>478.200012</ele>
<time>2015-10-30T10:39:49.000Z</time>
</trkpt>
<trkpt lat="30.9888900" lon="34.8881594">
<ele>480.600037</ele>
<time>2015-10-30T10:40:06.000Z</time>
</trkpt>
<trkpt lat="30.9888306" lon="34.8880744">
<ele>481.799988</ele>
<time>2015-10-30T10:40:22.000Z</time>
</trkpt>
<trkpt lat="30.9887720" lon="34.8879956">
<ele>483.200012</ele>
<time>2015-10-30T10:40:37.000Z</time>
</trkpt>
<trkpt lat="30.9886983" lon="34.8879396">
<ele>485.000000</ele>
<time>2015-10-30T10:40:53.000Z</time>
</trkpt>
<trkpt lat="30.9886281" lon="34.8878775">
<ele>486.600006</ele>
<time>2015-10-30T10:41:09.000Z</time>
</trkpt>
<trkpt lat="30.9885600" lon="34.8878192">
<ele>487.799988</ele>
<time>2015-10-30T10:41:26.000Z</time>
</trkpt>
<trkpt lat="30.9884774" lon="34.8877586">
<ele>489.399994</ele>
<time>2015-10-30T10:41:42.000Z</time>
</trkpt>
<trkpt lat="30.9883982" lon="34.8877094">
<ele>491.200012</ele>
<time>2015-10-30T10:41:57.000Z</time>
</trkpt>
<trkpt lat="30.9883455" lon="34.8876195">
<ele>491.399994</ele>
<time>2015-10-30T10:42:21.000Z</time>
</trkpt>
<trkpt lat="30.9882929" lon="34.8875393">
<ele>491.799957</ele>
<time>2015-10-30T10:42:39.000Z</time>
</trkpt>
<trkpt lat="30.9882379" lon="34.8874648">
<ele>492.400024</ele>
<time>2015-10-30T10:42:58.000Z</time>
</trkpt>
<trkpt lat="30.9881855" lon="34.8873843">
<ele>492.799988</ele>
<time>2015-10-30T10:43:14.000Z</time>
</trkpt>
<trkpt lat="30.9881345" lon="34.8872886">
<ele>492.799988</ele>
<time>2015-10-30T10:43:30.000Z</time>
</trkpt>
<trkpt lat="30.9880831" lon="34.8872104">
<ele>493.200012</ele>
<time>2015-10-30T10:43:46.000Z</time>
</trkpt>
<trkpt lat="30.9880335" lon="34.8871503">
<ele>494.200012</ele>
<time>2015-10-30T10:44:05.000Z</time>
</trkpt>
<trkpt lat="30.9879603" lon="34.8870726">
<ele>496.000000</ele>
<time>2015-10-30T10:44:22.000Z</time>
</trkpt>
<trkpt lat="30.9878916" lon="34.8870090">
<ele>497.599976</ele>
<time>2015-10-30T10:44:38.000Z</time>
</trkpt>
<trkpt lat="30.9878353" lon="34.8869343">
<ele>498.799988</ele>
<time>2015-10-30T10:45:25.000Z</time>
</trkpt>
<trkpt lat="30.9877843" lon="34.8868694">
<ele>499.800018</ele>
<time>2015-10-30T10:45:54.000Z</time>
</trkpt>
<trkpt lat="30.9877146" lon="34.8868095">
<ele>501.600006</ele>
<time>2015-10-30T10:46:11.000Z</time>
</trkpt>
<trkpt lat="30.9876550" lon="34.8867359">
<ele>502.799957</ele>
<time>2015-10-30T10:46:28.000Z</time>
</trkpt>
<trkpt lat="30.9875636" lon="34.8866875">
<ele>505.600037</ele>
<time>2015-10-30T10:46:45.000Z</time>
</trkpt>
<trkpt lat="30.9874971" lon="34.8866181">
<ele>507.200012</ele>
<time>2015-10-30T10:47:05.000Z</time>
</trkpt>
<trkpt lat="30.9874160" lon="34.8865849">
<ele>509.799988</ele>
<time>2015-10-30T10:47:27.000Z</time>
</trkpt>
<trkpt lat="30.9873182" lon="34.8865836">
<ele>513.799988</ele>
<time>2015-10-30T10:47:40.000Z</time>
</trkpt>
<trkpt lat="30.9872306" lon="34.8865352">
<ele>516.400024</ele>
<time>2015-10-30T10:47:56.000Z</time>
</trkpt>
<trkpt lat="30.9871416" lon="34.8865123">
<ele>519.200012</ele>
<time>2015-10-30T10:48:13.000Z</time>
</trkpt>
<trkpt lat="30.9870728" lon="34.8864607">
<ele>520.799988</ele>
<time>2015-10-30T10:48:31.000Z</time>
</trkpt>
<trkpt lat="30.9870246" lon="34.8863757">
<ele>521.200012</ele>
<time>2015-10-30T10:48:45.000Z</time>
</trkpt>
<trkpt lat="30.9869488" lon="34.8863153">
<ele>523.000000</ele>
<time>2015-10-30T10:49:05.000Z</time>
</trkpt>
<trkpt lat="30.9868619" lon="34.8862790">
<ele>525.599976</ele>
<time>2015-10-30T10:49:29.000Z</time>
</trkpt>
<trkpt lat="30.9867690" lon="34.8863070">
<ele>529.400024</ele>
<time>2015-10-30T10:49:46.000Z</time>
</trkpt>
<trkpt lat="30.9867162" lon="34.8862879">
<ele>531.000000</ele>
<time>2015-10-30T10:50:07.000Z</time>
</trkpt>
<trkpt lat="30.9866647" lon="34.8862142">
<ele>531.599976</ele>
<time>2015-10-30T10:50:23.000Z</time>
</trkpt>
<trkpt lat="30.9865740" lon="34.8861771">
<ele>533.799988</ele>
<time>2015-10-30T10:50:38.000Z</time>
</trkpt>
<trkpt lat="30.9865040" lon="34.8861127">
<ele>534.799988</ele>
<time>2015-10-30T10:50:53.000Z</time>
</trkpt>
<trkpt lat="30.9864441" lon="34.8860642">
<ele>535.799988</ele>
<time>2015-10-30T10:54:33.000Z</time>
</trkpt>
<trkpt lat="30.9863788" lon="34.8860013">
<ele>535.799988</ele>
<time>2015-10-30T10:54:50.000Z</time>
</trkpt>
<trkpt lat="30.9862924" lon="34.8859670">
<ele>536.599976</ele>
<time>2015-10-30T10:55:09.000Z</time>
</trkpt>
<trkpt lat="30.9861969" lon="34.8859307">
<ele>537.599976</ele>
<time>2015-10-30T10:55:25.000Z</time>
</trkpt>
<trkpt lat="30.9861096" lon="34.8858850">
<ele>538.200012</ele>
<time>2015-10-30T10:55:33.000Z</time>
</trkpt>
<trkpt lat="30.9860293" lon="34.8858124">
<ele>537.799988</ele>
<time>2015-10-30T10:55:40.000Z</time>
</trkpt>
<trkpt lat="30.9859554" lon="34.8857283">
<ele>537.200012</ele>
<time>2015-10-30T10:55:47.000Z</time>
</trkpt>
<trkpt lat="30.9858969" lon="34.8856507">
<ele>536.400024</ele>
<time>2015-10-30T10:55:52.000Z</time>
</trkpt>
<trkpt lat="30.9858320" lon="34.8855715">
<ele>535.599976</ele>
<time>2015-10-30T10:55:55.000Z</time>
</trkpt>
<trkpt lat="30.9857575" lon="34.8854807">
<ele>534.799988</ele>
<time>2015-10-30T10:55:59.000Z</time>
</trkpt>
<trkpt lat="30.9856804" lon="34.8854190">
<ele>534.599976</ele>
<time>2015-10-30T10:56:04.000Z</time>
</trkpt>
<trkpt lat="30.9856513" lon="34.8853786">
<ele>534.400024</ele>
<time>2015-10-30T10:57:34.000Z</time>
</trkpt>
<trkpt lat="30.9855698" lon="34.8853095">
<ele>535.000000</ele>
<time>2015-10-30T10:57:41.000Z</time>
</trkpt>
<trkpt lat="30.9854927" lon="34.8852526">
<ele>535.400024</ele>
<time>2015-10-30T10:57:52.000Z</time>
</trkpt>
<trkpt lat="30.9854283" lon="34.8851742">
<ele>535.400024</ele>
<time>2015-10-30T10:58:01.000Z</time>
</trkpt>
<trkpt lat="30.9853395" lon="34.8851056">
<ele>536.000000</ele>
<time>2015-10-30T10:58:08.000Z</time>
</trkpt>
<trkpt lat="30.9852808" lon="34.8850447">
<ele>536.000000</ele>
<time>2015-10-30T10:58:21.000Z</time>
</trkpt>
<trkpt lat="30.9851971" lon="34.8849733">
<ele>536.400024</ele>
<time>2015-10-30T10:58:33.000Z</time>
</trkpt>
<trkpt lat="30.9851223" lon="34.8849030">
<ele>536.599976</ele>
<time>2015-10-30T10:58:39.000Z</time>
</trkpt>
<trkpt lat="30.9850339" lon="34.8848369">
<ele>537.200012</ele>
<time>2015-10-30T10:58:45.000Z</time>
</trkpt>
<trkpt lat="30.9849436" lon="34.8848073">
<ele>537.599976</ele>
<time>2015-10-30T10:58:51.000Z</time>
</trkpt>
<trkpt lat="30.9848431" lon="34.8848003">
<ele>538.200012</ele>
<time>2015-10-30T10:58:58.000Z</time>
</trkpt>
<trkpt lat="30.9847423" lon="34.8847756">
<ele>538.799988</ele>
<time>2015-10-30T10:59:05.000Z</time>
</trkpt>
<trkpt lat="30.9846555" lon="34.8847457">
<ele>539.000000</ele>
<time>2015-10-30T10:59:12.000Z</time>
</trkpt>
<trkpt lat="30.9845692" lon="34.8847558">
<ele>539.599976</ele>
<time>2015-10-30T10:59:20.000Z</time>
</trkpt>
<trkpt lat="30.9844815" lon="34.8847316">
<ele>539.799988</ele>
<time>2015-10-30T10:59:28.000Z</time>
</trkpt>
<trkpt lat="30.9843975" lon="34.8846952">
<ele>540.200012</ele>
<time>2015-10-30T10:59:34.000Z</time>
</trkpt>
<trkpt lat="30.9843181" lon="34.8846324">
<ele>540.400024</ele>
<time>2015-10-30T10:59:41.000Z</time>
</trkpt>
<trkpt lat="30.9842337" lon="34.8846077">
<ele>540.599976</ele>
<time>2015-10-30T11:00:00.000Z</time>
</trkpt>
<trkpt lat="30.9841463" lon="34.8845860">
<ele>541.000000</ele>
<time>2015-10-30T11:00:12.000Z</time>
</trkpt>
<trkpt lat="30.9840551" lon="34.8845795">
<ele>541.400024</ele>
<time>2015-10-30T11:00:25.000Z</time>
</trkpt>
<trkpt lat="30.9839879" lon="34.8845255">
<ele>541.400024</ele>
<time>2015-10-30T11:00:37.000Z</time>
</trkpt>
<trkpt lat="30.9839062" lon="34.8845193">
<ele>541.799988</ele>
<time>2015-10-30T11:00:51.000Z</time>
</trkpt>
<trkpt lat="30.9838219" lon="34.8844948">
<ele>542.799988</ele>
<time>2015-10-30T11:01:04.000Z</time>
</trkpt>
<trkpt lat="30.9837179" lon="34.8844647">
<ele>543.599976</ele>
<time>2015-10-30T11:01:09.000Z</time>
</trkpt>
<trkpt lat="30.9836151" lon="34.8844220">
<ele>544.400024</ele>
<time>2015-10-30T11:01:13.000Z</time>
</trkpt>
<trkpt lat="30.9835108" lon="34.8844016">
<ele>545.200012</ele>
<time>2015-10-30T11:01:17.000Z</time>
</trkpt>
<trkpt lat="30.9834275" lon="34.8843673">
<ele>546.000000</ele>
<time>2015-10-30T11:01:24.000Z</time>
</trkpt>
<trkpt lat="30.9833400" lon="34.8843267">
<ele>546.799988</ele>
<time>2015-10-30T11:01:33.000Z</time>
</trkpt>
<trkpt lat="30.9832523" lon="34.8842994">
<ele>547.400024</ele>
<time>2015-10-30T11:01:37.000Z</time>
</trkpt>
<trkpt lat="30.9831557" lon="34.8842675">
<ele>548.200012</ele>
<time>2015-10-30T11:01:40.000Z</time>
</trkpt>
<trkpt lat="30.9830444" lon="34.8842339">
<ele>549.000000</ele>
<time>2015-10-30T11:01:44.000Z</time>
</trkpt>
<trkpt lat="30.9829439" lon="34.8842199">
<ele>550.000000</ele>
<time>2015-10-30T11:01:48.000Z</time>
</trkpt>
<trkpt lat="30.9828387" lon="34.8841992">
<ele>551.000000</ele>
<time>2015-10-30T11:01:54.000Z</time>
</trkpt>
<trkpt lat="30.9827447" lon="34.8841489">
<ele>551.799988</ele>
<time>2015-10-30T11:01:59.000Z</time>
</trkpt>
<trkpt lat="30.9826524" lon="34.8841243">
<ele>552.599976</ele>
<time>2015-10-30T11:02:05.000Z</time>
</trkpt>
<trkpt lat="30.9825896" lon="34.8840392">
<ele>553.400024</ele>
<time>2015-10-30T11:02:11.000Z</time>
</trkpt>
<trkpt lat="30.9824912" lon="34.8840466">
<ele>554.000000</ele>
<time>2015-10-30T11:02:17.000Z</time>
</trkpt>
<trkpt lat="30.9823932" lon="34.8840680">
<ele>554.200012</ele>
<time>2015-10-30T11:02:38.000Z</time>
</trkpt>
<trkpt lat="30.9823092" lon="34.8839966">
<ele>555.200012</ele>
<time>2015-10-30T11:02:50.000Z</time>
</trkpt>
<trkpt lat="30.9822526" lon="34.8839199">
<ele>555.799988</ele>
<time>2015-10-30T11:03:01.000Z</time>
</trkpt>
<trkpt lat="30.9821571" lon="34.8838723">
<ele>556.200012</ele>
<time>2015-10-30T11:03:12.000Z</time>
</trkpt>
<trkpt lat="30.9820879" lon="34.8837935">
<ele>556.599976</ele>
<time>2015-10-30T11:03:23.000Z</time>
</trkpt>
<trkpt lat="30.9820350" lon="34.8837076">
<ele>557.200012</ele>
<time>2015-10-30T11:03:32.000Z</time>
</trkpt>
<trkpt lat="30.9819650" lon="34.8836363">
<ele>558.000000</ele>
<time>2015-10-30T11:03:42.000Z</time>
</trkpt>
<trkpt lat="30.9818942" lon="34.8835713">
<ele>558.799988</ele>
<time>2015-10-30T11:03:52.000Z</time>
</trkpt>
<trkpt lat="30.9818149" lon="34.8835124">
<ele>559.400024</ele>
<time>2015-10-30T11:04:04.000Z</time>
</trkpt>
<trkpt lat="30.9817392" lon="34.8834548">
<ele>560.000000</ele>
<time>2015-10-30T11:04:16.000Z</time>
</trkpt>
<trkpt lat="30.9816535" lon="34.8834434">
<ele>560.200012</ele>
<time>2015-10-30T11:04:31.000Z</time>
</trkpt>
<trkpt lat="30.9815677" lon="34.8833920">
<ele>560.599976</ele>
<time>2015-10-30T11:04:44.000Z</time>
</trkpt>
<trkpt lat="30.9815238" lon="34.8833061">
<ele>561.599976</ele>
<time>2015-10-30T11:04:55.000Z</time>
</trkpt>
<trkpt lat="30.9814752" lon="34.8832417">
<ele>562.200012</ele>
<time>2015-10-30T11:05:21.000Z</time>
</trkpt>
<trkpt lat="30.9814306" lon="34.8831461">
<ele>563.400024</ele>
<time>2015-10-30T11:05:31.000Z</time>
</trkpt>
<trkpt lat="30.9813351" lon="34.8831110">
<ele>563.599976</ele>
<time>2015-10-30T11:05:42.000Z</time>
</trkpt>
<trkpt lat="30.9812485" lon="34.8830532">
<ele>564.400024</ele>
<time>2015-10-30T11:05:53.000Z</time>
</trkpt>
<trkpt lat="30.9811564" lon="34.8830020">
<ele>564.799988</ele>
<time>2015-10-30T11:06:04.000Z</time>
</trkpt>
<trkpt lat="30.9810705" lon="34.8829678">
<ele>565.200012</ele>
<time>2015-10-30T11:06:16.000Z</time>
</trkpt>
<trkpt lat="30.9809807" lon="34.8829876">
<ele>565.000000</ele>
<time>2015-10-30T11:06:27.000Z</time>
</trkpt>
<trkpt lat="30.9808912" lon="34.8829461">
<ele>565.400024</ele>
<time>2015-10-30T11:06:39.000Z</time>
</trkpt>
<trkpt lat="30.9808006" lon="34.8829418">
<ele>565.599976</ele>
<time>2015-10-30T11:06:51.000Z</time>
</trkpt>
<trkpt lat="30.9807635" lon="34.8828524">
<ele>566.200012</ele>
<time>2015-10-30T11:07:02.000Z</time>
</trkpt>
<trkpt lat="30.9806795" lon="34.8828104">
<ele>566.400024</ele>
<time>2015-10-30T11:07:12.000Z</time>
</trkpt>
<trkpt lat="30.9805909" lon="34.8827678">
<ele>566.599976</ele>
<time>2015-10-30T11:07:22.000Z</time>
</trkpt>
<trkpt lat="30.9805244" lon="34.8827197">
<ele>567.200012</ele>
<time>2015-10-30T11:07:35.000Z</time>
</trkpt>
<trkpt lat="30.9804621" lon="34.8826739">
<ele>567.599976</ele>
<time>2015-10-30T11:07:45.000Z</time>
</trkpt>
<trkpt lat="30.9803765" lon="34.8826946">
<ele>568.000000</ele>
<time>2015-10-30T11:07:57.000Z</time>
</trkpt>
<trkpt lat="30.9802811" lon="34.8826772">
<ele>568.599976</ele>
<time>2015-10-30T11:08:09.000Z</time>
</trkpt>
<trkpt lat="30.9801901" lon="34.8826269">
<ele>569.400024</ele>
<time>2015-10-30T11:08:20.000Z</time>
</trkpt>
<trkpt lat="30.9801048" lon="34.8825982">
<ele>570.200012</ele>
<time>2015-10-30T11:08:31.000Z</time>
</trkpt>
<trkpt lat="30.9800173" lon="34.8825778">
<ele>570.799988</ele>
<time>2015-10-30T11:08:42.000Z</time>
</trkpt>
<trkpt lat="30.9799354" lon="34.8825286">
<ele>571.599976</ele>
<time>2015-10-30T11:08:53.000Z</time>
</trkpt>
<trkpt lat="30.9798528" lon="34.8824867">
<ele>572.200012</ele>
<time>2015-10-30T11:09:05.000Z</time>
</trkpt>
<trkpt lat="30.9797770" lon="34.8825096">
<ele>572.799988</ele>
<time>2015-10-30T11:09:17.000Z</time>
</trkpt>
<trkpt lat="30.9796859" lon="34.8825060">
<ele>573.000000</ele>
<time>2015-10-30T11:09:28.000Z</time>
</trkpt>
<trkpt lat="30.9796088" lon="34.8824696">
<ele>573.400024</ele>
<time>2015-10-30T11:09:40.000Z</time>
</trkpt>
<trkpt lat="30.9795371" lon="34.8824072">
<ele>573.599976</ele>
<time>2015-10-30T11:09:52.000Z</time>
</trkpt>
<trkpt lat="30.9794514" lon="34.8823529">
<ele>574.000000</ele>
<time>2015-10-30T11:10:03.000Z</time>
</trkpt>
<trkpt lat="30.9793700" lon="34.8822982">
<ele>574.400024</ele>
<time>2015-10-30T11:10:14.000Z</time>
</trkpt>
<trkpt lat="30.9792752" lon="34.8823076">
<ele>574.599976</ele>
<time>2015-10-30T11:10:26.000Z</time>
</trkpt>
<trkpt lat="30.9791856" lon="34.8822772">
<ele>574.799988</ele>
<time>2015-10-30T11:10:37.000Z</time>
</trkpt>
<trkpt lat="30.9790952" lon="34.8822396">
<ele>575.200012</ele>
<time>2015-10-30T11:10:48.000Z</time>
</trkpt>
<trkpt lat="30.9790124" lon="34.8821825">
<ele>575.599976</ele>
<time>2015-10-30T11:10:59.000Z</time>
</trkpt>
<trkpt lat="30.9789418" lon="34.8821200">
<ele>576.000000</ele>
<time>2015-10-30T11:11:11.000Z</time>
</trkpt>
<trkpt lat="30.9788452" lon="34.8821230">
<ele>576.400024</ele>
<time>2015-10-30T11:11:23.000Z</time>
</trkpt>
<trkpt lat="30.9787450" lon="34.8821151">
<ele>577.000000</ele>
<time>2015-10-30T11:11:34.000Z</time>
</trkpt>
<trkpt lat="30.9786598" lon="34.8820854">
<ele>577.200012</ele>
<time>2015-10-30T11:11:45.000Z</time>
</trkpt>
<trkpt lat="30.9785728" lon="34.8820702">
<ele>577.599976</ele>
<time>2015-10-30T11:11:56.000Z</time>
</trkpt>
<trkpt lat="30.9784971" lon="34.8820095">
<ele>578.000000</ele>
<time>2015-10-30T11:12:06.000Z</time>
</trkpt>
<trkpt lat="30.9784065" lon="34.8819891">
<ele>578.599976</ele>
<time>2015-10-30T11:12:17.000Z</time>
</trkpt>
<trkpt lat="30.9783133" lon="34.8819932">
<ele>579.000000</ele>
<time>2015-10-30T11:12:28.000Z</time>
</trkpt>
<trkpt lat="30.9782246" lon="34.8819731">
<ele>579.400024</ele>
<time>2015-10-30T11:12:38.000Z</time>
</trkpt>
<trkpt lat="30.9781480" lon="34.8819194">
<ele>579.799988</ele>
<time>2015-10-30T11:12:48.000Z</time>
</trkpt>
<trkpt lat="30.9780801" lon="34.8818570">
<ele>580.200012</ele>
<time>2015-10-30T11:13:01.000Z</time>
</trkpt>
<trkpt lat="30.9780103" lon="34.8818038">
<ele>580.599976</ele>
<time>2015-10-30T11:13:12.000Z</time>
</trkpt>
<trkpt lat="30.9779237" lon="34.8817557">
<ele>581.200012</ele>
<time>2015-10-30T11:13:24.000Z</time>
</trkpt>
<trkpt lat="30.9778318" lon="34.8817009">
<ele>581.599976</ele>
<time>2015-10-30T11:13:36.000Z</time>
</trkpt>
<trkpt lat="30.9777335" lon="34.8816835">
<ele>582.200012</ele>
<time>2015-10-30T11:13:47.000Z</time>
</trkpt>
<trkpt lat="30.9776423" lon="34.8816701">
<ele>582.799988</ele>
<time>2015-10-30T11:13:57.000Z</time>
</trkpt>
<trkpt lat="30.9775502" lon="34.8816429">
<ele>583.599976</ele>
<time>2015-10-30T11:14:08.000Z</time>
</trkpt>
<trkpt lat="30.9774504" lon="34.8816227">
<ele>584.599976</ele>
<time>2015-10-30T11:14:19.000Z</time>
</trkpt>
<trkpt lat="30.9773578" lon="34.8816030">
<ele>585.599976</ele>
<time>2015-10-30T11:14:30.000Z</time>
</trkpt>
<trkpt lat="30.9772702" lon="34.8815615">
<ele>586.400024</ele>
<time>2015-10-30T11:14:42.000Z</time>
</trkpt>
<trkpt lat="30.9772199" lon="34.8814822">
<ele>586.400024</ele>
<time>2015-10-30T11:14:53.000Z</time>
</trkpt>
<trkpt lat="30.9771296" lon="34.8814448">
<ele>587.200012</ele>
<time>2015-10-30T11:15:26.000Z</time>
</trkpt>
<trkpt lat="30.9770379" lon="34.8814282">
<ele>588.200012</ele>
<time>2015-10-30T11:15:36.000Z</time>
</trkpt>
<trkpt lat="30.9769628" lon="34.8813681">
<ele>588.799988</ele>
<time>2015-10-30T11:15:46.000Z</time>
</trkpt>
<trkpt lat="30.9769051" lon="34.8812850">
<ele>589.000000</ele>
<time>2015-10-30T11:15:56.000Z</time>
</trkpt>
<trkpt lat="30.9768265" lon="34.8812263">
<ele>589.599976</ele>
<time>2015-10-30T11:16:08.000Z</time>
</trkpt>
<trkpt lat="30.9767452" lon="34.8811695">
<ele>590.599976</ele>
<time>2015-10-30T11:16:20.000Z</time>
</trkpt>
<trkpt lat="30.9766781" lon="34.8810924">
<ele>591.400024</ele>
<time>2015-10-30T11:16:31.000Z</time>
</trkpt>
<trkpt lat="30.9766358" lon="34.8809968">
<ele>592.200012</ele>
<time>2015-10-30T11:16:42.000Z</time>
</trkpt>
<trkpt lat="30.9765703" lon="34.8809269">
<ele>593.000000</ele>
<time>2015-10-30T11:16:53.000Z</time>
</trkpt>
<trkpt lat="30.9765161" lon="34.8808405">
<ele>593.799988</ele>
<time>2015-10-30T11:17:02.000Z</time>
</trkpt>
<trkpt lat="30.9764676" lon="34.8807579">
<ele>594.599976</ele>
<time>2015-10-30T11:17:13.000Z</time>
</trkpt>
<trkpt lat="30.9764315" lon="34.8806695">
<ele>595.200012</ele>
<time>2015-10-30T11:17:24.000Z</time>
</trkpt>
<trkpt lat="30.9763857" lon="34.8805813">
<ele>595.599976</ele>
<time>2015-10-30T11:17:35.000Z</time>
</trkpt>
<trkpt lat="30.9763369" lon="34.8805005">
<ele>595.799988</ele>
<time>2015-10-30T11:17:45.000Z</time>
</trkpt>
<trkpt lat="30.9762959" lon="34.8804088">
<ele>596.200012</ele>
<time>2015-10-30T11:17:56.000Z</time>
</trkpt>
<trkpt lat="30.9762712" lon="34.8803010">
<ele>598.000000</ele>
<time>2015-10-30T11:18:07.000Z</time>
</trkpt>
<trkpt lat="30.9762300" lon="34.8801993">
<ele>600.000000</ele>
<time>2015-10-30T11:18:21.000Z</time>
</trkpt>
<trkpt lat="30.9762053" lon="34.8800860">
<ele>602.000000</ele>
<time>2015-10-30T11:18:33.000Z</time>
</trkpt>
<trkpt lat="30.9761779" lon="34.8799796">
<ele>604.000000</ele>
<time>2015-10-30T11:18:49.000Z</time>
</trkpt>
<trkpt lat="30.9761542" lon="34.8798746">
<ele>606.000000</ele>
<time>2015-10-30T11:19:04.000Z</time>
</trkpt>
<trkpt lat="30.9761117" lon="34.8797735">
<ele>608.000000</ele>
<time>2015-10-30T11:19:17.000Z</time>
</trkpt>
<trkpt lat="30.9761115" lon="34.8796728">
<ele>609.799988</ele>
<time>2015-10-30T11:19:29.000Z</time>
</trkpt>
<trkpt lat="30.9760911" lon="34.8795605">
<ele>611.799988</ele>
<time>2015-10-30T11:19:44.000Z</time>
</trkpt>
<trkpt lat="30.9760651" lon="34.8794641">
<ele>612.599976</ele>
<time>2015-10-30T11:19:57.000Z</time>
</trkpt>
<trkpt lat="30.9760210" lon="34.8793810">
<ele>613.400024</ele>
<time>2015-10-30T11:20:11.000Z</time>
</trkpt>
<trkpt lat="30.9759904" lon="34.8792798">
<ele>614.400024</ele>
<time>2015-10-30T11:20:24.000Z</time>
</trkpt>
<trkpt lat="30.9759780" lon="34.8791678">
<ele>615.400024</ele>
<time>2015-10-30T11:20:37.000Z</time>
</trkpt>
<trkpt lat="30.9759661" lon="34.8790487">
<ele>616.000000</ele>
<time>2015-10-30T11:20:51.000Z</time>
</trkpt>
<trkpt lat="30.9759638" lon="34.8789409">
<ele>616.400024</ele>
<time>2015-10-30T11:21:03.000Z</time>
</trkpt>
<trkpt lat="30.9759569" lon="34.8788226">
<ele>617.000000</ele>
<time>2015-10-30T11:21:43.000Z</time>
</trkpt>
<trkpt lat="30.9759242" lon="34.8787194">
<ele>617.599976</ele>
<time>2015-10-30T11:21:49.000Z</time>
</trkpt>
<trkpt lat="30.9758809" lon="34.8786152">
<ele>617.799988</ele>
<time>2015-10-30T11:21:55.000Z</time>
</trkpt>
<trkpt lat="30.9758189" lon="34.8785208">
<ele>618.200012</ele>
<time>2015-10-30T11:22:00.000Z</time>
</trkpt>
<trkpt lat="30.9757502" lon="34.8784345">
<ele>618.799988</ele>
<time>2015-10-30T11:22:05.000Z</time>
</trkpt>
<trkpt lat="30.9756693" lon="34.8783556">
<ele>619.400024</ele>
<time>2015-10-30T11:22:11.000Z</time>
</trkpt>
<trkpt lat="30.9755938" lon="34.8782843">
<ele>619.799988</ele>
<time>2015-10-30T11:22:16.000Z</time>
</trkpt>
<trkpt lat="30.9755345" lon="34.8781909">
<ele>620.200012</ele>
<time>2015-10-30T11:22:21.000Z</time>
</trkpt>
<trkpt lat="30.9754776" lon="34.8780870">
<ele>620.200012</ele>
<time>2015-10-30T11:22:26.000Z</time>
</trkpt>
<trkpt lat="30.9754160" lon="34.8779935">
<ele>620.400024</ele>
<time>2015-10-30T11:22:31.000Z</time>
</trkpt>
<trkpt lat="30.9753692" lon="34.8778782">
<ele>620.599976</ele>
<time>2015-10-30T11:22:36.000Z</time>
</trkpt>
<trkpt lat="30.9752950" lon="34.8777879">
<ele>620.599976</ele>
<time>2015-10-30T11:22:41.000Z</time>
</trkpt>
<trkpt lat="30.9752575" lon="34.8776903">
<ele>620.799988</ele>
<time>2015-10-30T11:22:45.000Z</time>
</trkpt>
<trkpt lat="30.9752148" lon="34.8775743">
<ele>620.799988</ele>
<time>2015-10-30T11:22:50.000Z</time>
</trkpt>
<trkpt lat="30.9751784" lon="34.8774596">
<ele>621.000000</ele>
<time>2015-10-30T11:22:55.000Z</time>
</trkpt>
<trkpt lat="30.9751380" lon="34.8773423">
<ele>621.000000</ele>
<time>2015-10-30T11:23:00.000Z</time>
</trkpt>
<trkpt lat="30.9751368" lon="34.8772172">
<ele>620.799988</ele>
<time>2015-10-30T11:23:04.000Z</time>
</trkpt>
<trkpt lat="30.9751196" lon="34.8770777">
<ele>620.599976</ele>
<time>2015-10-30T11:23:08.000Z</time>
</trkpt>
<trkpt lat="30.9751086" lon="34.8769517">
<ele>620.400024</ele>
<time>2015-10-30T11:23:11.000Z</time>
</trkpt>
<trkpt lat="30.9750985" lon="34.8768087">
<ele>620.200012</ele>
<time>2015-10-30T11:23:14.000Z</time>
</trkpt>
<trkpt lat="30.9750871" lon="34.8766580">
<ele>619.799988</ele>
<time>2015-10-30T11:23:17.000Z</time>
</trkpt>
<trkpt lat="30.9750787" lon="34.8765536">
<ele>619.599976</ele>
<time>2015-10-30T11:23:19.000Z</time>
</trkpt>
<trkpt lat="30.9750635" lon="34.8764148">
<ele>619.400024</ele>
<time>2015-10-30T11:23:22.000Z</time>
</trkpt>
<trkpt lat="30.9750523" lon="34.8762768">
<ele>619.000000</ele>
<time>2015-10-30T11:23:26.000Z</time>
</trkpt>
<trkpt lat="30.9750412" lon="34.8761933">
<ele>618.799988</ele>
<time>2015-10-30T11:23:28.000Z</time>
</trkpt>
<trkpt lat="30.9750204" lon="34.8760758">
<ele>618.000000</ele>
<time>2015-10-30T11:23:31.000Z</time>
</trkpt>
<trkpt lat="30.9749976" lon="34.8759616">
<ele>617.400024</ele>
<time>2015-10-30T11:23:34.000Z</time>
</trkpt>
<trkpt lat="30.9749575" lon="34.8758670">
<ele>617.000000</ele>
<time>2015-10-30T11:23:37.000Z</time>
</trkpt>
<trkpt lat="30.9748897" lon="34.8757713">
<ele>616.799988</ele>
<time>2015-10-30T11:23:42.000Z</time>
</trkpt>
<trkpt lat="30.9748320" lon="34.8756656">
<ele>616.400024</ele>
<time>2015-10-30T11:23:48.000Z</time>
</trkpt>
<trkpt lat="30.9747693" lon="34.8755837">
<ele>616.000000</ele>
<time>2015-10-30T11:23:54.000Z</time>
</trkpt>
<trkpt lat="30.9746654" lon="34.8755486">
<ele>616.000000</ele>
<time>2015-10-30T11:24:00.000Z</time>
</trkpt>
<trkpt lat="30.9745559" lon="34.8755375">
<ele>615.799988</ele>
<time>2015-10-30T11:24:05.000Z</time>
</trkpt>
<trkpt lat="30.9744647" lon="34.8755748">
<ele>616.000000</ele>
<time>2015-10-30T11:24:09.000Z</time>
</trkpt>
<trkpt lat="30.9743544" lon="34.8755814">
<ele>616.200012</ele>
<time>2015-10-30T11:24:14.000Z</time>
</trkpt>
<trkpt lat="30.9742602" lon="34.8755708">
<ele>616.000000</ele>
<time>2015-10-30T11:24:17.000Z</time>
</trkpt>
<trkpt lat="30.9741567" lon="34.8755815">
<ele>616.200012</ele>
<time>2015-10-30T11:24:20.000Z</time>
</trkpt>
<trkpt lat="30.9740583" lon="34.8755978">
<ele>616.200012</ele>
<time>2015-10-30T11:24:23.000Z</time>
</trkpt>
<trkpt lat="30.9739573" lon="34.8756079">
<ele>616.400024</ele>
<time>2015-10-30T11:24:26.000Z</time>
</trkpt>
<trkpt lat="30.9738371" lon="34.8756140">
<ele>617.200012</ele>
<time>2015-10-30T11:24:29.000Z</time>
</trkpt>
<trkpt lat="30.9737076" lon="34.8756250">
<ele>618.200012</ele>
<time>2015-10-30T11:24:32.000Z</time>
</trkpt>
<trkpt lat="30.9735903" lon="34.8756619">
<ele>619.200012</ele>
<time>2015-10-30T11:24:35.000Z</time>
</trkpt>
<trkpt lat="30.9734829" lon="34.8756784">
<ele>620.200012</ele>
<time>2015-10-30T11:24:38.000Z</time>
</trkpt>
<trkpt lat="30.9733738" lon="34.8756894">
<ele>621.000000</ele>
<time>2015-10-30T11:24:41.000Z</time>
</trkpt>
<trkpt lat="30.9732569" lon="34.8756828">
<ele>621.000000</ele>
<time>2015-10-30T11:24:44.000Z</time>
</trkpt>
<trkpt lat="30.9731394" lon="34.8756729">
<ele>621.000000</ele>
<time>2015-10-30T11:24:47.000Z</time>
</trkpt>
<trkpt lat="30.9730286" lon="34.8756758">
<ele>621.799988</ele>
<time>2015-10-30T11:24:50.000Z</time>
</trkpt>
<trkpt lat="30.9729114" lon="34.8756656">
<ele>623.599976</ele>
<time>2015-10-30T11:24:54.000Z</time>
</trkpt>
<trkpt lat="30.9728188" lon="34.8756649">
<ele>625.000000</ele>
<time>2015-10-30T11:24:57.000Z</time>
</trkpt>
<trkpt lat="30.9727299" lon="34.8756917">
<ele>626.400024</ele>
<time>2015-10-30T11:25:00.000Z</time>
</trkpt>
<trkpt lat="30.9726303" lon="34.8757324">
<ele>628.000000</ele>
<time>2015-10-30T11:25:04.000Z</time>
</trkpt>
<trkpt lat="30.9725467" lon="34.8757815">
<ele>628.000000</ele>
<time>2015-10-30T11:25:08.000Z</time>
</trkpt>
<trkpt lat="30.9724595" lon="34.8758347">
<ele>627.200012</ele>
<time>2015-10-30T11:25:12.000Z</time>
</trkpt>
<trkpt lat="30.9723758" lon="34.8758784">
<ele>626.400024</ele>
<time>2015-10-30T11:25:16.000Z</time>
</trkpt>
<trkpt lat="30.9722793" lon="34.8759307">
<ele>625.599976</ele>
<time>2015-10-30T11:25:20.000Z</time>
</trkpt>
<trkpt lat="30.9721781" lon="34.8759875">
<ele>625.400024</ele>
<time>2015-10-30T11:25:24.000Z</time>
</trkpt>
<trkpt lat="30.9720754" lon="34.8760421">
<ele>625.400024</ele>
<time>2015-10-30T11:25:28.000Z</time>
</trkpt>
<trkpt lat="30.9719866" lon="34.8760894">
<ele>625.999939</ele>
<time>2015-10-30T11:25:33.000Z</time>
</trkpt>
<trkpt lat="30.9719023" lon="34.8761329">
<ele>626.799988</ele>
<time>2015-10-30T11:25:39.000Z</time>
</trkpt>
<trkpt lat="30.9718552" lon="34.8762245">
<ele>626.599976</ele>
<time>2015-10-30T11:25:47.000Z</time>
</trkpt>
<trkpt lat="30.9718452" lon="34.8763296">
<ele>625.599976</ele>
<time>2015-10-30T11:25:55.000Z</time>
</trkpt>
<trkpt lat="30.9718553" lon="34.8764394">
<ele>624.000000</ele>
<time>2015-10-30T11:26:02.000Z</time>
</trkpt>
<trkpt lat="30.9719282" lon="34.8764712">
<ele>622.599976</ele>
<time>2015-10-30T11:29:38.000Z</time>
</trkpt>
<trkpt lat="30.9719225" lon="34.8765833">
<ele>621.400024</ele>
<time>2015-10-30T11:34:08.000Z</time>
</trkpt>
<trkpt lat="30.9719330" lon="34.8767001">
<ele>619.799988</ele>
<time>2015-10-30T11:34:16.000Z</time>
</trkpt>
<trkpt lat="30.9719198" lon="34.8768190">
<ele>618.599976</ele>
<time>2015-10-30T11:34:22.000Z</time>
</trkpt>
<trkpt lat="30.9719221" lon="34.8769196">
<ele>617.400024</ele>
<time>2015-10-30T11:34:32.000Z</time>
</trkpt>
<trkpt lat="30.9719129" lon="34.8770366">
<ele>616.200012</ele>
<time>2015-10-30T11:34:44.000Z</time>
</trkpt>
<trkpt lat="30.9718866" lon="34.8771441">
<ele>615.000000</ele>
<time>2015-10-30T11:34:57.000Z</time>
</trkpt>
<trkpt lat="30.9718907" lon="34.8772480">
<ele>613.400024</ele>
<time>2015-10-30T11:35:17.000Z</time>
</trkpt>
<trkpt lat="30.9719919" lon="34.8772781">
<ele>611.599976</ele>
<time>2015-10-30T11:35:45.000Z</time>
</trkpt>
<trkpt lat="30.9720666" lon="34.8773039">
<ele>610.200012</ele>
<time>2015-10-30T11:36:05.000Z</time>
</trkpt>
<trkpt lat="30.9721533" lon="34.8773505">
<ele>608.200012</ele>
<time>2015-10-30T11:36:23.000Z</time>
</trkpt>
<trkpt lat="30.9722147" lon="34.8773938">
<ele>606.599976</ele>
<time>2015-10-30T11:36:40.000Z</time>
</trkpt>
<trkpt lat="30.9722995" lon="34.8774189">
<ele>606.400024</ele>
<time>2015-10-30T11:36:53.000Z</time>
</trkpt>
<trkpt lat="30.9723829" lon="34.8774641">
<ele>606.400024</ele>
<time>2015-10-30T11:37:08.000Z</time>
</trkpt>
<trkpt lat="30.9724700" lon="34.8775025">
<ele>606.599976</ele>
<time>2015-10-30T11:37:23.000Z</time>
</trkpt>
<trkpt lat="30.9725317" lon="34.8775096">
<ele>607.000000</ele>
<time>2015-10-30T11:37:56.000Z</time>
</trkpt>
<trkpt lat="30.9725919" lon="34.8774358">
<ele>608.599976</ele>
<time>2015-10-30T11:38:08.000Z</time>
</trkpt>
<trkpt lat="30.9726322" lon="34.8775426">
<ele>607.400024</ele>
<time>2015-10-30T11:38:22.000Z</time>
</trkpt>
<trkpt lat="30.9726293" lon="34.8776383">
<ele>606.000000</ele>
<time>2015-10-30T11:38:35.000Z</time>
</trkpt>
<trkpt lat="30.9726075" lon="34.8777347">
<ele>604.400024</ele>
<time>2015-10-30T11:38:48.000Z</time>
</trkpt>
<trkpt lat="30.9725937" lon="34.8778223">
<ele>603.000000</ele>
<time>2015-10-30T11:39:22.000Z</time>
</trkpt>
<trkpt lat="30.9726431" lon="34.8778385">
<ele>603.200012</ele>
<time>2015-10-30T11:39:48.000Z</time>
</trkpt>
<trkpt lat="30.9727029" lon="34.8779228">
<ele>602.000000</ele>
<time>2015-10-30T11:40:21.000Z</time>
</trkpt>
<trkpt lat="30.9727528" lon="34.8779960">
<ele>600.200012</ele>
<time>2015-10-30T11:40:44.000Z</time>
</trkpt>
<trkpt lat="30.9727896" lon="34.8780654">
<ele>598.200012</ele>
<time>2015-10-30T11:41:07.000Z</time>
</trkpt>
<trkpt lat="30.9727967" lon="34.8781773">
<ele>594.799988</ele>
<time>2015-10-30T11:41:42.000Z</time>
</trkpt>
<trkpt lat="30.9728087" lon="34.8782690">
<ele>592.200012</ele>
<time>2015-10-30T11:42:01.000Z</time>
</trkpt>
<trkpt lat="30.9728210" lon="34.8783631">
<ele>589.200012</ele>
<time>2015-10-30T11:42:19.000Z</time>
</trkpt>
<trkpt lat="30.9728736" lon="34.8784208">
<ele>588.000000</ele>
<time>2015-10-30T11:42:40.000Z</time>
</trkpt>
<trkpt lat="30.9728903" lon="34.8785282">
<ele>584.799988</ele>
<time>2015-10-30T11:42:58.000Z</time>
</trkpt>
<trkpt lat="30.9729105" lon="34.8786264">
<ele>582.200012</ele>
<time>2015-10-30T11:43:15.000Z</time>
</trkpt>
<trkpt lat="30.9728923" lon="34.8787334">
<ele>579.799988</ele>
<time>2015-10-30T11:43:33.000Z</time>
</trkpt>
<trkpt lat="30.9728474" lon="34.8788071">
<ele>578.400024</ele>
<time>2015-10-30T11:43:45.000Z</time>
</trkpt>
<trkpt lat="30.9727949" lon="34.8788978">
<ele>576.799988</ele>
<time>2015-10-30T11:43:59.000Z</time>
</trkpt>
<trkpt lat="30.9727256" lon="34.8789776">
<ele>575.400024</ele>
<time>2015-10-30T11:44:20.000Z</time>
</trkpt>
<trkpt lat="30.9727171" lon="34.8790911">
<ele>573.400024</ele>
<time>2015-10-30T11:44:38.000Z</time>
</trkpt>
<trkpt lat="30.9726800" lon="34.8791907">
<ele>571.799988</ele>
<time>2015-10-30T11:44:56.000Z</time>
</trkpt>
<trkpt lat="30.9726964" lon="34.8792895">
<ele>570.200012</ele>
<time>2015-10-30T11:45:10.000Z</time>
</trkpt>
<trkpt lat="30.9727663" lon="34.8793717">
<ele>568.799988</ele>
<time>2015-10-30T11:45:25.000Z</time>
</trkpt>
<trkpt lat="30.9728171" lon="34.8794998">
<ele>566.799988</ele>
<time>2015-10-30T11:45:41.000Z</time>
</trkpt>
<trkpt lat="30.9728517" lon="34.8796197">
<ele>565.599976</ele>
<time>2015-10-30T11:45:46.000Z</time>
</trkpt>
<trkpt lat="30.9728991" lon="34.8797303">
<ele>565.200012</ele>
<time>2015-10-30T11:45:51.000Z</time>
</trkpt>
<trkpt lat="30.9729572" lon="34.8798086">
<ele>565.000000</ele>
<time>2015-10-30T11:45:55.000Z</time>
</trkpt>
<trkpt lat="30.9730034" lon="34.8799010">
<ele>564.599976</ele>
<time>2015-10-30T11:46:07.000Z</time>
</trkpt>
<trkpt lat="30.9729496" lon="34.8799849">
<ele>564.400024</ele>
<time>2015-10-30T11:46:22.000Z</time>
</trkpt>
<trkpt lat="30.9729099" lon="34.8800808">
<ele>564.000000</ele>
<time>2015-10-30T11:46:38.000Z</time>
</trkpt>
<trkpt lat="30.9728405" lon="34.8801223">
<ele>563.799988</ele>
<time>2015-10-30T11:46:56.000Z</time>
</trkpt>
<trkpt lat="30.9728039" lon="34.8802152">
<ele>563.000000</ele>
<time>2015-10-30T11:47:08.000Z</time>
</trkpt>
<trkpt lat="30.9727392" lon="34.8803010">
<ele>562.000000</ele>
<time>2015-10-30T11:47:22.000Z</time>
</trkpt>
<trkpt lat="30.9726828" lon="34.8803815">
<ele>561.200012</ele>
<time>2015-10-30T11:47:33.000Z</time>
</trkpt>
<trkpt lat="30.9726972" lon="34.8804904">
<ele>560.200012</ele>
<time>2015-10-30T11:47:50.000Z</time>
</trkpt>
<trkpt lat="30.9726680" lon="34.8805980">
<ele>559.000000</ele>
<time>2015-10-30T11:48:04.000Z</time>
</trkpt>
<trkpt lat="30.9726815" lon="34.8807028">
<ele>558.200012</ele>
<time>2015-10-30T11:48:16.000Z</time>
</trkpt>
<trkpt lat="30.9727550" lon="34.8807899">
<ele>557.599976</ele>
<time>2015-10-30T11:48:27.000Z</time>
</trkpt>
<trkpt lat="30.9728192" lon="34.8808853">
<ele>557.000000</ele>
<time>2015-10-30T11:48:37.000Z</time>
</trkpt>
<trkpt lat="30.9729066" lon="34.8809793">
<ele>556.599976</ele>
<time>2015-10-30T11:48:42.000Z</time>
</trkpt>
<trkpt lat="30.9729849" lon="34.8810386">
<ele>556.400024</ele>
<time>2015-10-30T11:48:46.000Z</time>
</trkpt>
<trkpt lat="30.9730866" lon="34.8811093">
<ele>556.200012</ele>
<time>2015-10-30T11:48:50.000Z</time>
</trkpt>
<trkpt lat="30.9731390" lon="34.8812185">
<ele>555.599976</ele>
<time>2015-10-30T11:48:54.000Z</time>
</trkpt>
<trkpt lat="30.9731633" lon="34.8813153">
<ele>555.200012</ele>
<time>2015-10-30T11:48:58.000Z</time>
</trkpt>
<trkpt lat="30.9731828" lon="34.8814242">
<ele>554.000000</ele>
<time>2015-10-30T11:49:02.000Z</time>
</trkpt>
<trkpt lat="30.9731980" lon="34.8815386">
<ele>552.799988</ele>
<time>2015-10-30T11:49:06.000Z</time>
</trkpt>
<trkpt lat="30.9732213" lon="34.8816530">
<ele>551.599976</ele>
<time>2015-10-30T11:49:11.000Z</time>
</trkpt>
<trkpt lat="30.9732623" lon="34.8817662">
<ele>550.799988</ele>
<time>2015-10-30T11:49:16.000Z</time>
</trkpt>
<trkpt lat="30.9732637" lon="34.8818914">
<ele>549.200012</ele>
<time>2015-10-30T11:49:21.000Z</time>
</trkpt>
<trkpt lat="30.9732793" lon="34.8820089">
<ele>547.799988</ele>
<time>2015-10-30T11:49:27.000Z</time>
</trkpt>
<trkpt lat="30.9733116" lon="34.8821133">
<ele>547.000000</ele>
<time>2015-10-30T11:49:32.000Z</time>
</trkpt>
<trkpt lat="30.9733750" lon="34.8822009">
<ele>547.000000</ele>
<time>2015-10-30T11:49:42.000Z</time>
</trkpt>
<trkpt lat="30.9734487" lon="34.8822714">
<ele>547.200012</ele>
<time>2015-10-30T11:49:57.000Z</time>
</trkpt>
<trkpt lat="30.9734552" lon="34.8823830">
<ele>546.000000</ele>
<time>2015-10-30T11:50:07.000Z</time>
</trkpt>
<trkpt lat="30.9734486" lon="34.8824784">
<ele>544.799988</ele>
<time>2015-10-30T11:50:21.000Z</time>
</trkpt>
<trkpt lat="30.9734251" lon="34.8825960">
<ele>543.200012</ele>
<time>2015-10-30T11:50:32.000Z</time>
</trkpt>
<trkpt lat="30.9733958" lon="34.8827140">
<ele>541.599976</ele>
<time>2015-10-30T11:50:42.000Z</time>
</trkpt>
<trkpt lat="30.9734563" lon="34.8827920">
<ele>541.599976</ele>
<time>2015-10-30T11:50:54.000Z</time>
</trkpt>
<trkpt lat="30.9735050" lon="34.8828826">
<ele>541.200012</ele>
<time>2015-10-30T11:51:07.000Z</time>
</trkpt>
<trkpt lat="30.9735094" lon="34.8829946">
<ele>540.400024</ele>
<time>2015-10-30T11:51:20.000Z</time>
</trkpt>
<trkpt lat="30.9735393" lon="34.8831070">
<ele>540.200012</ele>
<time>2015-10-30T11:51:48.000Z</time>
</trkpt>
<trkpt lat="30.9735579" lon="34.8832087">
<ele>539.599976</ele>
<time>2015-10-30T11:52:00.000Z</time>
</trkpt>
<trkpt lat="30.9735015" lon="34.8833033">
<ele>538.200012</ele>
<time>2015-10-30T11:52:09.000Z</time>
</trkpt>
<trkpt lat="30.9734325" lon="34.8833970">
<ele>536.599976</ele>
<time>2015-10-30T11:52:18.000Z</time>
</trkpt>
<trkpt lat="30.9733631" lon="34.8834838">
<ele>535.200012</ele>
<time>2015-10-30T11:52:22.000Z</time>
</trkpt>
<trkpt lat="30.9733023" lon="34.8835856">
<ele>533.799988</ele>
<time>2015-10-30T11:52:31.000Z</time>
</trkpt>
<trkpt lat="30.9732803" lon="34.8836910">
<ele>532.799988</ele>
<time>2015-10-30T11:52:42.000Z</time>
</trkpt>
<trkpt lat="30.9733122" lon="34.8838161">
<ele>532.599976</ele>
<time>2015-10-30T11:52:54.000Z</time>
</trkpt>
<trkpt lat="30.9733086" lon="34.8839449">
<ele>531.799988</ele>
<time>2015-10-30T11:52:59.000Z</time>
</trkpt>
<trkpt lat="30.9733043" lon="34.8840594">
<ele>531.000000</ele>
<time>2015-10-30T11:53:03.000Z</time>
</trkpt>
<trkpt lat="30.9733341" lon="34.8841520">
<ele>530.799988</ele>
<time>2015-10-30T11:53:10.000Z</time>
</trkpt>
<trkpt lat="30.9733680" lon="34.8842570">
<ele>530.599976</ele>
<time>2015-10-30T11:53:23.000Z</time>
</trkpt>
<trkpt lat="30.9734548" lon="34.8843287">
<ele>531.400024</ele>
<time>2015-10-30T11:53:28.000Z</time>
</trkpt>
<trkpt lat="30.9735191" lon="34.8843917">
<ele>531.799988</ele>
<time>2015-10-30T11:53:40.000Z</time>
</trkpt>
<trkpt lat="30.9735747" lon="34.8844706">
<ele>532.200012</ele>
<time>2015-10-30T11:53:53.000Z</time>
</trkpt>
<trkpt lat="30.9736456" lon="34.8845719">
<ele>532.400024</ele>
<time>2015-10-30T11:54:05.000Z</time>
</trkpt>
<trkpt lat="30.9737022" lon="34.8846796">
<ele>532.200012</ele>
<time>2015-10-30T11:54:16.000Z</time>
</trkpt>
<trkpt lat="30.9737013" lon="34.8848005">
<ele>531.000000</ele>
<time>2015-10-30T11:54:22.000Z</time>
</trkpt>
<trkpt lat="30.9736762" lon="34.8849234">
<ele>529.400024</ele>
<time>2015-10-30T11:54:27.000Z</time>
</trkpt>
<trkpt lat="30.9736119" lon="34.8850196">
<ele>527.599976</ele>
<time>2015-10-30T11:54:31.000Z</time>
</trkpt>
<trkpt lat="30.9735745" lon="34.8851152">
<ele>526.599976</ele>
<time>2015-10-30T11:54:35.000Z</time>
</trkpt>
<trkpt lat="30.9735282" lon="34.8852348">
<ele>526.000000</ele>
<time>2015-10-30T11:54:39.000Z</time>
</trkpt>
<trkpt lat="30.9734918" lon="34.8853522">
<ele>525.599976</ele>
<time>2015-10-30T11:54:44.000Z</time>
</trkpt>
<trkpt lat="30.9734890" lon="34.8854804">
<ele>524.599976</ele>
<time>2015-10-30T11:54:49.000Z</time>
</trkpt>
<trkpt lat="30.9735319" lon="34.8856066">
<ele>523.400024</ele>
<time>2015-10-30T11:54:53.000Z</time>
</trkpt>
<trkpt lat="30.9735632" lon="34.8857378">
<ele>522.200012</ele>
<time>2015-10-30T11:54:57.000Z</time>
</trkpt>
<trkpt lat="30.9736055" lon="34.8858616">
<ele>521.200012</ele>
<time>2015-10-30T11:55:01.000Z</time>
</trkpt>
<trkpt lat="30.9736697" lon="34.8859692">
<ele>520.400024</ele>
<time>2015-10-30T11:55:06.000Z</time>
</trkpt>
<trkpt lat="30.9736437" lon="34.8860877">
<ele>519.400024</ele>
<time>2015-10-30T11:55:11.000Z</time>
</trkpt>
<trkpt lat="30.9736692" lon="34.8862166">
<ele>518.599976</ele>
<time>2015-10-30T11:55:16.000Z</time>
</trkpt>
<trkpt lat="30.9736957" lon="34.8863184">
<ele>518.200012</ele>
<time>2015-10-30T11:55:20.000Z</time>
</trkpt>
<trkpt lat="30.9737211" lon="34.8864312">
<ele>517.799988</ele>
<time>2015-10-30T11:55:23.000Z</time>
</trkpt>
<trkpt lat="30.9737498" lon="34.8865319">
<ele>517.599976</ele>
<time>2015-10-30T11:55:26.000Z</time>
</trkpt>
<trkpt lat="30.9737914" lon="34.8866467">
<ele>517.200012</ele>
<time>2015-10-30T11:55:30.000Z</time>
</trkpt>
<trkpt lat="30.9737903" lon="34.8867586">
<ele>516.799988</ele>
<time>2015-10-30T11:55:35.000Z</time>
</trkpt>
<trkpt lat="30.9738345" lon="34.8868523">
<ele>516.599976</ele>
<time>2015-10-30T11:55:58.000Z</time>
</trkpt>
<trkpt lat="30.9738978" lon="34.8869325">
<ele>516.400024</ele>
<time>2015-10-30T11:56:07.000Z</time>
</trkpt>
<trkpt lat="30.9739459" lon="34.8870249">
<ele>516.799988</ele>
<time>2015-10-30T11:56:18.000Z</time>
</trkpt>
<trkpt lat="30.9739981" lon="34.8871130">
<ele>516.599976</ele>
<time>2015-10-30T11:56:34.000Z</time>
</trkpt>
<trkpt lat="30.9740587" lon="34.8872109">
<ele>515.599976</ele>
<time>2015-10-30T11:56:51.000Z</time>
</trkpt>
<trkpt lat="30.9740955" lon="34.8873093">
<ele>514.799988</ele>
<time>2015-10-30T11:57:04.000Z</time>
</trkpt>
<trkpt lat="30.9740889" lon="34.8874279">
<ele>513.400024</ele>
<time>2015-10-30T11:57:47.000Z</time>
</trkpt>
<trkpt lat="30.9740825" lon="34.8875050">
<ele>512.400024</ele>
<time>2015-10-30T11:58:08.000Z</time>
</trkpt>
<trkpt lat="30.9740908" lon="34.8876084">
<ele>511.200012</ele>
<time>2015-10-30T12:06:29.000Z</time>
</trkpt>
<trkpt lat="30.9741041" lon="34.8876997">
<ele>510.200012</ele>
<time>2015-10-30T12:06:48.000Z</time>
</trkpt>
<trkpt lat="30.9741514" lon="34.8877667">
<ele>509.799988</ele>
<time>2015-10-30T12:07:01.000Z</time>
</trkpt>
<trkpt lat="30.9741571" lon="34.8878558">
<ele>508.799988</ele>
<time>2015-10-30T12:07:33.000Z</time>
</trkpt>
<trkpt lat="30.9742203" lon="34.8879387">
<ele>508.200012</ele>
<time>2015-10-30T12:07:53.000Z</time>
</trkpt>
<trkpt lat="30.9742825" lon="34.8879948">
<ele>507.600006</ele>
<time>2015-10-30T12:08:30.000Z</time>
</trkpt>
<trkpt lat="30.9742872" lon="34.8880982">
<ele>505.600037</ele>
<time>2015-10-30T12:08:49.000Z</time>
</trkpt>
<trkpt lat="30.9743177" lon="34.8881608">
<ele>504.600006</ele>
<time>2015-10-30T12:09:20.000Z</time>
</trkpt>
<trkpt lat="30.9743000" lon="34.8882871">
<ele>501.799988</ele>
<time>2015-10-30T12:09:35.000Z</time>
</trkpt>
<trkpt lat="30.9742919" lon="34.8883881">
<ele>499.600006</ele>
<time>2015-10-30T12:09:43.000Z</time>
</trkpt>
<trkpt lat="30.9743085" lon="34.8885077">
<ele>497.399994</ele>
<time>2015-10-30T12:09:48.000Z</time>
</trkpt>
<trkpt lat="30.9743540" lon="34.8886198">
<ele>495.600006</ele>
<time>2015-10-30T12:09:53.000Z</time>
</trkpt>
<trkpt lat="30.9743732" lon="34.8887250">
<ele>493.600006</ele>
<time>2015-10-30T12:09:57.000Z</time>
</trkpt>
<trkpt lat="30.9744188" lon="34.8888117">
<ele>492.400024</ele>
<time>2015-10-30T12:10:07.000Z</time>
</trkpt>
<trkpt lat="30.9744171" lon="34.8889174">
<ele>490.199982</ele>
<time>2015-10-30T12:10:20.000Z</time>
</trkpt>
<trkpt lat="30.9744862" lon="34.8889976">
<ele>489.399994</ele>
<time>2015-10-30T12:10:31.000Z</time>
</trkpt>
<trkpt lat="30.9745593" lon="34.8890661">
<ele>488.800018</ele>
<time>2015-10-30T12:10:42.000Z</time>
</trkpt>
<trkpt lat="30.9746347" lon="34.8891242">
<ele>488.399994</ele>
<time>2015-10-30T12:10:52.000Z</time>
</trkpt>
<trkpt lat="30.9747311" lon="34.8891798">
<ele>488.200012</ele>
<time>2015-10-30T12:11:03.000Z</time>
</trkpt>
<trkpt lat="30.9748390" lon="34.8892400">
<ele>487.200043</ele>
<time>2015-10-30T12:11:07.000Z</time>
</trkpt>
<trkpt lat="30.9749332" lon="34.8893054">
<ele>486.000000</ele>
<time>2015-10-30T12:11:10.000Z</time>
</trkpt>
<trkpt lat="30.9750389" lon="34.8893483">
<ele>485.200012</ele>
<time>2015-10-30T12:11:13.000Z</time>
</trkpt>
<trkpt lat="30.9751305" lon="34.8893904">
<ele>484.399963</ele>
<time>2015-10-30T12:11:16.000Z</time>
</trkpt>
<trkpt lat="30.9752249" lon="34.8894261">
<ele>483.599976</ele>
<time>2015-10-30T12:11:19.000Z</time>
</trkpt>
<trkpt lat="30.9753239" lon="34.8894735">
<ele>482.799988</ele>
<time>2015-10-30T12:11:22.000Z</time>
</trkpt>
<trkpt lat="30.9754274" lon="34.8895043">
<ele>482.200012</ele>
<time>2015-10-30T12:11:25.000Z</time>
</trkpt>
<trkpt lat="30.9755410" lon="34.8895251">
<ele>481.799988</ele>
<time>2015-10-30T12:11:28.000Z</time>
</trkpt>
<trkpt lat="30.9756523" lon="34.8895620">
<ele>481.000000</ele>
<time>2015-10-30T12:11:31.000Z</time>
</trkpt>
<trkpt lat="30.9757818" lon="34.8895849">
<ele>480.600037</ele>
<time>2015-10-30T12:11:34.000Z</time>
</trkpt>
<trkpt lat="30.9759120" lon="34.8896242">
<ele>480.200012</ele>
<time>2015-10-30T12:11:37.000Z</time>
</trkpt>
<trkpt lat="30.9760018" lon="34.8896696">
<ele>479.799988</ele>
<time>2015-10-30T12:11:39.000Z</time>
</trkpt>
<trkpt lat="30.9760878" lon="34.8897201">
<ele>479.399994</ele>
<time>2015-10-30T12:11:41.000Z</time>
</trkpt>
<trkpt lat="30.9762029" lon="34.8897929">
<ele>478.799988</ele>
<time>2015-10-30T12:11:44.000Z</time>
</trkpt>
<trkpt lat="30.9763013" lon="34.8898730">
<ele>478.200012</ele>
<time>2015-10-30T12:11:47.000Z</time>
</trkpt>
<trkpt lat="30.9763766" lon="34.8899582">
<ele>477.600006</ele>
<time>2015-10-30T12:11:50.000Z</time>
</trkpt>
<trkpt lat="30.9764650" lon="34.8900445">
<ele>477.399994</ele>
<time>2015-10-30T12:11:54.000Z</time>
</trkpt>
<trkpt lat="30.9765213" lon="34.8900218">
<ele>478.000000</ele>
<time>2015-10-30T12:12:05.000Z</time>
</trkpt>
<trkpt lat="30.9766057" lon="34.8900316">
<ele>478.600006</ele>
<time>2015-10-30T12:12:16.000Z</time>
</trkpt>
<trkpt lat="30.9766856" lon="34.8900828">
<ele>478.799988</ele>
<time>2015-10-30T12:12:27.000Z</time>
</trkpt>
<trkpt lat="30.9767175" lon="34.8901954">
<ele>478.399994</ele>
<time>2015-10-30T12:12:39.000Z</time>
</trkpt>
<trkpt lat="30.9767180" lon="34.8903034">
<ele>477.799957</ele>
<time>2015-10-30T12:12:49.000Z</time>
</trkpt>
<trkpt lat="30.9767435" lon="34.8904102">
<ele>477.200012</ele>
<time>2015-10-30T12:13:00.000Z</time>
</trkpt>
<trkpt lat="30.9768016" lon="34.8904992">
<ele>476.199982</ele>
<time>2015-10-30T12:13:09.000Z</time>
</trkpt>
<trkpt lat="30.9768562" lon="34.8905851">
<ele>475.000000</ele>
<time>2015-10-30T12:13:18.000Z</time>
</trkpt>
<trkpt lat="30.9769120" lon="34.8906763">
<ele>474.000031</ele>
<time>2015-10-30T12:13:44.000Z</time>
</trkpt>
<trkpt lat="30.9769747" lon="34.8907793">
<ele>472.599976</ele>
<time>2015-10-30T12:13:48.000Z</time>
</trkpt>
<trkpt lat="30.9770331" lon="34.8908756">
<ele>471.399994</ele>
<time>2015-10-30T12:13:51.000Z</time>
</trkpt>
<trkpt lat="30.9770918" lon="34.8909741">
<ele>470.200012</ele>
<time>2015-10-30T12:13:54.000Z</time>
</trkpt>
<trkpt lat="30.9771499" lon="34.8910736">
<ele>469.000000</ele>
<time>2015-10-30T12:13:57.000Z</time>
</trkpt>
<trkpt lat="30.9772151" lon="34.8911880">
<ele>467.600006</ele>
<time>2015-10-30T12:14:00.000Z</time>
</trkpt>
<trkpt lat="30.9772828" lon="34.8912837">
<ele>467.000000</ele>
<time>2015-10-30T12:14:03.000Z</time>
</trkpt>
<trkpt lat="30.9773507" lon="34.8913743">
<ele>466.799957</ele>
<time>2015-10-30T12:14:06.000Z</time>
</trkpt>
<trkpt lat="30.9774352" lon="34.8914591">
<ele>466.799957</ele>
<time>2015-10-30T12:14:09.000Z</time>
</trkpt>
<trkpt lat="30.9775322" lon="34.8915484">
<ele>466.600037</ele>
<time>2015-10-30T12:14:12.000Z</time>
</trkpt>
<trkpt lat="30.9776290" lon="34.8915952">
<ele>466.799957</ele>
<time>2015-10-30T12:14:15.000Z</time>
</trkpt>
<trkpt lat="30.9777291" lon="34.8916577">
<ele>467.400024</ele>
<time>2015-10-30T12:14:19.000Z</time>
</trkpt>
<trkpt lat="30.9778030" lon="34.8917454">
<ele>467.000000</ele>
<time>2015-10-30T12:14:22.000Z</time>
</trkpt>
<trkpt lat="30.9778812" lon="34.8918523">
<ele>466.399994</ele>
<time>2015-10-30T12:14:25.000Z</time>
</trkpt>
<trkpt lat="30.9779774" lon="34.8919377">
<ele>466.600037</ele>
<time>2015-10-30T12:14:29.000Z</time>
</trkpt>
<trkpt lat="30.9780579" lon="34.8920042">
<ele>466.600037</ele>
<time>2015-10-30T12:14:31.000Z</time>
</trkpt>
<trkpt lat="30.9781320" lon="34.8920958">
<ele>465.600006</ele>
<time>2015-10-30T12:14:34.000Z</time>
</trkpt>
<trkpt lat="30.9781480" lon="34.8922030">
<ele>464.799988</ele>
<time>2015-10-30T12:14:38.000Z</time>
</trkpt>
<trkpt lat="30.9782350" lon="34.8922657">
<ele>464.000000</ele>
<time>2015-10-30T12:14:42.000Z</time>
</trkpt>
<trkpt lat="30.9783184" lon="34.8923043">
<ele>463.399994</ele>
<time>2015-10-30T12:14:48.000Z</time>
</trkpt>
<trkpt lat="30.9784012" lon="34.8922305">
<ele>464.000000</ele>
<time>2015-10-30T12:14:54.000Z</time>
</trkpt>
<trkpt lat="30.9784517" lon="34.8921476">
<ele>464.799988</ele>
<time>2015-10-30T12:15:03.000Z</time>
</trkpt>
<trkpt lat="30.9785126" lon="34.8920703">
<ele>465.399994</ele>
<time>2015-10-30T12:15:20.000Z</time>
</trkpt>
<trkpt lat="30.9786028" lon="34.8921032">
<ele>465.000000</ele>
<time>2015-10-30T12:15:36.000Z</time>
</trkpt>
<trkpt lat="30.9786976" lon="34.8921113">
<ele>464.799988</ele>
<time>2015-10-30T12:15:55.000Z</time>
</trkpt>
<trkpt lat="30.9787975" lon="34.8921244">
<ele>464.600006</ele>
<time>2015-10-30T12:16:11.000Z</time>
</trkpt>
<trkpt lat="30.9788758" lon="34.8921578">
<ele>464.200012</ele>
<time>2015-10-30T12:16:29.000Z</time>
</trkpt>
<trkpt lat="30.9789645" lon="34.8921900">
<ele>463.799957</ele>
<time>2015-10-30T12:16:44.000Z</time>
</trkpt>
<trkpt lat="30.9790600" lon="34.8921871">
<ele>464.000000</ele>
<time>2015-10-30T12:16:52.000Z</time>
</trkpt>
<trkpt lat="30.9791503" lon="34.8921359">
<ele>464.399994</ele>
<time>2015-10-30T12:17:07.000Z</time>
</trkpt>
<trkpt lat="30.9792273" lon="34.8920820">
<ele>464.799988</ele>
<time>2015-10-30T12:17:17.000Z</time>
</trkpt>
<trkpt lat="30.9792335" lon="34.8920277">
<ele>465.399994</ele>
<time>2015-10-30T12:22:09.000Z</time>
</trkpt>
<trkpt lat="30.9792776" lon="34.8920932">
<ele>464.799988</ele>
<time>2015-10-30T12:22:32.000Z</time>
</trkpt>
<trkpt lat="30.9793643" lon="34.8920920">
<ele>464.799988</ele>
<time>2015-10-30T12:22:44.000Z</time>
</trkpt>
<trkpt lat="30.9794719" lon="34.8920831">
<ele>464.799988</ele>
<time>2015-10-30T12:22:48.000Z</time>
</trkpt>
<trkpt lat="30.9795868" lon="34.8920676">
<ele>465.000000</ele>
<time>2015-10-30T12:22:52.000Z</time>
</trkpt>
<trkpt lat="30.9796879" lon="34.8920091">
<ele>465.799988</ele>
<time>2015-10-30T12:22:56.000Z</time>
</trkpt>
<trkpt lat="30.9797761" lon="34.8919588">
<ele>466.799957</ele>
<time>2015-10-30T12:23:00.000Z</time>
</trkpt>
<trkpt lat="30.9798726" lon="34.8919554">
<ele>466.600037</ele>
<time>2015-10-30T12:23:04.000Z</time>
</trkpt>
<trkpt lat="30.9799668" lon="34.8919522">
<ele>466.600037</ele>
<time>2015-10-30T12:23:07.000Z</time>
</trkpt>
<trkpt lat="30.9800796" lon="34.8919704">
<ele>466.200012</ele>
<time>2015-10-30T12:23:10.000Z</time>
</trkpt>
<trkpt lat="30.9801997" lon="34.8920051">
<ele>465.399994</ele>
<time>2015-10-30T12:23:13.000Z</time>
</trkpt>
<trkpt lat="30.9803028" lon="34.8920320">
<ele>464.799988</ele>
<time>2015-10-30T12:23:16.000Z</time>
</trkpt>
<trkpt lat="30.9803879" lon="34.8920616">
<ele>464.200012</ele>
<time>2015-10-30T12:23:20.000Z</time>
</trkpt>
<trkpt lat="30.9804799" lon="34.8921013">
<ele>463.799957</ele>
<time>2015-10-30T12:23:24.000Z</time>
</trkpt>
<trkpt lat="30.9805834" lon="34.8921480">
<ele>463.200012</ele>
<time>2015-10-30T12:23:28.000Z</time>
</trkpt>
<trkpt lat="30.9806794" lon="34.8922074">
<ele>462.600006</ele>
<time>2015-10-30T12:23:32.000Z</time>
</trkpt>
<trkpt lat="30.9807881" lon="34.8922434">
<ele>462.200043</ele>
<time>2015-10-30T12:23:36.000Z</time>
</trkpt>
<trkpt lat="30.9808814" lon="34.8922671">
<ele>462.000000</ele>
<time>2015-10-30T12:23:39.000Z</time>
</trkpt>
<trkpt lat="30.9809754" lon="34.8922968">
<ele>461.600006</ele>
<time>2015-10-30T12:23:42.000Z</time>
</trkpt>
<trkpt lat="30.9810724" lon="34.8923379">
<ele>461.399994</ele>
<time>2015-10-30T12:23:45.000Z</time>
</trkpt>
<trkpt lat="30.9811640" lon="34.8923674">
<ele>461.000000</ele>
<time>2015-10-30T12:23:48.000Z</time>
</trkpt>
<trkpt lat="30.9812757" lon="34.8924131">
<ele>460.600006</ele>
<time>2015-10-30T12:23:52.000Z</time>
</trkpt>
<trkpt lat="30.9813805" lon="34.8924708">
<ele>460.000000</ele>
<time>2015-10-30T12:23:55.000Z</time>
</trkpt>
<trkpt lat="30.9814840" lon="34.8925111">
<ele>459.600006</ele>
<time>2015-10-30T12:23:58.000Z</time>
</trkpt>
<trkpt lat="30.9815751" lon="34.8925438">
<ele>459.000000</ele>
<time>2015-10-30T12:24:01.000Z</time>
</trkpt>
<trkpt lat="30.9816687" lon="34.8926002">
<ele>458.200012</ele>
<time>2015-10-30T12:24:04.000Z</time>
</trkpt>
<trkpt lat="30.9817616" lon="34.8926687">
<ele>457.399994</ele>
<time>2015-10-30T12:24:07.000Z</time>
</trkpt>
<trkpt lat="30.9818513" lon="34.8927450">
<ele>456.400024</ele>
<time>2015-10-30T12:24:10.000Z</time>
</trkpt>
<trkpt lat="30.9819327" lon="34.8928182">
<ele>455.399994</ele>
<time>2015-10-30T12:24:13.000Z</time>
</trkpt>
<trkpt lat="30.9820284" lon="34.8928513">
<ele>454.799988</ele>
<time>2015-10-30T12:24:16.000Z</time>
</trkpt>
<trkpt lat="30.9821284" lon="34.8928380">
<ele>454.799988</ele>
<time>2015-10-30T12:24:19.000Z</time>
</trkpt>
<trkpt lat="30.9822113" lon="34.8928076">
<ele>454.799988</ele>
<time>2015-10-30T12:24:22.000Z</time>
</trkpt>
<trkpt lat="30.9822945" lon="34.8927736">
<ele>455.200012</ele>
<time>2015-10-30T12:24:27.000Z</time>
</trkpt>
<trkpt lat="30.9823907" lon="34.8927451">
<ele>455.799988</ele>
<time>2015-10-30T12:24:33.000Z</time>
</trkpt>
<trkpt lat="30.9824855" lon="34.8927255">
<ele>456.400024</ele>
<time>2015-10-30T12:24:40.000Z</time>
</trkpt>
<trkpt lat="30.9825794" lon="34.8926984">
<ele>457.000000</ele>
<time>2015-10-30T12:24:47.000Z</time>
</trkpt>
<trkpt lat="30.9824458" lon="34.8927334">
<ele>456.200012</ele>
<time>2015-10-30T12:25:16.000Z</time>
</trkpt>
<trkpt lat="30.9823384" lon="34.8927544">
<ele>455.399994</ele>
<time>2015-10-30T12:25:20.000Z</time>
</trkpt>
<trkpt lat="30.9822186" lon="34.8927829">
<ele>455.000000</ele>
<time>2015-10-30T12:25:24.000Z</time>
</trkpt>
<trkpt lat="30.9821289" lon="34.8928191">
<ele>455.000000</ele>
<time>2015-10-30T12:25:27.000Z</time>
</trkpt>
<trkpt lat="30.9820338" lon="34.8928340">
<ele>455.000000</ele>
<time>2015-10-30T12:25:30.000Z</time>
</trkpt>
<trkpt lat="30.9819191" lon="34.8928247">
<ele>455.200012</ele>
<time>2015-10-30T12:25:34.000Z</time>
</trkpt>
<trkpt lat="30.9818311" lon="34.8927794">
<ele>456.000000</ele>
<time>2015-10-30T12:25:38.000Z</time>
</trkpt>
<trkpt lat="30.9817544" lon="34.8926992">
<ele>457.000000</ele>
<time>2015-10-30T12:25:43.000Z</time>
</trkpt>
<trkpt lat="30.9816879" lon="34.8926220">
<ele>458.000000</ele>
<time>2015-10-30T12:25:47.000Z</time>
</trkpt>
<trkpt lat="30.9815995" lon="34.8925681">
<ele>458.799988</ele>
<time>2015-10-30T12:25:51.000Z</time>
</trkpt>
<trkpt lat="30.9815012" lon="34.8925289">
<ele>459.399963</ele>
<time>2015-10-30T12:25:56.000Z</time>
</trkpt>
<trkpt lat="30.9814075" lon="34.8924993">
<ele>459.799988</ele>
<time>2015-10-30T12:26:00.000Z</time>
</trkpt>
<trkpt lat="30.9813087" lon="34.8924459">
<ele>460.399994</ele>
<time>2015-10-30T12:26:04.000Z</time>
</trkpt>
<trkpt lat="30.9812142" lon="34.8923945">
<ele>460.800018</ele>
<time>2015-10-30T12:26:08.000Z</time>
</trkpt>
<trkpt lat="30.9811573" lon="34.8924360">
<ele>460.200012</ele>
<time>2015-10-30T12:26:18.000Z</time>
</trkpt>
<trkpt lat="30.9811322" lon="34.8925288">
<ele>459.000000</ele>
<time>2015-10-30T12:26:33.000Z</time>
</trkpt>
<trkpt lat="30.9810991" lon="34.8926243">
<ele>458.000000</ele>
<time>2015-10-30T12:26:45.000Z</time>
</trkpt>
<trkpt lat="30.9810701" lon="34.8927271">
<ele>457.000000</ele>
<time>2015-10-30T12:26:55.000Z</time>
</trkpt>
<trkpt lat="30.9810851" lon="34.8928275">
<ele>456.000000</ele>
<time>2015-10-30T12:27:06.000Z</time>
</trkpt>
<trkpt lat="30.9811386" lon="34.8929230">
<ele>455.399994</ele>
<time>2015-10-30T12:27:20.000Z</time>
</trkpt>
<trkpt lat="30.9811815" lon="34.8930155">
<ele>455.600037</ele>
<time>2015-10-30T12:27:31.000Z</time>
</trkpt>
<trkpt lat="30.9812510" lon="34.8930877">
<ele>455.600037</ele>
<time>2015-10-30T12:27:43.000Z</time>
</trkpt>
<trkpt lat="30.9813504" lon="34.8931291">
<ele>455.600037</ele>
<time>2015-10-30T12:27:48.000Z</time>
</trkpt>
<trkpt lat="30.9814434" lon="34.8931700">
<ele>455.799988</ele>
<time>2015-10-30T12:27:52.000Z</time>
</trkpt>
<trkpt lat="30.9815353" lon="34.8932399">
<ele>456.600006</ele>
<time>2015-10-30T12:27:56.000Z</time>
</trkpt>
<trkpt lat="30.9816009" lon="34.8933264">
<ele>457.399994</ele>
<time>2015-10-30T12:28:00.000Z</time>
</trkpt>
<trkpt lat="30.9816535" lon="34.8934206">
<ele>458.000000</ele>
<time>2015-10-30T12:28:04.000Z</time>
</trkpt>
<trkpt lat="30.9816874" lon="34.8935218">
<ele>458.399994</ele>
<time>2015-10-30T12:28:07.000Z</time>
</trkpt>
<trkpt lat="30.9817184" lon="34.8936671">
<ele>459.000000</ele>
<time>2015-10-30T12:28:10.000Z</time>
</trkpt>
<trkpt lat="30.9817549" lon="34.8938096">
<ele>460.000000</ele>
<time>2015-10-30T12:28:13.000Z</time>
</trkpt>
<trkpt lat="30.9818218" lon="34.8939056">
<ele>461.200012</ele>
<time>2015-10-30T12:28:16.000Z</time>
</trkpt>
<trkpt lat="30.9819050" lon="34.8939598">
<ele>462.200043</ele>
<time>2015-10-30T12:28:19.000Z</time>
</trkpt>
<trkpt lat="30.9819875" lon="34.8939882">
<ele>463.000031</ele>
<time>2015-10-30T12:28:25.000Z</time>
</trkpt>
<trkpt lat="30.9820835" lon="34.8940375">
<ele>464.000000</ele>
<time>2015-10-30T12:28:32.000Z</time>
</trkpt>
<trkpt lat="30.9821548" lon="34.8941148">
<ele>465.000000</ele>
<time>2015-10-30T12:28:39.000Z</time>
</trkpt>
<trkpt lat="30.9822461" lon="34.8941746">
<ele>466.200012</ele>
<time>2015-10-30T12:28:46.000Z</time>
</trkpt>
<trkpt lat="30.9823190" lon="34.8942344">
<ele>466.799957</ele>
<time>2015-10-30T12:28:53.000Z</time>
</trkpt>
<trkpt lat="30.9823477" lon="34.8943372">
<ele>467.400024</ele>
<time>2015-10-30T12:29:00.000Z</time>
</trkpt>
<trkpt lat="30.9824128" lon="34.8944148">
<ele>468.200012</ele>
<time>2015-10-30T12:29:08.000Z</time>
</trkpt>
<trkpt lat="30.9824909" lon="34.8944766">
<ele>468.600006</ele>
<time>2015-10-30T12:29:16.000Z</time>
</trkpt>
<trkpt lat="30.9825657" lon="34.8945378">
<ele>469.200012</ele>
<time>2015-10-30T12:29:25.000Z</time>
</trkpt>
<trkpt lat="30.9826567" lon="34.8945848">
<ele>469.399994</ele>
<time>2015-10-30T12:29:33.000Z</time>
</trkpt>
<trkpt lat="30.9827442" lon="34.8946247">
<ele>469.600037</ele>
<time>2015-10-30T12:29:42.000Z</time>
</trkpt>
<trkpt lat="30.9828355" lon="34.8946542">
<ele>469.799988</ele>
<time>2015-10-30T12:29:51.000Z</time>
</trkpt>
<trkpt lat="30.9829150" lon="34.8946996">
<ele>469.799988</ele>
<time>2015-10-30T12:30:00.000Z</time>
</trkpt>
<trkpt lat="30.9829365" lon="34.8947925">
<ele>469.799988</ele>
<time>2015-10-30T12:30:09.000Z</time>
</trkpt>
<trkpt lat="30.9828736" lon="34.8948754">
<ele>469.799988</ele>
<time>2015-10-30T12:30:19.000Z</time>
</trkpt>
<trkpt lat="30.9828096" lon="34.8949738">
<ele>469.600037</ele>
<time>2015-10-30T12:30:29.000Z</time>
</trkpt>
<trkpt lat="30.9827462" lon="34.8950516">
<ele>469.600037</ele>
<time>2015-10-30T12:30:39.000Z</time>
</trkpt>
<trkpt lat="30.9826898" lon="34.8951453">
<ele>470.000000</ele>
<time>2015-10-30T12:30:49.000Z</time>
</trkpt>
<trkpt lat="30.9826260" lon="34.8952276">
<ele>470.399963</ele>
<time>2015-10-30T12:30:57.000Z</time>
</trkpt>
<trkpt lat="30.9825714" lon="34.8953157">
<ele>471.000000</ele>
<time>2015-10-30T12:31:04.000Z</time>
</trkpt>
<trkpt lat="30.9825257" lon="34.8954118">
<ele>471.399994</ele>
<time>2015-10-30T12:31:09.000Z</time>
</trkpt>
<trkpt lat="30.9824706" lon="34.8955303">
<ele>471.399994</ele>
<time>2015-10-30T12:31:13.000Z</time>
</trkpt>
<trkpt lat="30.9824273" lon="34.8956235">
<ele>471.600006</ele>
<time>2015-10-30T12:31:17.000Z</time>
</trkpt>
<trkpt lat="30.9823676" lon="34.8957141">
<ele>473.000000</ele>
<time>2015-10-30T12:31:24.000Z</time>
</trkpt>
<trkpt lat="30.9822987" lon="34.8957931">
<ele>474.200012</ele>
<time>2015-10-30T12:31:31.000Z</time>
</trkpt>
<trkpt lat="30.9822353" lon="34.8958880">
<ele>475.399994</ele>
<time>2015-10-30T12:31:38.000Z</time>
</trkpt>
<trkpt lat="30.9821658" lon="34.8959815">
<ele>476.000000</ele>
<time>2015-10-30T12:31:45.000Z</time>
</trkpt>
<trkpt lat="30.9820945" lon="34.8960560">
<ele>476.199982</ele>
<time>2015-10-30T12:31:52.000Z</time>
</trkpt>
<trkpt lat="30.9820412" lon="34.8961410">
<ele>477.200012</ele>
<time>2015-10-30T12:31:59.000Z</time>
</trkpt>
<trkpt lat="30.9821088" lon="34.8962255">
<ele>478.200012</ele>
<time>2015-10-30T12:32:06.000Z</time>
</trkpt>
<trkpt lat="30.9822252" lon="34.8962389">
<ele>478.000000</ele>
<time>2015-10-30T12:32:11.000Z</time>
</trkpt>
<trkpt lat="30.9823295" lon="34.8962817">
<ele>477.200012</ele>
<time>2015-10-30T12:32:15.000Z</time>
</trkpt>
<trkpt lat="30.9824120" lon="34.8963387">
<ele>476.199982</ele>
<time>2015-10-30T12:32:18.000Z</time>
</trkpt>
<trkpt lat="30.9824825" lon="34.8964168">
<ele>475.399994</ele>
<time>2015-10-30T12:32:21.000Z</time>
</trkpt>
<trkpt lat="30.9825332" lon="34.8965157">
<ele>475.000000</ele>
<time>2015-10-30T12:32:24.000Z</time>
</trkpt>
<trkpt lat="30.9825785" lon="34.8966338">
<ele>474.200012</ele>
<time>2015-10-30T12:32:27.000Z</time>
</trkpt>
<trkpt lat="30.9826256" lon="34.8967537">
<ele>473.600006</ele>
<time>2015-10-30T12:32:30.000Z</time>
</trkpt>
<trkpt lat="30.9826670" lon="34.8968841">
<ele>473.000000</ele>
<time>2015-10-30T12:32:33.000Z</time>
</trkpt>
<trkpt lat="30.9827150" lon="34.8970267">
<ele>472.200012</ele>
<time>2015-10-30T12:32:36.000Z</time>
</trkpt>
<trkpt lat="30.9827510" lon="34.8971230">
<ele>471.200012</ele>
<time>2015-10-30T12:32:39.000Z</time>
</trkpt>
<trkpt lat="30.9827890" lon="34.8972255">
<ele>470.200012</ele>
<time>2015-10-30T12:32:42.000Z</time>
</trkpt>
<trkpt lat="30.9828193" lon="34.8973307">
<ele>469.000000</ele>
<time>2015-10-30T12:32:46.000Z</time>
</trkpt>
<trkpt lat="30.9828567" lon="34.8974324">
<ele>467.799988</ele>
<time>2015-10-30T12:32:50.000Z</time>
</trkpt>
<trkpt lat="30.9828903" lon="34.8975322">
<ele>466.600037</ele>
<time>2015-10-30T12:32:53.000Z</time>
</trkpt>
<trkpt lat="30.9829273" lon="34.8976793">
<ele>465.199982</ele>
<time>2015-10-30T12:32:56.000Z</time>
</trkpt>
<trkpt lat="30.9829469" lon="34.8977908">
<ele>464.000000</ele>
<time>2015-10-30T12:32:58.000Z</time>
</trkpt>
<trkpt lat="30.9829546" lon="34.8979001">
<ele>463.000031</ele>
<time>2015-10-30T12:33:00.000Z</time>
</trkpt>
<trkpt lat="30.9829836" lon="34.8980010">
<ele>462.399994</ele>
<time>2015-10-30T12:33:02.000Z</time>
</trkpt>
<trkpt lat="30.9830374" lon="34.8981053">
<ele>461.799988</ele>
<time>2015-10-30T12:33:04.000Z</time>
</trkpt>
<trkpt lat="30.9830845" lon="34.8982052">
<ele>461.200012</ele>
<time>2015-10-30T12:33:06.000Z</time>
</trkpt>
<trkpt lat="30.9830893" lon="34.8983370">
<ele>461.000000</ele>
<time>2015-10-30T12:33:09.000Z</time>
</trkpt>
<trkpt lat="30.9830669" lon="34.8984718">
<ele>460.800018</ele>
<time>2015-10-30T12:33:12.000Z</time>
</trkpt>
<trkpt lat="30.9830432" lon="34.8985911">
<ele>460.600006</ele>
<time>2015-10-30T12:33:15.000Z</time>
</trkpt>
<trkpt lat="30.9830318" lon="34.8987086">
<ele>460.399994</ele>
<time>2015-10-30T12:33:19.000Z</time>
</trkpt>
<trkpt lat="30.9830173" lon="34.8988167">
<ele>460.800018</ele>
<time>2015-10-30T12:33:23.000Z</time>
</trkpt>
<trkpt lat="30.9829820" lon="34.8989294">
<ele>461.399994</ele>
<time>2015-10-30T12:33:28.000Z</time>
</trkpt>
<trkpt lat="30.9829397" lon="34.8990509">
<ele>462.200043</ele>
<time>2015-10-30T12:33:33.000Z</time>
</trkpt>
<trkpt lat="30.9829040" lon="34.8991619">
<ele>462.799988</ele>
<time>2015-10-30T12:33:37.000Z</time>
</trkpt>
<trkpt lat="30.9828778" lon="34.8992331">
<ele>463.200012</ele>
<time>2015-10-30T12:36:02.000Z</time>
</trkpt>
<trkpt lat="30.9828404" lon="34.8993411">
<ele>463.799957</ele>
<time>2015-10-30T12:36:06.000Z</time>
</trkpt>
<trkpt lat="30.9827816" lon="34.8994697">
<ele>464.000000</ele>
<time>2015-10-30T12:36:10.000Z</time>
</trkpt>
<trkpt lat="30.9827348" lon="34.8995789">
<ele>464.200012</ele>
<time>2015-10-30T12:36:13.000Z</time>
</trkpt>
<trkpt lat="30.9827093" lon="34.8997119">
<ele>464.000000</ele>
<time>2015-10-30T12:36:16.000Z</time>
</trkpt>
<trkpt lat="30.9827037" lon="34.8998467">
<ele>463.600006</ele>
<time>2015-10-30T12:36:19.000Z</time>
</trkpt>
<trkpt lat="30.9827256" lon="34.8999664">
<ele>463.399994</ele>
<time>2015-10-30T12:36:22.000Z</time>
</trkpt>
<trkpt lat="30.9827562" lon="34.9000674">
<ele>463.000031</ele>
<time>2015-10-30T12:36:25.000Z</time>
</trkpt>
<trkpt lat="30.9827789" lon="34.9001761">
<ele>462.600006</ele>
<time>2015-10-30T12:36:28.000Z</time>
</trkpt>
<trkpt lat="30.9827941" lon="34.9003189">
<ele>462.200043</ele>
<time>2015-10-30T12:36:31.000Z</time>
</trkpt>
<trkpt lat="30.9827846" lon="34.9004599">
<ele>462.000000</ele>
<time>2015-10-30T12:36:34.000Z</time>
</trkpt>
<trkpt lat="30.9827674" lon="34.9005906">
<ele>461.799988</ele>
<time>2015-10-30T12:36:37.000Z</time>
</trkpt>
<trkpt lat="30.9828191" lon="34.9006925">
<ele>461.600006</ele>
<time>2015-10-30T12:36:40.000Z</time>
</trkpt>
<trkpt lat="30.9828991" lon="34.9007660">
<ele>461.200012</ele>
<time>2015-10-30T12:36:43.000Z</time>
</trkpt>
<trkpt lat="30.9829683" lon="34.9008364">
<ele>460.800018</ele>
<time>2015-10-30T12:36:46.000Z</time>
</trkpt>
<trkpt lat="30.9830446" lon="34.9009182">
<ele>460.600006</ele>
<time>2015-10-30T12:36:49.000Z</time>
</trkpt>
<trkpt lat="30.9831337" lon="34.9010125">
<ele>460.399994</ele>
<time>2015-10-30T12:36:52.000Z</time>
</trkpt>
<trkpt lat="30.9831981" lon="34.9011023">
<ele>460.399994</ele>
<time>2015-10-30T12:36:54.000Z</time>
</trkpt>
<trkpt lat="30.9832626" lon="34.9011785">
<ele>460.600006</ele>
<time>2015-10-30T12:36:56.000Z</time>
</trkpt>
<trkpt lat="30.9833250" lon="34.9012524">
<ele>460.600006</ele>
<time>2015-10-30T12:36:58.000Z</time>
</trkpt>
<trkpt lat="30.9833589" lon="34.9013979">
<ele>460.600006</ele>
<time>2015-10-30T12:37:01.000Z</time>
</trkpt>
<trkpt lat="30.9834201" lon="34.9015273">
<ele>460.800018</ele>
<time>2015-10-30T12:37:04.000Z</time>
</trkpt>
<trkpt lat="30.9834944" lon="34.9016199">
<ele>461.000000</ele>
<time>2015-10-30T12:37:07.000Z</time>
</trkpt>
<trkpt lat="30.9835647" lon="34.9016882">
<ele>461.200012</ele>
<time>2015-10-30T12:37:10.000Z</time>
</trkpt>
<trkpt lat="30.9835941" lon="34.9017931">
<ele>461.399994</ele>
<time>2015-10-30T12:37:14.000Z</time>
</trkpt>
<trkpt lat="30.9835907" lon="34.9019095">
<ele>461.799988</ele>
<time>2015-10-30T12:37:19.000Z</time>
</trkpt>
<trkpt lat="30.9836223" lon="34.9020311">
<ele>462.200043</ele>
<time>2015-10-30T12:37:24.000Z</time>
</trkpt>
<trkpt lat="30.9836756" lon="34.9021347">
<ele>462.200043</ele>
<time>2015-10-30T12:37:27.000Z</time>
</trkpt>
<trkpt lat="30.9837676" lon="34.9022471">
<ele>462.200043</ele>
<time>2015-10-30T12:37:30.000Z</time>
</trkpt>
<trkpt lat="30.9838420" lon="34.9023138">
<ele>462.000000</ele>
<time>2015-10-30T12:37:32.000Z</time>
</trkpt>
<trkpt lat="30.9839490" lon="34.9024000">
<ele>461.799988</ele>
<time>2015-10-30T12:37:35.000Z</time>
</trkpt>
<trkpt lat="30.9840474" lon="34.9024832">
<ele>461.600006</ele>
<time>2015-10-30T12:37:38.000Z</time>
</trkpt>
<trkpt lat="30.9841214" lon="34.9025440">
<ele>461.200012</ele>
<time>2015-10-30T12:37:40.000Z</time>
</trkpt>
<trkpt lat="30.9841917" lon="34.9026161">
<ele>461.000000</ele>
<time>2015-10-30T12:37:43.000Z</time>
</trkpt>
<trkpt lat="30.9842275" lon="34.9027430">
<ele>460.800018</ele>
<time>2015-10-30T12:37:47.000Z</time>
</trkpt>
<trkpt lat="30.9842657" lon="34.9028590">
<ele>460.800018</ele>
<time>2015-10-30T12:37:51.000Z</time>
</trkpt>
<trkpt lat="30.9843031" lon="34.9029657">
<ele>460.800018</ele>
<time>2015-10-30T12:37:55.000Z</time>
</trkpt>
<trkpt lat="30.9843273" lon="34.9030892">
<ele>461.200012</ele>
<time>2015-10-30T12:37:59.000Z</time>
</trkpt>
<trkpt lat="30.9843488" lon="34.9032093">
<ele>461.600006</ele>
<time>2015-10-30T12:38:03.000Z</time>
</trkpt>
<trkpt lat="30.9843864" lon="34.9033326">
<ele>461.799988</ele>
<time>2015-10-30T12:38:07.000Z</time>
</trkpt>
<trkpt lat="30.9844272" lon="34.9034326">
<ele>462.000000</ele>
<time>2015-10-30T12:38:11.000Z</time>
</trkpt>
<trkpt lat="30.9844863" lon="34.9035168">
<ele>462.000000</ele>
<time>2015-10-30T12:38:15.000Z</time>
</trkpt>
<trkpt lat="30.9845557" lon="34.9036140">
<ele>462.000000</ele>
<time>2015-10-30T12:38:19.000Z</time>
</trkpt>
<trkpt lat="30.9846031" lon="34.9037127">
<ele>462.000000</ele>
<time>2015-10-30T12:38:23.000Z</time>
</trkpt>
<trkpt lat="30.9846477" lon="34.9038233">
<ele>462.399994</ele>
<time>2015-10-30T12:38:27.000Z</time>
</trkpt>
<trkpt lat="30.9846760" lon="34.9039628">
<ele>463.000031</ele>
<time>2015-10-30T12:38:31.000Z</time>
</trkpt>
<trkpt lat="30.9847020" lon="34.9040742">
<ele>463.600006</ele>
<time>2015-10-30T12:38:34.000Z</time>
</trkpt>
<trkpt lat="30.9847334" lon="34.9041779">
<ele>464.200012</ele>
<time>2015-10-30T12:38:37.000Z</time>
</trkpt>
<trkpt lat="30.9847541" lon="34.9042858">
<ele>464.600006</ele>
<time>2015-10-30T12:38:40.000Z</time>
</trkpt>
<trkpt lat="30.9847390" lon="34.9044023">
<ele>465.199982</ele>
<time>2015-10-30T12:38:43.000Z</time>
</trkpt>
<trkpt lat="30.9847188" lon="34.9045283">
<ele>465.799988</ele>
<time>2015-10-30T12:38:46.000Z</time>
</trkpt>
<trkpt lat="30.9846938" lon="34.9046570">
<ele>465.799988</ele>
<time>2015-10-30T12:38:49.000Z</time>
</trkpt>
<trkpt lat="30.9846445" lon="34.9047869">
<ele>465.799988</ele>
<time>2015-10-30T12:38:52.000Z</time>
</trkpt>
<trkpt lat="30.9846029" lon="34.9049154">
<ele>465.600006</ele>
<time>2015-10-30T12:38:55.000Z</time>
</trkpt>
<trkpt lat="30.9846027" lon="34.9050294">
<ele>465.600006</ele>
<time>2015-10-30T12:38:59.000Z</time>
</trkpt>
<trkpt lat="30.9846524" lon="34.9051370">
<ele>465.799988</ele>
<time>2015-10-30T12:39:04.000Z</time>
</trkpt>
<trkpt lat="30.9847286" lon="34.9052213">
<ele>465.999969</ele>
<time>2015-10-30T12:39:07.000Z</time>
</trkpt>
<trkpt lat="30.9848140" lon="34.9052821">
<ele>465.600006</ele>
<time>2015-10-30T12:39:10.000Z</time>
</trkpt>
<trkpt lat="30.9848960" lon="34.9053475">
<ele>465.199982</ele>
<time>2015-10-30T12:39:14.000Z</time>
</trkpt>
<trkpt lat="30.9849484" lon="34.9054299">
<ele>465.000000</ele>
<time>2015-10-30T12:39:18.000Z</time>
</trkpt>
<trkpt lat="30.9849987" lon="34.9055139">
<ele>464.600006</ele>
<time>2015-10-30T12:39:21.000Z</time>
</trkpt>
<trkpt lat="30.9850832" lon="34.9056225">
<ele>463.799957</ele>
<time>2015-10-30T12:39:24.000Z</time>
</trkpt>
<trkpt lat="30.9851554" lon="34.9056999">
<ele>463.399994</ele>
<time>2015-10-30T12:39:26.000Z</time>
</trkpt>
<trkpt lat="30.9852549" lon="34.9057815">
<ele>462.600006</ele>
<time>2015-10-30T12:39:29.000Z</time>
</trkpt>
<trkpt lat="30.9853664" lon="34.9058893">
<ele>461.799988</ele>
<time>2015-10-30T12:39:32.000Z</time>
</trkpt>
<trkpt lat="30.9854799" lon="34.9059819">
<ele>461.000000</ele>
<time>2015-10-30T12:39:34.000Z</time>
</trkpt>
<trkpt lat="30.9855946" lon="34.9060799">
<ele>460.399994</ele>
<time>2015-10-30T12:39:36.000Z</time>
</trkpt>
<trkpt lat="30.9856807" lon="34.9061659">
<ele>460.200012</ele>
<time>2015-10-30T12:39:38.000Z</time>
</trkpt>
<trkpt lat="30.9857767" lon="34.9062089">
<ele>460.200012</ele>
<time>2015-10-30T12:39:41.000Z</time>
</trkpt>
<trkpt lat="30.9858401" lon="34.9062795">
<ele>460.399994</ele>
<time>2015-10-30T12:39:44.000Z</time>
</trkpt>
<trkpt lat="30.9859070" lon="34.9063757">
<ele>460.800018</ele>
<time>2015-10-30T12:39:47.000Z</time>
</trkpt>
<trkpt lat="30.9860004" lon="34.9063966">
<ele>460.800018</ele>
<time>2015-10-30T12:39:50.000Z</time>
</trkpt>
<trkpt lat="30.9861045" lon="34.9064235">
<ele>461.000000</ele>
<time>2015-10-30T12:39:53.000Z</time>
</trkpt>
<trkpt lat="30.9862097" lon="34.9064746">
<ele>461.399994</ele>
<time>2015-10-30T12:39:56.000Z</time>
</trkpt>
<trkpt lat="30.9863221" lon="34.9065072">
<ele>461.600006</ele>
<time>2015-10-30T12:39:59.000Z</time>
</trkpt>
<trkpt lat="30.9864289" lon="34.9065718">
<ele>461.799988</ele>
<time>2015-10-30T12:40:02.000Z</time>
</trkpt>
<trkpt lat="30.9865264" lon="34.9066498">
<ele>461.399994</ele>
<time>2015-10-30T12:40:05.000Z</time>
</trkpt>
<trkpt lat="30.9866255" lon="34.9067115">
<ele>460.800018</ele>
<time>2015-10-30T12:40:08.000Z</time>
</trkpt>
<trkpt lat="30.9867156" lon="34.9067823">
<ele>460.600006</ele>
<time>2015-10-30T12:40:11.000Z</time>
</trkpt>
<trkpt lat="30.9867726" lon="34.9068801">
<ele>460.399994</ele>
<time>2015-10-30T12:40:14.000Z</time>
</trkpt>
<trkpt lat="30.9868057" lon="34.9069930">
<ele>460.399994</ele>
<time>2015-10-30T12:40:17.000Z</time>
</trkpt>
<trkpt lat="30.9868445" lon="34.9071078">
<ele>460.600006</ele>
<time>2015-10-30T12:40:20.000Z</time>
</trkpt>
<trkpt lat="30.9868902" lon="34.9072259">
<ele>460.800018</ele>
<time>2015-10-30T12:40:23.000Z</time>
</trkpt>
<trkpt lat="30.9869567" lon="34.9073337">
<ele>460.800018</ele>
<time>2015-10-30T12:40:26.000Z</time>
</trkpt>
<trkpt lat="30.9870364" lon="34.9074364">
<ele>460.600006</ele>
<time>2015-10-30T12:40:29.000Z</time>
</trkpt>
<trkpt lat="30.9871255" lon="34.9075510">
<ele>460.399994</ele>
<time>2015-10-30T12:40:32.000Z</time>
</trkpt>
<trkpt lat="30.9871851" lon="34.9076305">
<ele>460.399994</ele>
<time>2015-10-30T12:40:34.000Z</time>
</trkpt>
<trkpt lat="30.9872871" lon="34.9077272">
<ele>460.600006</ele>
<time>2015-10-30T12:40:37.000Z</time>
</trkpt>
<trkpt lat="30.9873609" lon="34.9077929">
<ele>461.000000</ele>
<time>2015-10-30T12:40:39.000Z</time>
</trkpt>
<trkpt lat="30.9874439" lon="34.9078631">
<ele>461.600006</ele>
<time>2015-10-30T12:40:41.000Z</time>
</trkpt>
<trkpt lat="30.9875374" lon="34.9079406">
<ele>462.000000</ele>
<time>2015-10-30T12:40:43.000Z</time>
</trkpt>
<trkpt lat="30.9876446" lon="34.9080193">
<ele>462.399994</ele>
<time>2015-10-30T12:40:45.000Z</time>
</trkpt>
<trkpt lat="30.9877484" lon="34.9080888">
<ele>462.799988</ele>
<time>2015-10-30T12:40:47.000Z</time>
</trkpt>
<trkpt lat="30.9878538" lon="34.9081630">
<ele>463.200012</ele>
<time>2015-10-30T12:40:50.000Z</time>
</trkpt>
<trkpt lat="30.9879401" lon="34.9082209">
<ele>463.399994</ele>
<time>2015-10-30T12:40:53.000Z</time>
</trkpt>
<trkpt lat="30.9880306" lon="34.9082783">
<ele>463.799957</ele>
<time>2015-10-30T12:40:56.000Z</time>
</trkpt>
<trkpt lat="30.9881243" lon="34.9083516">
<ele>464.000000</ele>
<time>2015-10-30T12:40:59.000Z</time>
</trkpt>
<trkpt lat="30.9882234" lon="34.9084366">
<ele>463.799957</ele>
<time>2015-10-30T12:41:02.000Z</time>
</trkpt>
<trkpt lat="30.9883271" lon="34.9085290">
<ele>463.799957</ele>
<time>2015-10-30T12:41:05.000Z</time>
</trkpt>
<trkpt lat="30.9884331" lon="34.9086161">
<ele>463.600006</ele>
<time>2015-10-30T12:41:08.000Z</time>
</trkpt>
<trkpt lat="30.9885452" lon="34.9086952">
<ele>463.399994</ele>
<time>2015-10-30T12:41:11.000Z</time>
</trkpt>
<trkpt lat="30.9886612" lon="34.9087606">
<ele>463.200012</ele>
<time>2015-10-30T12:41:14.000Z</time>
</trkpt>
<trkpt lat="30.9887734" lon="34.9088340">
<ele>462.799988</ele>
<time>2015-10-30T12:41:17.000Z</time>
</trkpt>
<trkpt lat="30.9888927" lon="34.9089031">
<ele>462.399994</ele>
<time>2015-10-30T12:41:20.000Z</time>
</trkpt>
<trkpt lat="30.9889728" lon="34.9089559">
<ele>462.200043</ele>
<time>2015-10-30T12:41:22.000Z</time>
</trkpt>
<trkpt lat="30.9890536" lon="34.9090099">
<ele>461.799988</ele>
<time>2015-10-30T12:41:24.000Z</time>
</trkpt>
<trkpt lat="30.9891758" lon="34.9090897">
<ele>461.399994</ele>
<time>2015-10-30T12:41:27.000Z</time>
</trkpt>
<trkpt lat="30.9892577" lon="34.9091483">
<ele>461.200012</ele>
<time>2015-10-30T12:41:29.000Z</time>
</trkpt>
<trkpt lat="30.9893436" lon="34.9092056">
<ele>460.800018</ele>
<time>2015-10-30T12:41:31.000Z</time>
</trkpt>
<trkpt lat="30.9894318" lon="34.9092572">
<ele>460.399994</ele>
<time>2015-10-30T12:41:33.000Z</time>
</trkpt>
<trkpt lat="30.9895184" lon="34.9093043">
<ele>460.200012</ele>
<time>2015-10-30T12:41:35.000Z</time>
</trkpt>
<trkpt lat="30.9896398" lon="34.9093746">
<ele>459.600006</ele>
<time>2015-10-30T12:41:38.000Z</time>
</trkpt>
<trkpt lat="30.9897459" lon="34.9094466">
<ele>459.000000</ele>
<time>2015-10-30T12:41:41.000Z</time>
</trkpt>
<trkpt lat="30.9898427" lon="34.9095182">
<ele>459.000000</ele>
<time>2015-10-30T12:41:44.000Z</time>
</trkpt>
<trkpt lat="30.9899515" lon="34.9095894">
<ele>459.000000</ele>
<time>2015-10-30T12:41:47.000Z</time>
</trkpt>
<trkpt lat="30.9900525" lon="34.9096613">
<ele>459.200012</ele>
<time>2015-10-30T12:41:50.000Z</time>
</trkpt>
<trkpt lat="30.9901630" lon="34.9097314">
<ele>459.399963</ele>
<time>2015-10-30T12:41:53.000Z</time>
</trkpt>
<trkpt lat="30.9902395" lon="34.9097993">
<ele>459.600006</ele>
<time>2015-10-30T12:41:55.000Z</time>
</trkpt>
<trkpt lat="30.9902884" lon="34.9098983">
<ele>459.799988</ele>
<time>2015-10-30T12:41:57.000Z</time>
</trkpt>
<trkpt lat="30.9902923" lon="34.9100059">
<ele>460.000000</ele>
<time>2015-10-30T12:41:59.000Z</time>
</trkpt>
<trkpt lat="30.9902786" lon="34.9101481">
<ele>460.399994</ele>
<time>2015-10-30T12:42:02.000Z</time>
</trkpt>
<trkpt lat="30.9902793" lon="34.9102779">
<ele>461.000000</ele>
<time>2015-10-30T12:42:05.000Z</time>
</trkpt>
<trkpt lat="30.9902642" lon="34.9104084">
<ele>461.399994</ele>
<time>2015-10-30T12:42:08.000Z</time>
</trkpt>
<trkpt lat="30.9902373" lon="34.9105457">
<ele>461.600006</ele>
<time>2015-10-30T12:42:11.000Z</time>
</trkpt>
<trkpt lat="30.9901998" lon="34.9106854">
<ele>461.799988</ele>
<time>2015-10-30T12:42:14.000Z</time>
</trkpt>
<trkpt lat="30.9901492" lon="34.9108223">
<ele>462.000000</ele>
<time>2015-10-30T12:42:17.000Z</time>
</trkpt>
<trkpt lat="30.9901066" lon="34.9109660">
<ele>461.799988</ele>
<time>2015-10-30T12:42:20.000Z</time>
</trkpt>
<trkpt lat="30.9900543" lon="34.9111118">
<ele>461.600006</ele>
<time>2015-10-30T12:42:23.000Z</time>
</trkpt>
<trkpt lat="30.9899827" lon="34.9112395">
<ele>461.200012</ele>
<time>2015-10-30T12:42:26.000Z</time>
</trkpt>
<trkpt lat="30.9898787" lon="34.9113398">
<ele>461.000000</ele>
<time>2015-10-30T12:42:29.000Z</time>
</trkpt>
<trkpt lat="30.9898074" lon="34.9114107">
<ele>461.000000</ele>
<time>2015-10-30T12:42:31.000Z</time>
</trkpt>
<trkpt lat="30.9897502" lon="34.9115041">
<ele>461.000000</ele>
<time>2015-10-30T12:42:33.000Z</time>
</trkpt>
<trkpt lat="30.9897171" lon="34.9116126">
<ele>461.000000</ele>
<time>2015-10-30T12:42:35.000Z</time>
</trkpt>
<trkpt lat="30.9897151" lon="34.9117346">
<ele>461.000000</ele>
<time>2015-10-30T12:42:37.000Z</time>
</trkpt>
<trkpt lat="30.9897385" lon="34.9118597">
<ele>461.000000</ele>
<time>2015-10-30T12:42:39.000Z</time>
</trkpt>
<trkpt lat="30.9897734" lon="34.9119887">
<ele>461.000000</ele>
<time>2015-10-30T12:42:41.000Z</time>
</trkpt>
<trkpt lat="30.9898032" lon="34.9121142">
<ele>461.000000</ele>
<time>2015-10-30T12:42:43.000Z</time>
</trkpt>
<trkpt lat="30.9898122" lon="34.9122417">
<ele>461.399994</ele>
<time>2015-10-30T12:42:45.000Z</time>
</trkpt>
<trkpt lat="30.9898018" lon="34.9123554">
<ele>462.000000</ele>
<time>2015-10-30T12:42:47.000Z</time>
</trkpt>
<trkpt lat="30.9897827" lon="34.9124977">
<ele>462.399994</ele>
<time>2015-10-30T12:42:50.000Z</time>
</trkpt>
<trkpt lat="30.9897600" lon="34.9126123">
<ele>463.000031</ele>
<time>2015-10-30T12:42:53.000Z</time>
</trkpt>
<trkpt lat="30.9897157" lon="34.9126928">
<ele>463.399994</ele>
<time>2015-10-30T12:42:59.000Z</time>
</trkpt>
<trkpt lat="30.9896576" lon="34.9127941">
<ele>463.799957</ele>
<time>2015-10-30T12:43:06.000Z</time>
</trkpt>
<trkpt lat="30.9895825" lon="34.9128452">
<ele>464.000000</ele>
<time>2015-10-30T12:43:11.000Z</time>
</trkpt>
<trkpt lat="30.9894934" lon="34.9127762">
<ele>463.799957</ele>
<time>2015-10-30T12:43:17.000Z</time>
</trkpt>
<trkpt lat="30.9893916" lon="34.9127436">
<ele>463.799957</ele>
<time>2015-10-30T12:43:22.000Z</time>
</trkpt>
<trkpt lat="30.9893148" lon="34.9126858">
<ele>463.799957</ele>
<time>2015-10-30T12:43:27.000Z</time>
</trkpt>
<trkpt lat="30.9893093" lon="34.9125531">
<ele>463.600006</ele>
<time>2015-10-30T12:43:32.000Z</time>
</trkpt>
<trkpt lat="30.9892146" lon="34.9125118">
<ele>463.600006</ele>
<time>2015-10-30T12:43:37.000Z</time>
</trkpt>
<trkpt lat="30.9890961" lon="34.9124987">
<ele>463.600006</ele>
<time>2015-10-30T12:43:42.000Z</time>
</trkpt>
<trkpt lat="30.9889970" lon="34.9124986">
<ele>463.600006</ele>
<time>2015-10-30T12:43:46.000Z</time>
</trkpt>
<trkpt lat="30.9889441" lon="34.9124919">
<ele>463.600006</ele>
<time>2015-10-30T12:52:53.000Z</time>
</trkpt>
</trkseg>
</trk>
</gpx>
